<?xml version="1.0" encoding="UTF-8" standalone="no" ?>
<gpx xmlns="http://www.topografix.com/GPX/1/1" xmlns:xsi="http://www.w3.org/2001/XMLSchema-instance" xsi:schemaLocation="http://www.topografix.com/GPX/1/1 http://www.topografix.com/GPX/1/1/gpx.xsd" version="1.1" creator="VisuGPX - https://www.visugpx.com">
  <metadata>
    <name>sortie du dimanche 2 juillet 2017</name>
    <desc><![CDATA[Randonnée VTT des accros du vélo à Puchay (27) 35 kms]]></desc>
  </metadata>
  <trk>
    <name><![CDATA[sortie du dimanche 2 juillet 2017_1]]></name>
    <trkseg>
      <trkpt lat="49.34207" lon="1.53374">
        <ele>116.22689819336</ele>
        <time>2017-07-02T07:04:59.000Z</time>
      </trkpt>
      <trkpt lat="49.34206" lon="1.53374">
        <ele>116.21522521973</ele>
        <time>2017-07-02T07:05:34.000Z</time>
      </trkpt>
      <trkpt lat="49.34207" lon="1.53373">
        <ele>116.2135848999</ele>
        <time>2017-07-02T07:05:39.000Z</time>
      </trkpt>
      <trkpt lat="49.34207" lon="1.53371">
        <ele>116.21053314209</ele>
        <time>2017-07-02T07:05:42.000Z</time>
      </trkpt>
      <trkpt lat="49.34207" lon="1.5337">
        <ele>116.20680999756</ele>
        <time>2017-07-02T07:05:47.000Z</time>
      </trkpt>
      <trkpt lat="49.34208" lon="1.53368">
        <ele>116.19911193848</ele>
        <time>2017-07-02T07:05:50.000Z</time>
      </trkpt>
      <trkpt lat="49.34208" lon="1.53368">
        <ele>116.19911193848</ele>
        <time>2017-07-02T07:06:10.000Z</time>
      </trkpt>
      <trkpt lat="49.34209" lon="1.53366">
        <ele>116.19858551025</ele>
        <time>2017-07-02T07:06:36.000Z</time>
      </trkpt>
      <trkpt lat="49.34208" lon="1.53365">
        <ele>116.19077301025</ele>
        <time>2017-07-02T07:06:45.000Z</time>
      </trkpt>
      <trkpt lat="49.34207" lon="1.53366">
        <ele>116.1845703125</ele>
        <time>2017-07-02T07:06:47.000Z</time>
      </trkpt>
      <trkpt lat="49.34207" lon="1.53368">
        <ele>116.18273925781</ele>
        <time>2017-07-02T07:06:50.000Z</time>
      </trkpt>
      <trkpt lat="49.34208" lon="1.53369">
        <ele>116.18379211426</ele>
        <time>2017-07-02T07:06:53.000Z</time>
      </trkpt>
      <trkpt lat="49.34208" lon="1.53369">
        <ele>116.18379211426</ele>
        <time>2017-07-02T07:07:13.000Z</time>
      </trkpt>
      <trkpt lat="49.34209" lon="1.53367">
        <ele>116.18524169922</ele>
        <time>2017-07-02T07:07:24.000Z</time>
      </trkpt>
      <trkpt lat="49.34208" lon="1.53369">
        <ele>116.19348144531</ele>
        <time>2017-07-02T07:07:38.000Z</time>
      </trkpt>
      <trkpt lat="49.3421" lon="1.53368">
        <ele>116.20803070068</ele>
        <time>2017-07-02T07:07:56.000Z</time>
      </trkpt>
      <trkpt lat="49.3421" lon="1.53368">
        <ele>116.20803070068</ele>
        <time>2017-07-02T07:08:16.000Z</time>
      </trkpt>
      <trkpt lat="49.34209" lon="1.53368">
        <ele>116.21543121338</ele>
        <time>2017-07-02T07:08:17.000Z</time>
      </trkpt>
      <trkpt lat="49.34209" lon="1.53368">
        <ele>116.21543121338</ele>
        <time>2017-07-02T07:08:37.000Z</time>
      </trkpt>
      <trkpt lat="49.34209" lon="1.53369">
        <ele>116.22094726562</ele>
        <time>2017-07-02T07:08:47.000Z</time>
      </trkpt>
      <trkpt lat="49.34209" lon="1.53369">
        <ele>116.22094726562</ele>
        <time>2017-07-02T07:09:07.000Z</time>
      </trkpt>
      <trkpt lat="49.34207" lon="1.53368">
        <ele>116.21739196777</ele>
        <time>2017-07-02T07:09:33.000Z</time>
      </trkpt>
      <trkpt lat="49.34207" lon="1.53367">
        <ele>116.20975494385</ele>
        <time>2017-07-02T07:09:37.000Z</time>
      </trkpt>
      <trkpt lat="49.34206" lon="1.53365">
        <ele>116.19055175781</ele>
        <time>2017-07-02T07:09:54.000Z</time>
      </trkpt>
      <trkpt lat="49.34205" lon="1.53364">
        <ele>116.16957855225</ele>
        <time>2017-07-02T07:09:57.000Z</time>
      </trkpt>
      <trkpt lat="49.34204" lon="1.53365">
        <ele>116.14904785156</ele>
        <time>2017-07-02T07:10:01.000Z</time>
      </trkpt>
      <trkpt lat="49.34204" lon="1.53368">
        <ele>116.13600921631</ele>
        <time>2017-07-02T07:10:09.000Z</time>
      </trkpt>
      <trkpt lat="49.34205" lon="1.53366">
        <ele>116.12912750244</ele>
        <time>2017-07-02T07:10:12.000Z</time>
      </trkpt>
      <trkpt lat="49.34206" lon="1.53365">
        <ele>116.13134765625</ele>
        <time>2017-07-02T07:10:15.000Z</time>
      </trkpt>
      <trkpt lat="49.34208" lon="1.53365">
        <ele>116.14296722412</ele>
        <time>2017-07-02T07:10:25.000Z</time>
      </trkpt>
      <trkpt lat="49.34209" lon="1.53364">
        <ele>116.15740966797</ele>
        <time>2017-07-02T07:10:33.000Z</time>
      </trkpt>
      <trkpt lat="49.34209" lon="1.53365">
        <ele>116.17441558838</ele>
        <time>2017-07-02T07:10:41.000Z</time>
      </trkpt>
      <trkpt lat="49.34211" lon="1.53366">
        <ele>116.19563293457</ele>
        <time>2017-07-02T07:10:53.000Z</time>
      </trkpt>
      <trkpt lat="49.34214" lon="1.53369">
        <ele>116.22966003418</ele>
        <time>2017-07-02T07:10:56.000Z</time>
      </trkpt>
      <trkpt lat="49.34216" lon="1.53374">
        <ele>116.26957702637</ele>
        <time>2017-07-02T07:10:58.000Z</time>
      </trkpt>
      <trkpt lat="49.34216" lon="1.53369">
        <ele>116.30094146729</ele>
        <time>2017-07-02T07:11:01.000Z</time>
      </trkpt>
      <trkpt lat="49.34215" lon="1.53361">
        <ele>116.31797790527</ele>
        <time>2017-07-02T07:11:03.000Z</time>
      </trkpt>
      <trkpt lat="49.34214" lon="1.5335">
        <ele>116.31272888184</ele>
        <time>2017-07-02T07:11:06.000Z</time>
      </trkpt>
      <trkpt lat="49.34219" lon="1.53345">
        <ele>116.30727386475</ele>
        <time>2017-07-02T07:11:09.000Z</time>
      </trkpt>
      <trkpt lat="49.34224" lon="1.53341">
        <ele>116.3140411377</ele>
        <time>2017-07-02T07:11:12.000Z</time>
      </trkpt>
      <trkpt lat="49.3423" lon="1.53333">
        <ele>116.35115814209</ele>
        <time>2017-07-02T07:11:15.000Z</time>
      </trkpt>
      <trkpt lat="49.34238" lon="1.53327">
        <ele>116.43190765381</ele>
        <time>2017-07-02T07:11:18.000Z</time>
      </trkpt>
      <trkpt lat="49.34244" lon="1.53322">
        <ele>116.55905914307</ele>
        <time>2017-07-02T07:11:20.000Z</time>
      </trkpt>
      <trkpt lat="49.34254" lon="1.53317">
        <ele>116.720703125</ele>
        <time>2017-07-02T07:11:23.000Z</time>
      </trkpt>
      <trkpt lat="49.34258" lon="1.53317">
        <ele>116.88279724121</ele>
        <time>2017-07-02T07:11:25.000Z</time>
      </trkpt>
      <trkpt lat="49.34266" lon="1.53317">
        <ele>117.05810546875</ele>
        <time>2017-07-02T07:11:28.000Z</time>
      </trkpt>
      <trkpt lat="49.34271" lon="1.53316">
        <ele>117.23050689697</ele>
        <time>2017-07-02T07:11:30.000Z</time>
      </trkpt>
      <trkpt lat="49.34282" lon="1.53316">
        <ele>117.43006896973</ele>
        <time>2017-07-02T07:11:33.000Z</time>
      </trkpt>
      <trkpt lat="49.34292" lon="1.53317">
        <ele>117.63117980957</ele>
        <time>2017-07-02T07:11:36.000Z</time>
      </trkpt>
      <trkpt lat="49.34298" lon="1.53318">
        <ele>117.8401260376</ele>
        <time>2017-07-02T07:11:38.000Z</time>
      </trkpt>
      <trkpt lat="49.34303" lon="1.53319">
        <ele>118.0365447998</ele>
        <time>2017-07-02T07:11:40.000Z</time>
      </trkpt>
      <trkpt lat="49.34312" lon="1.53318">
        <ele>118.25051116943</ele>
        <time>2017-07-02T07:11:43.000Z</time>
      </trkpt>
      <trkpt lat="49.34319" lon="1.53314">
        <ele>118.44854736328</ele>
        <time>2017-07-02T07:11:45.000Z</time>
      </trkpt>
      <trkpt lat="49.34328" lon="1.53303">
        <ele>118.66706848145</ele>
        <time>2017-07-02T07:11:48.000Z</time>
      </trkpt>
      <trkpt lat="49.34333" lon="1.53296">
        <ele>118.89937591553</ele>
        <time>2017-07-02T07:11:50.000Z</time>
      </trkpt>
      <trkpt lat="49.34342" lon="1.53286">
        <ele>119.17343902588</ele>
        <time>2017-07-02T07:11:53.000Z</time>
      </trkpt>
      <trkpt lat="49.34351" lon="1.53277">
        <ele>119.47004699707</ele>
        <time>2017-07-02T07:11:56.000Z</time>
      </trkpt>
      <trkpt lat="49.34357" lon="1.5327">
        <ele>119.76821136475</ele>
        <time>2017-07-02T07:11:58.000Z</time>
      </trkpt>
      <trkpt lat="49.34366" lon="1.53262">
        <ele>120.05485534668</ele>
        <time>2017-07-02T07:12:01.000Z</time>
      </trkpt>
      <trkpt lat="49.34372" lon="1.53256">
        <ele>120.33950042725</ele>
        <time>2017-07-02T07:12:03.000Z</time>
      </trkpt>
      <trkpt lat="49.34381" lon="1.53248">
        <ele>120.61700439453</ele>
        <time>2017-07-02T07:12:06.000Z</time>
      </trkpt>
      <trkpt lat="49.3439" lon="1.53241">
        <ele>120.87409973145</ele>
        <time>2017-07-02T07:12:09.000Z</time>
      </trkpt>
      <trkpt lat="49.34396" lon="1.53236">
        <ele>121.12534332275</ele>
        <time>2017-07-02T07:12:11.000Z</time>
      </trkpt>
      <trkpt lat="49.34405" lon="1.5323">
        <ele>121.37473297119</ele>
        <time>2017-07-02T07:12:14.000Z</time>
      </trkpt>
      <trkpt lat="49.34414" lon="1.53224">
        <ele>121.6534576416</ele>
        <time>2017-07-02T07:12:17.000Z</time>
      </trkpt>
      <trkpt lat="49.3442" lon="1.53221">
        <ele>121.92407226562</ele>
        <time>2017-07-02T07:12:19.000Z</time>
      </trkpt>
      <trkpt lat="49.34427" lon="1.53214">
        <ele>122.21726989746</ele>
        <time>2017-07-02T07:12:22.000Z</time>
      </trkpt>
      <trkpt lat="49.34429" lon="1.53205">
        <ele>122.50913238525</ele>
        <time>2017-07-02T07:12:24.000Z</time>
      </trkpt>
      <trkpt lat="49.34429" lon="1.53195">
        <ele>122.77313232422</ele>
        <time>2017-07-02T07:12:26.000Z</time>
      </trkpt>
      <trkpt lat="49.34429" lon="1.53185">
        <ele>122.98941802979</ele>
        <time>2017-07-02T07:12:28.000Z</time>
      </trkpt>
      <trkpt lat="49.34426" lon="1.53174">
        <ele>123.16589355469</ele>
        <time>2017-07-02T07:12:31.000Z</time>
      </trkpt>
      <trkpt lat="49.34423" lon="1.53166">
        <ele>123.25168609619</ele>
        <time>2017-07-02T07:12:33.000Z</time>
      </trkpt>
      <trkpt lat="49.34416" lon="1.5315">
        <ele>123.19218444824</ele>
        <time>2017-07-02T07:12:36.000Z</time>
      </trkpt>
      <trkpt lat="49.34411" lon="1.53133">
        <ele>123.02294921875</ele>
        <time>2017-07-02T07:12:39.000Z</time>
      </trkpt>
      <trkpt lat="49.34409" lon="1.5312">
        <ele>122.78552246094</ele>
        <time>2017-07-02T07:12:41.000Z</time>
      </trkpt>
      <trkpt lat="49.34408" lon="1.531">
        <ele>122.48071289062</ele>
        <time>2017-07-02T07:12:44.000Z</time>
      </trkpt>
      <trkpt lat="49.34407" lon="1.53078">
        <ele>122.16152191162</ele>
        <time>2017-07-02T07:12:47.000Z</time>
      </trkpt>
      <trkpt lat="49.34406" lon="1.53057">
        <ele>121.98950195312</ele>
        <time>2017-07-02T07:12:50.000Z</time>
      </trkpt>
      <trkpt lat="49.34406" lon="1.53037">
        <ele>121.93333435059</ele>
        <time>2017-07-02T07:12:53.000Z</time>
      </trkpt>
      <trkpt lat="49.34406" lon="1.53024">
        <ele>121.94926452637</ele>
        <time>2017-07-02T07:12:55.000Z</time>
      </trkpt>
      <trkpt lat="49.34406" lon="1.53006">
        <ele>122.06221008301</ele>
        <time>2017-07-02T07:12:58.000Z</time>
      </trkpt>
      <trkpt lat="49.34406" lon="1.52994">
        <ele>122.24743652344</ele>
        <time>2017-07-02T07:13:00.000Z</time>
      </trkpt>
      <trkpt lat="49.34406" lon="1.52976">
        <ele>122.46846008301</ele>
        <time>2017-07-02T07:13:03.000Z</time>
      </trkpt>
      <trkpt lat="49.34406" lon="1.52957">
        <ele>122.73693847656</ele>
        <time>2017-07-02T07:13:06.000Z</time>
      </trkpt>
      <trkpt lat="49.34406" lon="1.52938">
        <ele>123.06539154053</ele>
        <time>2017-07-02T07:13:09.000Z</time>
      </trkpt>
      <trkpt lat="49.34406" lon="1.52918">
        <ele>123.43855285645</ele>
        <time>2017-07-02T07:13:12.000Z</time>
      </trkpt>
      <trkpt lat="49.34406" lon="1.52904">
        <ele>123.89512634277</ele>
        <time>2017-07-02T07:13:14.000Z</time>
      </trkpt>
      <trkpt lat="49.34407" lon="1.52883">
        <ele>124.48899078369</ele>
        <time>2017-07-02T07:13:17.000Z</time>
      </trkpt>
      <trkpt lat="49.34411" lon="1.52865">
        <ele>125.21073913574</ele>
        <time>2017-07-02T07:13:20.000Z</time>
      </trkpt>
      <trkpt lat="49.34415" lon="1.52854">
        <ele>126.01567077637</ele>
        <time>2017-07-02T07:13:22.000Z</time>
      </trkpt>
      <trkpt lat="49.34424" lon="1.5284">
        <ele>126.93257141113</ele>
        <time>2017-07-02T07:13:25.000Z</time>
      </trkpt>
      <trkpt lat="49.3443" lon="1.52835">
        <ele>127.79764556885</ele>
        <time>2017-07-02T07:13:27.000Z</time>
      </trkpt>
      <trkpt lat="49.34436" lon="1.52832">
        <ele>128.49984741211</ele>
        <time>2017-07-02T07:13:29.000Z</time>
      </trkpt>
      <trkpt lat="49.34447" lon="1.52827">
        <ele>129.04244995117</ele>
        <time>2017-07-02T07:13:32.000Z</time>
      </trkpt>
      <trkpt lat="49.34453" lon="1.52823">
        <ele>129.45162963867</ele>
        <time>2017-07-02T07:13:34.000Z</time>
      </trkpt>
      <trkpt lat="49.34459" lon="1.52819">
        <ele>129.6988067627</ele>
        <time>2017-07-02T07:13:36.000Z</time>
      </trkpt>
      <trkpt lat="49.34465" lon="1.52813">
        <ele>129.90957641602</ele>
        <time>2017-07-02T07:13:38.000Z</time>
      </trkpt>
      <trkpt lat="49.34472" lon="1.52806">
        <ele>130.12391662598</ele>
        <time>2017-07-02T07:13:41.000Z</time>
      </trkpt>
      <trkpt lat="49.34477" lon="1.52803">
        <ele>130.31867980957</ele>
        <time>2017-07-02T07:13:43.000Z</time>
      </trkpt>
      <trkpt lat="49.34488" lon="1.52795">
        <ele>130.55577087402</ele>
        <time>2017-07-02T07:13:46.000Z</time>
      </trkpt>
      <trkpt lat="49.34499" lon="1.52788">
        <ele>130.83953857422</ele>
        <time>2017-07-02T07:13:49.000Z</time>
      </trkpt>
      <trkpt lat="49.34507" lon="1.52783">
        <ele>131.17936706543</ele>
        <time>2017-07-02T07:13:51.000Z</time>
      </trkpt>
      <trkpt lat="49.34514" lon="1.52778">
        <ele>131.56694030762</ele>
        <time>2017-07-02T07:13:53.000Z</time>
      </trkpt>
      <trkpt lat="49.34523" lon="1.52768">
        <ele>132.06143188477</ele>
        <time>2017-07-02T07:13:56.000Z</time>
      </trkpt>
      <trkpt lat="49.34529" lon="1.52761">
        <ele>132.56356811523</ele>
        <time>2017-07-02T07:13:58.000Z</time>
      </trkpt>
      <trkpt lat="49.34538" lon="1.5275">
        <ele>133.11608886719</ele>
        <time>2017-07-02T07:14:01.000Z</time>
      </trkpt>
      <trkpt lat="49.34545" lon="1.52742">
        <ele>133.67385864258</ele>
        <time>2017-07-02T07:14:03.000Z</time>
      </trkpt>
      <trkpt lat="49.34554" lon="1.52732">
        <ele>134.27365112305</ele>
        <time>2017-07-02T07:14:06.000Z</time>
      </trkpt>
      <trkpt lat="49.34561" lon="1.52725">
        <ele>134.8271484375</ele>
        <time>2017-07-02T07:14:08.000Z</time>
      </trkpt>
      <trkpt lat="49.34569" lon="1.52714">
        <ele>135.41870117188</ele>
        <time>2017-07-02T07:14:11.000Z</time>
      </trkpt>
      <trkpt lat="49.34578" lon="1.52703">
        <ele>136.00341796875</ele>
        <time>2017-07-02T07:14:14.000Z</time>
      </trkpt>
      <trkpt lat="49.34583" lon="1.52697">
        <ele>136.57601928711</ele>
        <time>2017-07-02T07:14:16.000Z</time>
      </trkpt>
      <trkpt lat="49.34589" lon="1.52689">
        <ele>137.06900024414</ele>
        <time>2017-07-02T07:14:18.000Z</time>
      </trkpt>
      <trkpt lat="49.34595" lon="1.52681">
        <ele>137.5291595459</ele>
        <time>2017-07-02T07:14:20.000Z</time>
      </trkpt>
      <trkpt lat="49.34602" lon="1.5267">
        <ele>137.94448852539</ele>
        <time>2017-07-02T07:14:23.000Z</time>
      </trkpt>
      <trkpt lat="49.34611" lon="1.52661">
        <ele>138.30038452148</ele>
        <time>2017-07-02T07:14:26.000Z</time>
      </trkpt>
      <trkpt lat="49.34619" lon="1.5265">
        <ele>138.62767028809</ele>
        <time>2017-07-02T07:14:29.000Z</time>
      </trkpt>
      <trkpt lat="49.34624" lon="1.52644">
        <ele>138.93045043945</ele>
        <time>2017-07-02T07:14:31.000Z</time>
      </trkpt>
      <trkpt lat="49.34629" lon="1.52637">
        <ele>139.20671081543</ele>
        <time>2017-07-02T07:14:34.000Z</time>
      </trkpt>
      <trkpt lat="49.34637" lon="1.52627">
        <ele>139.4619140625</ele>
        <time>2017-07-02T07:14:36.000Z</time>
      </trkpt>
      <trkpt lat="49.34643" lon="1.5262">
        <ele>139.6904296875</ele>
        <time>2017-07-02T07:14:38.000Z</time>
      </trkpt>
      <trkpt lat="49.34651" lon="1.52609">
        <ele>139.921875</ele>
        <time>2017-07-02T07:14:41.000Z</time>
      </trkpt>
      <trkpt lat="49.3466" lon="1.52598">
        <ele>140.1767578125</ele>
        <time>2017-07-02T07:14:44.000Z</time>
      </trkpt>
      <trkpt lat="49.34666" lon="1.5259">
        <ele>140.4404296875</ele>
        <time>2017-07-02T07:14:46.000Z</time>
      </trkpt>
      <trkpt lat="49.34675" lon="1.52579">
        <ele>140.73220825195</ele>
        <time>2017-07-02T07:14:49.000Z</time>
      </trkpt>
      <trkpt lat="49.34684" lon="1.52567">
        <ele>141.10121154785</ele>
        <time>2017-07-02T07:14:52.000Z</time>
      </trkpt>
      <trkpt lat="49.34689" lon="1.52559">
        <ele>141.49150085449</ele>
        <time>2017-07-02T07:14:54.000Z</time>
      </trkpt>
      <trkpt lat="49.34697" lon="1.52548">
        <ele>141.9348449707</ele>
        <time>2017-07-02T07:14:57.000Z</time>
      </trkpt>
      <trkpt lat="49.34706" lon="1.52538">
        <ele>142.44757080078</ele>
        <time>2017-07-02T07:15:00.000Z</time>
      </trkpt>
      <trkpt lat="49.34712" lon="1.5253">
        <ele>142.95080566406</ele>
        <time>2017-07-02T07:15:02.000Z</time>
      </trkpt>
      <trkpt lat="49.3472" lon="1.52518">
        <ele>143.45190429688</ele>
        <time>2017-07-02T07:15:05.000Z</time>
      </trkpt>
      <trkpt lat="49.34726" lon="1.52511">
        <ele>143.94995117188</ele>
        <time>2017-07-02T07:15:07.000Z</time>
      </trkpt>
      <trkpt lat="49.34732" lon="1.52503">
        <ele>144.41265869141</ele>
        <time>2017-07-02T07:15:09.000Z</time>
      </trkpt>
      <trkpt lat="49.3474" lon="1.52492">
        <ele>144.81994628906</ele>
        <time>2017-07-02T07:15:12.000Z</time>
      </trkpt>
      <trkpt lat="49.34749" lon="1.5248">
        <ele>145.18218994141</ele>
        <time>2017-07-02T07:15:15.000Z</time>
      </trkpt>
      <trkpt lat="49.34755" lon="1.52473">
        <ele>145.42698669434</ele>
        <time>2017-07-02T07:15:17.000Z</time>
      </trkpt>
      <trkpt lat="49.34761" lon="1.52466">
        <ele>145.59107971191</ele>
        <time>2017-07-02T07:15:19.000Z</time>
      </trkpt>
      <trkpt lat="49.3477" lon="1.52455">
        <ele>145.6798248291</ele>
        <time>2017-07-02T07:15:22.000Z</time>
      </trkpt>
      <trkpt lat="49.34779" lon="1.52443">
        <ele>145.72689819336</ele>
        <time>2017-07-02T07:15:25.000Z</time>
      </trkpt>
      <trkpt lat="49.34788" lon="1.52431">
        <ele>145.76676940918</ele>
        <time>2017-07-02T07:15:28.000Z</time>
      </trkpt>
      <trkpt lat="49.34793" lon="1.52423">
        <ele>145.83139038086</ele>
        <time>2017-07-02T07:15:30.000Z</time>
      </trkpt>
      <trkpt lat="49.34805" lon="1.52411">
        <ele>145.96578979492</ele>
        <time>2017-07-02T07:15:33.000Z</time>
      </trkpt>
      <trkpt lat="49.34816" lon="1.52398">
        <ele>146.17631530762</ele>
        <time>2017-07-02T07:15:36.000Z</time>
      </trkpt>
      <trkpt lat="49.34825" lon="1.52385">
        <ele>146.44569396973</ele>
        <time>2017-07-02T07:15:39.000Z</time>
      </trkpt>
      <trkpt lat="49.34831" lon="1.52377">
        <ele>146.74368286133</ele>
        <time>2017-07-02T07:15:41.000Z</time>
      </trkpt>
      <trkpt lat="49.3484" lon="1.52365">
        <ele>147.08224487305</ele>
        <time>2017-07-02T07:15:44.000Z</time>
      </trkpt>
      <trkpt lat="49.34848" lon="1.52352">
        <ele>147.40821838379</ele>
        <time>2017-07-02T07:15:47.000Z</time>
      </trkpt>
      <trkpt lat="49.34858" lon="1.52341">
        <ele>147.70217895508</ele>
        <time>2017-07-02T07:15:50.000Z</time>
      </trkpt>
      <trkpt lat="49.34865" lon="1.52334">
        <ele>147.94938659668</ele>
        <time>2017-07-02T07:15:52.000Z</time>
      </trkpt>
      <trkpt lat="49.34874" lon="1.52321">
        <ele>148.19473266602</ele>
        <time>2017-07-02T07:15:55.000Z</time>
      </trkpt>
      <trkpt lat="49.34884" lon="1.52309">
        <ele>148.42965698242</ele>
        <time>2017-07-02T07:15:58.000Z</time>
      </trkpt>
      <trkpt lat="49.34893" lon="1.52296">
        <ele>148.66253662109</ele>
        <time>2017-07-02T07:16:01.000Z</time>
      </trkpt>
      <trkpt lat="49.34903" lon="1.52284">
        <ele>148.90139770508</ele>
        <time>2017-07-02T07:16:04.000Z</time>
      </trkpt>
      <trkpt lat="49.34909" lon="1.52276">
        <ele>149.1455078125</ele>
        <time>2017-07-02T07:16:06.000Z</time>
      </trkpt>
      <trkpt lat="49.34916" lon="1.52268">
        <ele>149.37246704102</ele>
        <time>2017-07-02T07:16:08.000Z</time>
      </trkpt>
      <trkpt lat="49.34927" lon="1.52258">
        <ele>149.52732849121</ele>
        <time>2017-07-02T07:16:11.000Z</time>
      </trkpt>
      <trkpt lat="49.34934" lon="1.52251">
        <ele>149.61080932617</ele>
        <time>2017-07-02T07:16:13.000Z</time>
      </trkpt>
      <trkpt lat="49.34947" lon="1.52239">
        <ele>149.62394714355</ele>
        <time>2017-07-02T07:16:16.000Z</time>
      </trkpt>
      <trkpt lat="49.34955" lon="1.52231">
        <ele>149.58993530273</ele>
        <time>2017-07-02T07:16:18.000Z</time>
      </trkpt>
      <trkpt lat="49.34965" lon="1.52222">
        <ele>149.50106811523</ele>
        <time>2017-07-02T07:16:20.000Z</time>
      </trkpt>
      <trkpt lat="49.34974" lon="1.52213">
        <ele>149.40507507324</ele>
        <time>2017-07-02T07:16:22.000Z</time>
      </trkpt>
      <trkpt lat="49.34984" lon="1.52203">
        <ele>149.30168151855</ele>
        <time>2017-07-02T07:16:24.000Z</time>
      </trkpt>
      <trkpt lat="49.34999" lon="1.52191">
        <ele>149.1477355957</ele>
        <time>2017-07-02T07:16:27.000Z</time>
      </trkpt>
      <trkpt lat="49.3501" lon="1.52181">
        <ele>148.9660949707</ele>
        <time>2017-07-02T07:16:29.000Z</time>
      </trkpt>
      <trkpt lat="49.35027" lon="1.52166">
        <ele>148.70567321777</ele>
        <time>2017-07-02T07:16:32.000Z</time>
      </trkpt>
      <trkpt lat="49.35038" lon="1.52156">
        <ele>148.35688781738</ele>
        <time>2017-07-02T07:16:34.000Z</time>
      </trkpt>
      <trkpt lat="49.35049" lon="1.52146">
        <ele>147.92292785645</ele>
        <time>2017-07-02T07:16:36.000Z</time>
      </trkpt>
      <trkpt lat="49.3506" lon="1.52135">
        <ele>147.44747924805</ele>
        <time>2017-07-02T07:16:38.000Z</time>
      </trkpt>
      <trkpt lat="49.35072" lon="1.52124">
        <ele>146.91177368164</ele>
        <time>2017-07-02T07:16:40.000Z</time>
      </trkpt>
      <trkpt lat="49.35083" lon="1.52112">
        <ele>146.3765411377</ele>
        <time>2017-07-02T07:16:42.000Z</time>
      </trkpt>
      <trkpt lat="49.35103" lon="1.52096">
        <ele>145.82150268555</ele>
        <time>2017-07-02T07:16:45.000Z</time>
      </trkpt>
      <trkpt lat="49.35118" lon="1.52089">
        <ele>145.29054260254</ele>
        <time>2017-07-02T07:16:47.000Z</time>
      </trkpt>
      <trkpt lat="49.35136" lon="1.52101">
        <ele>144.80969238281</ele>
        <time>2017-07-02T07:16:50.000Z</time>
      </trkpt>
      <trkpt lat="49.35143" lon="1.52116">
        <ele>144.43437194824</ele>
        <time>2017-07-02T07:16:52.000Z</time>
      </trkpt>
      <trkpt lat="49.3515" lon="1.52132">
        <ele>144.15982055664</ele>
        <time>2017-07-02T07:16:54.000Z</time>
      </trkpt>
      <trkpt lat="49.3516" lon="1.52157">
        <ele>144.03063964844</ele>
        <time>2017-07-02T07:16:57.000Z</time>
      </trkpt>
      <trkpt lat="49.35168" lon="1.52172">
        <ele>143.99499511719</ele>
        <time>2017-07-02T07:16:59.000Z</time>
      </trkpt>
      <trkpt lat="49.35181" lon="1.52172">
        <ele>144.01620483398</ele>
        <time>2017-07-02T07:17:01.000Z</time>
      </trkpt>
      <trkpt lat="49.35201" lon="1.5216">
        <ele>144.00633239746</ele>
        <time>2017-07-02T07:17:04.000Z</time>
      </trkpt>
      <trkpt lat="49.35214" lon="1.5215">
        <ele>143.97163391113</ele>
        <time>2017-07-02T07:17:06.000Z</time>
      </trkpt>
      <trkpt lat="49.35233" lon="1.52134">
        <ele>143.88748168945</ele>
        <time>2017-07-02T07:17:09.000Z</time>
      </trkpt>
      <trkpt lat="49.35246" lon="1.52124">
        <ele>143.77474975586</ele>
        <time>2017-07-02T07:17:11.000Z</time>
      </trkpt>
      <trkpt lat="49.35267" lon="1.52116">
        <ele>143.6273651123</ele>
        <time>2017-07-02T07:17:14.000Z</time>
      </trkpt>
      <trkpt lat="49.35288" lon="1.52113">
        <ele>143.48287963867</ele>
        <time>2017-07-02T07:17:17.000Z</time>
      </trkpt>
      <trkpt lat="49.35306" lon="1.52099">
        <ele>143.33503723145</ele>
        <time>2017-07-02T07:17:20.000Z</time>
      </trkpt>
      <trkpt lat="49.3531" lon="1.5208">
        <ele>143.20022583008</ele>
        <time>2017-07-02T07:17:22.000Z</time>
      </trkpt>
      <trkpt lat="49.35312" lon="1.5206">
        <ele>143.01724243164</ele>
        <time>2017-07-02T07:17:24.000Z</time>
      </trkpt>
      <trkpt lat="49.35315" lon="1.52033">
        <ele>142.78002929688</ele>
        <time>2017-07-02T07:17:27.000Z</time>
      </trkpt>
      <trkpt lat="49.35318" lon="1.52015">
        <ele>142.51736450195</ele>
        <time>2017-07-02T07:17:29.000Z</time>
      </trkpt>
      <trkpt lat="49.35325" lon="1.51991">
        <ele>142.2836151123</ele>
        <time>2017-07-02T07:17:32.000Z</time>
      </trkpt>
      <trkpt lat="49.35337" lon="1.51974">
        <ele>142.18814086914</ele>
        <time>2017-07-02T07:17:35.000Z</time>
      </trkpt>
      <trkpt lat="49.35352" lon="1.51979">
        <ele>142.28202819824</ele>
        <time>2017-07-02T07:17:38.000Z</time>
      </trkpt>
      <trkpt lat="49.35368" lon="1.51989">
        <ele>142.58862304688</ele>
        <time>2017-07-02T07:17:41.000Z</time>
      </trkpt>
      <trkpt lat="49.35381" lon="1.51999">
        <ele>143.07249450684</ele>
        <time>2017-07-02T07:17:44.000Z</time>
      </trkpt>
      <trkpt lat="49.35391" lon="1.52005">
        <ele>143.65112304688</ele>
        <time>2017-07-02T07:17:46.000Z</time>
      </trkpt>
      <trkpt lat="49.35406" lon="1.5201">
        <ele>144.26055908203</ele>
        <time>2017-07-02T07:17:49.000Z</time>
      </trkpt>
      <trkpt lat="49.35416" lon="1.52011">
        <ele>144.84330749512</ele>
        <time>2017-07-02T07:17:51.000Z</time>
      </trkpt>
      <trkpt lat="49.35429" lon="1.52012">
        <ele>145.36982727051</ele>
        <time>2017-07-02T07:17:54.000Z</time>
      </trkpt>
      <trkpt lat="49.35443" lon="1.52013">
        <ele>145.83499145508</ele>
        <time>2017-07-02T07:17:57.000Z</time>
      </trkpt>
      <trkpt lat="49.35457" lon="1.52015">
        <ele>146.27296447754</ele>
        <time>2017-07-02T07:18:00.000Z</time>
      </trkpt>
      <trkpt lat="49.35473" lon="1.52014">
        <ele>146.6408996582</ele>
        <time>2017-07-02T07:18:03.000Z</time>
      </trkpt>
      <trkpt lat="49.35484" lon="1.52017">
        <ele>146.97265625</ele>
        <time>2017-07-02T07:18:06.000Z</time>
      </trkpt>
      <trkpt lat="49.35498" lon="1.5202">
        <ele>147.302734375</ele>
        <time>2017-07-02T07:18:09.000Z</time>
      </trkpt>
      <trkpt lat="49.35506" lon="1.52021">
        <ele>147.62596130371</ele>
        <time>2017-07-02T07:18:11.000Z</time>
      </trkpt>
      <trkpt lat="49.35514" lon="1.52019">
        <ele>147.94161987305</ele>
        <time>2017-07-02T07:18:13.000Z</time>
      </trkpt>
      <trkpt lat="49.35526" lon="1.52015">
        <ele>148.27133178711</ele>
        <time>2017-07-02T07:18:16.000Z</time>
      </trkpt>
      <trkpt lat="49.35538" lon="1.52011">
        <ele>148.63195800781</ele>
        <time>2017-07-02T07:18:19.000Z</time>
      </trkpt>
      <trkpt lat="49.35546" lon="1.52008">
        <ele>148.98568725586</ele>
        <time>2017-07-02T07:18:21.000Z</time>
      </trkpt>
      <trkpt lat="49.35558" lon="1.51998">
        <ele>149.34782409668</ele>
        <time>2017-07-02T07:18:24.000Z</time>
      </trkpt>
      <trkpt lat="49.35568" lon="1.5198">
        <ele>149.64015197754</ele>
        <time>2017-07-02T07:18:27.000Z</time>
      </trkpt>
      <trkpt lat="49.3558" lon="1.51962">
        <ele>149.83679199219</ele>
        <time>2017-07-02T07:18:30.000Z</time>
      </trkpt>
      <trkpt lat="49.35589" lon="1.51952">
        <ele>149.95292663574</ele>
        <time>2017-07-02T07:18:32.000Z</time>
      </trkpt>
      <trkpt lat="49.35601" lon="1.51937">
        <ele>150.02676391602</ele>
        <time>2017-07-02T07:18:35.000Z</time>
      </trkpt>
      <trkpt lat="49.35609" lon="1.51928">
        <ele>150.05244445801</ele>
        <time>2017-07-02T07:18:37.000Z</time>
      </trkpt>
      <trkpt lat="49.35622" lon="1.51918">
        <ele>150.13745117188</ele>
        <time>2017-07-02T07:18:40.000Z</time>
      </trkpt>
      <trkpt lat="49.35631" lon="1.51912">
        <ele>150.28840637207</ele>
        <time>2017-07-02T07:18:42.000Z</time>
      </trkpt>
      <trkpt lat="49.35639" lon="1.51907">
        <ele>150.50247192383</ele>
        <time>2017-07-02T07:18:44.000Z</time>
      </trkpt>
      <trkpt lat="49.35646" lon="1.51902">
        <ele>150.76588439941</ele>
        <time>2017-07-02T07:18:46.000Z</time>
      </trkpt>
      <trkpt lat="49.35656" lon="1.51894">
        <ele>151.10266113281</ele>
        <time>2017-07-02T07:18:49.000Z</time>
      </trkpt>
      <trkpt lat="49.35667" lon="1.51887">
        <ele>151.48384094238</ele>
        <time>2017-07-02T07:18:52.000Z</time>
      </trkpt>
      <trkpt lat="49.35674" lon="1.51882">
        <ele>151.89053344727</ele>
        <time>2017-07-02T07:18:54.000Z</time>
      </trkpt>
      <trkpt lat="49.3568" lon="1.51878">
        <ele>152.31484985352</ele>
        <time>2017-07-02T07:18:56.000Z</time>
      </trkpt>
      <trkpt lat="49.35691" lon="1.5187">
        <ele>152.80688476562</ele>
        <time>2017-07-02T07:18:59.000Z</time>
      </trkpt>
      <trkpt lat="49.35698" lon="1.51865">
        <ele>153.29835510254</ele>
        <time>2017-07-02T07:19:01.000Z</time>
      </trkpt>
      <trkpt lat="49.35707" lon="1.51858">
        <ele>153.83329772949</ele>
        <time>2017-07-02T07:19:04.000Z</time>
      </trkpt>
      <trkpt lat="49.35716" lon="1.5185">
        <ele>154.40803527832</ele>
        <time>2017-07-02T07:19:07.000Z</time>
      </trkpt>
      <trkpt lat="49.35723" lon="1.51845">
        <ele>154.99337768555</ele>
        <time>2017-07-02T07:19:09.000Z</time>
      </trkpt>
      <trkpt lat="49.35733" lon="1.51837">
        <ele>155.60305786133</ele>
        <time>2017-07-02T07:19:12.000Z</time>
      </trkpt>
      <trkpt lat="49.35744" lon="1.51829">
        <ele>156.27430725098</ele>
        <time>2017-07-02T07:19:15.000Z</time>
      </trkpt>
      <trkpt lat="49.35752" lon="1.51823">
        <ele>156.88861083984</ele>
        <time>2017-07-02T07:19:17.000Z</time>
      </trkpt>
      <trkpt lat="49.35763" lon="1.51814">
        <ele>157.48849487305</ele>
        <time>2017-07-02T07:19:20.000Z</time>
      </trkpt>
      <trkpt lat="49.35773" lon="1.51806">
        <ele>158.08958435059</ele>
        <time>2017-07-02T07:19:23.000Z</time>
      </trkpt>
      <trkpt lat="49.3578" lon="1.51799">
        <ele>158.59257507324</ele>
        <time>2017-07-02T07:19:25.000Z</time>
      </trkpt>
      <trkpt lat="49.35785" lon="1.5179">
        <ele>158.99609375</ele>
        <time>2017-07-02T07:19:27.000Z</time>
      </trkpt>
      <trkpt lat="49.35794" lon="1.51777">
        <ele>159.40234375</ele>
        <time>2017-07-02T07:19:30.000Z</time>
      </trkpt>
      <trkpt lat="49.35801" lon="1.51768">
        <ele>159.7578125</ele>
        <time>2017-07-02T07:19:32.000Z</time>
      </trkpt>
      <trkpt lat="49.35807" lon="1.5176">
        <ele>160.07421875</ele>
        <time>2017-07-02T07:19:34.000Z</time>
      </trkpt>
      <trkpt lat="49.35814" lon="1.51752">
        <ele>160.3984375</ele>
        <time>2017-07-02T07:19:36.000Z</time>
      </trkpt>
      <trkpt lat="49.35823" lon="1.51739">
        <ele>160.71784973145</ele>
        <time>2017-07-02T07:19:39.000Z</time>
      </trkpt>
      <trkpt lat="49.35831" lon="1.51731">
        <ele>160.97760009766</ele>
        <time>2017-07-02T07:19:41.000Z</time>
      </trkpt>
      <trkpt lat="49.35839" lon="1.51713">
        <ele>161.11781311035</ele>
        <time>2017-07-02T07:19:44.000Z</time>
      </trkpt>
      <trkpt lat="49.35844" lon="1.51693">
        <ele>161.10018920898</ele>
        <time>2017-07-02T07:19:47.000Z</time>
      </trkpt>
      <trkpt lat="49.3585" lon="1.51684">
        <ele>160.97296142578</ele>
        <time>2017-07-02T07:19:49.000Z</time>
      </trkpt>
      <trkpt lat="49.35859" lon="1.51672">
        <ele>160.7380065918</ele>
        <time>2017-07-02T07:19:52.000Z</time>
      </trkpt>
      <trkpt lat="49.35865" lon="1.51663">
        <ele>160.45111083984</ele>
        <time>2017-07-02T07:19:54.000Z</time>
      </trkpt>
      <trkpt lat="49.35875" lon="1.51651">
        <ele>160.22677612305</ele>
        <time>2017-07-02T07:19:57.000Z</time>
      </trkpt>
      <trkpt lat="49.35881" lon="1.51642">
        <ele>160.11003112793</ele>
        <time>2017-07-02T07:19:59.000Z</time>
      </trkpt>
      <trkpt lat="49.3589" lon="1.5163">
        <ele>160.06140136719</ele>
        <time>2017-07-02T07:20:02.000Z</time>
      </trkpt>
      <trkpt lat="49.359" lon="1.51618">
        <ele>160.10824584961</ele>
        <time>2017-07-02T07:20:05.000Z</time>
      </trkpt>
      <trkpt lat="49.35907" lon="1.51609">
        <ele>160.2174987793</ele>
        <time>2017-07-02T07:20:07.000Z</time>
      </trkpt>
      <trkpt lat="49.35915" lon="1.516">
        <ele>160.37101745605</ele>
        <time>2017-07-02T07:20:09.000Z</time>
      </trkpt>
      <trkpt lat="49.35926" lon="1.51586">
        <ele>160.58061218262</ele>
        <time>2017-07-02T07:20:12.000Z</time>
      </trkpt>
      <trkpt lat="49.35936" lon="1.51571">
        <ele>160.86303710938</ele>
        <time>2017-07-02T07:20:15.000Z</time>
      </trkpt>
      <trkpt lat="49.35947" lon="1.51557">
        <ele>161.18655395508</ele>
        <time>2017-07-02T07:20:18.000Z</time>
      </trkpt>
      <trkpt lat="49.35954" lon="1.51548">
        <ele>161.51063537598</ele>
        <time>2017-07-02T07:20:20.000Z</time>
      </trkpt>
      <trkpt lat="49.35961" lon="1.5154">
        <ele>161.81028747559</ele>
        <time>2017-07-02T07:20:22.000Z</time>
      </trkpt>
      <trkpt lat="49.35973" lon="1.51534">
        <ele>162.04335021973</ele>
        <time>2017-07-02T07:20:25.000Z</time>
      </trkpt>
      <trkpt lat="49.35986" lon="1.51533">
        <ele>162.1549987793</ele>
        <time>2017-07-02T07:20:28.000Z</time>
      </trkpt>
      <trkpt lat="49.35995" lon="1.51532">
        <ele>162.17135620117</ele>
        <time>2017-07-02T07:20:30.000Z</time>
      </trkpt>
      <trkpt lat="49.36002" lon="1.51532">
        <ele>162.14221191406</ele>
        <time>2017-07-02T07:20:32.000Z</time>
      </trkpt>
      <trkpt lat="49.3601" lon="1.51532">
        <ele>162.09913635254</ele>
        <time>2017-07-02T07:20:34.000Z</time>
      </trkpt>
      <trkpt lat="49.36019" lon="1.51532">
        <ele>162.0666809082</ele>
        <time>2017-07-02T07:20:36.000Z</time>
      </trkpt>
      <trkpt lat="49.36031" lon="1.51534">
        <ele>162.07029724121</ele>
        <time>2017-07-02T07:20:39.000Z</time>
      </trkpt>
      <trkpt lat="49.3604" lon="1.51534">
        <ele>162.09965515137</ele>
        <time>2017-07-02T07:20:41.000Z</time>
      </trkpt>
      <trkpt lat="49.36053" lon="1.51537">
        <ele>162.15464782715</ele>
        <time>2017-07-02T07:20:44.000Z</time>
      </trkpt>
      <trkpt lat="49.36066" lon="1.5154">
        <ele>162.22122192383</ele>
        <time>2017-07-02T07:20:47.000Z</time>
      </trkpt>
      <trkpt lat="49.36078" lon="1.51543">
        <ele>162.30041503906</ele>
        <time>2017-07-02T07:20:50.000Z</time>
      </trkpt>
      <trkpt lat="49.36085" lon="1.51546">
        <ele>162.39128112793</ele>
        <time>2017-07-02T07:20:52.000Z</time>
      </trkpt>
      <trkpt lat="49.36097" lon="1.5155">
        <ele>162.55076599121</ele>
        <time>2017-07-02T07:20:55.000Z</time>
      </trkpt>
      <trkpt lat="49.36107" lon="1.51555">
        <ele>162.75956726074</ele>
        <time>2017-07-02T07:20:58.000Z</time>
      </trkpt>
      <trkpt lat="49.36118" lon="1.51561">
        <ele>163.02000427246</ele>
        <time>2017-07-02T07:21:01.000Z</time>
      </trkpt>
      <trkpt lat="49.36129" lon="1.51568">
        <ele>163.32421875</ele>
        <time>2017-07-02T07:21:04.000Z</time>
      </trkpt>
      <trkpt lat="49.36139" lon="1.51575">
        <ele>163.66088867188</ele>
        <time>2017-07-02T07:21:07.000Z</time>
      </trkpt>
      <trkpt lat="49.36148" lon="1.51582">
        <ele>163.97290039062</ele>
        <time>2017-07-02T07:21:10.000Z</time>
      </trkpt>
      <trkpt lat="49.36156" lon="1.51587">
        <ele>164.26452636719</ele>
        <time>2017-07-02T07:21:12.000Z</time>
      </trkpt>
      <trkpt lat="49.36162" lon="1.51593">
        <ele>164.5295715332</ele>
        <time>2017-07-02T07:21:14.000Z</time>
      </trkpt>
      <trkpt lat="49.36169" lon="1.51598">
        <ele>164.78109741211</ele>
        <time>2017-07-02T07:21:16.000Z</time>
      </trkpt>
      <trkpt lat="49.36178" lon="1.51608">
        <ele>165.078125</ele>
        <time>2017-07-02T07:21:19.000Z</time>
      </trkpt>
      <trkpt lat="49.36184" lon="1.51614">
        <ele>165.38009643555</ele>
        <time>2017-07-02T07:21:21.000Z</time>
      </trkpt>
      <trkpt lat="49.36194" lon="1.51622">
        <ele>165.71598815918</ele>
        <time>2017-07-02T07:21:24.000Z</time>
      </trkpt>
      <trkpt lat="49.362" lon="1.51628">
        <ele>166.05282592773</ele>
        <time>2017-07-02T07:21:26.000Z</time>
      </trkpt>
      <trkpt lat="49.36206" lon="1.51635">
        <ele>166.3821105957</ele>
        <time>2017-07-02T07:21:28.000Z</time>
      </trkpt>
      <trkpt lat="49.36215" lon="1.51646">
        <ele>166.66693115234</ele>
        <time>2017-07-02T07:21:31.000Z</time>
      </trkpt>
      <trkpt lat="49.36221" lon="1.51655">
        <ele>166.92391967773</ele>
        <time>2017-07-02T07:21:33.000Z</time>
      </trkpt>
      <trkpt lat="49.36227" lon="1.51663">
        <ele>167.12260437012</ele>
        <time>2017-07-02T07:21:35.000Z</time>
      </trkpt>
      <trkpt lat="49.36232" lon="1.51672">
        <ele>167.3108215332</ele>
        <time>2017-07-02T07:21:37.000Z</time>
      </trkpt>
      <trkpt lat="49.36239" lon="1.51685">
        <ele>167.52630615234</ele>
        <time>2017-07-02T07:21:40.000Z</time>
      </trkpt>
      <trkpt lat="49.36246" lon="1.51698">
        <ele>167.74620056152</ele>
        <time>2017-07-02T07:21:43.000Z</time>
      </trkpt>
      <trkpt lat="49.36251" lon="1.51707">
        <ele>167.97685241699</ele>
        <time>2017-07-02T07:21:45.000Z</time>
      </trkpt>
      <trkpt lat="49.36257" lon="1.51721">
        <ele>168.2392578125</ele>
        <time>2017-07-02T07:21:48.000Z</time>
      </trkpt>
      <trkpt lat="49.36263" lon="1.5173">
        <ele>168.50170898438</ele>
        <time>2017-07-02T07:21:50.000Z</time>
      </trkpt>
      <trkpt lat="49.36271" lon="1.51742">
        <ele>168.73895263672</ele>
        <time>2017-07-02T07:21:53.000Z</time>
      </trkpt>
      <trkpt lat="49.36278" lon="1.51755">
        <ele>168.96697998047</ele>
        <time>2017-07-02T07:21:56.000Z</time>
      </trkpt>
      <trkpt lat="49.36287" lon="1.51768">
        <ele>169.22341918945</ele>
        <time>2017-07-02T07:21:59.000Z</time>
      </trkpt>
      <trkpt lat="49.36293" lon="1.51777">
        <ele>169.46842956543</ele>
        <time>2017-07-02T07:22:01.000Z</time>
      </trkpt>
      <trkpt lat="49.36298" lon="1.51787">
        <ele>169.71965026855</ele>
        <time>2017-07-02T07:22:03.000Z</time>
      </trkpt>
      <trkpt lat="49.36303" lon="1.51797">
        <ele>169.96545410156</ele>
        <time>2017-07-02T07:22:05.000Z</time>
      </trkpt>
      <trkpt lat="49.36308" lon="1.51814">
        <ele>170.21800231934</ele>
        <time>2017-07-02T07:22:08.000Z</time>
      </trkpt>
      <trkpt lat="49.36312" lon="1.51827">
        <ele>170.44303894043</ele>
        <time>2017-07-02T07:22:10.000Z</time>
      </trkpt>
      <trkpt lat="49.36318" lon="1.51845">
        <ele>170.64352416992</ele>
        <time>2017-07-02T07:22:13.000Z</time>
      </trkpt>
      <trkpt lat="49.36326" lon="1.51864">
        <ele>170.80322265625</ele>
        <time>2017-07-02T07:22:16.000Z</time>
      </trkpt>
      <trkpt lat="49.36334" lon="1.51883">
        <ele>170.92077636719</ele>
        <time>2017-07-02T07:22:19.000Z</time>
      </trkpt>
      <trkpt lat="49.36342" lon="1.51899">
        <ele>170.95552062988</ele>
        <time>2017-07-02T07:22:22.000Z</time>
      </trkpt>
      <trkpt lat="49.36347" lon="1.51911">
        <ele>170.93869018555</ele>
        <time>2017-07-02T07:22:24.000Z</time>
      </trkpt>
      <trkpt lat="49.36354" lon="1.51932">
        <ele>170.88040161133</ele>
        <time>2017-07-02T07:22:27.000Z</time>
      </trkpt>
      <trkpt lat="49.36359" lon="1.51948">
        <ele>170.79672241211</ele>
        <time>2017-07-02T07:22:29.000Z</time>
      </trkpt>
      <trkpt lat="49.36366" lon="1.51971">
        <ele>170.66720581055</ele>
        <time>2017-07-02T07:22:32.000Z</time>
      </trkpt>
      <trkpt lat="49.36372" lon="1.51986">
        <ele>170.52337646484</ele>
        <time>2017-07-02T07:22:34.000Z</time>
      </trkpt>
      <trkpt lat="49.36381" lon="1.5201">
        <ele>170.27351379395</ele>
        <time>2017-07-02T07:22:37.000Z</time>
      </trkpt>
      <trkpt lat="49.3639" lon="1.52029">
        <ele>169.89872741699</ele>
        <time>2017-07-02T07:22:40.000Z</time>
      </trkpt>
      <trkpt lat="49.36399" lon="1.52031">
        <ele>169.50172424316</ele>
        <time>2017-07-02T07:22:43.000Z</time>
      </trkpt>
      <trkpt lat="49.36408" lon="1.5202">
        <ele>169.17210388184</ele>
        <time>2017-07-02T07:22:46.000Z</time>
      </trkpt>
      <trkpt lat="49.36414" lon="1.52013">
        <ele>168.88717651367</ele>
        <time>2017-07-02T07:22:48.000Z</time>
      </trkpt>
      <trkpt lat="49.36422" lon="1.52003">
        <ele>168.72087097168</ele>
        <time>2017-07-02T07:22:50.000Z</time>
      </trkpt>
      <trkpt lat="49.36428" lon="1.51994">
        <ele>168.68392944336</ele>
        <time>2017-07-02T07:22:52.000Z</time>
      </trkpt>
      <trkpt lat="49.36438" lon="1.5198">
        <ele>168.6682434082</ele>
        <time>2017-07-02T07:22:55.000Z</time>
      </trkpt>
      <trkpt lat="49.36445" lon="1.51972">
        <ele>168.61370849609</ele>
        <time>2017-07-02T07:22:57.000Z</time>
      </trkpt>
      <trkpt lat="49.36454" lon="1.51957">
        <ele>168.54774475098</ele>
        <time>2017-07-02T07:23:00.000Z</time>
      </trkpt>
      <trkpt lat="49.36465" lon="1.51942">
        <ele>168.47315979004</ele>
        <time>2017-07-02T07:23:03.000Z</time>
      </trkpt>
      <trkpt lat="49.36472" lon="1.51931">
        <ele>168.42315673828</ele>
        <time>2017-07-02T07:23:05.000Z</time>
      </trkpt>
      <trkpt lat="49.36478" lon="1.51921">
        <ele>168.40934753418</ele>
        <time>2017-07-02T07:23:07.000Z</time>
      </trkpt>
      <trkpt lat="49.36487" lon="1.51906">
        <ele>168.40591430664</ele>
        <time>2017-07-02T07:23:10.000Z</time>
      </trkpt>
      <trkpt lat="49.36493" lon="1.51897">
        <ele>168.39942932129</ele>
        <time>2017-07-02T07:23:12.000Z</time>
      </trkpt>
      <trkpt lat="49.36499" lon="1.51888">
        <ele>168.39582824707</ele>
        <time>2017-07-02T07:23:14.000Z</time>
      </trkpt>
      <trkpt lat="49.36508" lon="1.51876">
        <ele>168.42320251465</ele>
        <time>2017-07-02T07:23:17.000Z</time>
      </trkpt>
      <trkpt lat="49.36517" lon="1.51864">
        <ele>168.47430419922</ele>
        <time>2017-07-02T07:23:20.000Z</time>
      </trkpt>
      <trkpt lat="49.36527" lon="1.51853">
        <ele>168.56089782715</ele>
        <time>2017-07-02T07:23:23.000Z</time>
      </trkpt>
      <trkpt lat="49.36537" lon="1.51843">
        <ele>168.67489624023</ele>
        <time>2017-07-02T07:23:26.000Z</time>
      </trkpt>
      <trkpt lat="49.36544" lon="1.51836">
        <ele>168.80123901367</ele>
        <time>2017-07-02T07:23:28.000Z</time>
      </trkpt>
      <trkpt lat="49.36551" lon="1.5183">
        <ele>168.89944458008</ele>
        <time>2017-07-02T07:23:30.000Z</time>
      </trkpt>
      <trkpt lat="49.36563" lon="1.51821">
        <ele>168.98101806641</ele>
        <time>2017-07-02T07:23:33.000Z</time>
      </trkpt>
      <trkpt lat="49.36571" lon="1.51815">
        <ele>169.05004882812</ele>
        <time>2017-07-02T07:23:35.000Z</time>
      </trkpt>
      <trkpt lat="49.36584" lon="1.51807">
        <ele>169.12422180176</ele>
        <time>2017-07-02T07:23:38.000Z</time>
      </trkpt>
      <trkpt lat="49.36593" lon="1.51801">
        <ele>169.1950378418</ele>
        <time>2017-07-02T07:23:40.000Z</time>
      </trkpt>
      <trkpt lat="49.36603" lon="1.51795">
        <ele>169.26040649414</ele>
        <time>2017-07-02T07:23:42.000Z</time>
      </trkpt>
      <trkpt lat="49.36617" lon="1.51786">
        <ele>169.30561828613</ele>
        <time>2017-07-02T07:23:45.000Z</time>
      </trkpt>
      <trkpt lat="49.36626" lon="1.5178">
        <ele>169.33096313477</ele>
        <time>2017-07-02T07:23:47.000Z</time>
      </trkpt>
      <trkpt lat="49.36635" lon="1.51773">
        <ele>169.32373046875</ele>
        <time>2017-07-02T07:23:49.000Z</time>
      </trkpt>
      <trkpt lat="49.36651" lon="1.51762">
        <ele>169.28747558594</ele>
        <time>2017-07-02T07:23:52.000Z</time>
      </trkpt>
      <trkpt lat="49.36669" lon="1.51751">
        <ele>169.19319152832</ele>
        <time>2017-07-02T07:23:55.000Z</time>
      </trkpt>
      <trkpt lat="49.36683" lon="1.51743">
        <ele>168.97311401367</ele>
        <time>2017-07-02T07:23:57.000Z</time>
      </trkpt>
      <trkpt lat="49.36695" lon="1.51735">
        <ele>168.63746643066</ele>
        <time>2017-07-02T07:23:59.000Z</time>
      </trkpt>
      <trkpt lat="49.36714" lon="1.51722">
        <ele>168.12959289551</ele>
        <time>2017-07-02T07:24:02.000Z</time>
      </trkpt>
      <trkpt lat="49.36728" lon="1.51714">
        <ele>167.51176452637</ele>
        <time>2017-07-02T07:24:04.000Z</time>
      </trkpt>
      <trkpt lat="49.3674" lon="1.51705">
        <ele>166.83203125</ele>
        <time>2017-07-02T07:24:06.000Z</time>
      </trkpt>
      <trkpt lat="49.3676" lon="1.51692">
        <ele>166.24087524414</ele>
        <time>2017-07-02T07:24:09.000Z</time>
      </trkpt>
      <trkpt lat="49.36773" lon="1.51683">
        <ele>165.85694885254</ele>
        <time>2017-07-02T07:24:11.000Z</time>
      </trkpt>
      <trkpt lat="49.36786" lon="1.51675">
        <ele>165.75180053711</ele>
        <time>2017-07-02T07:24:13.000Z</time>
      </trkpt>
      <trkpt lat="49.36805" lon="1.51663">
        <ele>165.95916748047</ele>
        <time>2017-07-02T07:24:16.000Z</time>
      </trkpt>
      <trkpt lat="49.36825" lon="1.5165">
        <ele>166.51873779297</ele>
        <time>2017-07-02T07:24:19.000Z</time>
      </trkpt>
      <trkpt lat="49.36835" lon="1.51645">
        <ele>167.21810913086</ele>
        <time>2017-07-02T07:24:21.000Z</time>
      </trkpt>
      <trkpt lat="49.3685" lon="1.51635">
        <ele>167.88159179688</ele>
        <time>2017-07-02T07:24:24.000Z</time>
      </trkpt>
      <trkpt lat="49.36857" lon="1.51629">
        <ele>168.46426391602</ele>
        <time>2017-07-02T07:24:26.000Z</time>
      </trkpt>
      <trkpt lat="49.36864" lon="1.51624">
        <ele>168.87141418457</ele>
        <time>2017-07-02T07:24:28.000Z</time>
      </trkpt>
      <trkpt lat="49.36873" lon="1.51615">
        <ele>169.04458618164</ele>
        <time>2017-07-02T07:24:31.000Z</time>
      </trkpt>
      <trkpt lat="49.36885" lon="1.51602">
        <ele>169.09001159668</ele>
        <time>2017-07-02T07:24:34.000Z</time>
      </trkpt>
      <trkpt lat="49.369" lon="1.51591">
        <ele>169.01138305664</ele>
        <time>2017-07-02T07:24:37.000Z</time>
      </trkpt>
      <trkpt lat="49.36913" lon="1.5158">
        <ele>168.85073852539</ele>
        <time>2017-07-02T07:24:40.000Z</time>
      </trkpt>
      <trkpt lat="49.36924" lon="1.51571">
        <ele>168.70843505859</ele>
        <time>2017-07-02T07:24:42.000Z</time>
      </trkpt>
      <trkpt lat="49.36938" lon="1.51574">
        <ele>168.49073791504</ele>
        <time>2017-07-02T07:24:45.000Z</time>
      </trkpt>
      <trkpt lat="49.3694" lon="1.51579">
        <ele>168.26040649414</ele>
        <time>2017-07-02T07:24:47.000Z</time>
      </trkpt>
      <trkpt lat="49.36943" lon="1.51586">
        <ele>168.07437133789</ele>
        <time>2017-07-02T07:24:49.000Z</time>
      </trkpt>
      <trkpt lat="49.36947" lon="1.51594">
        <ele>167.96267700195</ele>
        <time>2017-07-02T07:24:51.000Z</time>
      </trkpt>
      <trkpt lat="49.3695" lon="1.51605">
        <ele>167.84854125977</ele>
        <time>2017-07-02T07:24:54.000Z</time>
      </trkpt>
      <trkpt lat="49.36951" lon="1.5161">
        <ele>167.81787109375</ele>
        <time>2017-07-02T07:24:56.000Z</time>
      </trkpt>
      <trkpt lat="49.36955" lon="1.51619">
        <ele>167.84094238281</ele>
        <time>2017-07-02T07:24:59.000Z</time>
      </trkpt>
      <trkpt lat="49.36957" lon="1.51625">
        <ele>167.9035949707</ele>
        <time>2017-07-02T07:25:01.000Z</time>
      </trkpt>
      <trkpt lat="49.3696" lon="1.51633">
        <ele>167.96853637695</ele>
        <time>2017-07-02T07:25:04.000Z</time>
      </trkpt>
      <trkpt lat="49.36961" lon="1.51639">
        <ele>168.02362060547</ele>
        <time>2017-07-02T07:25:06.000Z</time>
      </trkpt>
      <trkpt lat="49.36963" lon="1.51648">
        <ele>168.08853149414</ele>
        <time>2017-07-02T07:25:09.000Z</time>
      </trkpt>
      <trkpt lat="49.36964" lon="1.51654">
        <ele>168.14920043945</ele>
        <time>2017-07-02T07:25:11.000Z</time>
      </trkpt>
      <trkpt lat="49.36965" lon="1.51658">
        <ele>168.20825195312</ele>
        <time>2017-07-02T07:25:13.000Z</time>
      </trkpt>
      <trkpt lat="49.36966" lon="1.51664">
        <ele>168.26708984375</ele>
        <time>2017-07-02T07:25:15.000Z</time>
      </trkpt>
      <trkpt lat="49.36967" lon="1.51669">
        <ele>168.32659912109</ele>
        <time>2017-07-02T07:25:17.000Z</time>
      </trkpt>
      <trkpt lat="49.36967" lon="1.51674">
        <ele>168.37826538086</ele>
        <time>2017-07-02T07:25:19.000Z</time>
      </trkpt>
      <trkpt lat="49.36967" lon="1.5168">
        <ele>168.43444824219</ele>
        <time>2017-07-02T07:25:21.000Z</time>
      </trkpt>
      <trkpt lat="49.36969" lon="1.51689">
        <ele>168.49809265137</ele>
        <time>2017-07-02T07:25:24.000Z</time>
      </trkpt>
      <trkpt lat="49.36971" lon="1.51696">
        <ele>168.56118774414</ele>
        <time>2017-07-02T07:25:26.000Z</time>
      </trkpt>
      <trkpt lat="49.36974" lon="1.51706">
        <ele>168.63192749023</ele>
        <time>2017-07-02T07:25:29.000Z</time>
      </trkpt>
      <trkpt lat="49.36977" lon="1.51712">
        <ele>168.69647216797</ele>
        <time>2017-07-02T07:25:32.000Z</time>
      </trkpt>
      <trkpt lat="49.36981" lon="1.51714">
        <ele>168.74533081055</ele>
        <time>2017-07-02T07:25:34.000Z</time>
      </trkpt>
      <trkpt lat="49.36985" lon="1.51716">
        <ele>168.77282714844</ele>
        <time>2017-07-02T07:25:36.000Z</time>
      </trkpt>
      <trkpt lat="49.3699" lon="1.51719">
        <ele>168.78167724609</ele>
        <time>2017-07-02T07:25:39.000Z</time>
      </trkpt>
      <trkpt lat="49.36994" lon="1.51719">
        <ele>168.76425170898</ele>
        <time>2017-07-02T07:25:41.000Z</time>
      </trkpt>
      <trkpt lat="49.37002" lon="1.51721">
        <ele>168.73332214355</ele>
        <time>2017-07-02T07:25:44.000Z</time>
      </trkpt>
      <trkpt lat="49.37009" lon="1.51723">
        <ele>168.70771789551</ele>
        <time>2017-07-02T07:25:47.000Z</time>
      </trkpt>
      <trkpt lat="49.37015" lon="1.51723">
        <ele>168.68867492676</ele>
        <time>2017-07-02T07:25:49.000Z</time>
      </trkpt>
      <trkpt lat="49.37022" lon="1.51721">
        <ele>168.67118835449</ele>
        <time>2017-07-02T07:25:51.000Z</time>
      </trkpt>
      <trkpt lat="49.37034" lon="1.51719">
        <ele>168.65594482422</ele>
        <time>2017-07-02T07:25:54.000Z</time>
      </trkpt>
      <trkpt lat="49.37043" lon="1.51719">
        <ele>168.6490020752</ele>
        <time>2017-07-02T07:25:56.000Z</time>
      </trkpt>
      <trkpt lat="49.3705" lon="1.51718">
        <ele>168.63754272461</ele>
        <time>2017-07-02T07:25:58.000Z</time>
      </trkpt>
      <trkpt lat="49.37059" lon="1.51715">
        <ele>168.61730957031</ele>
        <time>2017-07-02T07:26:00.000Z</time>
      </trkpt>
      <trkpt lat="49.37067" lon="1.51713">
        <ele>168.59875488281</ele>
        <time>2017-07-02T07:26:02.000Z</time>
      </trkpt>
      <trkpt lat="49.37075" lon="1.51714">
        <ele>168.58853149414</ele>
        <time>2017-07-02T07:26:05.000Z</time>
      </trkpt>
      <trkpt lat="49.37082" lon="1.51715">
        <ele>168.57958984375</ele>
        <time>2017-07-02T07:26:07.000Z</time>
      </trkpt>
      <trkpt lat="49.3709" lon="1.51715">
        <ele>168.58012390137</ele>
        <time>2017-07-02T07:26:10.000Z</time>
      </trkpt>
      <trkpt lat="49.371" lon="1.51716">
        <ele>168.60034179688</ele>
        <time>2017-07-02T07:26:13.000Z</time>
      </trkpt>
      <trkpt lat="49.37109" lon="1.51716">
        <ele>168.63145446777</ele>
        <time>2017-07-02T07:26:15.000Z</time>
      </trkpt>
      <trkpt lat="49.37121" lon="1.51715">
        <ele>168.67012023926</ele>
        <time>2017-07-02T07:26:18.000Z</time>
      </trkpt>
      <trkpt lat="49.37128" lon="1.51714">
        <ele>168.71406555176</ele>
        <time>2017-07-02T07:26:20.000Z</time>
      </trkpt>
      <trkpt lat="49.37138" lon="1.5171">
        <ele>168.75727844238</ele>
        <time>2017-07-02T07:26:23.000Z</time>
      </trkpt>
      <trkpt lat="49.37147" lon="1.51707">
        <ele>168.79801940918</ele>
        <time>2017-07-02T07:26:26.000Z</time>
      </trkpt>
      <trkpt lat="49.37152" lon="1.51706">
        <ele>168.83728027344</ele>
        <time>2017-07-02T07:26:28.000Z</time>
      </trkpt>
      <trkpt lat="49.37157" lon="1.51704">
        <ele>168.87174987793</ele>
        <time>2017-07-02T07:26:30.000Z</time>
      </trkpt>
      <trkpt lat="49.37163" lon="1.51702">
        <ele>168.90728759766</ele>
        <time>2017-07-02T07:26:32.000Z</time>
      </trkpt>
      <trkpt lat="49.37169" lon="1.51699">
        <ele>168.93835449219</ele>
        <time>2017-07-02T07:26:34.000Z</time>
      </trkpt>
      <trkpt lat="49.37176" lon="1.51692">
        <ele>168.94648742676</ele>
        <time>2017-07-02T07:26:37.000Z</time>
      </trkpt>
      <trkpt lat="49.37182" lon="1.51687">
        <ele>168.93692016602</ele>
        <time>2017-07-02T07:26:39.000Z</time>
      </trkpt>
      <trkpt lat="49.37186" lon="1.51685">
        <ele>168.91223144531</ele>
        <time>2017-07-02T07:26:41.000Z</time>
      </trkpt>
      <trkpt lat="49.37198" lon="1.51679">
        <ele>168.85321044922</ele>
        <time>2017-07-02T07:26:44.000Z</time>
      </trkpt>
      <trkpt lat="49.3721" lon="1.51674">
        <ele>168.75981140137</ele>
        <time>2017-07-02T07:26:47.000Z</time>
      </trkpt>
      <trkpt lat="49.3722" lon="1.51672">
        <ele>168.65698242188</ele>
        <time>2017-07-02T07:26:50.000Z</time>
      </trkpt>
      <trkpt lat="49.3723" lon="1.51669">
        <ele>168.53756713867</ele>
        <time>2017-07-02T07:26:53.000Z</time>
      </trkpt>
      <trkpt lat="49.37244" lon="1.51662">
        <ele>168.3780670166</ele>
        <time>2017-07-02T07:26:56.000Z</time>
      </trkpt>
      <trkpt lat="49.37256" lon="1.51655">
        <ele>168.21136474609</ele>
        <time>2017-07-02T07:26:58.000Z</time>
      </trkpt>
      <trkpt lat="49.37273" lon="1.51644">
        <ele>168.03726196289</ele>
        <time>2017-07-02T07:27:01.000Z</time>
      </trkpt>
      <trkpt lat="49.37291" lon="1.51628">
        <ele>167.81658935547</ele>
        <time>2017-07-02T07:27:04.000Z</time>
      </trkpt>
      <trkpt lat="49.37309" lon="1.51606">
        <ele>167.51573181152</ele>
        <time>2017-07-02T07:27:07.000Z</time>
      </trkpt>
      <trkpt lat="49.37319" lon="1.51591">
        <ele>167.1812286377</ele>
        <time>2017-07-02T07:27:09.000Z</time>
      </trkpt>
      <trkpt lat="49.37325" lon="1.51574">
        <ele>166.76083374023</ele>
        <time>2017-07-02T07:27:12.000Z</time>
      </trkpt>
      <trkpt lat="49.37325" lon="1.51559">
        <ele>166.2666015625</ele>
        <time>2017-07-02T07:27:14.000Z</time>
      </trkpt>
      <trkpt lat="49.37323" lon="1.51546">
        <ele>165.73818969727</ele>
        <time>2017-07-02T07:27:16.000Z</time>
      </trkpt>
      <trkpt lat="49.3732" lon="1.51526">
        <ele>165.16213989258</ele>
        <time>2017-07-02T07:27:18.000Z</time>
      </trkpt>
      <trkpt lat="49.3732" lon="1.51494">
        <ele>164.37858581543</ele>
        <time>2017-07-02T07:27:21.000Z</time>
      </trkpt>
      <trkpt lat="49.3732" lon="1.51428">
        <ele>162.7289276123</ele>
        <time>2017-07-02T07:27:25.000Z</time>
      </trkpt>
      <trkpt lat="49.37315" lon="1.51406">
        <ele>160.93338012695</ele>
        <time>2017-07-02T07:27:27.000Z</time>
      </trkpt>
      <trkpt lat="49.37312" lon="1.51377">
        <ele>159.03842163086</ele>
        <time>2017-07-02T07:27:30.000Z</time>
      </trkpt>
      <trkpt lat="49.37307" lon="1.51357">
        <ele>157.19192504883</ele>
        <time>2017-07-02T07:27:32.000Z</time>
      </trkpt>
      <trkpt lat="49.3731" lon="1.51354">
        <ele>155.5991973877</ele>
        <time>2017-07-02T07:27:35.000Z</time>
      </trkpt>
      <trkpt lat="49.37311" lon="1.51355">
        <ele>154.9951171875</ele>
        <time>2017-07-02T07:27:37.000Z</time>
      </trkpt>
      <trkpt lat="49.3731" lon="1.51361">
        <ele>154.69682312012</ele>
        <time>2017-07-02T07:27:41.000Z</time>
      </trkpt>
      <trkpt lat="49.37304" lon="1.51362">
        <ele>154.6227722168</ele>
        <time>2017-07-02T07:27:43.000Z</time>
      </trkpt>
      <trkpt lat="49.37299" lon="1.51363">
        <ele>154.67628479004</ele>
        <time>2017-07-02T07:27:45.000Z</time>
      </trkpt>
      <trkpt lat="49.37299" lon="1.51365">
        <ele>154.77738952637</ele>
        <time>2017-07-02T07:27:47.000Z</time>
      </trkpt>
      <trkpt lat="49.37301" lon="1.51366">
        <ele>154.8752746582</ele>
        <time>2017-07-02T07:27:50.000Z</time>
      </trkpt>
      <trkpt lat="49.37302" lon="1.51367">
        <ele>154.93229675293</ele>
        <time>2017-07-02T07:27:52.000Z</time>
      </trkpt>
      <trkpt lat="49.373" lon="1.5137">
        <ele>154.98428344727</ele>
        <time>2017-07-02T07:27:55.000Z</time>
      </trkpt>
      <trkpt lat="49.37302" lon="1.51369">
        <ele>155.00946044922</ele>
        <time>2017-07-02T07:28:04.000Z</time>
      </trkpt>
      <trkpt lat="49.37303" lon="1.51371">
        <ele>155.02917480469</ele>
        <time>2017-07-02T07:28:08.000Z</time>
      </trkpt>
      <trkpt lat="49.37308" lon="1.51369">
        <ele>155.03100585938</ele>
        <time>2017-07-02T07:28:11.000Z</time>
      </trkpt>
      <trkpt lat="49.37313" lon="1.51364">
        <ele>154.98266601562</ele>
        <time>2017-07-02T07:28:13.000Z</time>
      </trkpt>
      <trkpt lat="49.3732" lon="1.51354">
        <ele>154.82319641113</ele>
        <time>2017-07-02T07:28:15.000Z</time>
      </trkpt>
      <trkpt lat="49.37365" lon="1.51323">
        <ele>154.13143920898</ele>
        <time>2017-07-02T07:28:20.000Z</time>
      </trkpt>
      <trkpt lat="49.37389" lon="1.51306">
        <ele>153.10432434082</ele>
        <time>2017-07-02T07:28:23.000Z</time>
      </trkpt>
      <trkpt lat="49.37401" lon="1.51296">
        <ele>151.8327331543</ele>
        <time>2017-07-02T07:28:25.000Z</time>
      </trkpt>
      <trkpt lat="49.37411" lon="1.51279">
        <ele>150.28202819824</ele>
        <time>2017-07-02T07:28:27.000Z</time>
      </trkpt>
      <trkpt lat="49.37425" lon="1.5125">
        <ele>148.39137268066</ele>
        <time>2017-07-02T07:28:30.000Z</time>
      </trkpt>
      <trkpt lat="49.37439" lon="1.51229">
        <ele>146.85852050781</ele>
        <time>2017-07-02T07:28:32.000Z</time>
      </trkpt>
      <trkpt lat="49.37462" lon="1.51185">
        <ele>144.80082702637</ele>
        <time>2017-07-02T07:28:35.000Z</time>
      </trkpt>
      <trkpt lat="49.37476" lon="1.51155">
        <ele>142.1388092041</ele>
        <time>2017-07-02T07:28:37.000Z</time>
      </trkpt>
      <trkpt lat="49.375" lon="1.51107">
        <ele>138.1520690918</ele>
        <time>2017-07-02T07:28:40.000Z</time>
      </trkpt>
      <trkpt lat="49.37523" lon="1.51054">
        <ele>134.24449157715</ele>
        <time>2017-07-02T07:28:43.000Z</time>
      </trkpt>
      <trkpt lat="49.37536" lon="1.51021">
        <ele>130.22212219238</ele>
        <time>2017-07-02T07:28:45.000Z</time>
      </trkpt>
      <trkpt lat="49.3755" lon="1.50968">
        <ele>126.31589508057</ele>
        <time>2017-07-02T07:28:48.000Z</time>
      </trkpt>
      <trkpt lat="49.37564" lon="1.50921">
        <ele>122.59511566162</ele>
        <time>2017-07-02T07:28:51.000Z</time>
      </trkpt>
      <trkpt lat="49.37575" lon="1.50878">
        <ele>119.6958770752</ele>
        <time>2017-07-02T07:28:54.000Z</time>
      </trkpt>
      <trkpt lat="49.37584" lon="1.50849">
        <ele>116.57429504395</ele>
        <time>2017-07-02T07:28:57.000Z</time>
      </trkpt>
      <trkpt lat="49.37596" lon="1.50844">
        <ele>113.57144927979</ele>
        <time>2017-07-02T07:28:59.000Z</time>
      </trkpt>
      <trkpt lat="49.37611" lon="1.50852">
        <ele>111.35081481934</ele>
        <time>2017-07-02T07:29:02.000Z</time>
      </trkpt>
      <trkpt lat="49.37621" lon="1.50864">
        <ele>109.88398742676</ele>
        <time>2017-07-02T07:29:04.000Z</time>
      </trkpt>
      <trkpt lat="49.37638" lon="1.50879">
        <ele>109.17612457275</ele>
        <time>2017-07-02T07:29:07.000Z</time>
      </trkpt>
      <trkpt lat="49.3765" lon="1.50888">
        <ele>108.91316223145</ele>
        <time>2017-07-02T07:29:09.000Z</time>
      </trkpt>
      <trkpt lat="49.37657" lon="1.50894">
        <ele>108.73597717285</ele>
        <time>2017-07-02T07:29:11.000Z</time>
      </trkpt>
      <trkpt lat="49.37665" lon="1.50898">
        <ele>108.3701171875</ele>
        <time>2017-07-02T07:29:13.000Z</time>
      </trkpt>
      <trkpt lat="49.37672" lon="1.50905">
        <ele>107.95029449463</ele>
        <time>2017-07-02T07:29:15.000Z</time>
      </trkpt>
      <trkpt lat="49.37687" lon="1.50919">
        <ele>107.7169342041</ele>
        <time>2017-07-02T07:29:18.000Z</time>
      </trkpt>
      <trkpt lat="49.37698" lon="1.50924">
        <ele>107.73526763916</ele>
        <time>2017-07-02T07:29:20.000Z</time>
      </trkpt>
      <trkpt lat="49.37706" lon="1.50931">
        <ele>107.93410491943</ele>
        <time>2017-07-02T07:29:22.000Z</time>
      </trkpt>
      <trkpt lat="49.37722" lon="1.50935">
        <ele>108.32847595215</ele>
        <time>2017-07-02T07:29:25.000Z</time>
      </trkpt>
      <trkpt lat="49.37732" lon="1.50943">
        <ele>108.70527648926</ele>
        <time>2017-07-02T07:29:27.000Z</time>
      </trkpt>
      <trkpt lat="49.37748" lon="1.50954">
        <ele>108.87424468994</ele>
        <time>2017-07-02T07:29:30.000Z</time>
      </trkpt>
      <trkpt lat="49.37764" lon="1.50965">
        <ele>108.93334960938</ele>
        <time>2017-07-02T07:29:33.000Z</time>
      </trkpt>
      <trkpt lat="49.37773" lon="1.50975">
        <ele>108.87203216553</ele>
        <time>2017-07-02T07:29:35.000Z</time>
      </trkpt>
      <trkpt lat="49.37783" lon="1.50987">
        <ele>108.67541503906</ele>
        <time>2017-07-02T07:29:38.000Z</time>
      </trkpt>
      <trkpt lat="49.37793" lon="1.50996">
        <ele>108.39593505859</ele>
        <time>2017-07-02T07:29:41.000Z</time>
      </trkpt>
      <trkpt lat="49.378" lon="1.51006">
        <ele>108.29081726074</ele>
        <time>2017-07-02T07:29:43.000Z</time>
      </trkpt>
      <trkpt lat="49.37813" lon="1.51023">
        <ele>108.43296051025</ele>
        <time>2017-07-02T07:29:46.000Z</time>
      </trkpt>
      <trkpt lat="49.37829" lon="1.51033">
        <ele>108.59621429443</ele>
        <time>2017-07-02T07:29:49.000Z</time>
      </trkpt>
      <trkpt lat="49.37839" lon="1.51039">
        <ele>108.95361328125</ele>
        <time>2017-07-02T07:29:51.000Z</time>
      </trkpt>
      <trkpt lat="49.37844" lon="1.51046">
        <ele>109.55051422119</ele>
        <time>2017-07-02T07:29:53.000Z</time>
      </trkpt>
      <trkpt lat="49.3785" lon="1.51055">
        <ele>110.18544769287</ele>
        <time>2017-07-02T07:29:55.000Z</time>
      </trkpt>
      <trkpt lat="49.3786" lon="1.51075">
        <ele>110.69282531738</ele>
        <time>2017-07-02T07:29:58.000Z</time>
      </trkpt>
      <trkpt lat="49.37868" lon="1.51089">
        <ele>111.37065124512</ele>
        <time>2017-07-02T07:30:00.000Z</time>
      </trkpt>
      <trkpt lat="49.37876" lon="1.51113">
        <ele>112.33243560791</ele>
        <time>2017-07-02T07:30:03.000Z</time>
      </trkpt>
      <trkpt lat="49.3788" lon="1.51123">
        <ele>113.24979400635</ele>
        <time>2017-07-02T07:30:05.000Z</time>
      </trkpt>
      <trkpt lat="49.3789" lon="1.51132">
        <ele>114.03010559082</ele>
        <time>2017-07-02T07:30:08.000Z</time>
      </trkpt>
      <trkpt lat="49.37898" lon="1.51131">
        <ele>114.55926513672</ele>
        <time>2017-07-02T07:30:10.000Z</time>
      </trkpt>
      <trkpt lat="49.3791" lon="1.51124">
        <ele>114.76921081543</ele>
        <time>2017-07-02T07:30:13.000Z</time>
      </trkpt>
      <trkpt lat="49.3792" lon="1.51116">
        <ele>114.64152526855</ele>
        <time>2017-07-02T07:30:16.000Z</time>
      </trkpt>
      <trkpt lat="49.37926" lon="1.51109">
        <ele>114.635597229</ele>
        <time>2017-07-02T07:30:18.000Z</time>
      </trkpt>
      <trkpt lat="49.37931" lon="1.51105">
        <ele>114.84509277344</ele>
        <time>2017-07-02T07:30:20.000Z</time>
      </trkpt>
      <trkpt lat="49.37938" lon="1.51098">
        <ele>115.45799255371</ele>
        <time>2017-07-02T07:30:23.000Z</time>
      </trkpt>
      <trkpt lat="49.37946" lon="1.51087">
        <ele>116.53456878662</ele>
        <time>2017-07-02T07:30:26.000Z</time>
      </trkpt>
      <trkpt lat="49.37953" lon="1.51072">
        <ele>118.00398254395</ele>
        <time>2017-07-02T07:30:29.000Z</time>
      </trkpt>
      <trkpt lat="49.37957" lon="1.51064">
        <ele>119.50547027588</ele>
        <time>2017-07-02T07:30:31.000Z</time>
      </trkpt>
      <trkpt lat="49.3796" lon="1.51057">
        <ele>121.01202392578</ele>
        <time>2017-07-02T07:30:33.000Z</time>
      </trkpt>
      <trkpt lat="49.37963" lon="1.51048">
        <ele>122.48303222656</ele>
        <time>2017-07-02T07:30:36.000Z</time>
      </trkpt>
      <trkpt lat="49.3797" lon="1.51047">
        <ele>123.87561035156</ele>
        <time>2017-07-02T07:30:38.000Z</time>
      </trkpt>
      <trkpt lat="49.37976" lon="1.51042">
        <ele>125.09694671631</ele>
        <time>2017-07-02T07:30:40.000Z</time>
      </trkpt>
      <trkpt lat="49.37985" lon="1.51032">
        <ele>126.48030090332</ele>
        <time>2017-07-02T07:30:43.000Z</time>
      </trkpt>
      <trkpt lat="49.37991" lon="1.51026">
        <ele>127.94091796875</ele>
        <time>2017-07-02T07:30:46.000Z</time>
      </trkpt>
      <trkpt lat="49.37997" lon="1.51015">
        <ele>129.45901489258</ele>
        <time>2017-07-02T07:30:49.000Z</time>
      </trkpt>
      <trkpt lat="49.38001" lon="1.51004">
        <ele>131.00401306152</ele>
        <time>2017-07-02T07:30:52.000Z</time>
      </trkpt>
      <trkpt lat="49.38004" lon="1.50997">
        <ele>132.43395996094</ele>
        <time>2017-07-02T07:30:54.000Z</time>
      </trkpt>
      <trkpt lat="49.38007" lon="1.5099">
        <ele>133.60870361328</ele>
        <time>2017-07-02T07:30:56.000Z</time>
      </trkpt>
      <trkpt lat="49.38012" lon="1.50984">
        <ele>134.66802978516</ele>
        <time>2017-07-02T07:30:58.000Z</time>
      </trkpt>
      <trkpt lat="49.38016" lon="1.50972">
        <ele>135.64260864258</ele>
        <time>2017-07-02T07:31:01.000Z</time>
      </trkpt>
      <trkpt lat="49.3802" lon="1.50961">
        <ele>136.54556274414</ele>
        <time>2017-07-02T07:31:04.000Z</time>
      </trkpt>
      <trkpt lat="49.38025" lon="1.50952">
        <ele>137.47564697266</ele>
        <time>2017-07-02T07:31:07.000Z</time>
      </trkpt>
      <trkpt lat="49.38029" lon="1.50945">
        <ele>138.35791015625</ele>
        <time>2017-07-02T07:31:09.000Z</time>
      </trkpt>
      <trkpt lat="49.38034" lon="1.50935">
        <ele>139.24394226074</ele>
        <time>2017-07-02T07:31:12.000Z</time>
      </trkpt>
      <trkpt lat="49.38039" lon="1.50928">
        <ele>140.03579711914</ele>
        <time>2017-07-02T07:31:14.000Z</time>
      </trkpt>
      <trkpt lat="49.38041" lon="1.50921">
        <ele>140.71408081055</ele>
        <time>2017-07-02T07:31:16.000Z</time>
      </trkpt>
      <trkpt lat="49.38044" lon="1.50915">
        <ele>141.30421447754</ele>
        <time>2017-07-02T07:31:18.000Z</time>
      </trkpt>
      <trkpt lat="49.3805" lon="1.50905">
        <ele>141.92057800293</ele>
        <time>2017-07-02T07:31:21.000Z</time>
      </trkpt>
      <trkpt lat="49.38052" lon="1.50898">
        <ele>142.43069458008</ele>
        <time>2017-07-02T07:31:23.000Z</time>
      </trkpt>
      <trkpt lat="49.38055" lon="1.50889">
        <ele>142.88151550293</ele>
        <time>2017-07-02T07:31:26.000Z</time>
      </trkpt>
      <trkpt lat="49.38057" lon="1.50882">
        <ele>143.31198120117</ele>
        <time>2017-07-02T07:31:28.000Z</time>
      </trkpt>
      <trkpt lat="49.38059" lon="1.50875">
        <ele>143.67152404785</ele>
        <time>2017-07-02T07:31:30.000Z</time>
      </trkpt>
      <trkpt lat="49.38061" lon="1.50863">
        <ele>143.91325378418</ele>
        <time>2017-07-02T07:31:33.000Z</time>
      </trkpt>
      <trkpt lat="49.38064" lon="1.50856">
        <ele>144.10498046875</ele>
        <time>2017-07-02T07:31:35.000Z</time>
      </trkpt>
      <trkpt lat="49.38066" lon="1.50848">
        <ele>144.23672485352</ele>
        <time>2017-07-02T07:31:37.000Z</time>
      </trkpt>
      <trkpt lat="49.38068" lon="1.50842">
        <ele>144.31784057617</ele>
        <time>2017-07-02T07:31:39.000Z</time>
      </trkpt>
      <trkpt lat="49.3807" lon="1.50833">
        <ele>144.35386657715</ele>
        <time>2017-07-02T07:31:42.000Z</time>
      </trkpt>
      <trkpt lat="49.38074" lon="1.50822">
        <ele>144.45739746094</ele>
        <time>2017-07-02T07:31:45.000Z</time>
      </trkpt>
      <trkpt lat="49.38078" lon="1.50811">
        <ele>144.6332244873</ele>
        <time>2017-07-02T07:31:48.000Z</time>
      </trkpt>
      <trkpt lat="49.38079" lon="1.50802">
        <ele>144.89045715332</ele>
        <time>2017-07-02T07:31:50.000Z</time>
      </trkpt>
      <trkpt lat="49.38079" lon="1.50787">
        <ele>145.30047607422</ele>
        <time>2017-07-02T07:31:53.000Z</time>
      </trkpt>
      <trkpt lat="49.38081" lon="1.5078">
        <ele>145.77281188965</ele>
        <time>2017-07-02T07:31:55.000Z</time>
      </trkpt>
      <trkpt lat="49.38087" lon="1.50772">
        <ele>146.24836730957</ele>
        <time>2017-07-02T07:31:58.000Z</time>
      </trkpt>
      <trkpt lat="49.38092" lon="1.50766">
        <ele>146.77119445801</ele>
        <time>2017-07-02T07:32:01.000Z</time>
      </trkpt>
      <trkpt lat="49.38096" lon="1.50759">
        <ele>147.30903625488</ele>
        <time>2017-07-02T07:32:03.000Z</time>
      </trkpt>
      <trkpt lat="49.38101" lon="1.50748">
        <ele>147.84219360352</ele>
        <time>2017-07-02T07:32:06.000Z</time>
      </trkpt>
      <trkpt lat="49.38104" lon="1.50741">
        <ele>148.39993286133</ele>
        <time>2017-07-02T07:32:08.000Z</time>
      </trkpt>
      <trkpt lat="49.38109" lon="1.5073">
        <ele>148.95050048828</ele>
        <time>2017-07-02T07:32:11.000Z</time>
      </trkpt>
      <trkpt lat="49.38115" lon="1.50718">
        <ele>149.46362304688</ele>
        <time>2017-07-02T07:32:14.000Z</time>
      </trkpt>
      <trkpt lat="49.38118" lon="1.50711">
        <ele>149.92886352539</ele>
        <time>2017-07-02T07:32:16.000Z</time>
      </trkpt>
      <trkpt lat="49.38123" lon="1.50702">
        <ele>150.30723571777</ele>
        <time>2017-07-02T07:32:19.000Z</time>
      </trkpt>
      <trkpt lat="49.38127" lon="1.50695">
        <ele>150.65573120117</ele>
        <time>2017-07-02T07:32:22.000Z</time>
      </trkpt>
      <trkpt lat="49.38129" lon="1.50689">
        <ele>150.93502807617</ele>
        <time>2017-07-02T07:32:24.000Z</time>
      </trkpt>
      <trkpt lat="49.38134" lon="1.5068">
        <ele>151.15051269531</ele>
        <time>2017-07-02T07:32:27.000Z</time>
      </trkpt>
      <trkpt lat="49.38138" lon="1.50668">
        <ele>151.33975219727</ele>
        <time>2017-07-02T07:32:30.000Z</time>
      </trkpt>
      <trkpt lat="49.3814" lon="1.50661">
        <ele>151.5146484375</ele>
        <time>2017-07-02T07:32:32.000Z</time>
      </trkpt>
      <trkpt lat="49.38142" lon="1.50654">
        <ele>151.68876647949</ele>
        <time>2017-07-02T07:32:34.000Z</time>
      </trkpt>
      <trkpt lat="49.38147" lon="1.50647">
        <ele>151.87777709961</ele>
        <time>2017-07-02T07:32:37.000Z</time>
      </trkpt>
      <trkpt lat="49.38151" lon="1.5064">
        <ele>152.06423950195</ele>
        <time>2017-07-02T07:32:40.000Z</time>
      </trkpt>
      <trkpt lat="49.38155" lon="1.50632">
        <ele>152.24877929688</ele>
        <time>2017-07-02T07:32:43.000Z</time>
      </trkpt>
      <trkpt lat="49.3816" lon="1.50623">
        <ele>152.40533447266</ele>
        <time>2017-07-02T07:32:46.000Z</time>
      </trkpt>
      <trkpt lat="49.38162" lon="1.50617">
        <ele>152.53031921387</ele>
        <time>2017-07-02T07:32:48.000Z</time>
      </trkpt>
      <trkpt lat="49.38166" lon="1.50608">
        <ele>152.62033081055</ele>
        <time>2017-07-02T07:32:51.000Z</time>
      </trkpt>
      <trkpt lat="49.38169" lon="1.50596">
        <ele>152.74671936035</ele>
        <time>2017-07-02T07:32:54.000Z</time>
      </trkpt>
      <trkpt lat="49.38173" lon="1.50583">
        <ele>152.96287536621</ele>
        <time>2017-07-02T07:32:57.000Z</time>
      </trkpt>
      <trkpt lat="49.38177" lon="1.50572">
        <ele>153.28852844238</ele>
        <time>2017-07-02T07:33:00.000Z</time>
      </trkpt>
      <trkpt lat="49.38183" lon="1.50562">
        <ele>153.71350097656</ele>
        <time>2017-07-02T07:33:03.000Z</time>
      </trkpt>
      <trkpt lat="49.38187" lon="1.50556">
        <ele>154.19218444824</ele>
        <time>2017-07-02T07:33:05.000Z</time>
      </trkpt>
      <trkpt lat="49.3819" lon="1.50549">
        <ele>154.63822937012</ele>
        <time>2017-07-02T07:33:07.000Z</time>
      </trkpt>
      <trkpt lat="49.38195" lon="1.5054">
        <ele>155.01016235352</ele>
        <time>2017-07-02T07:33:10.000Z</time>
      </trkpt>
      <trkpt lat="49.38201" lon="1.50532">
        <ele>155.27619934082</ele>
        <time>2017-07-02T07:33:13.000Z</time>
      </trkpt>
      <trkpt lat="49.38206" lon="1.50525">
        <ele>155.42834472656</ele>
        <time>2017-07-02T07:33:16.000Z</time>
      </trkpt>
      <trkpt lat="49.38209" lon="1.50519">
        <ele>155.49253845215</ele>
        <time>2017-07-02T07:33:18.000Z</time>
      </trkpt>
      <trkpt lat="49.38212" lon="1.50512">
        <ele>155.4822845459</ele>
        <time>2017-07-02T07:33:20.000Z</time>
      </trkpt>
      <trkpt lat="49.38216" lon="1.505">
        <ele>155.34465026855</ele>
        <time>2017-07-02T07:33:23.000Z</time>
      </trkpt>
      <trkpt lat="49.38218" lon="1.50495">
        <ele>155.22201538086</ele>
        <time>2017-07-02T07:33:25.000Z</time>
      </trkpt>
      <trkpt lat="49.38221" lon="1.50484">
        <ele>155.17330932617</ele>
        <time>2017-07-02T07:33:28.000Z</time>
      </trkpt>
      <trkpt lat="49.38226" lon="1.50473">
        <ele>155.19946289062</ele>
        <time>2017-07-02T07:33:31.000Z</time>
      </trkpt>
      <trkpt lat="49.38231" lon="1.50462">
        <ele>155.30813598633</ele>
        <time>2017-07-02T07:33:34.000Z</time>
      </trkpt>
      <trkpt lat="49.38233" lon="1.50456">
        <ele>155.52227783203</ele>
        <time>2017-07-02T07:33:36.000Z</time>
      </trkpt>
      <trkpt lat="49.38239" lon="1.50444">
        <ele>155.7162322998</ele>
        <time>2017-07-02T07:33:39.000Z</time>
      </trkpt>
      <trkpt lat="49.38243" lon="1.50438">
        <ele>155.83195495605</ele>
        <time>2017-07-02T07:33:41.000Z</time>
      </trkpt>
      <trkpt lat="49.38249" lon="1.50429">
        <ele>155.86869812012</ele>
        <time>2017-07-02T07:33:44.000Z</time>
      </trkpt>
      <trkpt lat="49.38253" lon="1.50422">
        <ele>155.9367980957</ele>
        <time>2017-07-02T07:33:46.000Z</time>
      </trkpt>
      <trkpt lat="49.38258" lon="1.50414">
        <ele>156.1022644043</ele>
        <time>2017-07-02T07:33:49.000Z</time>
      </trkpt>
      <trkpt lat="49.38261" lon="1.50408">
        <ele>156.31991577148</ele>
        <time>2017-07-02T07:33:51.000Z</time>
      </trkpt>
      <trkpt lat="49.38264" lon="1.50401">
        <ele>156.6162109375</ele>
        <time>2017-07-02T07:33:53.000Z</time>
      </trkpt>
      <trkpt lat="49.38269" lon="1.50393">
        <ele>157.03674316406</ele>
        <time>2017-07-02T07:33:56.000Z</time>
      </trkpt>
      <trkpt lat="49.38273" lon="1.50388">
        <ele>157.43374633789</ele>
        <time>2017-07-02T07:33:58.000Z</time>
      </trkpt>
      <trkpt lat="49.38278" lon="1.50381">
        <ele>157.78718566895</ele>
        <time>2017-07-02T07:34:01.000Z</time>
      </trkpt>
      <trkpt lat="49.38281" lon="1.50377">
        <ele>158.11367797852</ele>
        <time>2017-07-02T07:34:03.000Z</time>
      </trkpt>
      <trkpt lat="49.38285" lon="1.50372">
        <ele>158.40998840332</ele>
        <time>2017-07-02T07:34:05.000Z</time>
      </trkpt>
      <trkpt lat="49.38291" lon="1.50361">
        <ele>158.66003417969</ele>
        <time>2017-07-02T07:34:08.000Z</time>
      </trkpt>
      <trkpt lat="49.38294" lon="1.50354">
        <ele>158.88046264648</ele>
        <time>2017-07-02T07:34:10.000Z</time>
      </trkpt>
      <trkpt lat="49.383" lon="1.50346">
        <ele>159.04931640625</ele>
        <time>2017-07-02T07:34:13.000Z</time>
      </trkpt>
      <trkpt lat="49.38303" lon="1.50341">
        <ele>159.18600463867</ele>
        <time>2017-07-02T07:34:16.000Z</time>
      </trkpt>
      <trkpt lat="49.38306" lon="1.50336">
        <ele>159.287109375</ele>
        <time>2017-07-02T07:34:18.000Z</time>
      </trkpt>
      <trkpt lat="49.3831" lon="1.5033">
        <ele>159.36042785645</ele>
        <time>2017-07-02T07:34:21.000Z</time>
      </trkpt>
      <trkpt lat="49.38313" lon="1.50327">
        <ele>159.43330383301</ele>
        <time>2017-07-02T07:34:23.000Z</time>
      </trkpt>
      <trkpt lat="49.38316" lon="1.50321">
        <ele>159.51037597656</ele>
        <time>2017-07-02T07:34:25.000Z</time>
      </trkpt>
      <trkpt lat="49.38319" lon="1.50311">
        <ele>159.62287902832</ele>
        <time>2017-07-02T07:34:28.000Z</time>
      </trkpt>
      <trkpt lat="49.38321" lon="1.50304">
        <ele>159.75631713867</ele>
        <time>2017-07-02T07:34:30.000Z</time>
      </trkpt>
      <trkpt lat="49.38321" lon="1.50294">
        <ele>159.89248657227</ele>
        <time>2017-07-02T07:34:33.000Z</time>
      </trkpt>
      <trkpt lat="49.38317" lon="1.50289">
        <ele>160.00170898438</ele>
        <time>2017-07-02T07:34:35.000Z</time>
      </trkpt>
      <trkpt lat="49.38312" lon="1.50286">
        <ele>160.06930541992</ele>
        <time>2017-07-02T07:34:38.000Z</time>
      </trkpt>
      <trkpt lat="49.38307" lon="1.50286">
        <ele>160.07124328613</ele>
        <time>2017-07-02T07:34:41.000Z</time>
      </trkpt>
      <trkpt lat="49.38302" lon="1.50286">
        <ele>160.02450561523</ele>
        <time>2017-07-02T07:34:44.000Z</time>
      </trkpt>
      <trkpt lat="49.38296" lon="1.50287">
        <ele>159.92297363281</ele>
        <time>2017-07-02T07:34:47.000Z</time>
      </trkpt>
      <trkpt lat="49.38292" lon="1.50288">
        <ele>159.80570983887</ele>
        <time>2017-07-02T07:34:49.000Z</time>
      </trkpt>
      <trkpt lat="49.38288" lon="1.50288">
        <ele>159.68460083008</ele>
        <time>2017-07-02T07:34:51.000Z</time>
      </trkpt>
      <trkpt lat="49.38281" lon="1.50288">
        <ele>159.55429077148</ele>
        <time>2017-07-02T07:34:54.000Z</time>
      </trkpt>
      <trkpt lat="49.38277" lon="1.5029">
        <ele>159.42620849609</ele>
        <time>2017-07-02T07:34:56.000Z</time>
      </trkpt>
      <trkpt lat="49.38271" lon="1.50294">
        <ele>159.29214477539</ele>
        <time>2017-07-02T07:34:59.000Z</time>
      </trkpt>
      <trkpt lat="49.38263" lon="1.50297">
        <ele>159.1318359375</ele>
        <time>2017-07-02T07:35:02.000Z</time>
      </trkpt>
      <trkpt lat="49.38255" lon="1.503">
        <ele>158.94583129883</ele>
        <time>2017-07-02T07:35:05.000Z</time>
      </trkpt>
      <trkpt lat="49.38248" lon="1.50305">
        <ele>158.79545593262</ele>
        <time>2017-07-02T07:35:08.000Z</time>
      </trkpt>
      <trkpt lat="49.38242" lon="1.50309">
        <ele>158.76803588867</ele>
        <time>2017-07-02T07:35:10.000Z</time>
      </trkpt>
      <trkpt lat="49.38237" lon="1.50313">
        <ele>158.84864807129</ele>
        <time>2017-07-02T07:35:12.000Z</time>
      </trkpt>
      <trkpt lat="49.38232" lon="1.50317">
        <ele>159.06213378906</ele>
        <time>2017-07-02T07:35:14.000Z</time>
      </trkpt>
      <trkpt lat="49.38225" lon="1.50322">
        <ele>159.42617797852</ele>
        <time>2017-07-02T07:35:17.000Z</time>
      </trkpt>
      <trkpt lat="49.38221" lon="1.50326">
        <ele>159.84201049805</ele>
        <time>2017-07-02T07:35:19.000Z</time>
      </trkpt>
      <trkpt lat="49.38213" lon="1.50332">
        <ele>160.25704956055</ele>
        <time>2017-07-02T07:35:22.000Z</time>
      </trkpt>
      <trkpt lat="49.38208" lon="1.50336">
        <ele>160.67582702637</ele>
        <time>2017-07-02T07:35:25.000Z</time>
      </trkpt>
      <trkpt lat="49.38203" lon="1.50338">
        <ele>161.07598876953</ele>
        <time>2017-07-02T07:35:27.000Z</time>
      </trkpt>
      <trkpt lat="49.38197" lon="1.50342">
        <ele>161.44900512695</ele>
        <time>2017-07-02T07:35:30.000Z</time>
      </trkpt>
      <trkpt lat="49.3819" lon="1.50348">
        <ele>161.82698059082</ele>
        <time>2017-07-02T07:35:33.000Z</time>
      </trkpt>
      <trkpt lat="49.38185" lon="1.50352">
        <ele>162.17504882812</ele>
        <time>2017-07-02T07:35:36.000Z</time>
      </trkpt>
      <trkpt lat="49.38181" lon="1.50353">
        <ele>162.49903869629</ele>
        <time>2017-07-02T07:35:38.000Z</time>
      </trkpt>
      <trkpt lat="49.38177" lon="1.50358">
        <ele>162.7978515625</ele>
        <time>2017-07-02T07:35:41.000Z</time>
      </trkpt>
      <trkpt lat="49.38172" lon="1.50363">
        <ele>163.06381225586</ele>
        <time>2017-07-02T07:35:44.000Z</time>
      </trkpt>
      <trkpt lat="49.38169" lon="1.50366">
        <ele>163.29174804688</ele>
        <time>2017-07-02T07:35:46.000Z</time>
      </trkpt>
      <trkpt lat="49.38166" lon="1.5037">
        <ele>163.45642089844</ele>
        <time>2017-07-02T07:35:48.000Z</time>
      </trkpt>
      <trkpt lat="49.3816" lon="1.50375">
        <ele>163.56323242188</ele>
        <time>2017-07-02T07:35:51.000Z</time>
      </trkpt>
      <trkpt lat="49.38157" lon="1.50378">
        <ele>163.62292480469</ele>
        <time>2017-07-02T07:35:53.000Z</time>
      </trkpt>
      <trkpt lat="49.38155" lon="1.50379">
        <ele>163.64668273926</ele>
        <time>2017-07-02T07:35:55.000Z</time>
      </trkpt>
      <trkpt lat="49.38148" lon="1.50379">
        <ele>163.68196105957</ele>
        <time>2017-07-02T07:35:58.000Z</time>
      </trkpt>
      <trkpt lat="49.38143" lon="1.50381">
        <ele>163.72183227539</ele>
        <time>2017-07-02T07:36:01.000Z</time>
      </trkpt>
      <trkpt lat="49.38139" lon="1.50384">
        <ele>163.77685546875</ele>
        <time>2017-07-02T07:36:03.000Z</time>
      </trkpt>
      <trkpt lat="49.38136" lon="1.50385">
        <ele>163.84963989258</ele>
        <time>2017-07-02T07:36:05.000Z</time>
      </trkpt>
      <trkpt lat="49.38129" lon="1.50385">
        <ele>163.94990539551</ele>
        <time>2017-07-02T07:36:08.000Z</time>
      </trkpt>
      <trkpt lat="49.38124" lon="1.50385">
        <ele>164.03910827637</ele>
        <time>2017-07-02T07:36:10.000Z</time>
      </trkpt>
      <trkpt lat="49.3812" lon="1.50384">
        <ele>164.14451599121</ele>
        <time>2017-07-02T07:36:12.000Z</time>
      </trkpt>
      <trkpt lat="49.38115" lon="1.50384">
        <ele>164.27334594727</ele>
        <time>2017-07-02T07:36:15.000Z</time>
      </trkpt>
      <trkpt lat="49.38108" lon="1.50384">
        <ele>164.42532348633</ele>
        <time>2017-07-02T07:36:18.000Z</time>
      </trkpt>
      <trkpt lat="49.38102" lon="1.50386">
        <ele>164.56869506836</ele>
        <time>2017-07-02T07:36:21.000Z</time>
      </trkpt>
      <trkpt lat="49.38098" lon="1.50387">
        <ele>164.70634460449</ele>
        <time>2017-07-02T07:36:23.000Z</time>
      </trkpt>
      <trkpt lat="49.38095" lon="1.50387">
        <ele>164.83326721191</ele>
        <time>2017-07-02T07:36:25.000Z</time>
      </trkpt>
      <trkpt lat="49.38089" lon="1.50387">
        <ele>164.96109008789</ele>
        <time>2017-07-02T07:36:28.000Z</time>
      </trkpt>
      <trkpt lat="49.38084" lon="1.50387">
        <ele>165.08125305176</ele>
        <time>2017-07-02T07:36:31.000Z</time>
      </trkpt>
      <trkpt lat="49.38079" lon="1.5039">
        <ele>165.1858215332</ele>
        <time>2017-07-02T07:36:34.000Z</time>
      </trkpt>
      <trkpt lat="49.38076" lon="1.50391">
        <ele>165.2791595459</ele>
        <time>2017-07-02T07:36:36.000Z</time>
      </trkpt>
      <trkpt lat="49.38071" lon="1.50391">
        <ele>165.37265014648</ele>
        <time>2017-07-02T07:36:39.000Z</time>
      </trkpt>
      <trkpt lat="49.38067" lon="1.50389">
        <ele>165.4521484375</ele>
        <time>2017-07-02T07:36:42.000Z</time>
      </trkpt>
      <trkpt lat="49.38062" lon="1.50386">
        <ele>165.52156066895</ele>
        <time>2017-07-02T07:36:45.000Z</time>
      </trkpt>
      <trkpt lat="49.38058" lon="1.50383">
        <ele>165.59622192383</ele>
        <time>2017-07-02T07:36:48.000Z</time>
      </trkpt>
      <trkpt lat="49.38055" lon="1.5038">
        <ele>165.67599487305</ele>
        <time>2017-07-02T07:36:50.000Z</time>
      </trkpt>
      <trkpt lat="49.38052" lon="1.50373">
        <ele>165.74967956543</ele>
        <time>2017-07-02T07:36:53.000Z</time>
      </trkpt>
      <trkpt lat="49.38047" lon="1.50367">
        <ele>165.82049560547</ele>
        <time>2017-07-02T07:36:56.000Z</time>
      </trkpt>
      <trkpt lat="49.38044" lon="1.50363">
        <ele>165.87963867188</ele>
        <time>2017-07-02T07:36:58.000Z</time>
      </trkpt>
      <trkpt lat="49.38039" lon="1.50359">
        <ele>165.93026733398</ele>
        <time>2017-07-02T07:37:01.000Z</time>
      </trkpt>
      <trkpt lat="49.38034" lon="1.50352">
        <ele>165.97401428223</ele>
        <time>2017-07-02T07:37:04.000Z</time>
      </trkpt>
      <trkpt lat="49.38031" lon="1.50348">
        <ele>166.00680541992</ele>
        <time>2017-07-02T07:37:06.000Z</time>
      </trkpt>
      <trkpt lat="49.38028" lon="1.50343">
        <ele>166.02421569824</ele>
        <time>2017-07-02T07:37:08.000Z</time>
      </trkpt>
      <trkpt lat="49.38021" lon="1.50336">
        <ele>166.03088378906</ele>
        <time>2017-07-02T07:37:11.000Z</time>
      </trkpt>
      <trkpt lat="49.38015" lon="1.50328">
        <ele>166.06372070312</ele>
        <time>2017-07-02T07:37:14.000Z</time>
      </trkpt>
      <trkpt lat="49.3801" lon="1.50322">
        <ele>166.13554382324</ele>
        <time>2017-07-02T07:37:16.000Z</time>
      </trkpt>
      <trkpt lat="49.38004" lon="1.50316">
        <ele>166.25183105469</ele>
        <time>2017-07-02T07:37:18.000Z</time>
      </trkpt>
      <trkpt lat="49.37995" lon="1.50306">
        <ele>166.49336242676</ele>
        <time>2017-07-02T07:37:21.000Z</time>
      </trkpt>
      <trkpt lat="49.37989" lon="1.50299">
        <ele>166.84213256836</ele>
        <time>2017-07-02T07:37:23.000Z</time>
      </trkpt>
      <trkpt lat="49.3798" lon="1.50287">
        <ele>167.32138061523</ele>
        <time>2017-07-02T07:37:26.000Z</time>
      </trkpt>
      <trkpt lat="49.3797" lon="1.50275">
        <ele>167.91622924805</ele>
        <time>2017-07-02T07:37:29.000Z</time>
      </trkpt>
      <trkpt lat="49.3796" lon="1.50263">
        <ele>168.61421203613</ele>
        <time>2017-07-02T07:37:32.000Z</time>
      </trkpt>
      <trkpt lat="49.37952" lon="1.50255">
        <ele>169.28422546387</ele>
        <time>2017-07-02T07:37:34.000Z</time>
      </trkpt>
      <trkpt lat="49.37943" lon="1.50245">
        <ele>169.92451477051</ele>
        <time>2017-07-02T07:37:37.000Z</time>
      </trkpt>
      <trkpt lat="49.37937" lon="1.50238">
        <ele>170.4210357666</ele>
        <time>2017-07-02T07:37:39.000Z</time>
      </trkpt>
      <trkpt lat="49.37931" lon="1.50231">
        <ele>170.7843170166</ele>
        <time>2017-07-02T07:37:41.000Z</time>
      </trkpt>
      <trkpt lat="49.37922" lon="1.50221">
        <ele>171.04423522949</ele>
        <time>2017-07-02T07:37:44.000Z</time>
      </trkpt>
      <trkpt lat="49.37915" lon="1.50213">
        <ele>171.24063110352</ele>
        <time>2017-07-02T07:37:46.000Z</time>
      </trkpt>
      <trkpt lat="49.3791" lon="1.50204">
        <ele>171.36672973633</ele>
        <time>2017-07-02T07:37:48.000Z</time>
      </trkpt>
      <trkpt lat="49.37903" lon="1.50196">
        <ele>171.48721313477</ele>
        <time>2017-07-02T07:37:50.000Z</time>
      </trkpt>
      <trkpt lat="49.37893" lon="1.50184">
        <ele>171.6229095459</ele>
        <time>2017-07-02T07:37:53.000Z</time>
      </trkpt>
      <trkpt lat="49.37884" lon="1.50172">
        <ele>171.77496337891</ele>
        <time>2017-07-02T07:37:56.000Z</time>
      </trkpt>
      <trkpt lat="49.37877" lon="1.50164">
        <ele>171.96928405762</ele>
        <time>2017-07-02T07:37:58.000Z</time>
      </trkpt>
      <trkpt lat="49.37867" lon="1.50153">
        <ele>172.30180358887</ele>
        <time>2017-07-02T07:38:01.000Z</time>
      </trkpt>
      <trkpt lat="49.37861" lon="1.50147">
        <ele>172.69772338867</ele>
        <time>2017-07-02T07:38:03.000Z</time>
      </trkpt>
      <trkpt lat="49.37852" lon="1.50135">
        <ele>173.17935180664</ele>
        <time>2017-07-02T07:38:06.000Z</time>
      </trkpt>
      <trkpt lat="49.37844" lon="1.50124">
        <ele>173.69583129883</ele>
        <time>2017-07-02T07:38:09.000Z</time>
      </trkpt>
      <trkpt lat="49.37836" lon="1.50112">
        <ele>174.23519897461</ele>
        <time>2017-07-02T07:38:12.000Z</time>
      </trkpt>
      <trkpt lat="49.37826" lon="1.50098">
        <ele>174.63017272949</ele>
        <time>2017-07-02T07:38:15.000Z</time>
      </trkpt>
      <trkpt lat="49.37815" lon="1.50084">
        <ele>174.87760925293</ele>
        <time>2017-07-02T07:38:18.000Z</time>
      </trkpt>
      <trkpt lat="49.37807" lon="1.50073">
        <ele>175.02058410645</ele>
        <time>2017-07-02T07:38:20.000Z</time>
      </trkpt>
      <trkpt lat="49.37801" lon="1.50056">
        <ele>175.16781616211</ele>
        <time>2017-07-02T07:38:23.000Z</time>
      </trkpt>
      <trkpt lat="49.37799" lon="1.50045">
        <ele>175.314453125</ele>
        <time>2017-07-02T07:38:25.000Z</time>
      </trkpt>
      <trkpt lat="49.37799" lon="1.50034">
        <ele>175.57780456543</ele>
        <time>2017-07-02T07:38:27.000Z</time>
      </trkpt>
      <trkpt lat="49.37801" lon="1.50025">
        <ele>176.02243041992</ele>
        <time>2017-07-02T07:38:29.000Z</time>
      </trkpt>
      <trkpt lat="49.37804" lon="1.50014">
        <ele>176.59327697754</ele>
        <time>2017-07-02T07:38:32.000Z</time>
      </trkpt>
      <trkpt lat="49.37806" lon="1.50003">
        <ele>177.20858764648</ele>
        <time>2017-07-02T07:38:35.000Z</time>
      </trkpt>
      <trkpt lat="49.37807" lon="1.49995">
        <ele>177.81346130371</ele>
        <time>2017-07-02T07:38:37.000Z</time>
      </trkpt>
      <trkpt lat="49.3781" lon="1.49987">
        <ele>178.40144348145</ele>
        <time>2017-07-02T07:38:39.000Z</time>
      </trkpt>
      <trkpt lat="49.37813" lon="1.49975">
        <ele>179.02726745605</ele>
        <time>2017-07-02T07:38:42.000Z</time>
      </trkpt>
      <trkpt lat="49.37816" lon="1.49964">
        <ele>179.64283752441</ele>
        <time>2017-07-02T07:38:45.000Z</time>
      </trkpt>
      <trkpt lat="49.3782" lon="1.49952">
        <ele>180.25561523438</ele>
        <time>2017-07-02T07:38:48.000Z</time>
      </trkpt>
      <trkpt lat="49.37822" lon="1.49945">
        <ele>180.87707519531</ele>
        <time>2017-07-02T07:38:50.000Z</time>
      </trkpt>
      <trkpt lat="49.37823" lon="1.49933">
        <ele>181.53271484375</ele>
        <time>2017-07-02T07:38:53.000Z</time>
      </trkpt>
      <trkpt lat="49.37825" lon="1.49925">
        <ele>182.12768554688</ele>
        <time>2017-07-02T07:38:55.000Z</time>
      </trkpt>
      <trkpt lat="49.37827" lon="1.49918">
        <ele>182.6689453125</ele>
        <time>2017-07-02T07:38:57.000Z</time>
      </trkpt>
      <trkpt lat="49.37829" lon="1.49911">
        <ele>183.10389709473</ele>
        <time>2017-07-02T07:38:59.000Z</time>
      </trkpt>
      <trkpt lat="49.37832" lon="1.49901">
        <ele>183.47425842285</ele>
        <time>2017-07-02T07:39:02.000Z</time>
      </trkpt>
      <trkpt lat="49.37834" lon="1.49895">
        <ele>183.71992492676</ele>
        <time>2017-07-02T07:39:04.000Z</time>
      </trkpt>
      <trkpt lat="49.37835" lon="1.49888">
        <ele>183.86515808105</ele>
        <time>2017-07-02T07:39:06.000Z</time>
      </trkpt>
      <trkpt lat="49.37838" lon="1.49882">
        <ele>183.91192626953</ele>
        <time>2017-07-02T07:39:08.000Z</time>
      </trkpt>
      <trkpt lat="49.3784" lon="1.49872">
        <ele>183.91467285156</ele>
        <time>2017-07-02T07:39:11.000Z</time>
      </trkpt>
      <trkpt lat="49.37841" lon="1.49866">
        <ele>183.8786315918</ele>
        <time>2017-07-02T07:39:13.000Z</time>
      </trkpt>
      <trkpt lat="49.37844" lon="1.49855">
        <ele>183.82173156738</ele>
        <time>2017-07-02T07:39:16.000Z</time>
      </trkpt>
      <trkpt lat="49.37847" lon="1.49842">
        <ele>183.76698303223</ele>
        <time>2017-07-02T07:39:19.000Z</time>
      </trkpt>
      <trkpt lat="49.37849" lon="1.49831">
        <ele>183.71841430664</ele>
        <time>2017-07-02T07:39:21.000Z</time>
      </trkpt>
      <trkpt lat="49.37853" lon="1.49819">
        <ele>183.66073608398</ele>
        <time>2017-07-02T07:39:24.000Z</time>
      </trkpt>
      <trkpt lat="49.37857" lon="1.49805">
        <ele>183.58975219727</ele>
        <time>2017-07-02T07:39:27.000Z</time>
      </trkpt>
      <trkpt lat="49.37861" lon="1.49789">
        <ele>183.51443481445</ele>
        <time>2017-07-02T07:39:30.000Z</time>
      </trkpt>
      <trkpt lat="49.37864" lon="1.49778">
        <ele>183.43359375</ele>
        <time>2017-07-02T07:39:32.000Z</time>
      </trkpt>
      <trkpt lat="49.37868" lon="1.49767">
        <ele>183.34375</ele>
        <time>2017-07-02T07:39:34.000Z</time>
      </trkpt>
      <trkpt lat="49.37871" lon="1.49752">
        <ele>183.2578125</ele>
        <time>2017-07-02T07:39:37.000Z</time>
      </trkpt>
      <trkpt lat="49.37875" lon="1.49735">
        <ele>183.26155090332</ele>
        <time>2017-07-02T07:39:40.000Z</time>
      </trkpt>
      <trkpt lat="49.37878" lon="1.49725">
        <ele>183.33349609375</ele>
        <time>2017-07-02T07:39:42.000Z</time>
      </trkpt>
      <trkpt lat="49.37881" lon="1.49714">
        <ele>183.47160339355</ele>
        <time>2017-07-02T07:39:44.000Z</time>
      </trkpt>
      <trkpt lat="49.37885" lon="1.49697">
        <ele>183.72271728516</ele>
        <time>2017-07-02T07:39:47.000Z</time>
      </trkpt>
      <trkpt lat="49.37888" lon="1.49686">
        <ele>184.04823303223</ele>
        <time>2017-07-02T07:39:49.000Z</time>
      </trkpt>
      <trkpt lat="49.37893" lon="1.49667">
        <ele>184.41485595703</ele>
        <time>2017-07-02T07:39:52.000Z</time>
      </trkpt>
      <trkpt lat="49.37897" lon="1.49654">
        <ele>184.76373291016</ele>
        <time>2017-07-02T07:39:54.000Z</time>
      </trkpt>
      <trkpt lat="49.37903" lon="1.49635">
        <ele>185.12249755859</ele>
        <time>2017-07-02T07:39:57.000Z</time>
      </trkpt>
      <trkpt lat="49.37908" lon="1.49616">
        <ele>185.46377563477</ele>
        <time>2017-07-02T07:40:00.000Z</time>
      </trkpt>
      <trkpt lat="49.37914" lon="1.49598">
        <ele>185.83967590332</ele>
        <time>2017-07-02T07:40:03.000Z</time>
      </trkpt>
      <trkpt lat="49.37917" lon="1.49587">
        <ele>186.16638183594</ele>
        <time>2017-07-02T07:40:05.000Z</time>
      </trkpt>
      <trkpt lat="49.37919" lon="1.49576">
        <ele>186.50215148926</ele>
        <time>2017-07-02T07:40:07.000Z</time>
      </trkpt>
      <trkpt lat="49.37922" lon="1.4956">
        <ele>186.83113098145</ele>
        <time>2017-07-02T07:40:10.000Z</time>
      </trkpt>
      <trkpt lat="49.37925" lon="1.49549">
        <ele>187.12153625488</ele>
        <time>2017-07-02T07:40:12.000Z</time>
      </trkpt>
      <trkpt lat="49.37927" lon="1.49538">
        <ele>187.36170959473</ele>
        <time>2017-07-02T07:40:14.000Z</time>
      </trkpt>
      <trkpt lat="49.37931" lon="1.49522">
        <ele>187.61218261719</ele>
        <time>2017-07-02T07:40:17.000Z</time>
      </trkpt>
      <trkpt lat="49.37935" lon="1.49507">
        <ele>187.89733886719</ele>
        <time>2017-07-02T07:40:20.000Z</time>
      </trkpt>
      <trkpt lat="49.37939" lon="1.49491">
        <ele>188.17483520508</ele>
        <time>2017-07-02T07:40:23.000Z</time>
      </trkpt>
      <trkpt lat="49.37944" lon="1.49476">
        <ele>188.43490600586</ele>
        <time>2017-07-02T07:40:26.000Z</time>
      </trkpt>
      <trkpt lat="49.37947" lon="1.49466">
        <ele>188.66496276855</ele>
        <time>2017-07-02T07:40:28.000Z</time>
      </trkpt>
      <trkpt lat="49.37952" lon="1.49449">
        <ele>188.83541870117</ele>
        <time>2017-07-02T07:40:31.000Z</time>
      </trkpt>
      <trkpt lat="49.37955" lon="1.49435">
        <ele>188.93367004395</ele>
        <time>2017-07-02T07:40:34.000Z</time>
      </trkpt>
      <trkpt lat="49.3796" lon="1.49419">
        <ele>188.98849487305</ele>
        <time>2017-07-02T07:40:37.000Z</time>
      </trkpt>
      <trkpt lat="49.37962" lon="1.4941">
        <ele>189.06033325195</ele>
        <time>2017-07-02T07:40:39.000Z</time>
      </trkpt>
      <trkpt lat="49.37965" lon="1.494">
        <ele>189.17132568359</ele>
        <time>2017-07-02T07:40:41.000Z</time>
      </trkpt>
      <trkpt lat="49.37968" lon="1.49388">
        <ele>189.33395385742</ele>
        <time>2017-07-02T07:40:44.000Z</time>
      </trkpt>
      <trkpt lat="49.3797" lon="1.4938">
        <ele>189.53591918945</ele>
        <time>2017-07-02T07:40:46.000Z</time>
      </trkpt>
      <trkpt lat="49.37972" lon="1.49369">
        <ele>189.7815246582</ele>
        <time>2017-07-02T07:40:48.000Z</time>
      </trkpt>
      <trkpt lat="49.37974" lon="1.49362">
        <ele>190.02253723145</ele>
        <time>2017-07-02T07:40:50.000Z</time>
      </trkpt>
      <trkpt lat="49.37976" lon="1.49355">
        <ele>190.23826599121</ele>
        <time>2017-07-02T07:40:52.000Z</time>
      </trkpt>
      <trkpt lat="49.37978" lon="1.49347">
        <ele>190.42276000977</ele>
        <time>2017-07-02T07:40:54.000Z</time>
      </trkpt>
      <trkpt lat="49.37981" lon="1.49336">
        <ele>190.60629272461</ele>
        <time>2017-07-02T07:40:57.000Z</time>
      </trkpt>
      <trkpt lat="49.37984" lon="1.49326">
        <ele>190.75054931641</ele>
        <time>2017-07-02T07:41:00.000Z</time>
      </trkpt>
      <trkpt lat="49.37986" lon="1.49317">
        <ele>190.86044311523</ele>
        <time>2017-07-02T07:41:03.000Z</time>
      </trkpt>
      <trkpt lat="49.37988" lon="1.49311">
        <ele>190.94140625</ele>
        <time>2017-07-02T07:41:05.000Z</time>
      </trkpt>
      <trkpt lat="49.37989" lon="1.49299">
        <ele>190.99110412598</ele>
        <time>2017-07-02T07:41:08.000Z</time>
      </trkpt>
      <trkpt lat="49.37992" lon="1.49286">
        <ele>191</ele>
        <time>2017-07-02T07:41:11.000Z</time>
      </trkpt>
      <trkpt lat="49.37994" lon="1.49279">
        <ele>191</ele>
        <time>2017-07-02T07:41:13.000Z</time>
      </trkpt>
      <trkpt lat="49.37996" lon="1.4927">
        <ele>191</ele>
        <time>2017-07-02T07:41:16.000Z</time>
      </trkpt>
      <trkpt lat="49.37998" lon="1.49264">
        <ele>191</ele>
        <time>2017-07-02T07:41:18.000Z</time>
      </trkpt>
      <trkpt lat="49.38" lon="1.49255">
        <ele>191</ele>
        <time>2017-07-02T07:41:21.000Z</time>
      </trkpt>
      <trkpt lat="49.38002" lon="1.49243">
        <ele>191.03866577148</ele>
        <time>2017-07-02T07:41:24.000Z</time>
      </trkpt>
      <trkpt lat="49.38005" lon="1.49233">
        <ele>191.13717651367</ele>
        <time>2017-07-02T07:41:27.000Z</time>
      </trkpt>
      <trkpt lat="49.38006" lon="1.49226">
        <ele>191.27447509766</ele>
        <time>2017-07-02T07:41:29.000Z</time>
      </trkpt>
      <trkpt lat="49.38009" lon="1.49213">
        <ele>191.49063110352</ele>
        <time>2017-07-02T07:41:32.000Z</time>
      </trkpt>
      <trkpt lat="49.38013" lon="1.49201">
        <ele>191.7936706543</ele>
        <time>2017-07-02T07:41:35.000Z</time>
      </trkpt>
      <trkpt lat="49.38015" lon="1.49195">
        <ele>192.10241699219</ele>
        <time>2017-07-02T07:41:37.000Z</time>
      </trkpt>
      <trkpt lat="49.38017" lon="1.49183">
        <ele>192.43241882324</ele>
        <time>2017-07-02T07:41:40.000Z</time>
      </trkpt>
      <trkpt lat="49.38019" lon="1.49176">
        <ele>192.77821350098</ele>
        <time>2017-07-02T07:41:42.000Z</time>
      </trkpt>
      <trkpt lat="49.38022" lon="1.49165">
        <ele>193.10263061523</ele>
        <time>2017-07-02T07:41:45.000Z</time>
      </trkpt>
      <trkpt lat="49.38024" lon="1.49158">
        <ele>193.27896118164</ele>
        <time>2017-07-02T07:41:47.000Z</time>
      </trkpt>
      <trkpt lat="49.38025" lon="1.49149">
        <ele>193.34164428711</ele>
        <time>2017-07-02T07:41:49.000Z</time>
      </trkpt>
      <trkpt lat="49.38027" lon="1.49141">
        <ele>193.26071166992</ele>
        <time>2017-07-02T07:41:51.000Z</time>
      </trkpt>
      <trkpt lat="49.38029" lon="1.49127">
        <ele>193.01727294922</ele>
        <time>2017-07-02T07:41:54.000Z</time>
      </trkpt>
      <trkpt lat="49.38033" lon="1.49119">
        <ele>192.67817687988</ele>
        <time>2017-07-02T07:41:56.000Z</time>
      </trkpt>
      <trkpt lat="49.38038" lon="1.49106">
        <ele>192.34274291992</ele>
        <time>2017-07-02T07:41:59.000Z</time>
      </trkpt>
      <trkpt lat="49.38041" lon="1.49097">
        <ele>192.04020690918</ele>
        <time>2017-07-02T07:42:01.000Z</time>
      </trkpt>
      <trkpt lat="49.38046" lon="1.49086">
        <ele>191.77542114258</ele>
        <time>2017-07-02T07:42:04.000Z</time>
      </trkpt>
      <trkpt lat="49.3805" lon="1.49075">
        <ele>191.5128326416</ele>
        <time>2017-07-02T07:42:07.000Z</time>
      </trkpt>
      <trkpt lat="49.38052" lon="1.49067">
        <ele>191.17790222168</ele>
        <time>2017-07-02T07:42:09.000Z</time>
      </trkpt>
      <trkpt lat="49.38057" lon="1.49054">
        <ele>190.70413208008</ele>
        <time>2017-07-02T07:42:12.000Z</time>
      </trkpt>
      <trkpt lat="49.38059" lon="1.49045">
        <ele>190.13464355469</ele>
        <time>2017-07-02T07:42:14.000Z</time>
      </trkpt>
      <trkpt lat="49.38063" lon="1.49036">
        <ele>189.47257995605</ele>
        <time>2017-07-02T07:42:16.000Z</time>
      </trkpt>
      <trkpt lat="49.38068" lon="1.49028">
        <ele>188.84036254883</ele>
        <time>2017-07-02T07:42:18.000Z</time>
      </trkpt>
      <trkpt lat="49.38076" lon="1.49017">
        <ele>188.20938110352</ele>
        <time>2017-07-02T07:42:21.000Z</time>
      </trkpt>
      <trkpt lat="49.3808" lon="1.49009">
        <ele>187.6626739502</ele>
        <time>2017-07-02T07:42:23.000Z</time>
      </trkpt>
      <trkpt lat="49.38087" lon="1.48995">
        <ele>187.03103637695</ele>
        <time>2017-07-02T07:42:26.000Z</time>
      </trkpt>
      <trkpt lat="49.38093" lon="1.48986">
        <ele>186.33944702148</ele>
        <time>2017-07-02T07:42:28.000Z</time>
      </trkpt>
      <trkpt lat="49.38097" lon="1.48978">
        <ele>185.57475280762</ele>
        <time>2017-07-02T07:42:30.000Z</time>
      </trkpt>
      <trkpt lat="49.38102" lon="1.48972">
        <ele>184.82733154297</ele>
        <time>2017-07-02T07:42:32.000Z</time>
      </trkpt>
      <trkpt lat="49.38105" lon="1.48967">
        <ele>184.11473083496</ele>
        <time>2017-07-02T07:42:35.000Z</time>
      </trkpt>
      <trkpt lat="49.38105" lon="1.48964">
        <ele>183.5749206543</ele>
        <time>2017-07-02T07:42:38.000Z</time>
      </trkpt>
      <trkpt lat="49.38107" lon="1.48963">
        <ele>183.20590209961</ele>
        <time>2017-07-02T07:42:40.000Z</time>
      </trkpt>
      <trkpt lat="49.38107" lon="1.48961">
        <ele>182.95980834961</ele>
        <time>2017-07-02T07:42:45.000Z</time>
      </trkpt>
      <trkpt lat="49.38106" lon="1.48963">
        <ele>182.82504272461</ele>
        <time>2017-07-02T07:42:52.000Z</time>
      </trkpt>
      <trkpt lat="49.38105" lon="1.48961">
        <ele>182.73483276367</ele>
        <time>2017-07-02T07:42:58.000Z</time>
      </trkpt>
      <trkpt lat="49.38104" lon="1.4896">
        <ele>182.67654418945</ele>
        <time>2017-07-02T07:43:08.000Z</time>
      </trkpt>
      <trkpt lat="49.38104" lon="1.4896">
        <ele>182.67654418945</ele>
        <time>2017-07-02T07:43:28.000Z</time>
      </trkpt>
      <trkpt lat="49.38105" lon="1.48959">
        <ele>182.59762573242</ele>
        <time>2017-07-02T07:43:32.000Z</time>
      </trkpt>
      <trkpt lat="49.38105" lon="1.48959">
        <ele>182.59762573242</ele>
        <time>2017-07-02T07:43:52.000Z</time>
      </trkpt>
      <trkpt lat="49.38104" lon="1.48961">
        <ele>182.58212280273</ele>
        <time>2017-07-02T07:43:58.000Z</time>
      </trkpt>
      <trkpt lat="49.38104" lon="1.48961">
        <ele>182.58212280273</ele>
        <time>2017-07-02T07:44:18.000Z</time>
      </trkpt>
      <trkpt lat="49.38105" lon="1.4896">
        <ele>182.52600097656</ele>
        <time>2017-07-02T07:44:21.000Z</time>
      </trkpt>
      <trkpt lat="49.38104" lon="1.48958">
        <ele>182.4697265625</ele>
        <time>2017-07-02T07:44:24.000Z</time>
      </trkpt>
      <trkpt lat="49.38103" lon="1.48958">
        <ele>182.42520141602</ele>
        <time>2017-07-02T07:44:26.000Z</time>
      </trkpt>
      <trkpt lat="49.38102" lon="1.4896">
        <ele>182.43026733398</ele>
        <time>2017-07-02T07:44:28.000Z</time>
      </trkpt>
      <trkpt lat="49.38102" lon="1.4896">
        <ele>182.43026733398</ele>
        <time>2017-07-02T07:44:48.000Z</time>
      </trkpt>
      <trkpt lat="49.38103" lon="1.4896">
        <ele>182.4012298584</ele>
        <time>2017-07-02T07:44:55.000Z</time>
      </trkpt>
      <trkpt lat="49.38103" lon="1.48958">
        <ele>182.36050415039</ele>
        <time>2017-07-02T07:45:00.000Z</time>
      </trkpt>
      <trkpt lat="49.38103" lon="1.48954">
        <ele>182.29455566406</ele>
        <time>2017-07-02T07:45:03.000Z</time>
      </trkpt>
      <trkpt lat="49.38101" lon="1.48953">
        <ele>182.2010345459</ele>
        <time>2017-07-02T07:45:05.000Z</time>
      </trkpt>
      <trkpt lat="49.381" lon="1.4895">
        <ele>182.02787780762</ele>
        <time>2017-07-02T07:45:08.000Z</time>
      </trkpt>
      <trkpt lat="49.38101" lon="1.48949">
        <ele>181.84396362305</ele>
        <time>2017-07-02T07:45:10.000Z</time>
      </trkpt>
      <trkpt lat="49.38103" lon="1.48948">
        <ele>181.68774414062</ele>
        <time>2017-07-02T07:45:12.000Z</time>
      </trkpt>
      <trkpt lat="49.38106" lon="1.48946">
        <ele>181.57182312012</ele>
        <time>2017-07-02T07:45:14.000Z</time>
      </trkpt>
      <trkpt lat="49.38112" lon="1.48939">
        <ele>181.40585327148</ele>
        <time>2017-07-02T07:45:17.000Z</time>
      </trkpt>
      <trkpt lat="49.38121" lon="1.48927">
        <ele>181.19134521484</ele>
        <time>2017-07-02T07:45:20.000Z</time>
      </trkpt>
      <trkpt lat="49.38128" lon="1.48918">
        <ele>180.92404174805</ele>
        <time>2017-07-02T07:45:22.000Z</time>
      </trkpt>
      <trkpt lat="49.38134" lon="1.48911">
        <ele>180.65188598633</ele>
        <time>2017-07-02T07:45:24.000Z</time>
      </trkpt>
      <trkpt lat="49.38141" lon="1.48906">
        <ele>180.40844726562</ele>
        <time>2017-07-02T07:45:26.000Z</time>
      </trkpt>
      <trkpt lat="49.38154" lon="1.48895">
        <ele>180.23641967773</ele>
        <time>2017-07-02T07:45:29.000Z</time>
      </trkpt>
      <trkpt lat="49.38158" lon="1.48882">
        <ele>180.06286621094</ele>
        <time>2017-07-02T07:45:31.000Z</time>
      </trkpt>
      <trkpt lat="49.38156" lon="1.48857">
        <ele>179.64558410645</ele>
        <time>2017-07-02T07:45:34.000Z</time>
      </trkpt>
      <trkpt lat="49.38147" lon="1.48841">
        <ele>179.00300598145</ele>
        <time>2017-07-02T07:45:37.000Z</time>
      </trkpt>
      <trkpt lat="49.38142" lon="1.48833">
        <ele>178.24313354492</ele>
        <time>2017-07-02T07:45:39.000Z</time>
      </trkpt>
      <trkpt lat="49.38137" lon="1.48819">
        <ele>177.39360046387</ele>
        <time>2017-07-02T07:45:42.000Z</time>
      </trkpt>
      <trkpt lat="49.38134" lon="1.48807">
        <ele>176.57070922852</ele>
        <time>2017-07-02T07:45:44.000Z</time>
      </trkpt>
      <trkpt lat="49.38132" lon="1.48791">
        <ele>175.96348571777</ele>
        <time>2017-07-02T07:45:46.000Z</time>
      </trkpt>
      <trkpt lat="49.38126" lon="1.48769">
        <ele>175.47166442871</ele>
        <time>2017-07-02T07:45:49.000Z</time>
      </trkpt>
      <trkpt lat="49.38121" lon="1.48748">
        <ele>174.99301147461</ele>
        <time>2017-07-02T07:45:52.000Z</time>
      </trkpt>
      <trkpt lat="49.38118" lon="1.48724">
        <ele>174.62007141113</ele>
        <time>2017-07-02T07:45:55.000Z</time>
      </trkpt>
      <trkpt lat="49.38118" lon="1.48713">
        <ele>174.33163452148</ele>
        <time>2017-07-02T07:45:57.000Z</time>
      </trkpt>
      <trkpt lat="49.38118" lon="1.48704">
        <ele>174.13716125488</ele>
        <time>2017-07-02T07:45:59.000Z</time>
      </trkpt>
      <trkpt lat="49.38114" lon="1.48696">
        <ele>174.07901000977</ele>
        <time>2017-07-02T07:46:02.000Z</time>
      </trkpt>
      <trkpt lat="49.38111" lon="1.48691">
        <ele>174.12400817871</ele>
        <time>2017-07-02T07:46:04.000Z</time>
      </trkpt>
      <trkpt lat="49.38108" lon="1.48685">
        <ele>174.17671203613</ele>
        <time>2017-07-02T07:46:07.000Z</time>
      </trkpt>
      <trkpt lat="49.38107" lon="1.4868">
        <ele>174.23666381836</ele>
        <time>2017-07-02T07:46:09.000Z</time>
      </trkpt>
      <trkpt lat="49.38105" lon="1.48674">
        <ele>174.30621337891</ele>
        <time>2017-07-02T07:46:11.000Z</time>
      </trkpt>
      <trkpt lat="49.38104" lon="1.48668">
        <ele>174.3705291748</ele>
        <time>2017-07-02T07:46:13.000Z</time>
      </trkpt>
      <trkpt lat="49.38101" lon="1.48658">
        <ele>174.43367004395</ele>
        <time>2017-07-02T07:46:16.000Z</time>
      </trkpt>
      <trkpt lat="49.38099" lon="1.48651">
        <ele>174.48907470703</ele>
        <time>2017-07-02T07:46:18.000Z</time>
      </trkpt>
      <trkpt lat="49.38095" lon="1.48641">
        <ele>174.55136108398</ele>
        <time>2017-07-02T07:46:21.000Z</time>
      </trkpt>
      <trkpt lat="49.38094" lon="1.48633">
        <ele>174.60301208496</ele>
        <time>2017-07-02T07:46:23.000Z</time>
      </trkpt>
      <trkpt lat="49.3809" lon="1.48614">
        <ele>174.66096496582</ele>
        <time>2017-07-02T07:46:26.000Z</time>
      </trkpt>
      <trkpt lat="49.38087" lon="1.48591">
        <ele>174.72560119629</ele>
        <time>2017-07-02T07:46:29.000Z</time>
      </trkpt>
      <trkpt lat="49.38084" lon="1.48563">
        <ele>174.75788879395</ele>
        <time>2017-07-02T07:46:32.000Z</time>
      </trkpt>
      <trkpt lat="49.3808" lon="1.48544">
        <ele>174.74606323242</ele>
        <time>2017-07-02T07:46:35.000Z</time>
      </trkpt>
      <trkpt lat="49.38078" lon="1.48533">
        <ele>174.71621704102</ele>
        <time>2017-07-02T07:46:37.000Z</time>
      </trkpt>
      <trkpt lat="49.38075" lon="1.48516">
        <ele>174.65063476562</ele>
        <time>2017-07-02T07:46:40.000Z</time>
      </trkpt>
      <trkpt lat="49.38073" lon="1.48502">
        <ele>174.55935668945</ele>
        <time>2017-07-02T07:46:43.000Z</time>
      </trkpt>
      <trkpt lat="49.3807" lon="1.48493">
        <ele>174.51974487305</ele>
        <time>2017-07-02T07:46:45.000Z</time>
      </trkpt>
      <trkpt lat="49.38068" lon="1.48483">
        <ele>174.5390625</ele>
        <time>2017-07-02T07:46:47.000Z</time>
      </trkpt>
      <trkpt lat="49.38065" lon="1.48468">
        <ele>174.62084960938</ele>
        <time>2017-07-02T07:46:50.000Z</time>
      </trkpt>
      <trkpt lat="49.38063" lon="1.4846">
        <ele>174.74404907227</ele>
        <time>2017-07-02T07:46:52.000Z</time>
      </trkpt>
      <trkpt lat="49.38062" lon="1.48451">
        <ele>174.90036010742</ele>
        <time>2017-07-02T07:46:54.000Z</time>
      </trkpt>
      <trkpt lat="49.38059" lon="1.48439">
        <ele>175.0677947998</ele>
        <time>2017-07-02T07:46:57.000Z</time>
      </trkpt>
      <trkpt lat="49.38056" lon="1.48431">
        <ele>175.23348999023</ele>
        <time>2017-07-02T07:46:59.000Z</time>
      </trkpt>
      <trkpt lat="49.38053" lon="1.48423">
        <ele>175.3776550293</ele>
        <time>2017-07-02T07:47:01.000Z</time>
      </trkpt>
      <trkpt lat="49.38051" lon="1.48408">
        <ele>175.50936889648</ele>
        <time>2017-07-02T07:47:04.000Z</time>
      </trkpt>
      <trkpt lat="49.38045" lon="1.48399">
        <ele>175.63394165039</ele>
        <time>2017-07-02T07:47:07.000Z</time>
      </trkpt>
      <trkpt lat="49.38041" lon="1.48391">
        <ele>175.72660827637</ele>
        <time>2017-07-02T07:47:10.000Z</time>
      </trkpt>
      <trkpt lat="49.38039" lon="1.48382">
        <ele>175.7839050293</ele>
        <time>2017-07-02T07:47:12.000Z</time>
      </trkpt>
      <trkpt lat="49.38037" lon="1.48371">
        <ele>175.80807495117</ele>
        <time>2017-07-02T07:47:14.000Z</time>
      </trkpt>
      <trkpt lat="49.38034" lon="1.48362">
        <ele>175.82064819336</ele>
        <time>2017-07-02T07:47:16.000Z</time>
      </trkpt>
      <trkpt lat="49.3803" lon="1.48345">
        <ele>175.80473327637</ele>
        <time>2017-07-02T07:47:19.000Z</time>
      </trkpt>
      <trkpt lat="49.38028" lon="1.48331">
        <ele>175.77378845215</ele>
        <time>2017-07-02T07:47:21.000Z</time>
      </trkpt>
      <trkpt lat="49.38026" lon="1.48308">
        <ele>175.8249206543</ele>
        <time>2017-07-02T07:47:24.000Z</time>
      </trkpt>
      <trkpt lat="49.38024" lon="1.48283">
        <ele>175.96308898926</ele>
        <time>2017-07-02T07:47:27.000Z</time>
      </trkpt>
      <trkpt lat="49.38022" lon="1.48271">
        <ele>176.13967895508</ele>
        <time>2017-07-02T07:47:29.000Z</time>
      </trkpt>
      <trkpt lat="49.38018" lon="1.48255">
        <ele>176.37770080566</ele>
        <time>2017-07-02T07:47:32.000Z</time>
      </trkpt>
      <trkpt lat="49.38017" lon="1.48234">
        <ele>176.66928100586</ele>
        <time>2017-07-02T07:47:35.000Z</time>
      </trkpt>
      <trkpt lat="49.38016" lon="1.4822">
        <ele>176.90946960449</ele>
        <time>2017-07-02T07:47:37.000Z</time>
      </trkpt>
      <trkpt lat="49.38015" lon="1.48207">
        <ele>177.09469604492</ele>
        <time>2017-07-02T07:47:39.000Z</time>
      </trkpt>
      <trkpt lat="49.38012" lon="1.48186">
        <ele>177.28890991211</ele>
        <time>2017-07-02T07:47:42.000Z</time>
      </trkpt>
      <trkpt lat="49.3801" lon="1.48171">
        <ele>177.47068786621</ele>
        <time>2017-07-02T07:47:44.000Z</time>
      </trkpt>
      <trkpt lat="49.38008" lon="1.48153">
        <ele>177.61868286133</ele>
        <time>2017-07-02T07:47:46.000Z</time>
      </trkpt>
      <trkpt lat="49.38008" lon="1.4813">
        <ele>177.74105834961</ele>
        <time>2017-07-02T07:47:49.000Z</time>
      </trkpt>
      <trkpt lat="49.38006" lon="1.4812">
        <ele>177.84301757812</ele>
        <time>2017-07-02T07:47:51.000Z</time>
      </trkpt>
      <trkpt lat="49.38002" lon="1.48115">
        <ele>177.90838623047</ele>
        <time>2017-07-02T07:47:53.000Z</time>
      </trkpt>
      <trkpt lat="49.37997" lon="1.48107">
        <ele>177.93399047852</ele>
        <time>2017-07-02T07:47:56.000Z</time>
      </trkpt>
      <trkpt lat="49.37995" lon="1.481">
        <ele>177.94316101074</ele>
        <time>2017-07-02T07:47:58.000Z</time>
      </trkpt>
      <trkpt lat="49.37992" lon="1.48086">
        <ele>177.94453430176</ele>
        <time>2017-07-02T07:48:01.000Z</time>
      </trkpt>
      <trkpt lat="49.37991" lon="1.48071">
        <ele>177.99490356445</ele>
        <time>2017-07-02T07:48:04.000Z</time>
      </trkpt>
      <trkpt lat="49.37991" lon="1.48061">
        <ele>178.07807922363</ele>
        <time>2017-07-02T07:48:06.000Z</time>
      </trkpt>
      <trkpt lat="49.37989" lon="1.48053">
        <ele>178.19776916504</ele>
        <time>2017-07-02T07:48:08.000Z</time>
      </trkpt>
      <trkpt lat="49.37986" lon="1.48044">
        <ele>178.3452911377</ele>
        <time>2017-07-02T07:48:11.000Z</time>
      </trkpt>
      <trkpt lat="49.37982" lon="1.4804">
        <ele>178.50556945801</ele>
        <time>2017-07-02T07:48:13.000Z</time>
      </trkpt>
      <trkpt lat="49.37978" lon="1.48032">
        <ele>178.63125610352</ele>
        <time>2017-07-02T07:48:16.000Z</time>
      </trkpt>
      <trkpt lat="49.37978" lon="1.48022">
        <ele>178.75387573242</ele>
        <time>2017-07-02T07:48:19.000Z</time>
      </trkpt>
      <trkpt lat="49.37978" lon="1.48014">
        <ele>178.87689208984</ele>
        <time>2017-07-02T07:48:21.000Z</time>
      </trkpt>
      <trkpt lat="49.37978" lon="1.48007">
        <ele>179.00845336914</ele>
        <time>2017-07-02T07:48:23.000Z</time>
      </trkpt>
      <trkpt lat="49.37976" lon="1.47994">
        <ele>179.15364074707</ele>
        <time>2017-07-02T07:48:26.000Z</time>
      </trkpt>
      <trkpt lat="49.37976" lon="1.47982">
        <ele>179.27464294434</ele>
        <time>2017-07-02T07:48:29.000Z</time>
      </trkpt>
      <trkpt lat="49.37975" lon="1.47969">
        <ele>179.35029602051</ele>
        <time>2017-07-02T07:48:32.000Z</time>
      </trkpt>
      <trkpt lat="49.37973" lon="1.47956">
        <ele>179.38668823242</ele>
        <time>2017-07-02T07:48:35.000Z</time>
      </trkpt>
      <trkpt lat="49.37973" lon="1.47944">
        <ele>179.388671875</ele>
        <time>2017-07-02T07:48:37.000Z</time>
      </trkpt>
      <trkpt lat="49.37971" lon="1.47934">
        <ele>179.36328125</ele>
        <time>2017-07-02T07:48:39.000Z</time>
      </trkpt>
      <trkpt lat="49.3797" lon="1.47915">
        <ele>179.35025024414</ele>
        <time>2017-07-02T07:48:42.000Z</time>
      </trkpt>
      <trkpt lat="49.37968" lon="1.47893">
        <ele>179.47151184082</ele>
        <time>2017-07-02T07:48:45.000Z</time>
      </trkpt>
      <trkpt lat="49.37968" lon="1.47877">
        <ele>179.69595336914</ele>
        <time>2017-07-02T07:48:47.000Z</time>
      </trkpt>
      <trkpt lat="49.3797" lon="1.47854">
        <ele>180.076171875</ele>
        <time>2017-07-02T07:48:50.000Z</time>
      </trkpt>
      <trkpt lat="49.37972" lon="1.47829">
        <ele>180.63488769531</ele>
        <time>2017-07-02T07:48:53.000Z</time>
      </trkpt>
      <trkpt lat="49.37978" lon="1.47816">
        <ele>181.28915405273</ele>
        <time>2017-07-02T07:48:55.000Z</time>
      </trkpt>
      <trkpt lat="49.37983" lon="1.4781">
        <ele>181.88444519043</ele>
        <time>2017-07-02T07:48:57.000Z</time>
      </trkpt>
      <trkpt lat="49.37992" lon="1.47805">
        <ele>182.46859741211</ele>
        <time>2017-07-02T07:49:00.000Z</time>
      </trkpt>
      <trkpt lat="49.38003" lon="1.47803">
        <ele>182.95425415039</ele>
        <time>2017-07-02T07:49:03.000Z</time>
      </trkpt>
      <trkpt lat="49.3801" lon="1.47801">
        <ele>183.26237487793</ele>
        <time>2017-07-02T07:49:05.000Z</time>
      </trkpt>
      <trkpt lat="49.38023" lon="1.47798">
        <ele>183.45904541016</ele>
        <time>2017-07-02T07:49:08.000Z</time>
      </trkpt>
      <trkpt lat="49.38031" lon="1.47797">
        <ele>183.57774353027</ele>
        <time>2017-07-02T07:49:10.000Z</time>
      </trkpt>
      <trkpt lat="49.38041" lon="1.47798">
        <ele>183.58435058594</ele>
        <time>2017-07-02T07:49:13.000Z</time>
      </trkpt>
      <trkpt lat="49.38046" lon="1.47798">
        <ele>183.52412414551</ele>
        <time>2017-07-02T07:49:15.000Z</time>
      </trkpt>
      <trkpt lat="49.38052" lon="1.47795">
        <ele>183.48905944824</ele>
        <time>2017-07-02T07:49:17.000Z</time>
      </trkpt>
      <trkpt lat="49.38062" lon="1.47793">
        <ele>183.46925354004</ele>
        <time>2017-07-02T07:49:20.000Z</time>
      </trkpt>
      <trkpt lat="49.3807" lon="1.47793">
        <ele>183.44905090332</ele>
        <time>2017-07-02T07:49:22.000Z</time>
      </trkpt>
      <trkpt lat="49.38076" lon="1.47793">
        <ele>183.45690917969</ele>
        <time>2017-07-02T07:49:24.000Z</time>
      </trkpt>
      <trkpt lat="49.38086" lon="1.4779">
        <ele>183.50321960449</ele>
        <time>2017-07-02T07:49:27.000Z</time>
      </trkpt>
      <trkpt lat="49.38094" lon="1.47789">
        <ele>183.54722595215</ele>
        <time>2017-07-02T07:49:29.000Z</time>
      </trkpt>
      <trkpt lat="49.38109" lon="1.47789">
        <ele>183.59454345703</ele>
        <time>2017-07-02T07:49:32.000Z</time>
      </trkpt>
      <trkpt lat="49.3812" lon="1.4779">
        <ele>183.62919616699</ele>
        <time>2017-07-02T07:49:34.000Z</time>
      </trkpt>
      <trkpt lat="49.38129" lon="1.47792">
        <ele>183.63394165039</ele>
        <time>2017-07-02T07:49:36.000Z</time>
      </trkpt>
      <trkpt lat="49.38137" lon="1.47796">
        <ele>183.5442199707</ele>
        <time>2017-07-02T07:49:38.000Z</time>
      </trkpt>
      <trkpt lat="49.38148" lon="1.47802">
        <ele>183.33358764648</ele>
        <time>2017-07-02T07:49:41.000Z</time>
      </trkpt>
      <trkpt lat="49.38165" lon="1.47805">
        <ele>183.06506347656</ele>
        <time>2017-07-02T07:49:44.000Z</time>
      </trkpt>
      <trkpt lat="49.38179" lon="1.47804">
        <ele>182.69657897949</ele>
        <time>2017-07-02T07:49:46.000Z</time>
      </trkpt>
      <trkpt lat="49.38196" lon="1.47804">
        <ele>182.15841674805</ele>
        <time>2017-07-02T07:49:49.000Z</time>
      </trkpt>
      <trkpt lat="49.38206" lon="1.47806">
        <ele>181.54814147949</ele>
        <time>2017-07-02T07:49:51.000Z</time>
      </trkpt>
      <trkpt lat="49.38216" lon="1.47806">
        <ele>180.92704772949</ele>
        <time>2017-07-02T07:49:53.000Z</time>
      </trkpt>
      <trkpt lat="49.38235" lon="1.47804">
        <ele>180.16189575195</ele>
        <time>2017-07-02T07:49:56.000Z</time>
      </trkpt>
      <trkpt lat="49.38255" lon="1.47804">
        <ele>179.3010559082</ele>
        <time>2017-07-02T07:49:59.000Z</time>
      </trkpt>
      <trkpt lat="49.38272" lon="1.47804">
        <ele>178.43838500977</ele>
        <time>2017-07-02T07:50:02.000Z</time>
      </trkpt>
      <trkpt lat="49.38284" lon="1.47805">
        <ele>177.57189941406</ele>
        <time>2017-07-02T07:50:04.000Z</time>
      </trkpt>
      <trkpt lat="49.38303" lon="1.47806">
        <ele>176.59913635254</ele>
        <time>2017-07-02T07:50:07.000Z</time>
      </trkpt>
      <trkpt lat="49.38318" lon="1.47808">
        <ele>175.64088439941</ele>
        <time>2017-07-02T07:50:09.000Z</time>
      </trkpt>
      <trkpt lat="49.3834" lon="1.47808">
        <ele>174.68109130859</ele>
        <time>2017-07-02T07:50:12.000Z</time>
      </trkpt>
      <trkpt lat="49.38354" lon="1.4781">
        <ele>173.79756164551</ele>
        <time>2017-07-02T07:50:14.000Z</time>
      </trkpt>
      <trkpt lat="49.38369" lon="1.47811">
        <ele>172.94059753418</ele>
        <time>2017-07-02T07:50:17.000Z</time>
      </trkpt>
      <trkpt lat="49.38384" lon="1.4781">
        <ele>172.19462585449</ele>
        <time>2017-07-02T07:50:20.000Z</time>
      </trkpt>
      <trkpt lat="49.38395" lon="1.47808">
        <ele>171.54917907715</ele>
        <time>2017-07-02T07:50:22.000Z</time>
      </trkpt>
      <trkpt lat="49.38405" lon="1.47806">
        <ele>171.03875732422</ele>
        <time>2017-07-02T07:50:24.000Z</time>
      </trkpt>
      <trkpt lat="49.3842" lon="1.47797">
        <ele>170.53630065918</ele>
        <time>2017-07-02T07:50:27.000Z</time>
      </trkpt>
      <trkpt lat="49.38427" lon="1.47785">
        <ele>170.12152099609</ele>
        <time>2017-07-02T07:50:29.000Z</time>
      </trkpt>
      <trkpt lat="49.38427" lon="1.47762">
        <ele>169.76351928711</ele>
        <time>2017-07-02T07:50:32.000Z</time>
      </trkpt>
      <trkpt lat="49.38426" lon="1.47738">
        <ele>169.44914245605</ele>
        <time>2017-07-02T07:50:35.000Z</time>
      </trkpt>
      <trkpt lat="49.38425" lon="1.47721">
        <ele>169.21476745605</ele>
        <time>2017-07-02T07:50:37.000Z</time>
      </trkpt>
      <trkpt lat="49.38424" lon="1.47695">
        <ele>169.09005737305</ele>
        <time>2017-07-02T07:50:40.000Z</time>
      </trkpt>
      <trkpt lat="49.38423" lon="1.47676">
        <ele>168.99276733398</ele>
        <time>2017-07-02T07:50:42.000Z</time>
      </trkpt>
      <trkpt lat="49.38422" lon="1.47657">
        <ele>169.04211425781</ele>
        <time>2017-07-02T07:50:44.000Z</time>
      </trkpt>
      <trkpt lat="49.38417" lon="1.47629">
        <ele>169.4104309082</ele>
        <time>2017-07-02T07:50:47.000Z</time>
      </trkpt>
      <trkpt lat="49.38412" lon="1.47607">
        <ele>170.08903503418</ele>
        <time>2017-07-02T07:50:49.000Z</time>
      </trkpt>
      <trkpt lat="49.38406" lon="1.47589">
        <ele>171.05204772949</ele>
        <time>2017-07-02T07:50:51.000Z</time>
      </trkpt>
      <trkpt lat="49.38401" lon="1.47573">
        <ele>172.12719726562</ele>
        <time>2017-07-02T07:50:54.000Z</time>
      </trkpt>
      <trkpt lat="49.38401" lon="1.47556">
        <ele>173.02998352051</ele>
        <time>2017-07-02T07:50:57.000Z</time>
      </trkpt>
      <trkpt lat="49.38405" lon="1.47542">
        <ele>173.52224731445</ele>
        <time>2017-07-02T07:51:00.000Z</time>
      </trkpt>
      <trkpt lat="49.38405" lon="1.47524">
        <ele>173.62701416016</ele>
        <time>2017-07-02T07:51:03.000Z</time>
      </trkpt>
      <trkpt lat="49.38405" lon="1.47512">
        <ele>173.40609741211</ele>
        <time>2017-07-02T07:51:05.000Z</time>
      </trkpt>
      <trkpt lat="49.38401" lon="1.475">
        <ele>173.05725097656</ele>
        <time>2017-07-02T07:51:08.000Z</time>
      </trkpt>
      <trkpt lat="49.38397" lon="1.47486">
        <ele>172.76669311523</ele>
        <time>2017-07-02T07:51:11.000Z</time>
      </trkpt>
      <trkpt lat="49.38395" lon="1.47472">
        <ele>172.56332397461</ele>
        <time>2017-07-02T07:51:14.000Z</time>
      </trkpt>
      <trkpt lat="49.38394" lon="1.47456">
        <ele>172.39750671387</ele>
        <time>2017-07-02T07:51:17.000Z</time>
      </trkpt>
      <trkpt lat="49.38394" lon="1.47437">
        <ele>172.21238708496</ele>
        <time>2017-07-02T07:51:20.000Z</time>
      </trkpt>
      <trkpt lat="49.38393" lon="1.47421">
        <ele>172.00117492676</ele>
        <time>2017-07-02T07:51:23.000Z</time>
      </trkpt>
      <trkpt lat="49.38392" lon="1.47406">
        <ele>171.83207702637</ele>
        <time>2017-07-02T07:51:25.000Z</time>
      </trkpt>
      <trkpt lat="49.38392" lon="1.47383">
        <ele>171.75537109375</ele>
        <time>2017-07-02T07:51:28.000Z</time>
      </trkpt>
      <trkpt lat="49.38393" lon="1.47362">
        <ele>171.76379394531</ele>
        <time>2017-07-02T07:51:31.000Z</time>
      </trkpt>
      <trkpt lat="49.38391" lon="1.47341">
        <ele>171.90342712402</ele>
        <time>2017-07-02T07:51:34.000Z</time>
      </trkpt>
      <trkpt lat="49.38389" lon="1.47324">
        <ele>172.1305847168</ele>
        <time>2017-07-02T07:51:37.000Z</time>
      </trkpt>
      <trkpt lat="49.38389" lon="1.47312">
        <ele>172.32319641113</ele>
        <time>2017-07-02T07:51:39.000Z</time>
      </trkpt>
      <trkpt lat="49.3839" lon="1.47297">
        <ele>172.42976379395</ele>
        <time>2017-07-02T07:51:42.000Z</time>
      </trkpt>
      <trkpt lat="49.38389" lon="1.47287">
        <ele>172.50389099121</ele>
        <time>2017-07-02T07:51:44.000Z</time>
      </trkpt>
      <trkpt lat="49.38385" lon="1.47271">
        <ele>172.57006835938</ele>
        <time>2017-07-02T07:51:47.000Z</time>
      </trkpt>
      <trkpt lat="49.38383" lon="1.47254">
        <ele>172.6028137207</ele>
        <time>2017-07-02T07:51:50.000Z</time>
      </trkpt>
      <trkpt lat="49.38385" lon="1.47235">
        <ele>172.7001953125</ele>
        <time>2017-07-02T07:51:53.000Z</time>
      </trkpt>
      <trkpt lat="49.38384" lon="1.47222">
        <ele>172.89384460449</ele>
        <time>2017-07-02T07:51:55.000Z</time>
      </trkpt>
      <trkpt lat="49.38383" lon="1.47204">
        <ele>173.18211364746</ele>
        <time>2017-07-02T07:51:58.000Z</time>
      </trkpt>
      <trkpt lat="49.38383" lon="1.47189">
        <ele>173.49627685547</ele>
        <time>2017-07-02T07:52:00.000Z</time>
      </trkpt>
      <trkpt lat="49.38383" lon="1.47169">
        <ele>173.89776611328</ele>
        <time>2017-07-02T07:52:03.000Z</time>
      </trkpt>
      <trkpt lat="49.38384" lon="1.47149">
        <ele>174.48785400391</ele>
        <time>2017-07-02T07:52:06.000Z</time>
      </trkpt>
      <trkpt lat="49.38383" lon="1.47132">
        <ele>175.24853515625</ele>
        <time>2017-07-02T07:52:09.000Z</time>
      </trkpt>
      <trkpt lat="49.38382" lon="1.47126">
        <ele>176.00827026367</ele>
        <time>2017-07-02T07:52:11.000Z</time>
      </trkpt>
      <trkpt lat="49.38382" lon="1.47115">
        <ele>176.83560180664</ele>
        <time>2017-07-02T07:52:14.000Z</time>
      </trkpt>
      <trkpt lat="49.3839" lon="1.47102">
        <ele>177.71592712402</ele>
        <time>2017-07-02T07:52:17.000Z</time>
      </trkpt>
      <trkpt lat="49.38402" lon="1.47091">
        <ele>178.54132080078</ele>
        <time>2017-07-02T07:52:20.000Z</time>
      </trkpt>
      <trkpt lat="49.38408" lon="1.47084">
        <ele>179.2649230957</ele>
        <time>2017-07-02T07:52:22.000Z</time>
      </trkpt>
      <trkpt lat="49.38412" lon="1.47078">
        <ele>179.96032714844</ele>
        <time>2017-07-02T07:52:24.000Z</time>
      </trkpt>
      <trkpt lat="49.38417" lon="1.47071">
        <ele>180.58583068848</ele>
        <time>2017-07-02T07:52:27.000Z</time>
      </trkpt>
      <trkpt lat="49.3842" lon="1.47065">
        <ele>181.07637023926</ele>
        <time>2017-07-02T07:52:29.000Z</time>
      </trkpt>
      <trkpt lat="49.38426" lon="1.47058">
        <ele>181.38999938965</ele>
        <time>2017-07-02T07:52:32.000Z</time>
      </trkpt>
      <trkpt lat="49.38433" lon="1.4705">
        <ele>181.56709289551</ele>
        <time>2017-07-02T07:52:35.000Z</time>
      </trkpt>
      <trkpt lat="49.38438" lon="1.47045">
        <ele>181.6575012207</ele>
        <time>2017-07-02T07:52:37.000Z</time>
      </trkpt>
      <trkpt lat="49.38444" lon="1.47038">
        <ele>181.67973327637</ele>
        <time>2017-07-02T07:52:40.000Z</time>
      </trkpt>
      <trkpt lat="49.38451" lon="1.4703">
        <ele>181.69914245605</ele>
        <time>2017-07-02T07:52:43.000Z</time>
      </trkpt>
      <trkpt lat="49.38455" lon="1.47025">
        <ele>181.7165222168</ele>
        <time>2017-07-02T07:52:45.000Z</time>
      </trkpt>
      <trkpt lat="49.3846" lon="1.4702">
        <ele>181.75122070312</ele>
        <time>2017-07-02T07:52:47.000Z</time>
      </trkpt>
      <trkpt lat="49.38464" lon="1.47014">
        <ele>181.82171630859</ele>
        <time>2017-07-02T07:52:49.000Z</time>
      </trkpt>
      <trkpt lat="49.38468" lon="1.47008">
        <ele>181.900390625</ele>
        <time>2017-07-02T07:52:51.000Z</time>
      </trkpt>
      <trkpt lat="49.38472" lon="1.47002">
        <ele>181.99412536621</ele>
        <time>2017-07-02T07:52:53.000Z</time>
      </trkpt>
      <trkpt lat="49.38477" lon="1.46993">
        <ele>182.14169311523</ele>
        <time>2017-07-02T07:52:56.000Z</time>
      </trkpt>
      <trkpt lat="49.3848" lon="1.46987">
        <ele>182.32841491699</ele>
        <time>2017-07-02T07:52:58.000Z</time>
      </trkpt>
      <trkpt lat="49.38483" lon="1.46981">
        <ele>182.54602050781</ele>
        <time>2017-07-02T07:53:00.000Z</time>
      </trkpt>
      <trkpt lat="49.38488" lon="1.46973">
        <ele>182.82775878906</ele>
        <time>2017-07-02T07:53:03.000Z</time>
      </trkpt>
      <trkpt lat="49.38492" lon="1.46965">
        <ele>183.1841583252</ele>
        <time>2017-07-02T07:53:05.000Z</time>
      </trkpt>
      <trkpt lat="49.38494" lon="1.46952">
        <ele>183.69177246094</ele>
        <time>2017-07-02T07:53:08.000Z</time>
      </trkpt>
      <trkpt lat="49.38495" lon="1.46941">
        <ele>184.30941772461</ele>
        <time>2017-07-02T07:53:10.000Z</time>
      </trkpt>
      <trkpt lat="49.38496" lon="1.46932">
        <ele>185.02349853516</ele>
        <time>2017-07-02T07:53:12.000Z</time>
      </trkpt>
      <trkpt lat="49.38498" lon="1.46915">
        <ele>185.89558410645</ele>
        <time>2017-07-02T07:53:15.000Z</time>
      </trkpt>
      <trkpt lat="49.385" lon="1.46902">
        <ele>186.58195495605</ele>
        <time>2017-07-02T07:53:17.000Z</time>
      </trkpt>
      <trkpt lat="49.38502" lon="1.46889">
        <ele>186.94273376465</ele>
        <time>2017-07-02T07:53:19.000Z</time>
      </trkpt>
      <trkpt lat="49.38503" lon="1.46871">
        <ele>186.98210144043</ele>
        <time>2017-07-02T07:53:22.000Z</time>
      </trkpt>
      <trkpt lat="49.38505" lon="1.46853">
        <ele>186.71569824219</ele>
        <time>2017-07-02T07:53:25.000Z</time>
      </trkpt>
      <trkpt lat="49.38507" lon="1.46834">
        <ele>186.04844665527</ele>
        <time>2017-07-02T07:53:28.000Z</time>
      </trkpt>
      <trkpt lat="49.38509" lon="1.46822">
        <ele>185.40400695801</ele>
        <time>2017-07-02T07:53:30.000Z</time>
      </trkpt>
      <trkpt lat="49.3851" lon="1.46811">
        <ele>184.82609558105</ele>
        <time>2017-07-02T07:53:32.000Z</time>
      </trkpt>
      <trkpt lat="49.38513" lon="1.46794">
        <ele>184.31575012207</ele>
        <time>2017-07-02T07:53:35.000Z</time>
      </trkpt>
      <trkpt lat="49.38515" lon="1.46777">
        <ele>183.8729095459</ele>
        <time>2017-07-02T07:53:38.000Z</time>
      </trkpt>
      <trkpt lat="49.38517" lon="1.4676">
        <ele>183.50588989258</ele>
        <time>2017-07-02T07:53:41.000Z</time>
      </trkpt>
      <trkpt lat="49.3852" lon="1.46742">
        <ele>183.19367980957</ele>
        <time>2017-07-02T07:53:44.000Z</time>
      </trkpt>
      <trkpt lat="49.3852" lon="1.46732">
        <ele>182.99182128906</ele>
        <time>2017-07-02T07:53:46.000Z</time>
      </trkpt>
      <trkpt lat="49.38522" lon="1.46717">
        <ele>182.96571350098</ele>
        <time>2017-07-02T07:53:49.000Z</time>
      </trkpt>
      <trkpt lat="49.38523" lon="1.46707">
        <ele>183.07730102539</ele>
        <time>2017-07-02T07:53:51.000Z</time>
      </trkpt>
      <trkpt lat="49.38525" lon="1.46696">
        <ele>183.32838439941</ele>
        <time>2017-07-02T07:53:53.000Z</time>
      </trkpt>
      <trkpt lat="49.38527" lon="1.46679">
        <ele>183.66116333008</ele>
        <time>2017-07-02T07:53:56.000Z</time>
      </trkpt>
      <trkpt lat="49.38529" lon="1.46667">
        <ele>183.97978210449</ele>
        <time>2017-07-02T07:53:58.000Z</time>
      </trkpt>
      <trkpt lat="49.38532" lon="1.46649">
        <ele>184.21723937988</ele>
        <time>2017-07-02T07:54:01.000Z</time>
      </trkpt>
      <trkpt lat="49.38536" lon="1.46632">
        <ele>184.3900604248</ele>
        <time>2017-07-02T07:54:04.000Z</time>
      </trkpt>
      <trkpt lat="49.38541" lon="1.46614">
        <ele>184.47190856934</ele>
        <time>2017-07-02T07:54:07.000Z</time>
      </trkpt>
      <trkpt lat="49.38544" lon="1.46603">
        <ele>184.44537353516</ele>
        <time>2017-07-02T07:54:09.000Z</time>
      </trkpt>
      <trkpt lat="49.3855" lon="1.46587">
        <ele>184.32061767578</ele>
        <time>2017-07-02T07:54:12.000Z</time>
      </trkpt>
      <trkpt lat="49.38556" lon="1.4657">
        <ele>184.01759338379</ele>
        <time>2017-07-02T07:54:15.000Z</time>
      </trkpt>
      <trkpt lat="49.38562" lon="1.46554">
        <ele>183.54388427734</ele>
        <time>2017-07-02T07:54:18.000Z</time>
      </trkpt>
      <trkpt lat="49.38568" lon="1.46537">
        <ele>182.98146057129</ele>
        <time>2017-07-02T07:54:21.000Z</time>
      </trkpt>
      <trkpt lat="49.38574" lon="1.4652">
        <ele>182.38041687012</ele>
        <time>2017-07-02T07:54:24.000Z</time>
      </trkpt>
      <trkpt lat="49.3858" lon="1.46503">
        <ele>181.80236816406</ele>
        <time>2017-07-02T07:54:27.000Z</time>
      </trkpt>
      <trkpt lat="49.38585" lon="1.4649">
        <ele>181.36236572266</ele>
        <time>2017-07-02T07:54:29.000Z</time>
      </trkpt>
      <trkpt lat="49.38592" lon="1.46472">
        <ele>180.99081420898</ele>
        <time>2017-07-02T07:54:32.000Z</time>
      </trkpt>
      <trkpt lat="49.386" lon="1.46451">
        <ele>180.59799194336</ele>
        <time>2017-07-02T07:54:35.000Z</time>
      </trkpt>
      <trkpt lat="49.38608" lon="1.46429">
        <ele>180.14593505859</ele>
        <time>2017-07-02T07:54:38.000Z</time>
      </trkpt>
      <trkpt lat="49.38617" lon="1.46407">
        <ele>179.67826843262</ele>
        <time>2017-07-02T07:54:41.000Z</time>
      </trkpt>
      <trkpt lat="49.38626" lon="1.46383">
        <ele>179.35235595703</ele>
        <time>2017-07-02T07:54:44.000Z</time>
      </trkpt>
      <trkpt lat="49.38633" lon="1.46366">
        <ele>179.25268554688</ele>
        <time>2017-07-02T07:54:46.000Z</time>
      </trkpt>
      <trkpt lat="49.38639" lon="1.46347">
        <ele>179.44030761719</ele>
        <time>2017-07-02T07:54:48.000Z</time>
      </trkpt>
      <trkpt lat="49.3865" lon="1.46319">
        <ele>179.96479797363</ele>
        <time>2017-07-02T07:54:51.000Z</time>
      </trkpt>
      <trkpt lat="49.38662" lon="1.4629">
        <ele>180.77719116211</ele>
        <time>2017-07-02T07:54:54.000Z</time>
      </trkpt>
      <trkpt lat="49.38672" lon="1.46263">
        <ele>181.73236083984</ele>
        <time>2017-07-02T07:54:57.000Z</time>
      </trkpt>
      <trkpt lat="49.38685" lon="1.46233">
        <ele>182.78025817871</ele>
        <time>2017-07-02T07:55:00.000Z</time>
      </trkpt>
      <trkpt lat="49.38692" lon="1.46199">
        <ele>183.96932983398</ele>
        <time>2017-07-02T07:55:03.000Z</time>
      </trkpt>
      <trkpt lat="49.38693" lon="1.46173">
        <ele>185.21148681641</ele>
        <time>2017-07-02T07:55:05.000Z</time>
      </trkpt>
      <trkpt lat="49.38689" lon="1.4615">
        <ele>186.32229614258</ele>
        <time>2017-07-02T07:55:07.000Z</time>
      </trkpt>
      <trkpt lat="49.38684" lon="1.46121">
        <ele>187.20309448242</ele>
        <time>2017-07-02T07:55:10.000Z</time>
      </trkpt>
      <trkpt lat="49.3868" lon="1.46097">
        <ele>187.89376831055</ele>
        <time>2017-07-02T07:55:12.000Z</time>
      </trkpt>
      <trkpt lat="49.3867" lon="1.46062">
        <ele>188.22274780273</ele>
        <time>2017-07-02T07:55:15.000Z</time>
      </trkpt>
      <trkpt lat="49.38665" lon="1.4604">
        <ele>188.16394042969</ele>
        <time>2017-07-02T07:55:17.000Z</time>
      </trkpt>
      <trkpt lat="49.38652" lon="1.46006">
        <ele>187.84407043457</ele>
        <time>2017-07-02T07:55:20.000Z</time>
      </trkpt>
      <trkpt lat="49.38645" lon="1.45963">
        <ele>187.09898376465</ele>
        <time>2017-07-02T07:55:23.000Z</time>
      </trkpt>
      <trkpt lat="49.38634" lon="1.45923">
        <ele>185.98489379883</ele>
        <time>2017-07-02T07:55:26.000Z</time>
      </trkpt>
      <trkpt lat="49.38623" lon="1.45882">
        <ele>184.09729003906</ele>
        <time>2017-07-02T07:55:29.000Z</time>
      </trkpt>
      <trkpt lat="49.38619" lon="1.45857">
        <ele>181.72402954102</ele>
        <time>2017-07-02T07:55:31.000Z</time>
      </trkpt>
      <trkpt lat="49.3862" lon="1.45812">
        <ele>178.5094909668</ele>
        <time>2017-07-02T07:55:34.000Z</time>
      </trkpt>
      <trkpt lat="49.38625" lon="1.45779">
        <ele>175.03324890137</ele>
        <time>2017-07-02T07:55:36.000Z</time>
      </trkpt>
      <trkpt lat="49.38626" lon="1.45751">
        <ele>171.3371887207</ele>
        <time>2017-07-02T07:55:38.000Z</time>
      </trkpt>
      <trkpt lat="49.38639" lon="1.45713">
        <ele>167.91337585449</ele>
        <time>2017-07-02T07:55:41.000Z</time>
      </trkpt>
      <trkpt lat="49.38657" lon="1.45677">
        <ele>164.10710144043</ele>
        <time>2017-07-02T07:55:44.000Z</time>
      </trkpt>
      <trkpt lat="49.38673" lon="1.45655">
        <ele>160.66464233398</ele>
        <time>2017-07-02T07:55:46.000Z</time>
      </trkpt>
      <trkpt lat="49.38693" lon="1.45615">
        <ele>157.29202270508</ele>
        <time>2017-07-02T07:55:49.000Z</time>
      </trkpt>
      <trkpt lat="49.38708" lon="1.4558">
        <ele>153.79914855957</ele>
        <time>2017-07-02T07:55:52.000Z</time>
      </trkpt>
      <trkpt lat="49.38724" lon="1.45539">
        <ele>150.10110473633</ele>
        <time>2017-07-02T07:55:55.000Z</time>
      </trkpt>
      <trkpt lat="49.38729" lon="1.4551">
        <ele>147.18132019043</ele>
        <time>2017-07-02T07:55:57.000Z</time>
      </trkpt>
      <trkpt lat="49.3874" lon="1.45472">
        <ele>144.38868713379</ele>
        <time>2017-07-02T07:56:00.000Z</time>
      </trkpt>
      <trkpt lat="49.38745" lon="1.45441">
        <ele>141.94569396973</ele>
        <time>2017-07-02T07:56:02.000Z</time>
      </trkpt>
      <trkpt lat="49.38754" lon="1.454">
        <ele>139.6767578125</ele>
        <time>2017-07-02T07:56:05.000Z</time>
      </trkpt>
      <trkpt lat="49.38757" lon="1.45369">
        <ele>137.86247253418</ele>
        <time>2017-07-02T07:56:07.000Z</time>
      </trkpt>
      <trkpt lat="49.38754" lon="1.45324">
        <ele>136.23808288574</ele>
        <time>2017-07-02T07:56:10.000Z</time>
      </trkpt>
      <trkpt lat="49.38749" lon="1.45298">
        <ele>135.31619262695</ele>
        <time>2017-07-02T07:56:12.000Z</time>
      </trkpt>
      <trkpt lat="49.38748" lon="1.45274">
        <ele>134.59216308594</ele>
        <time>2017-07-02T07:56:14.000Z</time>
      </trkpt>
      <trkpt lat="49.38757" lon="1.4524">
        <ele>133.69970703125</ele>
        <time>2017-07-02T07:56:17.000Z</time>
      </trkpt>
      <trkpt lat="49.38766" lon="1.45228">
        <ele>132.3194732666</ele>
        <time>2017-07-02T07:56:19.000Z</time>
      </trkpt>
      <trkpt lat="49.38785" lon="1.45241">
        <ele>129.81585693359</ele>
        <time>2017-07-02T07:56:22.000Z</time>
      </trkpt>
      <trkpt lat="49.38794" lon="1.45262">
        <ele>126.70091247559</ele>
        <time>2017-07-02T07:56:25.000Z</time>
      </trkpt>
      <trkpt lat="49.38801" lon="1.45289">
        <ele>123.47395324707</ele>
        <time>2017-07-02T07:56:28.000Z</time>
      </trkpt>
      <trkpt lat="49.38808" lon="1.45329">
        <ele>120.99723815918</ele>
        <time>2017-07-02T07:56:31.000Z</time>
      </trkpt>
      <trkpt lat="49.38812" lon="1.45363">
        <ele>119.33882904053</ele>
        <time>2017-07-02T07:56:34.000Z</time>
      </trkpt>
      <trkpt lat="49.38821" lon="1.45401">
        <ele>118.58139801025</ele>
        <time>2017-07-02T07:56:37.000Z</time>
      </trkpt>
      <trkpt lat="49.38816" lon="1.45433">
        <ele>118.67192077637</ele>
        <time>2017-07-02T07:56:40.000Z</time>
      </trkpt>
      <trkpt lat="49.38816" lon="1.45454">
        <ele>118.98510742188</ele>
        <time>2017-07-02T07:56:42.000Z</time>
      </trkpt>
      <trkpt lat="49.3882" lon="1.45483">
        <ele>119.04665374756</ele>
        <time>2017-07-02T07:56:45.000Z</time>
      </trkpt>
      <trkpt lat="49.38829" lon="1.4549">
        <ele>118.66596984863</ele>
        <time>2017-07-02T07:56:48.000Z</time>
      </trkpt>
      <trkpt lat="49.38863" lon="1.45389">
        <ele>117.01885986328</ele>
        <time>2017-07-02T07:56:55.000Z</time>
      </trkpt>
      <trkpt lat="49.38877" lon="1.45346">
        <ele>114.0203704834</ele>
        <time>2017-07-02T07:56:58.000Z</time>
      </trkpt>
      <trkpt lat="49.3889" lon="1.45321">
        <ele>110.19181060791</ele>
        <time>2017-07-02T07:57:00.000Z</time>
      </trkpt>
      <trkpt lat="49.38905" lon="1.45285">
        <ele>105.47116851807</ele>
        <time>2017-07-02T07:57:03.000Z</time>
      </trkpt>
      <trkpt lat="49.38922" lon="1.45239">
        <ele>100.06628417969</ele>
        <time>2017-07-02T07:57:06.000Z</time>
      </trkpt>
      <trkpt lat="49.38939" lon="1.45195">
        <ele>95.371162414551</ele>
        <time>2017-07-02T07:57:09.000Z</time>
      </trkpt>
      <trkpt lat="49.3895" lon="1.45171">
        <ele>91.111793518066</ele>
        <time>2017-07-02T07:57:11.000Z</time>
      </trkpt>
      <trkpt lat="49.38972" lon="1.4514">
        <ele>87.126564025879</ele>
        <time>2017-07-02T07:57:14.000Z</time>
      </trkpt>
      <trkpt lat="49.38987" lon="1.45125">
        <ele>83.997703552246</ele>
        <time>2017-07-02T07:57:17.000Z</time>
      </trkpt>
      <trkpt lat="49.38994" lon="1.45111">
        <ele>81.894592285156</ele>
        <time>2017-07-02T07:57:20.000Z</time>
      </trkpt>
      <trkpt lat="49.38994" lon="1.45099">
        <ele>80.596733093262</ele>
        <time>2017-07-02T07:57:22.000Z</time>
      </trkpt>
      <trkpt lat="49.38994" lon="1.45083">
        <ele>79.761154174805</ele>
        <time>2017-07-02T07:57:25.000Z</time>
      </trkpt>
      <trkpt lat="49.38995" lon="1.45073">
        <ele>79.342018127441</ele>
        <time>2017-07-02T07:57:27.000Z</time>
      </trkpt>
      <trkpt lat="49.38996" lon="1.45064">
        <ele>79.069137573242</ele>
        <time>2017-07-02T07:57:30.000Z</time>
      </trkpt>
      <trkpt lat="49.39002" lon="1.45058">
        <ele>78.790237426758</ele>
        <time>2017-07-02T07:57:33.000Z</time>
      </trkpt>
      <trkpt lat="49.39009" lon="1.45063">
        <ele>78.456001281738</ele>
        <time>2017-07-02T07:57:35.000Z</time>
      </trkpt>
      <trkpt lat="49.39022" lon="1.4508">
        <ele>78.051666259766</ele>
        <time>2017-07-02T07:57:38.000Z</time>
      </trkpt>
      <trkpt lat="49.39031" lon="1.45079">
        <ele>77.60856628418</ele>
        <time>2017-07-02T07:57:40.000Z</time>
      </trkpt>
      <trkpt lat="49.3904" lon="1.45065">
        <ele>77.040649414062</ele>
        <time>2017-07-02T07:57:42.000Z</time>
      </trkpt>
      <trkpt lat="49.39055" lon="1.45039">
        <ele>76.281631469727</ele>
        <time>2017-07-02T07:57:45.000Z</time>
      </trkpt>
      <trkpt lat="49.39066" lon="1.45017">
        <ele>75.36905670166</ele>
        <time>2017-07-02T07:57:47.000Z</time>
      </trkpt>
      <trkpt lat="49.3908" lon="1.44989">
        <ele>74.350624084473</ele>
        <time>2017-07-02T07:57:50.000Z</time>
      </trkpt>
      <trkpt lat="49.39088" lon="1.4497">
        <ele>73.457946777344</ele>
        <time>2017-07-02T07:57:52.000Z</time>
      </trkpt>
      <trkpt lat="49.39102" lon="1.44948">
        <ele>72.895530700684</ele>
        <time>2017-07-02T07:57:55.000Z</time>
      </trkpt>
      <trkpt lat="49.39114" lon="1.44929">
        <ele>72.75252532959</ele>
        <time>2017-07-02T07:57:58.000Z</time>
      </trkpt>
      <trkpt lat="49.39122" lon="1.44918">
        <ele>72.895362854004</ele>
        <time>2017-07-02T07:58:00.000Z</time>
      </trkpt>
      <trkpt lat="49.39131" lon="1.44903">
        <ele>73.399887084961</ele>
        <time>2017-07-02T07:58:03.000Z</time>
      </trkpt>
      <trkpt lat="49.3914" lon="1.4489">
        <ele>74.115280151367</ele>
        <time>2017-07-02T07:58:06.000Z</time>
      </trkpt>
      <trkpt lat="49.39146" lon="1.4488">
        <ele>74.913864135742</ele>
        <time>2017-07-02T07:58:09.000Z</time>
      </trkpt>
      <trkpt lat="49.39154" lon="1.44873">
        <ele>75.802017211914</ele>
        <time>2017-07-02T07:58:12.000Z</time>
      </trkpt>
      <trkpt lat="49.3916" lon="1.4487">
        <ele>76.779960632324</ele>
        <time>2017-07-02T07:58:15.000Z</time>
      </trkpt>
      <trkpt lat="49.39164" lon="1.44868">
        <ele>77.681327819824</ele>
        <time>2017-07-02T07:58:17.000Z</time>
      </trkpt>
      <trkpt lat="49.39169" lon="1.44868">
        <ele>78.560913085938</ele>
        <time>2017-07-02T07:58:20.000Z</time>
      </trkpt>
      <trkpt lat="49.39173" lon="1.44867">
        <ele>79.449493408203</ele>
        <time>2017-07-02T07:58:22.000Z</time>
      </trkpt>
      <trkpt lat="49.39177" lon="1.44868">
        <ele>80.359352111816</ele>
        <time>2017-07-02T07:58:25.000Z</time>
      </trkpt>
      <trkpt lat="49.3918" lon="1.44869">
        <ele>81.273986816406</ele>
        <time>2017-07-02T07:58:27.000Z</time>
      </trkpt>
      <trkpt lat="49.39184" lon="1.44872">
        <ele>82.216758728027</ele>
        <time>2017-07-02T07:58:30.000Z</time>
      </trkpt>
      <trkpt lat="49.39185" lon="1.44878">
        <ele>82.971221923828</ele>
        <time>2017-07-02T07:58:32.000Z</time>
      </trkpt>
      <trkpt lat="49.39187" lon="1.44883">
        <ele>83.51887512207</ele>
        <time>2017-07-02T07:58:34.000Z</time>
      </trkpt>
      <trkpt lat="49.3919" lon="1.44887">
        <ele>83.937393188477</ele>
        <time>2017-07-02T07:58:37.000Z</time>
      </trkpt>
      <trkpt lat="49.39194" lon="1.44893">
        <ele>84.304237365723</ele>
        <time>2017-07-02T07:58:40.000Z</time>
      </trkpt>
      <trkpt lat="49.39197" lon="1.44897">
        <ele>84.65599822998</ele>
        <time>2017-07-02T07:58:43.000Z</time>
      </trkpt>
      <trkpt lat="49.39199" lon="1.44898">
        <ele>85.08122253418</ele>
        <time>2017-07-02T07:58:45.000Z</time>
      </trkpt>
      <trkpt lat="49.39201" lon="1.44899">
        <ele>85.568260192871</ele>
        <time>2017-07-02T07:58:47.000Z</time>
      </trkpt>
      <trkpt lat="49.39204" lon="1.44899">
        <ele>86.110610961914</ele>
        <time>2017-07-02T07:58:50.000Z</time>
      </trkpt>
      <trkpt lat="49.39206" lon="1.44902">
        <ele>86.617523193359</ele>
        <time>2017-07-02T07:58:53.000Z</time>
      </trkpt>
      <trkpt lat="49.39209" lon="1.44906">
        <ele>87.089073181152</ele>
        <time>2017-07-02T07:58:56.000Z</time>
      </trkpt>
      <trkpt lat="49.39211" lon="1.44909">
        <ele>87.549926757812</ele>
        <time>2017-07-02T07:58:58.000Z</time>
      </trkpt>
      <trkpt lat="49.39214" lon="1.44912">
        <ele>88.009384155273</ele>
        <time>2017-07-02T07:59:01.000Z</time>
      </trkpt>
      <trkpt lat="49.39215" lon="1.44915">
        <ele>88.332862854004</ele>
        <time>2017-07-02T07:59:03.000Z</time>
      </trkpt>
      <trkpt lat="49.39217" lon="1.44917">
        <ele>88.679153442383</ele>
        <time>2017-07-02T07:59:06.000Z</time>
      </trkpt>
      <trkpt lat="49.39219" lon="1.4492">
        <ele>88.975189208984</ele>
        <time>2017-07-02T07:59:08.000Z</time>
      </trkpt>
      <trkpt lat="49.3922" lon="1.44922">
        <ele>89.226722717285</ele>
        <time>2017-07-02T07:59:10.000Z</time>
      </trkpt>
      <trkpt lat="49.39222" lon="1.44924">
        <ele>89.496597290039</ele>
        <time>2017-07-02T07:59:13.000Z</time>
      </trkpt>
      <trkpt lat="49.39221" lon="1.44918">
        <ele>89.78466796875</ele>
        <time>2017-07-02T07:59:16.000Z</time>
      </trkpt>
      <trkpt lat="49.39219" lon="1.44914">
        <ele>89.916984558105</ele>
        <time>2017-07-02T07:59:18.000Z</time>
      </trkpt>
      <trkpt lat="49.39217" lon="1.44909">
        <ele>89.995010375977</ele>
        <time>2017-07-02T07:59:21.000Z</time>
      </trkpt>
      <trkpt lat="49.39216" lon="1.44901">
        <ele>90.131309509277</ele>
        <time>2017-07-02T07:59:24.000Z</time>
      </trkpt>
      <trkpt lat="49.39216" lon="1.44897">
        <ele>90.282066345215</ele>
        <time>2017-07-02T07:59:26.000Z</time>
      </trkpt>
      <trkpt lat="49.39217" lon="1.44889">
        <ele>90.549545288086</ele>
        <time>2017-07-02T07:59:29.000Z</time>
      </trkpt>
      <trkpt lat="49.39217" lon="1.44883">
        <ele>90.958084106445</ele>
        <time>2017-07-02T07:59:31.000Z</time>
      </trkpt>
      <trkpt lat="49.39217" lon="1.44877">
        <ele>91.558494567871</ele>
        <time>2017-07-02T07:59:34.000Z</time>
      </trkpt>
      <trkpt lat="49.39219" lon="1.44872">
        <ele>92.190910339355</ele>
        <time>2017-07-02T07:59:36.000Z</time>
      </trkpt>
      <trkpt lat="49.39219" lon="1.44868">
        <ele>92.815155029297</ele>
        <time>2017-07-02T07:59:38.000Z</time>
      </trkpt>
      <trkpt lat="49.3922" lon="1.44863">
        <ele>93.465766906738</ele>
        <time>2017-07-02T07:59:40.000Z</time>
      </trkpt>
      <trkpt lat="49.39222" lon="1.4486">
        <ele>94.149917602539</ele>
        <time>2017-07-02T07:59:42.000Z</time>
      </trkpt>
      <trkpt lat="49.39223" lon="1.44852">
        <ele>94.906394958496</ele>
        <time>2017-07-02T07:59:45.000Z</time>
      </trkpt>
      <trkpt lat="49.39223" lon="1.44848">
        <ele>95.608215332031</ele>
        <time>2017-07-02T07:59:47.000Z</time>
      </trkpt>
      <trkpt lat="49.39224" lon="1.44845">
        <ele>96.309730529785</ele>
        <time>2017-07-02T07:59:51.000Z</time>
      </trkpt>
      <trkpt lat="49.39225" lon="1.44842">
        <ele>96.909591674805</ele>
        <time>2017-07-02T07:59:54.000Z</time>
      </trkpt>
      <trkpt lat="49.39225" lon="1.44838">
        <ele>97.501480102539</ele>
        <time>2017-07-02T07:59:57.000Z</time>
      </trkpt>
      <trkpt lat="49.39224" lon="1.44831">
        <ele>97.936126708984</ele>
        <time>2017-07-02T08:00:00.000Z</time>
      </trkpt>
      <trkpt lat="49.39223" lon="1.44827">
        <ele>98.375923156738</ele>
        <time>2017-07-02T08:00:02.000Z</time>
      </trkpt>
      <trkpt lat="49.39222" lon="1.44822">
        <ele>98.808692932129</ele>
        <time>2017-07-02T08:00:05.000Z</time>
      </trkpt>
      <trkpt lat="49.39222" lon="1.44819">
        <ele>99.209999084473</ele>
        <time>2017-07-02T08:00:07.000Z</time>
      </trkpt>
      <trkpt lat="49.39222" lon="1.44816">
        <ele>99.606475830078</ele>
        <time>2017-07-02T08:00:09.000Z</time>
      </trkpt>
      <trkpt lat="49.39221" lon="1.44811">
        <ele>100.04692077637</ele>
        <time>2017-07-02T08:00:12.000Z</time>
      </trkpt>
      <trkpt lat="49.39219" lon="1.44803">
        <ele>100.48133850098</ele>
        <time>2017-07-02T08:00:15.000Z</time>
      </trkpt>
      <trkpt lat="49.39217" lon="1.44797">
        <ele>100.9351348877</ele>
        <time>2017-07-02T08:00:18.000Z</time>
      </trkpt>
      <trkpt lat="49.39215" lon="1.44791">
        <ele>101.41815185547</ele>
        <time>2017-07-02T08:00:21.000Z</time>
      </trkpt>
      <trkpt lat="49.39212" lon="1.44783">
        <ele>101.86335754395</ele>
        <time>2017-07-02T08:00:24.000Z</time>
      </trkpt>
      <trkpt lat="49.39212" lon="1.44775">
        <ele>102.38352203369</ele>
        <time>2017-07-02T08:00:27.000Z</time>
      </trkpt>
      <trkpt lat="49.39211" lon="1.44772">
        <ele>102.90744781494</ele>
        <time>2017-07-02T08:00:30.000Z</time>
      </trkpt>
      <trkpt lat="49.39211" lon="1.44768">
        <ele>103.40971374512</ele>
        <time>2017-07-02T08:00:32.000Z</time>
      </trkpt>
      <trkpt lat="49.3921" lon="1.44765">
        <ele>103.8939666748</ele>
        <time>2017-07-02T08:00:34.000Z</time>
      </trkpt>
      <trkpt lat="49.39208" lon="1.44759">
        <ele>104.34725189209</ele>
        <time>2017-07-02T08:00:37.000Z</time>
      </trkpt>
      <trkpt lat="49.39206" lon="1.44756">
        <ele>104.58599853516</ele>
        <time>2017-07-02T08:00:39.000Z</time>
      </trkpt>
      <trkpt lat="49.39202" lon="1.44751">
        <ele>104.69508361816</ele>
        <time>2017-07-02T08:00:42.000Z</time>
      </trkpt>
      <trkpt lat="49.39201" lon="1.44746">
        <ele>104.86711120605</ele>
        <time>2017-07-02T08:00:45.000Z</time>
      </trkpt>
      <trkpt lat="49.392" lon="1.4474">
        <ele>105.14992523193</ele>
        <time>2017-07-02T08:00:48.000Z</time>
      </trkpt>
      <trkpt lat="49.39199" lon="1.44735">
        <ele>105.53285980225</ele>
        <time>2017-07-02T08:00:51.000Z</time>
      </trkpt>
      <trkpt lat="49.39199" lon="1.44731">
        <ele>106.06490325928</ele>
        <time>2017-07-02T08:00:53.000Z</time>
      </trkpt>
      <trkpt lat="49.39199" lon="1.44724">
        <ele>106.9024887085</ele>
        <time>2017-07-02T08:00:56.000Z</time>
      </trkpt>
      <trkpt lat="49.39198" lon="1.44719">
        <ele>107.73948669434</ele>
        <time>2017-07-02T08:00:59.000Z</time>
      </trkpt>
      <trkpt lat="49.39197" lon="1.44716">
        <ele>108.46425628662</ele>
        <time>2017-07-02T08:01:01.000Z</time>
      </trkpt>
      <trkpt lat="49.39198" lon="1.44709">
        <ele>109.36187744141</ele>
        <time>2017-07-02T08:01:04.000Z</time>
      </trkpt>
      <trkpt lat="49.39198" lon="1.44705">
        <ele>110.26042175293</ele>
        <time>2017-07-02T08:01:07.000Z</time>
      </trkpt>
      <trkpt lat="49.39196" lon="1.44703">
        <ele>110.92045593262</ele>
        <time>2017-07-02T08:01:10.000Z</time>
      </trkpt>
      <trkpt lat="49.39194" lon="1.44698">
        <ele>111.4722442627</ele>
        <time>2017-07-02T08:01:13.000Z</time>
      </trkpt>
      <trkpt lat="49.39194" lon="1.44694">
        <ele>112.10732269287</ele>
        <time>2017-07-02T08:01:15.000Z</time>
      </trkpt>
      <trkpt lat="49.39193" lon="1.44689">
        <ele>112.57637786865</ele>
        <time>2017-07-02T08:01:17.000Z</time>
      </trkpt>
      <trkpt lat="49.39191" lon="1.44683">
        <ele>113.02496337891</ele>
        <time>2017-07-02T08:01:20.000Z</time>
      </trkpt>
      <trkpt lat="49.39189" lon="1.4468">
        <ele>113.45115661621</ele>
        <time>2017-07-02T08:01:22.000Z</time>
      </trkpt>
      <trkpt lat="49.39188" lon="1.44676">
        <ele>113.92289733887</ele>
        <time>2017-07-02T08:01:24.000Z</time>
      </trkpt>
      <trkpt lat="49.39188" lon="1.44671">
        <ele>114.4314956665</ele>
        <time>2017-07-02T08:01:27.000Z</time>
      </trkpt>
      <trkpt lat="49.39187" lon="1.44669">
        <ele>114.86897277832</ele>
        <time>2017-07-02T08:01:29.000Z</time>
      </trkpt>
      <trkpt lat="49.39188" lon="1.44662">
        <ele>115.462890625</ele>
        <time>2017-07-02T08:01:32.000Z</time>
      </trkpt>
      <trkpt lat="49.39188" lon="1.44655">
        <ele>116.31953430176</ele>
        <time>2017-07-02T08:01:35.000Z</time>
      </trkpt>
      <trkpt lat="49.39187" lon="1.4465">
        <ele>117.19797515869</ele>
        <time>2017-07-02T08:01:37.000Z</time>
      </trkpt>
      <trkpt lat="49.39186" lon="1.44646">
        <ele>117.96606445312</ele>
        <time>2017-07-02T08:01:39.000Z</time>
      </trkpt>
      <trkpt lat="49.39185" lon="1.44642">
        <ele>118.6974105835</ele>
        <time>2017-07-02T08:01:41.000Z</time>
      </trkpt>
      <trkpt lat="49.39183" lon="1.44638">
        <ele>119.20335388184</ele>
        <time>2017-07-02T08:01:44.000Z</time>
      </trkpt>
      <trkpt lat="49.3918" lon="1.44634">
        <ele>119.47843933105</ele>
        <time>2017-07-02T08:01:46.000Z</time>
      </trkpt>
      <trkpt lat="49.39179" lon="1.44628">
        <ele>119.77136230469</ele>
        <time>2017-07-02T08:01:49.000Z</time>
      </trkpt>
      <trkpt lat="49.39177" lon="1.44625">
        <ele>120.00883483887</ele>
        <time>2017-07-02T08:01:52.000Z</time>
      </trkpt>
      <trkpt lat="49.39174" lon="1.44621">
        <ele>120.20343017578</ele>
        <time>2017-07-02T08:01:55.000Z</time>
      </trkpt>
      <trkpt lat="49.39173" lon="1.4462">
        <ele>120.37022399902</ele>
        <time>2017-07-02T08:01:57.000Z</time>
      </trkpt>
      <trkpt lat="49.39171" lon="1.44616">
        <ele>120.55373382568</ele>
        <time>2017-07-02T08:02:00.000Z</time>
      </trkpt>
      <trkpt lat="49.39169" lon="1.44613">
        <ele>120.63317871094</ele>
        <time>2017-07-02T08:02:02.000Z</time>
      </trkpt>
      <trkpt lat="49.39168" lon="1.44609">
        <ele>120.81223297119</ele>
        <time>2017-07-02T08:02:05.000Z</time>
      </trkpt>
      <trkpt lat="49.39166" lon="1.44607">
        <ele>120.9762802124</ele>
        <time>2017-07-02T08:02:07.000Z</time>
      </trkpt>
      <trkpt lat="49.39164" lon="1.44606">
        <ele>121.08708190918</ele>
        <time>2017-07-02T08:02:09.000Z</time>
      </trkpt>
      <trkpt lat="49.39161" lon="1.44602">
        <ele>121.18138122559</ele>
        <time>2017-07-02T08:02:12.000Z</time>
      </trkpt>
      <trkpt lat="49.3916" lon="1.44599">
        <ele>121.33882141113</ele>
        <time>2017-07-02T08:02:15.000Z</time>
      </trkpt>
      <trkpt lat="49.39159" lon="1.44595">
        <ele>121.47361755371</ele>
        <time>2017-07-02T08:02:18.000Z</time>
      </trkpt>
      <trkpt lat="49.39158" lon="1.44591">
        <ele>121.77752685547</ele>
        <time>2017-07-02T08:02:21.000Z</time>
      </trkpt>
      <trkpt lat="49.39155" lon="1.44588">
        <ele>122.14060974121</ele>
        <time>2017-07-02T08:02:24.000Z</time>
      </trkpt>
      <trkpt lat="49.39154" lon="1.44585">
        <ele>122.56239318848</ele>
        <time>2017-07-02T08:02:26.000Z</time>
      </trkpt>
      <trkpt lat="49.39154" lon="1.44579">
        <ele>123.07792663574</ele>
        <time>2017-07-02T08:02:29.000Z</time>
      </trkpt>
      <trkpt lat="49.39153" lon="1.44573">
        <ele>123.63153076172</ele>
        <time>2017-07-02T08:02:32.000Z</time>
      </trkpt>
      <trkpt lat="49.39153" lon="1.4457">
        <ele>124.12269592285</ele>
        <time>2017-07-02T08:02:34.000Z</time>
      </trkpt>
      <trkpt lat="49.39149" lon="1.44566">
        <ele>124.58786773682</ele>
        <time>2017-07-02T08:02:37.000Z</time>
      </trkpt>
      <trkpt lat="49.39146" lon="1.44563">
        <ele>124.94012451172</ele>
        <time>2017-07-02T08:02:40.000Z</time>
      </trkpt>
      <trkpt lat="49.39145" lon="1.4456">
        <ele>125.17088317871</ele>
        <time>2017-07-02T08:02:43.000Z</time>
      </trkpt>
      <trkpt lat="49.39145" lon="1.44558">
        <ele>125.32627105713</ele>
        <time>2017-07-02T08:02:46.000Z</time>
      </trkpt>
      <trkpt lat="49.39143" lon="1.44554">
        <ele>125.42686462402</ele>
        <time>2017-07-02T08:02:49.000Z</time>
      </trkpt>
      <trkpt lat="49.3914" lon="1.44547">
        <ele>125.64825439453</ele>
        <time>2017-07-02T08:02:52.000Z</time>
      </trkpt>
      <trkpt lat="49.39138" lon="1.44543">
        <ele>125.96353912354</ele>
        <time>2017-07-02T08:02:55.000Z</time>
      </trkpt>
      <trkpt lat="49.39135" lon="1.4454">
        <ele>126.18725585938</ele>
        <time>2017-07-02T08:02:57.000Z</time>
      </trkpt>
      <trkpt lat="49.39132" lon="1.44537">
        <ele>126.35095214844</ele>
        <time>2017-07-02T08:03:00.000Z</time>
      </trkpt>
      <trkpt lat="49.3913" lon="1.44532">
        <ele>126.56846618652</ele>
        <time>2017-07-02T08:03:03.000Z</time>
      </trkpt>
      <trkpt lat="49.39127" lon="1.44525">
        <ele>126.76992034912</ele>
        <time>2017-07-02T08:03:06.000Z</time>
      </trkpt>
      <trkpt lat="49.39125" lon="1.44522">
        <ele>126.95571136475</ele>
        <time>2017-07-02T08:03:08.000Z</time>
      </trkpt>
      <trkpt lat="49.39122" lon="1.44519">
        <ele>127.15183258057</ele>
        <time>2017-07-02T08:03:10.000Z</time>
      </trkpt>
      <trkpt lat="49.39117" lon="1.44516">
        <ele>127.30202484131</ele>
        <time>2017-07-02T08:03:13.000Z</time>
      </trkpt>
      <trkpt lat="49.39113" lon="1.44513">
        <ele>127.30390930176</ele>
        <time>2017-07-02T08:03:15.000Z</time>
      </trkpt>
      <trkpt lat="49.3911" lon="1.4451">
        <ele>127.19081878662</ele>
        <time>2017-07-02T08:03:17.000Z</time>
      </trkpt>
      <trkpt lat="49.39109" lon="1.44509">
        <ele>127.04145812988</ele>
        <time>2017-07-02T08:03:19.000Z</time>
      </trkpt>
      <trkpt lat="49.39107" lon="1.44506">
        <ele>126.96508789062</ele>
        <time>2017-07-02T08:03:22.000Z</time>
      </trkpt>
      <trkpt lat="49.39105" lon="1.44502">
        <ele>126.99171447754</ele>
        <time>2017-07-02T08:03:25.000Z</time>
      </trkpt>
      <trkpt lat="49.39104" lon="1.44498">
        <ele>127.1381072998</ele>
        <time>2017-07-02T08:03:27.000Z</time>
      </trkpt>
      <trkpt lat="49.39103" lon="1.44491">
        <ele>127.45252990723</ele>
        <time>2017-07-02T08:03:30.000Z</time>
      </trkpt>
      <trkpt lat="49.39104" lon="1.44483">
        <ele>127.9856338501</ele>
        <time>2017-07-02T08:03:33.000Z</time>
      </trkpt>
      <trkpt lat="49.39103" lon="1.44476">
        <ele>128.60119628906</ele>
        <time>2017-07-02T08:03:36.000Z</time>
      </trkpt>
      <trkpt lat="49.39101" lon="1.44473">
        <ele>129.23550415039</ele>
        <time>2017-07-02T08:03:38.000Z</time>
      </trkpt>
      <trkpt lat="49.391" lon="1.44468">
        <ele>129.90098571777</ele>
        <time>2017-07-02T08:03:41.000Z</time>
      </trkpt>
      <trkpt lat="49.39099" lon="1.44464">
        <ele>130.46353149414</ele>
        <time>2017-07-02T08:03:43.000Z</time>
      </trkpt>
      <trkpt lat="49.39097" lon="1.44458">
        <ele>130.9216003418</ele>
        <time>2017-07-02T08:03:46.000Z</time>
      </trkpt>
      <trkpt lat="49.39097" lon="1.44454">
        <ele>131.3349609375</ele>
        <time>2017-07-02T08:03:48.000Z</time>
      </trkpt>
      <trkpt lat="49.39096" lon="1.4445">
        <ele>131.76867675781</ele>
        <time>2017-07-02T08:03:50.000Z</time>
      </trkpt>
      <trkpt lat="49.39095" lon="1.44446">
        <ele>132.20452880859</ele>
        <time>2017-07-02T08:03:53.000Z</time>
      </trkpt>
      <trkpt lat="49.39095" lon="1.44443">
        <ele>132.66947937012</ele>
        <time>2017-07-02T08:03:55.000Z</time>
      </trkpt>
      <trkpt lat="49.39094" lon="1.4444">
        <ele>133.0732421875</ele>
        <time>2017-07-02T08:03:57.000Z</time>
      </trkpt>
      <trkpt lat="49.39093" lon="1.44435">
        <ele>133.51390075684</ele>
        <time>2017-07-02T08:04:00.000Z</time>
      </trkpt>
      <trkpt lat="49.39093" lon="1.4443">
        <ele>133.97775268555</ele>
        <time>2017-07-02T08:04:03.000Z</time>
      </trkpt>
      <trkpt lat="49.3909" lon="1.44425">
        <ele>134.43115234375</ele>
        <time>2017-07-02T08:04:06.000Z</time>
      </trkpt>
      <trkpt lat="49.39089" lon="1.4442">
        <ele>134.91851806641</ele>
        <time>2017-07-02T08:04:09.000Z</time>
      </trkpt>
      <trkpt lat="49.39088" lon="1.44417">
        <ele>135.44018554688</ele>
        <time>2017-07-02T08:04:11.000Z</time>
      </trkpt>
      <trkpt lat="49.39087" lon="1.44413">
        <ele>135.86344909668</ele>
        <time>2017-07-02T08:04:14.000Z</time>
      </trkpt>
      <trkpt lat="49.39084" lon="1.44405">
        <ele>136.17785644531</ele>
        <time>2017-07-02T08:04:17.000Z</time>
      </trkpt>
      <trkpt lat="49.39082" lon="1.44402">
        <ele>136.39053344727</ele>
        <time>2017-07-02T08:04:19.000Z</time>
      </trkpt>
      <trkpt lat="49.3908" lon="1.44397">
        <ele>136.50506591797</ele>
        <time>2017-07-02T08:04:22.000Z</time>
      </trkpt>
      <trkpt lat="49.39079" lon="1.44393">
        <ele>136.53834533691</ele>
        <time>2017-07-02T08:04:24.000Z</time>
      </trkpt>
      <trkpt lat="49.39077" lon="1.44388">
        <ele>136.57147216797</ele>
        <time>2017-07-02T08:04:26.000Z</time>
      </trkpt>
      <trkpt lat="49.39074" lon="1.44381">
        <ele>136.60678100586</ele>
        <time>2017-07-02T08:04:29.000Z</time>
      </trkpt>
      <trkpt lat="49.39073" lon="1.44377">
        <ele>136.67874145508</ele>
        <time>2017-07-02T08:04:31.000Z</time>
      </trkpt>
      <trkpt lat="49.39071" lon="1.44373">
        <ele>136.73904418945</ele>
        <time>2017-07-02T08:04:34.000Z</time>
      </trkpt>
      <trkpt lat="49.39068" lon="1.4437">
        <ele>136.77305603027</ele>
        <time>2017-07-02T08:04:36.000Z</time>
      </trkpt>
      <trkpt lat="49.39067" lon="1.44367">
        <ele>136.80941772461</ele>
        <time>2017-07-02T08:04:38.000Z</time>
      </trkpt>
      <trkpt lat="49.39066" lon="1.4436">
        <ele>136.88679504395</ele>
        <time>2017-07-02T08:04:41.000Z</time>
      </trkpt>
      <trkpt lat="49.39065" lon="1.44352">
        <ele>137.02166748047</ele>
        <time>2017-07-02T08:04:44.000Z</time>
      </trkpt>
      <trkpt lat="49.39064" lon="1.44348">
        <ele>137.18395996094</ele>
        <time>2017-07-02T08:04:46.000Z</time>
      </trkpt>
      <trkpt lat="49.39061" lon="1.44341">
        <ele>137.42045593262</ele>
        <time>2017-07-02T08:04:49.000Z</time>
      </trkpt>
      <trkpt lat="49.3906" lon="1.44336">
        <ele>137.67399597168</ele>
        <time>2017-07-02T08:04:51.000Z</time>
      </trkpt>
      <trkpt lat="49.39059" lon="1.4433">
        <ele>137.92337036133</ele>
        <time>2017-07-02T08:04:53.000Z</time>
      </trkpt>
      <trkpt lat="49.39059" lon="1.44322">
        <ele>138.1628112793</ele>
        <time>2017-07-02T08:04:56.000Z</time>
      </trkpt>
      <trkpt lat="49.39058" lon="1.44316">
        <ele>138.40719604492</ele>
        <time>2017-07-02T08:04:58.000Z</time>
      </trkpt>
      <trkpt lat="49.39055" lon="1.44307">
        <ele>138.62954711914</ele>
        <time>2017-07-02T08:05:01.000Z</time>
      </trkpt>
      <trkpt lat="49.3905" lon="1.44299">
        <ele>138.81135559082</ele>
        <time>2017-07-02T08:05:04.000Z</time>
      </trkpt>
      <trkpt lat="49.39044" lon="1.44292">
        <ele>138.95596313477</ele>
        <time>2017-07-02T08:05:06.000Z</time>
      </trkpt>
      <trkpt lat="49.3904" lon="1.44285">
        <ele>139.072265625</ele>
        <time>2017-07-02T08:05:08.000Z</time>
      </trkpt>
      <trkpt lat="49.39036" lon="1.44279">
        <ele>139.17164611816</ele>
        <time>2017-07-02T08:05:10.000Z</time>
      </trkpt>
      <trkpt lat="49.3903" lon="1.4427">
        <ele>139.28837585449</ele>
        <time>2017-07-02T08:05:13.000Z</time>
      </trkpt>
      <trkpt lat="49.39027" lon="1.44257">
        <ele>139.52122497559</ele>
        <time>2017-07-02T08:05:16.000Z</time>
      </trkpt>
      <trkpt lat="49.39026" lon="1.44244">
        <ele>139.81350708008</ele>
        <time>2017-07-02T08:05:19.000Z</time>
      </trkpt>
      <trkpt lat="49.39024" lon="1.44235">
        <ele>140.03591918945</ele>
        <time>2017-07-02T08:05:21.000Z</time>
      </trkpt>
      <trkpt lat="49.39022" lon="1.44222">
        <ele>140.20275878906</ele>
        <time>2017-07-02T08:05:24.000Z</time>
      </trkpt>
      <trkpt lat="49.39022" lon="1.44212">
        <ele>140.29434204102</ele>
        <time>2017-07-02T08:05:26.000Z</time>
      </trkpt>
      <trkpt lat="49.39022" lon="1.4419">
        <ele>140.21252441406</ele>
        <time>2017-07-02T08:05:29.000Z</time>
      </trkpt>
      <trkpt lat="49.39022" lon="1.44169">
        <ele>140.0124206543</ele>
        <time>2017-07-02T08:05:32.000Z</time>
      </trkpt>
      <trkpt lat="49.39021" lon="1.44147">
        <ele>139.80766296387</ele>
        <time>2017-07-02T08:05:35.000Z</time>
      </trkpt>
      <trkpt lat="49.39019" lon="1.44124">
        <ele>139.5979309082</ele>
        <time>2017-07-02T08:05:38.000Z</time>
      </trkpt>
      <trkpt lat="49.39016" lon="1.44107">
        <ele>139.37048339844</ele>
        <time>2017-07-02T08:05:40.000Z</time>
      </trkpt>
      <trkpt lat="49.39017" lon="1.44074">
        <ele>139.12835693359</ele>
        <time>2017-07-02T08:05:43.000Z</time>
      </trkpt>
      <trkpt lat="49.39021" lon="1.44049">
        <ele>138.85150146484</ele>
        <time>2017-07-02T08:05:45.000Z</time>
      </trkpt>
      <trkpt lat="49.39025" lon="1.44021">
        <ele>138.51997375488</ele>
        <time>2017-07-02T08:05:48.000Z</time>
      </trkpt>
      <trkpt lat="49.39031" lon="1.44007">
        <ele>138.22161865234</ele>
        <time>2017-07-02T08:05:50.000Z</time>
      </trkpt>
      <trkpt lat="49.39038" lon="1.44">
        <ele>137.99603271484</ele>
        <time>2017-07-02T08:05:52.000Z</time>
      </trkpt>
      <trkpt lat="49.39044" lon="1.44001">
        <ele>137.90289306641</ele>
        <time>2017-07-02T08:05:54.000Z</time>
      </trkpt>
      <trkpt lat="49.39052" lon="1.44006">
        <ele>138.00048828125</ele>
        <time>2017-07-02T08:05:57.000Z</time>
      </trkpt>
      <trkpt lat="49.39059" lon="1.44013">
        <ele>138.28607177734</ele>
        <time>2017-07-02T08:06:00.000Z</time>
      </trkpt>
      <trkpt lat="49.39062" lon="1.44017">
        <ele>138.63171386719</ele>
        <time>2017-07-02T08:06:02.000Z</time>
      </trkpt>
      <trkpt lat="49.39067" lon="1.44021">
        <ele>139.01062011719</ele>
        <time>2017-07-02T08:06:04.000Z</time>
      </trkpt>
      <trkpt lat="49.39071" lon="1.44024">
        <ele>139.38366699219</ele>
        <time>2017-07-02T08:06:07.000Z</time>
      </trkpt>
      <trkpt lat="49.39079" lon="1.44028">
        <ele>139.74273681641</ele>
        <time>2017-07-02T08:06:10.000Z</time>
      </trkpt>
      <trkpt lat="49.39084" lon="1.4403">
        <ele>140.06037902832</ele>
        <time>2017-07-02T08:06:12.000Z</time>
      </trkpt>
      <trkpt lat="49.39089" lon="1.44029">
        <ele>140.36477661133</ele>
        <time>2017-07-02T08:06:14.000Z</time>
      </trkpt>
      <trkpt lat="49.39093" lon="1.44027">
        <ele>140.62442016602</ele>
        <time>2017-07-02T08:06:16.000Z</time>
      </trkpt>
      <trkpt lat="49.39097" lon="1.44026">
        <ele>140.84477233887</ele>
        <time>2017-07-02T08:06:18.000Z</time>
      </trkpt>
      <trkpt lat="49.39104" lon="1.4403">
        <ele>141.04547119141</ele>
        <time>2017-07-02T08:06:21.000Z</time>
      </trkpt>
      <trkpt lat="49.3911" lon="1.44031">
        <ele>141.23919677734</ele>
        <time>2017-07-02T08:06:24.000Z</time>
      </trkpt>
      <trkpt lat="49.39113" lon="1.44031">
        <ele>141.42230224609</ele>
        <time>2017-07-02T08:06:26.000Z</time>
      </trkpt>
      <trkpt lat="49.39117" lon="1.44031">
        <ele>141.61383056641</ele>
        <time>2017-07-02T08:06:28.000Z</time>
      </trkpt>
      <trkpt lat="49.39124" lon="1.44029">
        <ele>141.82940673828</ele>
        <time>2017-07-02T08:06:31.000Z</time>
      </trkpt>
      <trkpt lat="49.39129" lon="1.44028">
        <ele>142.00152587891</ele>
        <time>2017-07-02T08:06:33.000Z</time>
      </trkpt>
      <trkpt lat="49.39132" lon="1.44029">
        <ele>142.15179443359</ele>
        <time>2017-07-02T08:06:35.000Z</time>
      </trkpt>
      <trkpt lat="49.39137" lon="1.44029">
        <ele>142.30889892578</ele>
        <time>2017-07-02T08:06:37.000Z</time>
      </trkpt>
      <trkpt lat="49.39144" lon="1.44029">
        <ele>142.48852539062</ele>
        <time>2017-07-02T08:06:40.000Z</time>
      </trkpt>
      <trkpt lat="49.39148" lon="1.44028">
        <ele>142.65765380859</ele>
        <time>2017-07-02T08:06:42.000Z</time>
      </trkpt>
      <trkpt lat="49.39155" lon="1.44027">
        <ele>142.83966064453</ele>
        <time>2017-07-02T08:06:45.000Z</time>
      </trkpt>
      <trkpt lat="49.39158" lon="1.44028">
        <ele>143.01788330078</ele>
        <time>2017-07-02T08:06:47.000Z</time>
      </trkpt>
      <trkpt lat="49.39162" lon="1.44029">
        <ele>143.20080566406</ele>
        <time>2017-07-02T08:06:49.000Z</time>
      </trkpt>
      <trkpt lat="49.39167" lon="1.4403">
        <ele>143.36950683594</ele>
        <time>2017-07-02T08:06:51.000Z</time>
      </trkpt>
      <trkpt lat="49.39174" lon="1.4403">
        <ele>143.52679443359</ele>
        <time>2017-07-02T08:06:54.000Z</time>
      </trkpt>
      <trkpt lat="49.39183" lon="1.44033">
        <ele>143.67749023438</ele>
        <time>2017-07-02T08:06:57.000Z</time>
      </trkpt>
      <trkpt lat="49.39192" lon="1.44035">
        <ele>143.83953857422</ele>
        <time>2017-07-02T08:07:00.000Z</time>
      </trkpt>
      <trkpt lat="49.39198" lon="1.44035">
        <ele>143.97882080078</ele>
        <time>2017-07-02T08:07:02.000Z</time>
      </trkpt>
      <trkpt lat="49.39204" lon="1.44035">
        <ele>144.09332275391</ele>
        <time>2017-07-02T08:07:04.000Z</time>
      </trkpt>
      <trkpt lat="49.39214" lon="1.44035">
        <ele>144.21496582031</ele>
        <time>2017-07-02T08:07:07.000Z</time>
      </trkpt>
      <trkpt lat="49.39219" lon="1.44037">
        <ele>144.31964111328</ele>
        <time>2017-07-02T08:07:09.000Z</time>
      </trkpt>
      <trkpt lat="49.39223" lon="1.44036">
        <ele>144.396484375</ele>
        <time>2017-07-02T08:07:11.000Z</time>
      </trkpt>
      <trkpt lat="49.3923" lon="1.44034">
        <ele>144.46685791016</ele>
        <time>2017-07-02T08:07:14.000Z</time>
      </trkpt>
      <trkpt lat="49.39239" lon="1.4403">
        <ele>144.52911376953</ele>
        <time>2017-07-02T08:07:17.000Z</time>
      </trkpt>
      <trkpt lat="49.39247" lon="1.44021">
        <ele>144.53845214844</ele>
        <time>2017-07-02T08:07:20.000Z</time>
      </trkpt>
      <trkpt lat="49.39253" lon="1.44016">
        <ele>144.51736450195</ele>
        <time>2017-07-02T08:07:22.000Z</time>
      </trkpt>
      <trkpt lat="49.3926" lon="1.4401">
        <ele>144.46057128906</ele>
        <time>2017-07-02T08:07:25.000Z</time>
      </trkpt>
      <trkpt lat="49.39266" lon="1.44003">
        <ele>144.35995483398</ele>
        <time>2017-07-02T08:07:27.000Z</time>
      </trkpt>
      <trkpt lat="49.39273" lon="1.43997">
        <ele>144.21971130371</ele>
        <time>2017-07-02T08:07:30.000Z</time>
      </trkpt>
      <trkpt lat="49.39274" lon="1.43998">
        <ele>144.11396789551</ele>
        <time>2017-07-02T08:07:38.000Z</time>
      </trkpt>
      <trkpt lat="49.39277" lon="1.43997">
        <ele>144.01498413086</ele>
        <time>2017-07-02T08:07:40.000Z</time>
      </trkpt>
      <trkpt lat="49.39285" lon="1.43995">
        <ele>143.92932128906</ele>
        <time>2017-07-02T08:07:43.000Z</time>
      </trkpt>
      <trkpt lat="49.39291" lon="1.43993">
        <ele>143.86221313477</ele>
        <time>2017-07-02T08:07:45.000Z</time>
      </trkpt>
      <trkpt lat="49.39301" lon="1.43992">
        <ele>143.82723999023</ele>
        <time>2017-07-02T08:07:48.000Z</time>
      </trkpt>
      <trkpt lat="49.39309" lon="1.43992">
        <ele>143.78190612793</ele>
        <time>2017-07-02T08:07:51.000Z</time>
      </trkpt>
      <trkpt lat="49.39315" lon="1.4399">
        <ele>143.7301940918</ele>
        <time>2017-07-02T08:07:53.000Z</time>
      </trkpt>
      <trkpt lat="49.39323" lon="1.4399">
        <ele>143.69201660156</ele>
        <time>2017-07-02T08:07:55.000Z</time>
      </trkpt>
      <trkpt lat="49.39333" lon="1.43992">
        <ele>143.68368530273</ele>
        <time>2017-07-02T08:07:58.000Z</time>
      </trkpt>
      <trkpt lat="49.39342" lon="1.43989">
        <ele>143.70446777344</ele>
        <time>2017-07-02T08:08:01.000Z</time>
      </trkpt>
      <trkpt lat="49.39353" lon="1.43983">
        <ele>143.73641967773</ele>
        <time>2017-07-02T08:08:04.000Z</time>
      </trkpt>
      <trkpt lat="49.39359" lon="1.43981">
        <ele>143.79049682617</ele>
        <time>2017-07-02T08:08:06.000Z</time>
      </trkpt>
      <trkpt lat="49.39367" lon="1.4398">
        <ele>143.8773651123</ele>
        <time>2017-07-02T08:08:08.000Z</time>
      </trkpt>
      <trkpt lat="49.39376" lon="1.43979">
        <ele>143.994140625</ele>
        <time>2017-07-02T08:08:11.000Z</time>
      </trkpt>
      <trkpt lat="49.39378" lon="1.43978">
        <ele>144.08724975586</ele>
        <time>2017-07-02T08:08:14.000Z</time>
      </trkpt>
      <trkpt lat="49.39379" lon="1.43977">
        <ele>144.16500854492</ele>
        <time>2017-07-02T08:08:20.000Z</time>
      </trkpt>
      <trkpt lat="49.39377" lon="1.43974">
        <ele>144.20266723633</ele>
        <time>2017-07-02T08:08:33.000Z</time>
      </trkpt>
      <trkpt lat="49.39376" lon="1.43972">
        <ele>144.19079589844</ele>
        <time>2017-07-02T08:08:47.000Z</time>
      </trkpt>
      <trkpt lat="49.39376" lon="1.43974">
        <ele>144.15141296387</ele>
        <time>2017-07-02T08:08:57.000Z</time>
      </trkpt>
      <trkpt lat="49.39378" lon="1.43973">
        <ele>144.11599731445</ele>
        <time>2017-07-02T08:08:59.000Z</time>
      </trkpt>
      <trkpt lat="49.39382" lon="1.43973">
        <ele>144.10333251953</ele>
        <time>2017-07-02T08:09:01.000Z</time>
      </trkpt>
      <trkpt lat="49.39388" lon="1.43971">
        <ele>144.13531494141</ele>
        <time>2017-07-02T08:09:04.000Z</time>
      </trkpt>
      <trkpt lat="49.39394" lon="1.43969">
        <ele>144.19708251953</ele>
        <time>2017-07-02T08:09:06.000Z</time>
      </trkpt>
      <trkpt lat="49.39401" lon="1.43969">
        <ele>144.27848815918</ele>
        <time>2017-07-02T08:09:08.000Z</time>
      </trkpt>
      <trkpt lat="49.39411" lon="1.4397">
        <ele>144.41372680664</ele>
        <time>2017-07-02T08:09:11.000Z</time>
      </trkpt>
      <trkpt lat="49.39416" lon="1.4397">
        <ele>144.55661010742</ele>
        <time>2017-07-02T08:09:13.000Z</time>
      </trkpt>
      <trkpt lat="49.39419" lon="1.4397">
        <ele>144.72380065918</ele>
        <time>2017-07-02T08:09:15.000Z</time>
      </trkpt>
      <trkpt lat="49.39426" lon="1.43971">
        <ele>144.98112487793</ele>
        <time>2017-07-02T08:09:18.000Z</time>
      </trkpt>
      <trkpt lat="49.39431" lon="1.43971">
        <ele>145.27268981934</ele>
        <time>2017-07-02T08:09:20.000Z</time>
      </trkpt>
      <trkpt lat="49.39437" lon="1.43969">
        <ele>145.57925415039</ele>
        <time>2017-07-02T08:09:23.000Z</time>
      </trkpt>
      <trkpt lat="49.39441" lon="1.43967">
        <ele>145.91595458984</ele>
        <time>2017-07-02T08:09:26.000Z</time>
      </trkpt>
      <trkpt lat="49.39448" lon="1.43964">
        <ele>146.28793334961</ele>
        <time>2017-07-02T08:09:29.000Z</time>
      </trkpt>
      <trkpt lat="49.39455" lon="1.43959">
        <ele>146.62796020508</ele>
        <time>2017-07-02T08:09:32.000Z</time>
      </trkpt>
      <trkpt lat="49.3946" lon="1.43955">
        <ele>146.93649291992</ele>
        <time>2017-07-02T08:09:34.000Z</time>
      </trkpt>
      <trkpt lat="49.39469" lon="1.43949">
        <ele>147.25628662109</ele>
        <time>2017-07-02T08:09:37.000Z</time>
      </trkpt>
      <trkpt lat="49.39476" lon="1.43945">
        <ele>147.58651733398</ele>
        <time>2017-07-02T08:09:39.000Z</time>
      </trkpt>
      <trkpt lat="49.39483" lon="1.43939">
        <ele>147.91528320312</ele>
        <time>2017-07-02T08:09:42.000Z</time>
      </trkpt>
      <trkpt lat="49.3949" lon="1.43935">
        <ele>148.24194335938</ele>
        <time>2017-07-02T08:09:45.000Z</time>
      </trkpt>
      <trkpt lat="49.39498" lon="1.43931">
        <ele>148.61538696289</ele>
        <time>2017-07-02T08:09:48.000Z</time>
      </trkpt>
      <trkpt lat="49.39506" lon="1.43924">
        <ele>149.06283569336</ele>
        <time>2017-07-02T08:09:51.000Z</time>
      </trkpt>
      <trkpt lat="49.39518" lon="1.43923">
        <ele>149.81945800781</ele>
        <time>2017-07-02T08:09:54.000Z</time>
      </trkpt>
      <trkpt lat="49.39528" lon="1.43923">
        <ele>150.82974243164</ele>
        <time>2017-07-02T08:09:57.000Z</time>
      </trkpt>
      <trkpt lat="49.39536" lon="1.43921">
        <ele>151.98840332031</ele>
        <time>2017-07-02T08:10:00.000Z</time>
      </trkpt>
      <trkpt lat="49.39542" lon="1.43917">
        <ele>153.22232055664</ele>
        <time>2017-07-02T08:10:03.000Z</time>
      </trkpt>
      <trkpt lat="49.39546" lon="1.43914">
        <ele>154.43244934082</ele>
        <time>2017-07-02T08:10:05.000Z</time>
      </trkpt>
      <trkpt lat="49.39552" lon="1.4391">
        <ele>155.43128967285</ele>
        <time>2017-07-02T08:10:08.000Z</time>
      </trkpt>
      <trkpt lat="49.39555" lon="1.43909">
        <ele>156.21762084961</ele>
        <time>2017-07-02T08:10:10.000Z</time>
      </trkpt>
      <trkpt lat="49.3956" lon="1.43908">
        <ele>156.92849731445</ele>
        <time>2017-07-02T08:10:13.000Z</time>
      </trkpt>
      <trkpt lat="49.3956" lon="1.43906">
        <ele>157.4781036377</ele>
        <time>2017-07-02T08:10:15.000Z</time>
      </trkpt>
      <trkpt lat="49.39559" lon="1.43905">
        <ele>157.87985229492</ele>
        <time>2017-07-02T08:10:17.000Z</time>
      </trkpt>
      <trkpt lat="49.39559" lon="1.43904">
        <ele>158.10525512695</ele>
        <time>2017-07-02T08:10:22.000Z</time>
      </trkpt>
      <trkpt lat="49.39558" lon="1.43903">
        <ele>158.19021606445</ele>
        <time>2017-07-02T08:10:26.000Z</time>
      </trkpt>
      <trkpt lat="49.39557" lon="1.43902">
        <ele>158.09567260742</ele>
        <time>2017-07-02T08:10:29.000Z</time>
      </trkpt>
      <trkpt lat="49.39557" lon="1.43899">
        <ele>158.00019836426</ele>
        <time>2017-07-02T08:10:39.000Z</time>
      </trkpt>
      <trkpt lat="49.39557" lon="1.43897">
        <ele>157.90420532227</ele>
        <time>2017-07-02T08:10:56.000Z</time>
      </trkpt>
      <trkpt lat="49.39557" lon="1.43897">
        <ele>157.90420532227</ele>
        <time>2017-07-02T08:11:16.000Z</time>
      </trkpt>
      <trkpt lat="49.39556" lon="1.43895">
        <ele>157.80746459961</ele>
        <time>2017-07-02T08:11:42.000Z</time>
      </trkpt>
      <trkpt lat="49.39557" lon="1.43894">
        <ele>157.74899291992</ele>
        <time>2017-07-02T08:11:53.000Z</time>
      </trkpt>
      <trkpt lat="49.39559" lon="1.43894">
        <ele>157.8078918457</ele>
        <time>2017-07-02T08:11:56.000Z</time>
      </trkpt>
      <trkpt lat="49.3956" lon="1.43889">
        <ele>157.90487670898</ele>
        <time>2017-07-02T08:11:59.000Z</time>
      </trkpt>
      <trkpt lat="49.39561" lon="1.43888">
        <ele>158.05419921875</ele>
        <time>2017-07-02T08:12:01.000Z</time>
      </trkpt>
      <trkpt lat="49.39563" lon="1.43889">
        <ele>158.25770568848</ele>
        <time>2017-07-02T08:12:04.000Z</time>
      </trkpt>
      <trkpt lat="49.39561" lon="1.43893">
        <ele>158.39965820312</ele>
        <time>2017-07-02T08:12:10.000Z</time>
      </trkpt>
      <trkpt lat="49.3956" lon="1.43894">
        <ele>158.42532348633</ele>
        <time>2017-07-02T08:12:13.000Z</time>
      </trkpt>
      <trkpt lat="49.39559" lon="1.43894">
        <ele>158.3896484375</ele>
        <time>2017-07-02T08:12:29.000Z</time>
      </trkpt>
      <trkpt lat="49.3956" lon="1.43893">
        <ele>158.3404083252</ele>
        <time>2017-07-02T08:12:34.000Z</time>
      </trkpt>
      <trkpt lat="49.39561" lon="1.43891">
        <ele>158.27632141113</ele>
        <time>2017-07-02T08:12:36.000Z</time>
      </trkpt>
      <trkpt lat="49.39561" lon="1.43893">
        <ele>158.26321411133</ele>
        <time>2017-07-02T08:12:40.000Z</time>
      </trkpt>
      <trkpt lat="49.39563" lon="1.43895">
        <ele>158.36782836914</ele>
        <time>2017-07-02T08:12:43.000Z</time>
      </trkpt>
      <trkpt lat="49.39563" lon="1.43898">
        <ele>158.49938964844</ele>
        <time>2017-07-02T08:12:46.000Z</time>
      </trkpt>
      <trkpt lat="49.39563" lon="1.43899">
        <ele>158.60708618164</ele>
        <time>2017-07-02T08:12:56.000Z</time>
      </trkpt>
      <trkpt lat="49.39562" lon="1.439">
        <ele>158.66494750977</ele>
        <time>2017-07-02T08:12:59.000Z</time>
      </trkpt>
      <trkpt lat="49.39561" lon="1.43899">
        <ele>158.6946105957</ele>
        <time>2017-07-02T08:13:04.000Z</time>
      </trkpt>
      <trkpt lat="49.39561" lon="1.43899">
        <ele>158.6946105957</ele>
        <time>2017-07-02T08:13:24.000Z</time>
      </trkpt>
      <trkpt lat="49.39562" lon="1.43897">
        <ele>158.66984558105</ele>
        <time>2017-07-02T08:13:40.000Z</time>
      </trkpt>
      <trkpt lat="49.39563" lon="1.43897">
        <ele>158.68215942383</ele>
        <time>2017-07-02T08:13:42.000Z</time>
      </trkpt>
      <trkpt lat="49.39564" lon="1.43899">
        <ele>158.7077331543</ele>
        <time>2017-07-02T08:13:48.000Z</time>
      </trkpt>
      <trkpt lat="49.39563" lon="1.43897">
        <ele>158.71858215332</ele>
        <time>2017-07-02T08:13:51.000Z</time>
      </trkpt>
      <trkpt lat="49.3956" lon="1.43895">
        <ele>158.66429138184</ele>
        <time>2017-07-02T08:13:59.000Z</time>
      </trkpt>
      <trkpt lat="49.39558" lon="1.4389">
        <ele>158.52981567383</ele>
        <time>2017-07-02T08:14:02.000Z</time>
      </trkpt>
      <trkpt lat="49.39557" lon="1.43888">
        <ele>158.32920837402</ele>
        <time>2017-07-02T08:14:05.000Z</time>
      </trkpt>
      <trkpt lat="49.39559" lon="1.43888">
        <ele>158.16697692871</ele>
        <time>2017-07-02T08:14:09.000Z</time>
      </trkpt>
      <trkpt lat="49.3956" lon="1.43892">
        <ele>158.08636474609</ele>
        <time>2017-07-02T08:14:12.000Z</time>
      </trkpt>
      <trkpt lat="49.3956" lon="1.43891">
        <ele>158.08390808105</ele>
        <time>2017-07-02T08:14:14.000Z</time>
      </trkpt>
      <trkpt lat="49.39558" lon="1.4389">
        <ele>158.09701538086</ele>
        <time>2017-07-02T08:14:16.000Z</time>
      </trkpt>
      <trkpt lat="49.39558" lon="1.43887">
        <ele>158.13589477539</ele>
        <time>2017-07-02T08:14:18.000Z</time>
      </trkpt>
      <trkpt lat="49.39558" lon="1.43885">
        <ele>158.1203918457</ele>
        <time>2017-07-02T08:14:21.000Z</time>
      </trkpt>
      <trkpt lat="49.39557" lon="1.43886">
        <ele>158.02503967285</ele>
        <time>2017-07-02T08:14:25.000Z</time>
      </trkpt>
      <trkpt lat="49.39556" lon="1.4389">
        <ele>157.90718078613</ele>
        <time>2017-07-02T08:14:32.000Z</time>
      </trkpt>
      <trkpt lat="49.39556" lon="1.43892">
        <ele>157.83079528809</ele>
        <time>2017-07-02T08:14:52.000Z</time>
      </trkpt>
      <trkpt lat="49.39554" lon="1.43893">
        <ele>157.69198608398</ele>
        <time>2017-07-02T08:14:54.000Z</time>
      </trkpt>
      <trkpt lat="49.39553" lon="1.43892">
        <ele>157.52816772461</ele>
        <time>2017-07-02T08:14:57.000Z</time>
      </trkpt>
      <trkpt lat="49.39554" lon="1.43891">
        <ele>157.42752075195</ele>
        <time>2017-07-02T08:15:01.000Z</time>
      </trkpt>
      <trkpt lat="49.39555" lon="1.43892">
        <ele>157.37741088867</ele>
        <time>2017-07-02T08:15:09.000Z</time>
      </trkpt>
      <trkpt lat="49.39554" lon="1.43894">
        <ele>157.31425476074</ele>
        <time>2017-07-02T08:15:15.000Z</time>
      </trkpt>
      <trkpt lat="49.39555" lon="1.43892">
        <ele>157.32681274414</ele>
        <time>2017-07-02T08:15:24.000Z</time>
      </trkpt>
      <trkpt lat="49.39554" lon="1.43892">
        <ele>157.35311889648</ele>
        <time>2017-07-02T08:15:29.000Z</time>
      </trkpt>
      <trkpt lat="49.39554" lon="1.43891">
        <ele>157.35330200195</ele>
        <time>2017-07-02T08:15:46.000Z</time>
      </trkpt>
      <trkpt lat="49.39555" lon="1.4389">
        <ele>157.35104370117</ele>
        <time>2017-07-02T08:15:49.000Z</time>
      </trkpt>
      <trkpt lat="49.39556" lon="1.43888">
        <ele>157.41087341309</ele>
        <time>2017-07-02T08:16:05.000Z</time>
      </trkpt>
      <trkpt lat="49.39556" lon="1.43889">
        <ele>157.44752502441</ele>
        <time>2017-07-02T08:16:13.000Z</time>
      </trkpt>
      <trkpt lat="49.39557" lon="1.43889">
        <ele>157.52275085449</ele>
        <time>2017-07-02T08:16:24.000Z</time>
      </trkpt>
      <trkpt lat="49.39556" lon="1.43888">
        <ele>157.57223510742</ele>
        <time>2017-07-02T08:16:32.000Z</time>
      </trkpt>
      <trkpt lat="49.39556" lon="1.4389">
        <ele>157.61172485352</ele>
        <time>2017-07-02T08:16:43.000Z</time>
      </trkpt>
      <trkpt lat="49.39558" lon="1.43889">
        <ele>157.66491699219</ele>
        <time>2017-07-02T08:16:49.000Z</time>
      </trkpt>
      <trkpt lat="49.39558" lon="1.4389">
        <ele>157.74349975586</ele>
        <time>2017-07-02T08:16:53.000Z</time>
      </trkpt>
      <trkpt lat="49.39557" lon="1.43891">
        <ele>157.75775146484</ele>
        <time>2017-07-02T08:17:04.000Z</time>
      </trkpt>
      <trkpt lat="49.39557" lon="1.43889">
        <ele>157.7847442627</ele>
        <time>2017-07-02T08:17:13.000Z</time>
      </trkpt>
      <trkpt lat="49.39555" lon="1.43889">
        <ele>157.74479675293</ele>
        <time>2017-07-02T08:17:32.000Z</time>
      </trkpt>
      <trkpt lat="49.39554" lon="1.43891">
        <ele>157.6293182373</ele>
        <time>2017-07-02T08:17:35.000Z</time>
      </trkpt>
      <trkpt lat="49.39556" lon="1.43891">
        <ele>157.56527709961</ele>
        <time>2017-07-02T08:17:39.000Z</time>
      </trkpt>
      <trkpt lat="49.39557" lon="1.4389">
        <ele>157.56484985352</ele>
        <time>2017-07-02T08:17:55.000Z</time>
      </trkpt>
      <trkpt lat="49.39558" lon="1.43888">
        <ele>157.6029510498</ele>
        <time>2017-07-02T08:17:57.000Z</time>
      </trkpt>
      <trkpt lat="49.39558" lon="1.43889">
        <ele>157.73275756836</ele>
        <time>2017-07-02T08:18:00.000Z</time>
      </trkpt>
      <trkpt lat="49.39559" lon="1.4389">
        <ele>157.9006652832</ele>
        <time>2017-07-02T08:18:05.000Z</time>
      </trkpt>
      <trkpt lat="49.3956" lon="1.43892">
        <ele>158.03067016602</ele>
        <time>2017-07-02T08:18:08.000Z</time>
      </trkpt>
      <trkpt lat="49.3956" lon="1.43893">
        <ele>158.13694763184</ele>
        <time>2017-07-02T08:18:16.000Z</time>
      </trkpt>
      <trkpt lat="49.3956" lon="1.43892">
        <ele>158.20468139648</ele>
        <time>2017-07-02T08:18:22.000Z</time>
      </trkpt>
      <trkpt lat="49.39557" lon="1.43891">
        <ele>158.16717529297</ele>
        <time>2017-07-02T08:18:25.000Z</time>
      </trkpt>
      <trkpt lat="49.39557" lon="1.43889">
        <ele>158.07583618164</ele>
        <time>2017-07-02T08:18:32.000Z</time>
      </trkpt>
      <trkpt lat="49.39556" lon="1.43891">
        <ele>157.94522094727</ele>
        <time>2017-07-02T08:18:51.000Z</time>
      </trkpt>
      <trkpt lat="49.39558" lon="1.43892">
        <ele>157.89253234863</ele>
        <time>2017-07-02T08:18:59.000Z</time>
      </trkpt>
      <trkpt lat="49.39558" lon="1.43892">
        <ele>157.89253234863</ele>
        <time>2017-07-02T08:19:19.000Z</time>
      </trkpt>
      <trkpt lat="49.39558" lon="1.4389">
        <ele>157.83978271484</ele>
        <time>2017-07-02T08:20:29.000Z</time>
      </trkpt>
      <trkpt lat="49.39557" lon="1.43891">
        <ele>157.82699584961</ele>
        <time>2017-07-02T08:20:32.000Z</time>
      </trkpt>
      <trkpt lat="49.39557" lon="1.43893">
        <ele>157.85556030273</ele>
        <time>2017-07-02T08:20:46.000Z</time>
      </trkpt>
      <trkpt lat="49.39555" lon="1.43892">
        <ele>157.80480957031</ele>
        <time>2017-07-02T08:20:57.000Z</time>
      </trkpt>
      <trkpt lat="49.39554" lon="1.43891">
        <ele>157.66111755371</ele>
        <time>2017-07-02T08:21:00.000Z</time>
      </trkpt>
      <trkpt lat="49.39555" lon="1.43893">
        <ele>157.54621887207</ele>
        <time>2017-07-02T08:21:03.000Z</time>
      </trkpt>
      <trkpt lat="49.39555" lon="1.43894">
        <ele>157.47119140625</ele>
        <time>2017-07-02T08:21:05.000Z</time>
      </trkpt>
      <trkpt lat="49.39555" lon="1.43896">
        <ele>157.38304138184</ele>
        <time>2017-07-02T08:21:08.000Z</time>
      </trkpt>
      <trkpt lat="49.39555" lon="1.43895">
        <ele>157.41128540039</ele>
        <time>2017-07-02T08:21:20.000Z</time>
      </trkpt>
      <trkpt lat="49.39557" lon="1.43897">
        <ele>157.49403381348</ele>
        <time>2017-07-02T08:21:23.000Z</time>
      </trkpt>
      <trkpt lat="49.39558" lon="1.43896">
        <ele>157.62615966797</ele>
        <time>2017-07-02T08:21:28.000Z</time>
      </trkpt>
      <trkpt lat="49.39559" lon="1.43895">
        <ele>157.76908874512</ele>
        <time>2017-07-02T08:21:35.000Z</time>
      </trkpt>
      <trkpt lat="49.3956" lon="1.43895">
        <ele>157.93632507324</ele>
        <time>2017-07-02T08:21:44.000Z</time>
      </trkpt>
      <trkpt lat="49.39561" lon="1.43896">
        <ele>158.10531616211</ele>
        <time>2017-07-02T08:21:48.000Z</time>
      </trkpt>
      <trkpt lat="49.39563" lon="1.43894">
        <ele>158.31033325195</ele>
        <time>2017-07-02T08:21:51.000Z</time>
      </trkpt>
      <trkpt lat="49.39565" lon="1.43894">
        <ele>158.51579284668</ele>
        <time>2017-07-02T08:21:54.000Z</time>
      </trkpt>
      <trkpt lat="49.39565" lon="1.43897">
        <ele>158.69813537598</ele>
        <time>2017-07-02T08:22:08.000Z</time>
      </trkpt>
      <trkpt lat="49.39564" lon="1.43898">
        <ele>158.82968139648</ele>
        <time>2017-07-02T08:22:11.000Z</time>
      </trkpt>
      <trkpt lat="49.39563" lon="1.43898">
        <ele>158.90835571289</ele>
        <time>2017-07-02T08:22:15.000Z</time>
      </trkpt>
      <trkpt lat="49.39561" lon="1.43892">
        <ele>158.84230041504</ele>
        <time>2017-07-02T08:22:17.000Z</time>
      </trkpt>
      <trkpt lat="49.39561" lon="1.4389">
        <ele>158.7230682373</ele>
        <time>2017-07-02T08:22:20.000Z</time>
      </trkpt>
      <trkpt lat="49.3956" lon="1.43889">
        <ele>158.57568359375</ele>
        <time>2017-07-02T08:22:24.000Z</time>
      </trkpt>
      <trkpt lat="49.3956" lon="1.4389">
        <ele>158.44128417969</ele>
        <time>2017-07-02T08:22:27.000Z</time>
      </trkpt>
      <trkpt lat="49.3956" lon="1.43892">
        <ele>158.3470916748</ele>
        <time>2017-07-02T08:22:34.000Z</time>
      </trkpt>
      <trkpt lat="49.39561" lon="1.43894">
        <ele>158.3483581543</ele>
        <time>2017-07-02T08:22:36.000Z</time>
      </trkpt>
      <trkpt lat="49.39562" lon="1.43896">
        <ele>158.37826538086</ele>
        <time>2017-07-02T08:22:38.000Z</time>
      </trkpt>
      <trkpt lat="49.39564" lon="1.43897">
        <ele>158.49983215332</ele>
        <time>2017-07-02T08:22:41.000Z</time>
      </trkpt>
      <trkpt lat="49.39563" lon="1.43897">
        <ele>158.59461975098</ele>
        <time>2017-07-02T08:22:48.000Z</time>
      </trkpt>
      <trkpt lat="49.39565" lon="1.439">
        <ele>158.74159240723</ele>
        <time>2017-07-02T08:22:51.000Z</time>
      </trkpt>
      <trkpt lat="49.39566" lon="1.439">
        <ele>158.91276550293</ele>
        <time>2017-07-02T08:22:55.000Z</time>
      </trkpt>
      <trkpt lat="49.39564" lon="1.43898">
        <ele>158.97872924805</ele>
        <time>2017-07-02T08:23:05.000Z</time>
      </trkpt>
      <trkpt lat="49.39564" lon="1.43897">
        <ele>158.99160766602</ele>
        <time>2017-07-02T08:23:07.000Z</time>
      </trkpt>
      <trkpt lat="49.39563" lon="1.43896">
        <ele>159.00433349609</ele>
        <time>2017-07-02T08:23:12.000Z</time>
      </trkpt>
      <trkpt lat="49.39562" lon="1.43896">
        <ele>158.91195678711</ele>
        <time>2017-07-02T08:23:14.000Z</time>
      </trkpt>
      <trkpt lat="49.39561" lon="1.43895">
        <ele>158.72831726074</ele>
        <time>2017-07-02T08:23:18.000Z</time>
      </trkpt>
      <trkpt lat="49.39562" lon="1.43895">
        <ele>158.64904785156</ele>
        <time>2017-07-02T08:23:27.000Z</time>
      </trkpt>
      <trkpt lat="49.39563" lon="1.43895">
        <ele>158.62239074707</ele>
        <time>2017-07-02T08:23:30.000Z</time>
      </trkpt>
      <trkpt lat="49.39563" lon="1.43894">
        <ele>158.60824584961</ele>
        <time>2017-07-02T08:23:34.000Z</time>
      </trkpt>
      <trkpt lat="49.39562" lon="1.43897">
        <ele>158.6086730957</ele>
        <time>2017-07-02T08:23:43.000Z</time>
      </trkpt>
      <trkpt lat="49.39561" lon="1.43899">
        <ele>158.63720703125</ele>
        <time>2017-07-02T08:23:48.000Z</time>
      </trkpt>
      <trkpt lat="49.39562" lon="1.43897">
        <ele>158.63844299316</ele>
        <time>2017-07-02T08:23:50.000Z</time>
      </trkpt>
      <trkpt lat="49.39562" lon="1.43892">
        <ele>158.58422851562</ele>
        <time>2017-07-02T08:23:52.000Z</time>
      </trkpt>
      <trkpt lat="49.39561" lon="1.43887">
        <ele>158.52780151367</ele>
        <time>2017-07-02T08:23:54.000Z</time>
      </trkpt>
      <trkpt lat="49.39558" lon="1.4389">
        <ele>158.41928100586</ele>
        <time>2017-07-02T08:23:59.000Z</time>
      </trkpt>
      <trkpt lat="49.39559" lon="1.43895">
        <ele>158.33918762207</ele>
        <time>2017-07-02T08:24:02.000Z</time>
      </trkpt>
      <trkpt lat="49.39561" lon="1.43895">
        <ele>158.31202697754</ele>
        <time>2017-07-02T08:24:04.000Z</time>
      </trkpt>
      <trkpt lat="49.39561" lon="1.43892">
        <ele>158.29963684082</ele>
        <time>2017-07-02T08:24:07.000Z</time>
      </trkpt>
      <trkpt lat="49.39565" lon="1.4389">
        <ele>158.44470214844</ele>
        <time>2017-07-02T08:24:10.000Z</time>
      </trkpt>
      <trkpt lat="49.3957" lon="1.43886">
        <ele>158.80746459961</ele>
        <time>2017-07-02T08:24:12.000Z</time>
      </trkpt>
      <trkpt lat="49.39576" lon="1.43882">
        <ele>159.3483581543</ele>
        <time>2017-07-02T08:24:15.000Z</time>
      </trkpt>
      <trkpt lat="49.39582" lon="1.4388">
        <ele>160.00788879395</ele>
        <time>2017-07-02T08:24:17.000Z</time>
      </trkpt>
      <trkpt lat="49.3959" lon="1.43874">
        <ele>160.80757141113</ele>
        <time>2017-07-02T08:24:20.000Z</time>
      </trkpt>
      <trkpt lat="49.39601" lon="1.43868">
        <ele>161.62255859375</ele>
        <time>2017-07-02T08:24:23.000Z</time>
      </trkpt>
      <trkpt lat="49.39609" lon="1.43864">
        <ele>162.3851776123</ele>
        <time>2017-07-02T08:24:25.000Z</time>
      </trkpt>
      <trkpt lat="49.39616" lon="1.4386">
        <ele>163.03837585449</ele>
        <time>2017-07-02T08:24:27.000Z</time>
      </trkpt>
      <trkpt lat="49.39627" lon="1.43854">
        <ele>163.61074829102</ele>
        <time>2017-07-02T08:24:30.000Z</time>
      </trkpt>
      <trkpt lat="49.39633" lon="1.4385">
        <ele>164.08602905273</ele>
        <time>2017-07-02T08:24:32.000Z</time>
      </trkpt>
      <trkpt lat="49.39643" lon="1.43845">
        <ele>164.49642944336</ele>
        <time>2017-07-02T08:24:35.000Z</time>
      </trkpt>
      <trkpt lat="49.39651" lon="1.43841">
        <ele>164.87539672852</ele>
        <time>2017-07-02T08:24:37.000Z</time>
      </trkpt>
      <trkpt lat="49.39664" lon="1.43834">
        <ele>165.24012756348</ele>
        <time>2017-07-02T08:24:40.000Z</time>
      </trkpt>
      <trkpt lat="49.39676" lon="1.43828">
        <ele>165.42362976074</ele>
        <time>2017-07-02T08:24:43.000Z</time>
      </trkpt>
      <trkpt lat="49.39684" lon="1.43823">
        <ele>165.4753112793</ele>
        <time>2017-07-02T08:24:45.000Z</time>
      </trkpt>
      <trkpt lat="49.39696" lon="1.43816">
        <ele>165.30395507812</ele>
        <time>2017-07-02T08:24:48.000Z</time>
      </trkpt>
      <trkpt lat="49.39705" lon="1.43811">
        <ele>164.96224975586</ele>
        <time>2017-07-02T08:24:50.000Z</time>
      </trkpt>
      <trkpt lat="49.39718" lon="1.43804">
        <ele>164.37002563477</ele>
        <time>2017-07-02T08:24:53.000Z</time>
      </trkpt>
      <trkpt lat="49.39727" lon="1.43799">
        <ele>163.72256469727</ele>
        <time>2017-07-02T08:24:55.000Z</time>
      </trkpt>
      <trkpt lat="49.39742" lon="1.4379">
        <ele>162.92221069336</ele>
        <time>2017-07-02T08:24:58.000Z</time>
      </trkpt>
      <trkpt lat="49.39751" lon="1.43785">
        <ele>162.09078979492</ele>
        <time>2017-07-02T08:25:00.000Z</time>
      </trkpt>
      <trkpt lat="49.39766" lon="1.43777">
        <ele>161.02255249023</ele>
        <time>2017-07-02T08:25:03.000Z</time>
      </trkpt>
      <trkpt lat="49.3978" lon="1.4377">
        <ele>159.83796691895</ele>
        <time>2017-07-02T08:25:06.000Z</time>
      </trkpt>
      <trkpt lat="49.3979" lon="1.43765">
        <ele>158.59323120117</ele>
        <time>2017-07-02T08:25:08.000Z</time>
      </trkpt>
      <trkpt lat="49.39804" lon="1.43756">
        <ele>157.31631469727</ele>
        <time>2017-07-02T08:25:11.000Z</time>
      </trkpt>
      <trkpt lat="49.39817" lon="1.43749">
        <ele>156.02243041992</ele>
        <time>2017-07-02T08:25:14.000Z</time>
      </trkpt>
      <trkpt lat="49.39826" lon="1.43746">
        <ele>154.97592163086</ele>
        <time>2017-07-02T08:25:17.000Z</time>
      </trkpt>
      <trkpt lat="49.39834" lon="1.43748">
        <ele>154.16662597656</ele>
        <time>2017-07-02T08:25:20.000Z</time>
      </trkpt>
      <trkpt lat="49.3984" lon="1.43747">
        <ele>153.57711791992</ele>
        <time>2017-07-02T08:25:22.000Z</time>
      </trkpt>
      <trkpt lat="49.39846" lon="1.43747">
        <ele>153.27328491211</ele>
        <time>2017-07-02T08:25:24.000Z</time>
      </trkpt>
      <trkpt lat="49.39857" lon="1.43744">
        <ele>153.19659423828</ele>
        <time>2017-07-02T08:25:27.000Z</time>
      </trkpt>
      <trkpt lat="49.39865" lon="1.43738">
        <ele>153.22933959961</ele>
        <time>2017-07-02T08:25:30.000Z</time>
      </trkpt>
      <trkpt lat="49.39876" lon="1.43732">
        <ele>153.33059692383</ele>
        <time>2017-07-02T08:25:33.000Z</time>
      </trkpt>
      <trkpt lat="49.39883" lon="1.43728">
        <ele>153.41171264648</ele>
        <time>2017-07-02T08:25:35.000Z</time>
      </trkpt>
      <trkpt lat="49.39894" lon="1.43724">
        <ele>153.48812866211</ele>
        <time>2017-07-02T08:25:38.000Z</time>
      </trkpt>
      <trkpt lat="49.39901" lon="1.43721">
        <ele>153.53561401367</ele>
        <time>2017-07-02T08:25:40.000Z</time>
      </trkpt>
      <trkpt lat="49.39912" lon="1.43716">
        <ele>153.58305358887</ele>
        <time>2017-07-02T08:25:43.000Z</time>
      </trkpt>
      <trkpt lat="49.39926" lon="1.43707">
        <ele>153.75012207031</ele>
        <time>2017-07-02T08:25:46.000Z</time>
      </trkpt>
      <trkpt lat="49.39944" lon="1.437">
        <ele>154.19869995117</ele>
        <time>2017-07-02T08:25:49.000Z</time>
      </trkpt>
      <trkpt lat="49.39956" lon="1.43697">
        <ele>154.82321166992</ele>
        <time>2017-07-02T08:25:51.000Z</time>
      </trkpt>
      <trkpt lat="49.39973" lon="1.43695">
        <ele>155.72827148438</ele>
        <time>2017-07-02T08:25:54.000Z</time>
      </trkpt>
      <trkpt lat="49.39981" lon="1.4369">
        <ele>156.73587036133</ele>
        <time>2017-07-02T08:25:56.000Z</time>
      </trkpt>
      <trkpt lat="49.39994" lon="1.43678">
        <ele>157.69660949707</ele>
        <time>2017-07-02T08:25:59.000Z</time>
      </trkpt>
      <trkpt lat="49.40004" lon="1.43666">
        <ele>158.41020202637</ele>
        <time>2017-07-02T08:26:01.000Z</time>
      </trkpt>
      <trkpt lat="49.40017" lon="1.43653">
        <ele>158.93536376953</ele>
        <time>2017-07-02T08:26:04.000Z</time>
      </trkpt>
      <trkpt lat="49.40026" lon="1.43649">
        <ele>159.25917053223</ele>
        <time>2017-07-02T08:26:06.000Z</time>
      </trkpt>
      <trkpt lat="49.40041" lon="1.43642">
        <ele>159.58720397949</ele>
        <time>2017-07-02T08:26:09.000Z</time>
      </trkpt>
      <trkpt lat="49.40051" lon="1.43635">
        <ele>159.86669921875</ele>
        <time>2017-07-02T08:26:11.000Z</time>
      </trkpt>
      <trkpt lat="49.40062" lon="1.43628">
        <ele>160.130859375</ele>
        <time>2017-07-02T08:26:13.000Z</time>
      </trkpt>
      <trkpt lat="49.40078" lon="1.43615">
        <ele>160.3558807373</ele>
        <time>2017-07-02T08:26:16.000Z</time>
      </trkpt>
      <trkpt lat="49.40095" lon="1.43609">
        <ele>160.29585266113</ele>
        <time>2017-07-02T08:26:19.000Z</time>
      </trkpt>
      <trkpt lat="49.40108" lon="1.43604">
        <ele>159.92111206055</ele>
        <time>2017-07-02T08:26:21.000Z</time>
      </trkpt>
      <trkpt lat="49.40119" lon="1.43597">
        <ele>159.28439331055</ele>
        <time>2017-07-02T08:26:23.000Z</time>
      </trkpt>
      <trkpt lat="49.40128" lon="1.43582">
        <ele>158.34365844727</ele>
        <time>2017-07-02T08:26:25.000Z</time>
      </trkpt>
      <trkpt lat="49.40134" lon="1.43555">
        <ele>157.49113464355</ele>
        <time>2017-07-02T08:26:28.000Z</time>
      </trkpt>
      <trkpt lat="49.40139" lon="1.4354">
        <ele>156.90292358398</ele>
        <time>2017-07-02T08:26:30.000Z</time>
      </trkpt>
      <trkpt lat="49.40142" lon="1.43533">
        <ele>156.55879211426</ele>
        <time>2017-07-02T08:26:33.000Z</time>
      </trkpt>
      <trkpt lat="49.40144" lon="1.43529">
        <ele>156.47485351562</ele>
        <time>2017-07-02T08:26:35.000Z</time>
      </trkpt>
      <trkpt lat="49.40146" lon="1.43519">
        <ele>156.73474121094</ele>
        <time>2017-07-02T08:26:38.000Z</time>
      </trkpt>
      <trkpt lat="49.4015" lon="1.43509">
        <ele>157.03788757324</ele>
        <time>2017-07-02T08:26:41.000Z</time>
      </trkpt>
      <trkpt lat="49.40157" lon="1.43504">
        <ele>157.37783813477</ele>
        <time>2017-07-02T08:26:44.000Z</time>
      </trkpt>
      <trkpt lat="49.40161" lon="1.435">
        <ele>157.75810241699</ele>
        <time>2017-07-02T08:26:46.000Z</time>
      </trkpt>
      <trkpt lat="49.40166" lon="1.43495">
        <ele>158.2106628418</ele>
        <time>2017-07-02T08:26:48.000Z</time>
      </trkpt>
      <trkpt lat="49.40173" lon="1.43484">
        <ele>158.81755065918</ele>
        <time>2017-07-02T08:26:51.000Z</time>
      </trkpt>
      <trkpt lat="49.40181" lon="1.43474">
        <ele>159.54266357422</ele>
        <time>2017-07-02T08:26:54.000Z</time>
      </trkpt>
      <trkpt lat="49.40186" lon="1.43467">
        <ele>160.29753112793</ele>
        <time>2017-07-02T08:26:56.000Z</time>
      </trkpt>
      <trkpt lat="49.40191" lon="1.43458">
        <ele>161.11175537109</ele>
        <time>2017-07-02T08:26:59.000Z</time>
      </trkpt>
      <trkpt lat="49.40194" lon="1.43454">
        <ele>161.90141296387</ele>
        <time>2017-07-02T08:27:01.000Z</time>
      </trkpt>
      <trkpt lat="49.402" lon="1.4345">
        <ele>162.59037780762</ele>
        <time>2017-07-02T08:27:04.000Z</time>
      </trkpt>
      <trkpt lat="49.40204" lon="1.43445">
        <ele>163.16174316406</ele>
        <time>2017-07-02T08:27:06.000Z</time>
      </trkpt>
      <trkpt lat="49.4021" lon="1.43433">
        <ele>163.75375366211</ele>
        <time>2017-07-02T08:27:09.000Z</time>
      </trkpt>
      <trkpt lat="49.40216" lon="1.43423">
        <ele>164.35733032227</ele>
        <time>2017-07-02T08:27:12.000Z</time>
      </trkpt>
      <trkpt lat="49.40223" lon="1.43415">
        <ele>164.99487304688</ele>
        <time>2017-07-02T08:27:15.000Z</time>
      </trkpt>
      <trkpt lat="49.40228" lon="1.43415">
        <ele>165.57165527344</ele>
        <time>2017-07-02T08:27:17.000Z</time>
      </trkpt>
      <trkpt lat="49.40233" lon="1.43419">
        <ele>166.11067199707</ele>
        <time>2017-07-02T08:27:19.000Z</time>
      </trkpt>
      <trkpt lat="49.40238" lon="1.43429">
        <ele>166.4983215332</ele>
        <time>2017-07-02T08:27:22.000Z</time>
      </trkpt>
      <trkpt lat="49.40241" lon="1.43437">
        <ele>166.73095703125</ele>
        <time>2017-07-02T08:27:24.000Z</time>
      </trkpt>
      <trkpt lat="49.40244" lon="1.43444">
        <ele>166.8514251709</ele>
        <time>2017-07-02T08:27:26.000Z</time>
      </trkpt>
      <trkpt lat="49.40251" lon="1.43454">
        <ele>166.95816040039</ele>
        <time>2017-07-02T08:27:29.000Z</time>
      </trkpt>
      <trkpt lat="49.40259" lon="1.43464">
        <ele>167.08288574219</ele>
        <time>2017-07-02T08:27:32.000Z</time>
      </trkpt>
      <trkpt lat="49.40267" lon="1.43472">
        <ele>167.3179473877</ele>
        <time>2017-07-02T08:27:35.000Z</time>
      </trkpt>
      <trkpt lat="49.40272" lon="1.43477">
        <ele>167.63088989258</ele>
        <time>2017-07-02T08:27:37.000Z</time>
      </trkpt>
      <trkpt lat="49.40279" lon="1.43484">
        <ele>168.07229614258</ele>
        <time>2017-07-02T08:27:40.000Z</time>
      </trkpt>
      <trkpt lat="49.40285" lon="1.43491">
        <ele>168.60189819336</ele>
        <time>2017-07-02T08:27:43.000Z</time>
      </trkpt>
      <trkpt lat="49.4029" lon="1.43495">
        <ele>169.15878295898</ele>
        <time>2017-07-02T08:27:45.000Z</time>
      </trkpt>
      <trkpt lat="49.40297" lon="1.43498">
        <ele>169.74224853516</ele>
        <time>2017-07-02T08:27:47.000Z</time>
      </trkpt>
      <trkpt lat="49.40305" lon="1.43503">
        <ele>170.39865112305</ele>
        <time>2017-07-02T08:27:50.000Z</time>
      </trkpt>
      <trkpt lat="49.40309" lon="1.43508">
        <ele>170.99526977539</ele>
        <time>2017-07-02T08:27:52.000Z</time>
      </trkpt>
      <trkpt lat="49.40315" lon="1.43516">
        <ele>171.57063293457</ele>
        <time>2017-07-02T08:27:55.000Z</time>
      </trkpt>
      <trkpt lat="49.40321" lon="1.4352">
        <ele>172.15640258789</ele>
        <time>2017-07-02T08:27:57.000Z</time>
      </trkpt>
      <trkpt lat="49.40325" lon="1.43525">
        <ele>172.68798828125</ele>
        <time>2017-07-02T08:27:59.000Z</time>
      </trkpt>
      <trkpt lat="49.40332" lon="1.43533">
        <ele>173.23463439941</ele>
        <time>2017-07-02T08:28:02.000Z</time>
      </trkpt>
      <trkpt lat="49.40337" lon="1.43538">
        <ele>173.74571228027</ele>
        <time>2017-07-02T08:28:04.000Z</time>
      </trkpt>
      <trkpt lat="49.40341" lon="1.43544">
        <ele>174.16528320312</ele>
        <time>2017-07-02T08:28:06.000Z</time>
      </trkpt>
      <trkpt lat="49.40344" lon="1.43549">
        <ele>174.48260498047</ele>
        <time>2017-07-02T08:28:08.000Z</time>
      </trkpt>
      <trkpt lat="49.40349" lon="1.43557">
        <ele>174.7548828125</ele>
        <time>2017-07-02T08:28:11.000Z</time>
      </trkpt>
      <trkpt lat="49.40354" lon="1.43562">
        <ele>174.90534973145</ele>
        <time>2017-07-02T08:28:13.000Z</time>
      </trkpt>
      <trkpt lat="49.40358" lon="1.43567">
        <ele>175.06590270996</ele>
        <time>2017-07-02T08:28:15.000Z</time>
      </trkpt>
      <trkpt lat="49.40365" lon="1.43574">
        <ele>175.28698730469</ele>
        <time>2017-07-02T08:28:18.000Z</time>
      </trkpt>
      <trkpt lat="49.4037" lon="1.4358">
        <ele>175.55784606934</ele>
        <time>2017-07-02T08:28:20.000Z</time>
      </trkpt>
      <trkpt lat="49.40374" lon="1.43587">
        <ele>175.81196594238</ele>
        <time>2017-07-02T08:28:22.000Z</time>
      </trkpt>
      <trkpt lat="49.40379" lon="1.43596">
        <ele>176.01930236816</ele>
        <time>2017-07-02T08:28:25.000Z</time>
      </trkpt>
      <trkpt lat="49.40384" lon="1.43599">
        <ele>176.22946166992</ele>
        <time>2017-07-02T08:28:27.000Z</time>
      </trkpt>
      <trkpt lat="49.40391" lon="1.43603">
        <ele>176.42384338379</ele>
        <time>2017-07-02T08:28:30.000Z</time>
      </trkpt>
      <trkpt lat="49.40395" lon="1.43607">
        <ele>176.583984375</ele>
        <time>2017-07-02T08:28:32.000Z</time>
      </trkpt>
      <trkpt lat="49.40402" lon="1.43614">
        <ele>176.77716064453</ele>
        <time>2017-07-02T08:28:35.000Z</time>
      </trkpt>
      <trkpt lat="49.40406" lon="1.43618">
        <ele>177.0093536377</ele>
        <time>2017-07-02T08:28:37.000Z</time>
      </trkpt>
      <trkpt lat="49.40412" lon="1.43621">
        <ele>177.26351928711</ele>
        <time>2017-07-02T08:28:39.000Z</time>
      </trkpt>
      <trkpt lat="49.4042" lon="1.43625">
        <ele>177.4994354248</ele>
        <time>2017-07-02T08:28:42.000Z</time>
      </trkpt>
      <trkpt lat="49.40425" lon="1.43632">
        <ele>177.6745300293</ele>
        <time>2017-07-02T08:28:45.000Z</time>
      </trkpt>
      <trkpt lat="49.40432" lon="1.43641">
        <ele>177.75854492188</ele>
        <time>2017-07-02T08:28:48.000Z</time>
      </trkpt>
      <trkpt lat="49.40442" lon="1.43647">
        <ele>177.77746582031</ele>
        <time>2017-07-02T08:28:51.000Z</time>
      </trkpt>
      <trkpt lat="49.40452" lon="1.43651">
        <ele>177.70858764648</ele>
        <time>2017-07-02T08:28:54.000Z</time>
      </trkpt>
      <trkpt lat="49.40459" lon="1.43658">
        <ele>177.55487060547</ele>
        <time>2017-07-02T08:28:57.000Z</time>
      </trkpt>
      <trkpt lat="49.40466" lon="1.43666">
        <ele>177.38638305664</ele>
        <time>2017-07-02T08:29:00.000Z</time>
      </trkpt>
      <trkpt lat="49.40475" lon="1.43674">
        <ele>177.17909240723</ele>
        <time>2017-07-02T08:29:03.000Z</time>
      </trkpt>
      <trkpt lat="49.40483" lon="1.43683">
        <ele>176.89733886719</ele>
        <time>2017-07-02T08:29:06.000Z</time>
      </trkpt>
      <trkpt lat="49.40493" lon="1.4369">
        <ele>176.54104614258</ele>
        <time>2017-07-02T08:29:09.000Z</time>
      </trkpt>
      <trkpt lat="49.40501" lon="1.43698">
        <ele>176.11335754395</ele>
        <time>2017-07-02T08:29:12.000Z</time>
      </trkpt>
      <trkpt lat="49.40505" lon="1.43702">
        <ele>175.66218566895</ele>
        <time>2017-07-02T08:29:14.000Z</time>
      </trkpt>
      <trkpt lat="49.40511" lon="1.43711">
        <ele>175.16793823242</ele>
        <time>2017-07-02T08:29:17.000Z</time>
      </trkpt>
      <trkpt lat="49.40516" lon="1.43719">
        <ele>174.65863037109</ele>
        <time>2017-07-02T08:29:20.000Z</time>
      </trkpt>
      <trkpt lat="49.4052" lon="1.4372">
        <ele>174.20126342773</ele>
        <time>2017-07-02T08:29:22.000Z</time>
      </trkpt>
      <trkpt lat="49.40524" lon="1.43722">
        <ele>173.82417297363</ele>
        <time>2017-07-02T08:29:24.000Z</time>
      </trkpt>
      <trkpt lat="49.40527" lon="1.43723">
        <ele>173.48004150391</ele>
        <time>2017-07-02T08:29:26.000Z</time>
      </trkpt>
      <trkpt lat="49.40531" lon="1.43726">
        <ele>173.20422363281</ele>
        <time>2017-07-02T08:29:29.000Z</time>
      </trkpt>
      <trkpt lat="49.40534" lon="1.43727">
        <ele>173.02412414551</ele>
        <time>2017-07-02T08:29:32.000Z</time>
      </trkpt>
      <trkpt lat="49.40534" lon="1.43725">
        <ele>172.90744018555</ele>
        <time>2017-07-02T08:29:35.000Z</time>
      </trkpt>
      <trkpt lat="49.40533" lon="1.43724">
        <ele>172.83442687988</ele>
        <time>2017-07-02T08:29:37.000Z</time>
      </trkpt>
      <trkpt lat="49.40532" lon="1.43723">
        <ele>172.8212890625</ele>
        <time>2017-07-02T08:29:40.000Z</time>
      </trkpt>
      <trkpt lat="49.4053" lon="1.43722">
        <ele>172.87075805664</ele>
        <time>2017-07-02T08:29:47.000Z</time>
      </trkpt>
      <trkpt lat="49.4053" lon="1.43721">
        <ele>172.96469116211</ele>
        <time>2017-07-02T08:29:55.000Z</time>
      </trkpt>
      <trkpt lat="49.4053" lon="1.43722">
        <ele>173.01747131348</ele>
        <time>2017-07-02T08:30:06.000Z</time>
      </trkpt>
      <trkpt lat="49.4053" lon="1.43722">
        <ele>173.01747131348</ele>
        <time>2017-07-02T08:30:26.000Z</time>
      </trkpt>
      <trkpt lat="49.40532" lon="1.43721">
        <ele>173.06086730957</ele>
        <time>2017-07-02T08:30:55.000Z</time>
      </trkpt>
      <trkpt lat="49.40533" lon="1.43721">
        <ele>173.08032226562</ele>
        <time>2017-07-02T08:30:57.000Z</time>
      </trkpt>
      <trkpt lat="49.40534" lon="1.4372">
        <ele>173.10098266602</ele>
        <time>2017-07-02T08:31:00.000Z</time>
      </trkpt>
      <trkpt lat="49.40535" lon="1.43719">
        <ele>173.10119628906</ele>
        <time>2017-07-02T08:31:03.000Z</time>
      </trkpt>
      <trkpt lat="49.40535" lon="1.4372">
        <ele>173.10690307617</ele>
        <time>2017-07-02T08:31:17.000Z</time>
      </trkpt>
      <trkpt lat="49.40535" lon="1.43718">
        <ele>173.14700317383</ele>
        <time>2017-07-02T08:31:31.000Z</time>
      </trkpt>
      <trkpt lat="49.40536" lon="1.43718">
        <ele>173.17953491211</ele>
        <time>2017-07-02T08:31:35.000Z</time>
      </trkpt>
      <trkpt lat="49.40539" lon="1.43719">
        <ele>173.17044067383</ele>
        <time>2017-07-02T08:31:38.000Z</time>
      </trkpt>
      <trkpt lat="49.40539" lon="1.43721">
        <ele>173.13735961914</ele>
        <time>2017-07-02T08:31:41.000Z</time>
      </trkpt>
      <trkpt lat="49.40538" lon="1.43723">
        <ele>173.08322143555</ele>
        <time>2017-07-02T08:31:43.000Z</time>
      </trkpt>
      <trkpt lat="49.40538" lon="1.43726">
        <ele>172.96260070801</ele>
        <time>2017-07-02T08:31:47.000Z</time>
      </trkpt>
      <trkpt lat="49.40541" lon="1.43729">
        <ele>172.7985534668</ele>
        <time>2017-07-02T08:31:50.000Z</time>
      </trkpt>
      <trkpt lat="49.40545" lon="1.43736">
        <ele>172.55355834961</ele>
        <time>2017-07-02T08:31:53.000Z</time>
      </trkpt>
      <trkpt lat="49.40549" lon="1.43748">
        <ele>172.15420532227</ele>
        <time>2017-07-02T08:31:56.000Z</time>
      </trkpt>
      <trkpt lat="49.40554" lon="1.43759">
        <ele>171.69654846191</ele>
        <time>2017-07-02T08:31:59.000Z</time>
      </trkpt>
      <trkpt lat="49.40558" lon="1.43764">
        <ele>171.22750854492</ele>
        <time>2017-07-02T08:32:01.000Z</time>
      </trkpt>
      <trkpt lat="49.40563" lon="1.43768">
        <ele>170.77589416504</ele>
        <time>2017-07-02T08:32:03.000Z</time>
      </trkpt>
      <trkpt lat="49.40569" lon="1.43774">
        <ele>170.39497375488</ele>
        <time>2017-07-02T08:32:05.000Z</time>
      </trkpt>
      <trkpt lat="49.40576" lon="1.4378">
        <ele>170.14779663086</ele>
        <time>2017-07-02T08:32:08.000Z</time>
      </trkpt>
      <trkpt lat="49.40583" lon="1.43788">
        <ele>169.9518737793</ele>
        <time>2017-07-02T08:32:11.000Z</time>
      </trkpt>
      <trkpt lat="49.40588" lon="1.43794">
        <ele>169.78689575195</ele>
        <time>2017-07-02T08:32:13.000Z</time>
      </trkpt>
      <trkpt lat="49.40597" lon="1.43798">
        <ele>169.6637878418</ele>
        <time>2017-07-02T08:32:16.000Z</time>
      </trkpt>
      <trkpt lat="49.40603" lon="1.43805">
        <ele>169.58517456055</ele>
        <time>2017-07-02T08:32:18.000Z</time>
      </trkpt>
      <trkpt lat="49.40608" lon="1.43815">
        <ele>169.55914306641</ele>
        <time>2017-07-02T08:32:21.000Z</time>
      </trkpt>
      <trkpt lat="49.40611" lon="1.43822">
        <ele>169.5830078125</ele>
        <time>2017-07-02T08:32:23.000Z</time>
      </trkpt>
      <trkpt lat="49.40615" lon="1.43829">
        <ele>169.63375854492</ele>
        <time>2017-07-02T08:32:25.000Z</time>
      </trkpt>
      <trkpt lat="49.40621" lon="1.43839">
        <ele>169.74816894531</ele>
        <time>2017-07-02T08:32:28.000Z</time>
      </trkpt>
      <trkpt lat="49.40629" lon="1.43851">
        <ele>169.98536682129</ele>
        <time>2017-07-02T08:32:31.000Z</time>
      </trkpt>
      <trkpt lat="49.40633" lon="1.43866">
        <ele>170.36541748047</ele>
        <time>2017-07-02T08:32:34.000Z</time>
      </trkpt>
      <trkpt lat="49.40635" lon="1.43876">
        <ele>170.84034729004</ele>
        <time>2017-07-02T08:32:36.000Z</time>
      </trkpt>
      <trkpt lat="49.40641" lon="1.43893">
        <ele>171.49984741211</ele>
        <time>2017-07-02T08:32:39.000Z</time>
      </trkpt>
      <trkpt lat="49.40648" lon="1.43908">
        <ele>172.31872558594</ele>
        <time>2017-07-02T08:32:42.000Z</time>
      </trkpt>
      <trkpt lat="49.40651" lon="1.43918">
        <ele>173.1492767334</ele>
        <time>2017-07-02T08:32:44.000Z</time>
      </trkpt>
      <trkpt lat="49.40658" lon="1.43931">
        <ele>173.94937133789</ele>
        <time>2017-07-02T08:32:47.000Z</time>
      </trkpt>
      <trkpt lat="49.40663" lon="1.43936">
        <ele>174.7306060791</ele>
        <time>2017-07-02T08:32:49.000Z</time>
      </trkpt>
      <trkpt lat="49.40669" lon="1.43944">
        <ele>175.38302612305</ele>
        <time>2017-07-02T08:32:52.000Z</time>
      </trkpt>
      <trkpt lat="49.40674" lon="1.43951">
        <ele>175.82131958008</ele>
        <time>2017-07-02T08:32:54.000Z</time>
      </trkpt>
      <trkpt lat="49.40677" lon="1.43961">
        <ele>176.14653015137</ele>
        <time>2017-07-02T08:32:57.000Z</time>
      </trkpt>
      <trkpt lat="49.4068" lon="1.43968">
        <ele>176.37135314941</ele>
        <time>2017-07-02T08:32:59.000Z</time>
      </trkpt>
      <trkpt lat="49.40685" lon="1.43976">
        <ele>176.54463195801</ele>
        <time>2017-07-02T08:33:02.000Z</time>
      </trkpt>
      <trkpt lat="49.40689" lon="1.43983">
        <ele>176.67384338379</ele>
        <time>2017-07-02T08:33:04.000Z</time>
      </trkpt>
      <trkpt lat="49.40693" lon="1.43992">
        <ele>176.82264709473</ele>
        <time>2017-07-02T08:33:06.000Z</time>
      </trkpt>
      <trkpt lat="49.40696" lon="1.44007">
        <ele>176.96398925781</ele>
        <time>2017-07-02T08:33:09.000Z</time>
      </trkpt>
      <trkpt lat="49.40698" lon="1.44017">
        <ele>177.05485534668</ele>
        <time>2017-07-02T08:33:11.000Z</time>
      </trkpt>
      <trkpt lat="49.40701" lon="1.44029">
        <ele>177.07766723633</ele>
        <time>2017-07-02T08:33:13.000Z</time>
      </trkpt>
      <trkpt lat="49.40709" lon="1.44049">
        <ele>177.00750732422</ele>
        <time>2017-07-02T08:33:16.000Z</time>
      </trkpt>
      <trkpt lat="49.40714" lon="1.4406">
        <ele>176.86682128906</ele>
        <time>2017-07-02T08:33:18.000Z</time>
      </trkpt>
      <trkpt lat="49.40717" lon="1.44069">
        <ele>176.67196655273</ele>
        <time>2017-07-02T08:33:20.000Z</time>
      </trkpt>
      <trkpt lat="49.40722" lon="1.44082">
        <ele>176.45724487305</ele>
        <time>2017-07-02T08:33:23.000Z</time>
      </trkpt>
      <trkpt lat="49.40725" lon="1.44092">
        <ele>176.26513671875</ele>
        <time>2017-07-02T08:33:25.000Z</time>
      </trkpt>
      <trkpt lat="49.40731" lon="1.44109">
        <ele>176.1282043457</ele>
        <time>2017-07-02T08:33:28.000Z</time>
      </trkpt>
      <trkpt lat="49.40734" lon="1.44119">
        <ele>176.02294921875</ele>
        <time>2017-07-02T08:33:30.000Z</time>
      </trkpt>
      <trkpt lat="49.40745" lon="1.44135">
        <ele>175.96017456055</ele>
        <time>2017-07-02T08:33:33.000Z</time>
      </trkpt>
      <trkpt lat="49.40751" lon="1.44145">
        <ele>175.96228027344</ele>
        <time>2017-07-02T08:33:35.000Z</time>
      </trkpt>
      <trkpt lat="49.40757" lon="1.44161">
        <ele>176.01956176758</ele>
        <time>2017-07-02T08:33:38.000Z</time>
      </trkpt>
      <trkpt lat="49.40762" lon="1.44178">
        <ele>176.12406921387</ele>
        <time>2017-07-02T08:33:41.000Z</time>
      </trkpt>
      <trkpt lat="49.40767" lon="1.44195">
        <ele>176.2601776123</ele>
        <time>2017-07-02T08:33:44.000Z</time>
      </trkpt>
      <trkpt lat="49.4077" lon="1.44202">
        <ele>176.41409301758</ele>
        <time>2017-07-02T08:33:46.000Z</time>
      </trkpt>
      <trkpt lat="49.40779" lon="1.44218">
        <ele>176.61404418945</ele>
        <time>2017-07-02T08:33:49.000Z</time>
      </trkpt>
      <trkpt lat="49.40784" lon="1.44228">
        <ele>176.80859375</ele>
        <time>2017-07-02T08:33:51.000Z</time>
      </trkpt>
      <trkpt lat="49.40791" lon="1.44244">
        <ele>177.0166015625</ele>
        <time>2017-07-02T08:33:54.000Z</time>
      </trkpt>
      <trkpt lat="49.40797" lon="1.44262">
        <ele>177.18742370605</ele>
        <time>2017-07-02T08:33:57.000Z</time>
      </trkpt>
      <trkpt lat="49.40801" lon="1.44273">
        <ele>177.32138061523</ele>
        <time>2017-07-02T08:33:59.000Z</time>
      </trkpt>
      <trkpt lat="49.40808" lon="1.44288">
        <ele>177.37643432617</ele>
        <time>2017-07-02T08:34:02.000Z</time>
      </trkpt>
      <trkpt lat="49.40813" lon="1.44304">
        <ele>177.35710144043</ele>
        <time>2017-07-02T08:34:05.000Z</time>
      </trkpt>
      <trkpt lat="49.40816" lon="1.44315">
        <ele>177.25366210938</ele>
        <time>2017-07-02T08:34:07.000Z</time>
      </trkpt>
      <trkpt lat="49.40819" lon="1.44326">
        <ele>177.12419128418</ele>
        <time>2017-07-02T08:34:09.000Z</time>
      </trkpt>
      <trkpt lat="49.40825" lon="1.44339">
        <ele>177.00527954102</ele>
        <time>2017-07-02T08:34:12.000Z</time>
      </trkpt>
      <trkpt lat="49.40833" lon="1.44347">
        <ele>176.94082641602</ele>
        <time>2017-07-02T08:34:14.000Z</time>
      </trkpt>
      <trkpt lat="49.40845" lon="1.44365">
        <ele>176.92497253418</ele>
        <time>2017-07-02T08:34:17.000Z</time>
      </trkpt>
      <trkpt lat="49.40857" lon="1.4438">
        <ele>176.96224975586</ele>
        <time>2017-07-02T08:34:20.000Z</time>
      </trkpt>
      <trkpt lat="49.40867" lon="1.44391">
        <ele>177.05645751953</ele>
        <time>2017-07-02T08:34:23.000Z</time>
      </trkpt>
      <trkpt lat="49.40879" lon="1.44404">
        <ele>177.18925476074</ele>
        <time>2017-07-02T08:34:26.000Z</time>
      </trkpt>
      <trkpt lat="49.40887" lon="1.44413">
        <ele>177.3148651123</ele>
        <time>2017-07-02T08:34:28.000Z</time>
      </trkpt>
      <trkpt lat="49.40899" lon="1.44426">
        <ele>177.44071960449</ele>
        <time>2017-07-02T08:34:31.000Z</time>
      </trkpt>
      <trkpt lat="49.40911" lon="1.44438">
        <ele>177.54365539551</ele>
        <time>2017-07-02T08:34:34.000Z</time>
      </trkpt>
      <trkpt lat="49.40919" lon="1.44449">
        <ele>177.62655639648</ele>
        <time>2017-07-02T08:34:36.000Z</time>
      </trkpt>
      <trkpt lat="49.40926" lon="1.44459">
        <ele>177.69119262695</ele>
        <time>2017-07-02T08:34:38.000Z</time>
      </trkpt>
      <trkpt lat="49.40937" lon="1.44473">
        <ele>177.76306152344</ele>
        <time>2017-07-02T08:34:41.000Z</time>
      </trkpt>
      <trkpt lat="49.40945" lon="1.44484">
        <ele>177.85580444336</ele>
        <time>2017-07-02T08:34:43.000Z</time>
      </trkpt>
      <trkpt lat="49.40951" lon="1.44493">
        <ele>177.98048400879</ele>
        <time>2017-07-02T08:34:45.000Z</time>
      </trkpt>
      <trkpt lat="49.40958" lon="1.44502">
        <ele>178.13070678711</ele>
        <time>2017-07-02T08:34:47.000Z</time>
      </trkpt>
      <trkpt lat="49.40969" lon="1.4452">
        <ele>178.27365112305</ele>
        <time>2017-07-02T08:34:50.000Z</time>
      </trkpt>
      <trkpt lat="49.40976" lon="1.44531">
        <ele>178.37919616699</ele>
        <time>2017-07-02T08:34:52.000Z</time>
      </trkpt>
      <trkpt lat="49.40986" lon="1.44543">
        <ele>178.46206665039</ele>
        <time>2017-07-02T08:34:55.000Z</time>
      </trkpt>
      <trkpt lat="49.40997" lon="1.44557">
        <ele>178.51371765137</ele>
        <time>2017-07-02T08:34:58.000Z</time>
      </trkpt>
      <trkpt lat="49.41005" lon="1.44572">
        <ele>178.50117492676</ele>
        <time>2017-07-02T08:35:01.000Z</time>
      </trkpt>
      <trkpt lat="49.41013" lon="1.44582">
        <ele>178.46690368652</ele>
        <time>2017-07-02T08:35:03.000Z</time>
      </trkpt>
      <trkpt lat="49.41025" lon="1.44595">
        <ele>178.42897033691</ele>
        <time>2017-07-02T08:35:06.000Z</time>
      </trkpt>
      <trkpt lat="49.41039" lon="1.44612">
        <ele>178.36352539062</ele>
        <time>2017-07-02T08:35:09.000Z</time>
      </trkpt>
      <trkpt lat="49.41046" lon="1.44622">
        <ele>178.28730773926</ele>
        <time>2017-07-02T08:35:11.000Z</time>
      </trkpt>
      <trkpt lat="49.41055" lon="1.44634">
        <ele>178.23294067383</ele>
        <time>2017-07-02T08:35:13.000Z</time>
      </trkpt>
      <trkpt lat="49.41061" lon="1.44643">
        <ele>178.16998291016</ele>
        <time>2017-07-02T08:35:15.000Z</time>
      </trkpt>
      <trkpt lat="49.41067" lon="1.44653">
        <ele>178.09460449219</ele>
        <time>2017-07-02T08:35:17.000Z</time>
      </trkpt>
      <trkpt lat="49.41071" lon="1.4466">
        <ele>178.02270507812</ele>
        <time>2017-07-02T08:35:19.000Z</time>
      </trkpt>
      <trkpt lat="49.41079" lon="1.44673">
        <ele>177.93640136719</ele>
        <time>2017-07-02T08:35:22.000Z</time>
      </trkpt>
      <trkpt lat="49.41085" lon="1.44683">
        <ele>177.85066223145</ele>
        <time>2017-07-02T08:35:25.000Z</time>
      </trkpt>
      <trkpt lat="49.41096" lon="1.44697">
        <ele>177.80191040039</ele>
        <time>2017-07-02T08:35:28.000Z</time>
      </trkpt>
      <trkpt lat="49.41103" lon="1.44708">
        <ele>177.7818145752</ele>
        <time>2017-07-02T08:35:30.000Z</time>
      </trkpt>
      <trkpt lat="49.41112" lon="1.44723">
        <ele>177.79089355469</ele>
        <time>2017-07-02T08:35:33.000Z</time>
      </trkpt>
      <trkpt lat="49.41119" lon="1.44735">
        <ele>177.84460449219</ele>
        <time>2017-07-02T08:35:36.000Z</time>
      </trkpt>
      <trkpt lat="49.4113" lon="1.44747">
        <ele>177.96640014648</ele>
        <time>2017-07-02T08:35:39.000Z</time>
      </trkpt>
      <trkpt lat="49.41136" lon="1.44755">
        <ele>178.0958404541</ele>
        <time>2017-07-02T08:35:41.000Z</time>
      </trkpt>
      <trkpt lat="49.41142" lon="1.44764">
        <ele>178.22001647949</ele>
        <time>2017-07-02T08:35:43.000Z</time>
      </trkpt>
      <trkpt lat="49.41153" lon="1.4478">
        <ele>178.32766723633</ele>
        <time>2017-07-02T08:35:46.000Z</time>
      </trkpt>
      <trkpt lat="49.41161" lon="1.44793">
        <ele>178.3825378418</ele>
        <time>2017-07-02T08:35:48.000Z</time>
      </trkpt>
      <trkpt lat="49.41171" lon="1.44808">
        <ele>178.33612060547</ele>
        <time>2017-07-02T08:35:50.000Z</time>
      </trkpt>
      <trkpt lat="49.41186" lon="1.44827">
        <ele>178.22994995117</ele>
        <time>2017-07-02T08:35:53.000Z</time>
      </trkpt>
      <trkpt lat="49.41194" lon="1.44837">
        <ele>178.12780761719</ele>
        <time>2017-07-02T08:35:55.000Z</time>
      </trkpt>
      <trkpt lat="49.41206" lon="1.44851">
        <ele>178.07722473145</ele>
        <time>2017-07-02T08:35:58.000Z</time>
      </trkpt>
      <trkpt lat="49.41221" lon="1.44865">
        <ele>178.11152648926</ele>
        <time>2017-07-02T08:36:01.000Z</time>
      </trkpt>
      <trkpt lat="49.41234" lon="1.4488">
        <ele>178.20454406738</ele>
        <time>2017-07-02T08:36:04.000Z</time>
      </trkpt>
      <trkpt lat="49.41245" lon="1.44899">
        <ele>178.29409790039</ele>
        <time>2017-07-02T08:36:07.000Z</time>
      </trkpt>
      <trkpt lat="49.41252" lon="1.4491">
        <ele>178.34375</ele>
        <time>2017-07-02T08:36:09.000Z</time>
      </trkpt>
      <trkpt lat="49.41264" lon="1.44925">
        <ele>178.38481140137</ele>
        <time>2017-07-02T08:36:12.000Z</time>
      </trkpt>
      <trkpt lat="49.41272" lon="1.44935">
        <ele>178.43156433105</ele>
        <time>2017-07-02T08:36:14.000Z</time>
      </trkpt>
      <trkpt lat="49.41279" lon="1.44944">
        <ele>178.51092529297</ele>
        <time>2017-07-02T08:36:16.000Z</time>
      </trkpt>
      <trkpt lat="49.41293" lon="1.4496">
        <ele>178.69830322266</ele>
        <time>2017-07-02T08:36:19.000Z</time>
      </trkpt>
      <trkpt lat="49.41305" lon="1.44982">
        <ele>178.97682189941</ele>
        <time>2017-07-02T08:36:22.000Z</time>
      </trkpt>
      <trkpt lat="49.41318" lon="1.45003">
        <ele>179.2442779541</ele>
        <time>2017-07-02T08:36:25.000Z</time>
      </trkpt>
      <trkpt lat="49.41329" lon="1.45024">
        <ele>179.38198852539</ele>
        <time>2017-07-02T08:36:28.000Z</time>
      </trkpt>
      <trkpt lat="49.41336" lon="1.45034">
        <ele>179.4338684082</ele>
        <time>2017-07-02T08:36:30.000Z</time>
      </trkpt>
      <trkpt lat="49.41348" lon="1.45048">
        <ele>179.34854125977</ele>
        <time>2017-07-02T08:36:33.000Z</time>
      </trkpt>
      <trkpt lat="49.41356" lon="1.45059">
        <ele>179.14779663086</ele>
        <time>2017-07-02T08:36:35.000Z</time>
      </trkpt>
      <trkpt lat="49.41366" lon="1.45077">
        <ele>178.83087158203</ele>
        <time>2017-07-02T08:36:38.000Z</time>
      </trkpt>
      <trkpt lat="49.41376" lon="1.45095">
        <ele>178.51312255859</ele>
        <time>2017-07-02T08:36:41.000Z</time>
      </trkpt>
      <trkpt lat="49.41388" lon="1.45111">
        <ele>178.16702270508</ele>
        <time>2017-07-02T08:36:44.000Z</time>
      </trkpt>
      <trkpt lat="49.41397" lon="1.45123">
        <ele>177.83016967773</ele>
        <time>2017-07-02T08:36:47.000Z</time>
      </trkpt>
      <trkpt lat="49.41408" lon="1.45133">
        <ele>177.4877166748</ele>
        <time>2017-07-02T08:36:50.000Z</time>
      </trkpt>
      <trkpt lat="49.41422" lon="1.45151">
        <ele>177.16815185547</ele>
        <time>2017-07-02T08:36:53.000Z</time>
      </trkpt>
      <trkpt lat="49.4143" lon="1.45159">
        <ele>176.93995666504</ele>
        <time>2017-07-02T08:36:55.000Z</time>
      </trkpt>
      <trkpt lat="49.41444" lon="1.45178">
        <ele>176.78343200684</ele>
        <time>2017-07-02T08:36:58.000Z</time>
      </trkpt>
      <trkpt lat="49.41452" lon="1.45189">
        <ele>176.65885925293</ele>
        <time>2017-07-02T08:37:00.000Z</time>
      </trkpt>
      <trkpt lat="49.41462" lon="1.45202">
        <ele>176.53829956055</ele>
        <time>2017-07-02T08:37:02.000Z</time>
      </trkpt>
      <trkpt lat="49.41477" lon="1.45229">
        <ele>176.2802734375</ele>
        <time>2017-07-02T08:37:05.000Z</time>
      </trkpt>
      <trkpt lat="49.41497" lon="1.45255">
        <ele>175.72302246094</ele>
        <time>2017-07-02T08:37:08.000Z</time>
      </trkpt>
      <trkpt lat="49.41509" lon="1.45267">
        <ele>175.14170837402</ele>
        <time>2017-07-02T08:37:10.000Z</time>
      </trkpt>
      <trkpt lat="49.41526" lon="1.45287">
        <ele>174.5627746582</ele>
        <time>2017-07-02T08:37:13.000Z</time>
      </trkpt>
      <trkpt lat="49.41541" lon="1.45307">
        <ele>173.95698547363</ele>
        <time>2017-07-02T08:37:16.000Z</time>
      </trkpt>
      <trkpt lat="49.41551" lon="1.45322">
        <ele>173.46685791016</ele>
        <time>2017-07-02T08:37:18.000Z</time>
      </trkpt>
      <trkpt lat="49.41557" lon="1.45334">
        <ele>173.16181945801</ele>
        <time>2017-07-02T08:37:20.000Z</time>
      </trkpt>
      <trkpt lat="49.4157" lon="1.45355">
        <ele>172.71624755859</ele>
        <time>2017-07-02T08:37:23.000Z</time>
      </trkpt>
      <trkpt lat="49.41584" lon="1.45371">
        <ele>172.13749694824</ele>
        <time>2017-07-02T08:37:26.000Z</time>
      </trkpt>
      <trkpt lat="49.41595" lon="1.45372">
        <ele>171.68392944336</ele>
        <time>2017-07-02T08:37:28.000Z</time>
      </trkpt>
      <trkpt lat="49.41608" lon="1.45389">
        <ele>171.14839172363</ele>
        <time>2017-07-02T08:37:31.000Z</time>
      </trkpt>
      <trkpt lat="49.41614" lon="1.45407">
        <ele>170.48309326172</ele>
        <time>2017-07-02T08:37:33.000Z</time>
      </trkpt>
      <trkpt lat="49.41623" lon="1.45421">
        <ele>169.81198120117</ele>
        <time>2017-07-02T08:37:35.000Z</time>
      </trkpt>
      <trkpt lat="49.41634" lon="1.45433">
        <ele>169.14309692383</ele>
        <time>2017-07-02T08:37:37.000Z</time>
      </trkpt>
      <trkpt lat="49.41644" lon="1.45448">
        <ele>168.21212768555</ele>
        <time>2017-07-02T08:37:39.000Z</time>
      </trkpt>
      <trkpt lat="49.41657" lon="1.45464">
        <ele>167.18377685547</ele>
        <time>2017-07-02T08:37:42.000Z</time>
      </trkpt>
      <trkpt lat="49.4167" lon="1.45464">
        <ele>166.40585327148</ele>
        <time>2017-07-02T08:37:45.000Z</time>
      </trkpt>
      <trkpt lat="49.41678" lon="1.4546">
        <ele>165.88705444336</ele>
        <time>2017-07-02T08:37:47.000Z</time>
      </trkpt>
      <trkpt lat="49.41687" lon="1.45453">
        <ele>165.65768432617</ele>
        <time>2017-07-02T08:37:49.000Z</time>
      </trkpt>
      <trkpt lat="49.41696" lon="1.45445">
        <ele>165.78668212891</ele>
        <time>2017-07-02T08:37:51.000Z</time>
      </trkpt>
      <trkpt lat="49.4171" lon="1.45439">
        <ele>166.29397583008</ele>
        <time>2017-07-02T08:37:54.000Z</time>
      </trkpt>
      <trkpt lat="49.41718" lon="1.45431">
        <ele>166.89343261719</ele>
        <time>2017-07-02T08:37:56.000Z</time>
      </trkpt>
      <trkpt lat="49.41729" lon="1.45422">
        <ele>167.51591491699</ele>
        <time>2017-07-02T08:37:58.000Z</time>
      </trkpt>
      <trkpt lat="49.4174" lon="1.45426">
        <ele>167.96524047852</ele>
        <time>2017-07-02T08:38:01.000Z</time>
      </trkpt>
      <trkpt lat="49.41746" lon="1.45422">
        <ele>168.32165527344</ele>
        <time>2017-07-02T08:38:03.000Z</time>
      </trkpt>
      <trkpt lat="49.41754" lon="1.45416">
        <ele>168.63252258301</ele>
        <time>2017-07-02T08:38:05.000Z</time>
      </trkpt>
      <trkpt lat="49.41762" lon="1.45409">
        <ele>168.92658996582</ele>
        <time>2017-07-02T08:38:08.000Z</time>
      </trkpt>
      <trkpt lat="49.4177" lon="1.45403">
        <ele>169.21536254883</ele>
        <time>2017-07-02T08:38:11.000Z</time>
      </trkpt>
      <trkpt lat="49.41775" lon="1.454">
        <ele>169.58567810059</ele>
        <time>2017-07-02T08:38:13.000Z</time>
      </trkpt>
      <trkpt lat="49.41782" lon="1.45394">
        <ele>169.99380493164</ele>
        <time>2017-07-02T08:38:16.000Z</time>
      </trkpt>
      <trkpt lat="49.4179" lon="1.45388">
        <ele>170.42202758789</ele>
        <time>2017-07-02T08:38:18.000Z</time>
      </trkpt>
      <trkpt lat="49.41795" lon="1.45384">
        <ele>170.81770324707</ele>
        <time>2017-07-02T08:38:20.000Z</time>
      </trkpt>
      <trkpt lat="49.41796" lon="1.45386">
        <ele>171.06088256836</ele>
        <time>2017-07-02T08:38:22.000Z</time>
      </trkpt>
      <trkpt lat="49.418" lon="1.45404">
        <ele>170.9831237793</ele>
        <time>2017-07-02T08:38:25.000Z</time>
      </trkpt>
      <trkpt lat="49.41801" lon="1.45417">
        <ele>170.62289428711</ele>
        <time>2017-07-02T08:38:27.000Z</time>
      </trkpt>
      <trkpt lat="49.41803" lon="1.4544">
        <ele>169.99038696289</ele>
        <time>2017-07-02T08:38:30.000Z</time>
      </trkpt>
      <trkpt lat="49.41806" lon="1.45455">
        <ele>169.16763305664</ele>
        <time>2017-07-02T08:38:32.000Z</time>
      </trkpt>
      <trkpt lat="49.41811" lon="1.45478">
        <ele>168.21774291992</ele>
        <time>2017-07-02T08:38:35.000Z</time>
      </trkpt>
      <trkpt lat="49.41817" lon="1.45511">
        <ele>167.34913635254</ele>
        <time>2017-07-02T08:38:38.000Z</time>
      </trkpt>
      <trkpt lat="49.41818" lon="1.45523">
        <ele>166.64083862305</ele>
        <time>2017-07-02T08:38:40.000Z</time>
      </trkpt>
      <trkpt lat="49.41831" lon="1.45558">
        <ele>166.0715637207</ele>
        <time>2017-07-02T08:38:44.000Z</time>
      </trkpt>
      <trkpt lat="49.41834" lon="1.45576">
        <ele>165.59854125977</ele>
        <time>2017-07-02T08:38:46.000Z</time>
      </trkpt>
      <trkpt lat="49.4184" lon="1.45597">
        <ele>165.20040893555</ele>
        <time>2017-07-02T08:38:49.000Z</time>
      </trkpt>
      <trkpt lat="49.41844" lon="1.45612">
        <ele>164.90393066406</ele>
        <time>2017-07-02T08:38:51.000Z</time>
      </trkpt>
      <trkpt lat="49.41848" lon="1.45634">
        <ele>164.51022338867</ele>
        <time>2017-07-02T08:38:54.000Z</time>
      </trkpt>
      <trkpt lat="49.41852" lon="1.4565">
        <ele>164.06735229492</ele>
        <time>2017-07-02T08:38:56.000Z</time>
      </trkpt>
      <trkpt lat="49.41857" lon="1.45672">
        <ele>163.5227355957</ele>
        <time>2017-07-02T08:38:59.000Z</time>
      </trkpt>
      <trkpt lat="49.41862" lon="1.4569">
        <ele>162.94998168945</ele>
        <time>2017-07-02T08:39:02.000Z</time>
      </trkpt>
      <trkpt lat="49.41869" lon="1.45706">
        <ele>162.3660736084</ele>
        <time>2017-07-02T08:39:04.000Z</time>
      </trkpt>
      <trkpt lat="49.41876" lon="1.45725">
        <ele>161.78182983398</ele>
        <time>2017-07-02T08:39:06.000Z</time>
      </trkpt>
      <trkpt lat="49.41887" lon="1.45753">
        <ele>161.09106445312</ele>
        <time>2017-07-02T08:39:09.000Z</time>
      </trkpt>
      <trkpt lat="49.41896" lon="1.45773">
        <ele>160.41397094727</ele>
        <time>2017-07-02T08:39:12.000Z</time>
      </trkpt>
      <trkpt lat="49.41904" lon="1.45785">
        <ele>159.7964630127</ele>
        <time>2017-07-02T08:39:14.000Z</time>
      </trkpt>
      <trkpt lat="49.41911" lon="1.45794">
        <ele>159.22966003418</ele>
        <time>2017-07-02T08:39:16.000Z</time>
      </trkpt>
      <trkpt lat="49.41918" lon="1.458">
        <ele>158.76559448242</ele>
        <time>2017-07-02T08:39:19.000Z</time>
      </trkpt>
      <trkpt lat="49.41927" lon="1.45804">
        <ele>158.52828979492</ele>
        <time>2017-07-02T08:39:22.000Z</time>
      </trkpt>
      <trkpt lat="49.41933" lon="1.45804">
        <ele>158.43489074707</ele>
        <time>2017-07-02T08:39:24.000Z</time>
      </trkpt>
      <trkpt lat="49.41941" lon="1.45804">
        <ele>158.44486999512</ele>
        <time>2017-07-02T08:39:27.000Z</time>
      </trkpt>
      <trkpt lat="49.41945" lon="1.45804">
        <ele>158.53355407715</ele>
        <time>2017-07-02T08:39:29.000Z</time>
      </trkpt>
      <trkpt lat="49.41949" lon="1.45803">
        <ele>158.68942260742</ele>
        <time>2017-07-02T08:39:31.000Z</time>
      </trkpt>
      <trkpt lat="49.41956" lon="1.458">
        <ele>158.88377380371</ele>
        <time>2017-07-02T08:39:34.000Z</time>
      </trkpt>
      <trkpt lat="49.41961" lon="1.45797">
        <ele>159.09677124023</ele>
        <time>2017-07-02T08:39:36.000Z</time>
      </trkpt>
      <trkpt lat="49.41967" lon="1.45793">
        <ele>159.341796875</ele>
        <time>2017-07-02T08:39:39.000Z</time>
      </trkpt>
      <trkpt lat="49.41974" lon="1.45791">
        <ele>159.62409973145</ele>
        <time>2017-07-02T08:39:42.000Z</time>
      </trkpt>
      <trkpt lat="49.4198" lon="1.4579">
        <ele>159.91543579102</ele>
        <time>2017-07-02T08:39:45.000Z</time>
      </trkpt>
      <trkpt lat="49.41986" lon="1.45789">
        <ele>160.18894958496</ele>
        <time>2017-07-02T08:39:47.000Z</time>
      </trkpt>
      <trkpt lat="49.41993" lon="1.45787">
        <ele>160.47412109375</ele>
        <time>2017-07-02T08:39:49.000Z</time>
      </trkpt>
      <trkpt lat="49.42001" lon="1.45786">
        <ele>160.74797058105</ele>
        <time>2017-07-02T08:39:52.000Z</time>
      </trkpt>
      <trkpt lat="49.42004" lon="1.45787">
        <ele>160.95843505859</ele>
        <time>2017-07-02T08:39:54.000Z</time>
      </trkpt>
      <trkpt lat="49.42009" lon="1.45789">
        <ele>161.13208007812</ele>
        <time>2017-07-02T08:39:56.000Z</time>
      </trkpt>
      <trkpt lat="49.42017" lon="1.4579">
        <ele>161.28527832031</ele>
        <time>2017-07-02T08:39:59.000Z</time>
      </trkpt>
      <trkpt lat="49.42024" lon="1.45792">
        <ele>161.39572143555</ele>
        <time>2017-07-02T08:40:02.000Z</time>
      </trkpt>
      <trkpt lat="49.42028" lon="1.45793">
        <ele>161.46047973633</ele>
        <time>2017-07-02T08:40:04.000Z</time>
      </trkpt>
      <trkpt lat="49.42036" lon="1.45798">
        <ele>161.52951049805</ele>
        <time>2017-07-02T08:40:07.000Z</time>
      </trkpt>
      <trkpt lat="49.42043" lon="1.458">
        <ele>161.60725402832</ele>
        <time>2017-07-02T08:40:09.000Z</time>
      </trkpt>
      <trkpt lat="49.42053" lon="1.45802">
        <ele>161.69747924805</ele>
        <time>2017-07-02T08:40:12.000Z</time>
      </trkpt>
      <trkpt lat="49.4206" lon="1.45806">
        <ele>161.78802490234</ele>
        <time>2017-07-02T08:40:14.000Z</time>
      </trkpt>
      <trkpt lat="49.42065" lon="1.45809">
        <ele>161.86990356445</ele>
        <time>2017-07-02T08:40:16.000Z</time>
      </trkpt>
      <trkpt lat="49.42069" lon="1.45812">
        <ele>161.95571899414</ele>
        <time>2017-07-02T08:40:18.000Z</time>
      </trkpt>
      <trkpt lat="49.42073" lon="1.45815">
        <ele>162.03576660156</ele>
        <time>2017-07-02T08:40:20.000Z</time>
      </trkpt>
      <trkpt lat="49.4208" lon="1.45817">
        <ele>162.10877990723</ele>
        <time>2017-07-02T08:40:23.000Z</time>
      </trkpt>
      <trkpt lat="49.42088" lon="1.45819">
        <ele>162.14598083496</ele>
        <time>2017-07-02T08:40:26.000Z</time>
      </trkpt>
      <trkpt lat="49.42096" lon="1.4582">
        <ele>162.13363647461</ele>
        <time>2017-07-02T08:40:28.000Z</time>
      </trkpt>
      <trkpt lat="49.42108" lon="1.4582">
        <ele>162.04814147949</ele>
        <time>2017-07-02T08:40:31.000Z</time>
      </trkpt>
      <trkpt lat="49.4212" lon="1.45823">
        <ele>161.87466430664</ele>
        <time>2017-07-02T08:40:34.000Z</time>
      </trkpt>
      <trkpt lat="49.42125" lon="1.45828">
        <ele>161.62898254395</ele>
        <time>2017-07-02T08:40:36.000Z</time>
      </trkpt>
      <trkpt lat="49.42132" lon="1.45841">
        <ele>161.33955383301</ele>
        <time>2017-07-02T08:40:39.000Z</time>
      </trkpt>
      <trkpt lat="49.42139" lon="1.45851">
        <ele>161.04669189453</ele>
        <time>2017-07-02T08:40:41.000Z</time>
      </trkpt>
      <trkpt lat="49.42149" lon="1.45863">
        <ele>160.77069091797</ele>
        <time>2017-07-02T08:40:44.000Z</time>
      </trkpt>
      <trkpt lat="49.42159" lon="1.45871">
        <ele>160.5396270752</ele>
        <time>2017-07-02T08:40:46.000Z</time>
      </trkpt>
      <trkpt lat="49.42166" lon="1.4588">
        <ele>160.32754516602</ele>
        <time>2017-07-02T08:40:48.000Z</time>
      </trkpt>
      <trkpt lat="49.42176" lon="1.45896">
        <ele>160.12658691406</ele>
        <time>2017-07-02T08:40:51.000Z</time>
      </trkpt>
      <trkpt lat="49.42187" lon="1.45909">
        <ele>159.92358398438</ele>
        <time>2017-07-02T08:40:54.000Z</time>
      </trkpt>
      <trkpt lat="49.42195" lon="1.45918">
        <ele>159.73281860352</ele>
        <time>2017-07-02T08:40:56.000Z</time>
      </trkpt>
      <trkpt lat="49.42205" lon="1.4593">
        <ele>159.51029968262</ele>
        <time>2017-07-02T08:40:58.000Z</time>
      </trkpt>
      <trkpt lat="49.42218" lon="1.45948">
        <ele>159.23429870605</ele>
        <time>2017-07-02T08:41:01.000Z</time>
      </trkpt>
      <trkpt lat="49.42233" lon="1.45963">
        <ele>158.94393920898</ele>
        <time>2017-07-02T08:41:04.000Z</time>
      </trkpt>
      <trkpt lat="49.42242" lon="1.4597">
        <ele>158.6692199707</ele>
        <time>2017-07-02T08:41:06.000Z</time>
      </trkpt>
      <trkpt lat="49.42254" lon="1.45976">
        <ele>158.34844970703</ele>
        <time>2017-07-02T08:41:09.000Z</time>
      </trkpt>
      <trkpt lat="49.42268" lon="1.45985">
        <ele>157.90333557129</ele>
        <time>2017-07-02T08:41:12.000Z</time>
      </trkpt>
      <trkpt lat="49.42283" lon="1.46001">
        <ele>157.30601501465</ele>
        <time>2017-07-02T08:41:15.000Z</time>
      </trkpt>
      <trkpt lat="49.42299" lon="1.46016">
        <ele>156.50422668457</ele>
        <time>2017-07-02T08:41:18.000Z</time>
      </trkpt>
      <trkpt lat="49.42323" lon="1.46042">
        <ele>155.40818786621</ele>
        <time>2017-07-02T08:41:21.000Z</time>
      </trkpt>
      <trkpt lat="49.42337" lon="1.46063">
        <ele>154.24740600586</ele>
        <time>2017-07-02T08:41:23.000Z</time>
      </trkpt>
      <trkpt lat="49.42355" lon="1.46082">
        <ele>153.18937683105</ele>
        <time>2017-07-02T08:41:26.000Z</time>
      </trkpt>
      <trkpt lat="49.42365" lon="1.46099">
        <ele>152.30543518066</ele>
        <time>2017-07-02T08:41:28.000Z</time>
      </trkpt>
      <trkpt lat="49.42377" lon="1.46116">
        <ele>151.68701171875</ele>
        <time>2017-07-02T08:41:30.000Z</time>
      </trkpt>
      <trkpt lat="49.42392" lon="1.46127">
        <ele>151.43608093262</ele>
        <time>2017-07-02T08:41:33.000Z</time>
      </trkpt>
      <trkpt lat="49.42393" lon="1.46141">
        <ele>151.3899230957</ele>
        <time>2017-07-02T08:41:36.000Z</time>
      </trkpt>
      <trkpt lat="49.42393" lon="1.46155">
        <ele>151.47819519043</ele>
        <time>2017-07-02T08:41:38.000Z</time>
      </trkpt>
      <trkpt lat="49.42393" lon="1.46167">
        <ele>151.67234802246</ele>
        <time>2017-07-02T08:41:40.000Z</time>
      </trkpt>
      <trkpt lat="49.42394" lon="1.46188">
        <ele>152.07875061035</ele>
        <time>2017-07-02T08:41:43.000Z</time>
      </trkpt>
      <trkpt lat="49.42411" lon="1.46202">
        <ele>152.81805419922</ele>
        <time>2017-07-02T08:41:46.000Z</time>
      </trkpt>
      <trkpt lat="49.42417" lon="1.46209">
        <ele>153.68505859375</ele>
        <time>2017-07-02T08:41:48.000Z</time>
      </trkpt>
      <trkpt lat="49.42427" lon="1.46216">
        <ele>154.56848144531</ele>
        <time>2017-07-02T08:41:51.000Z</time>
      </trkpt>
      <trkpt lat="49.42432" lon="1.46219">
        <ele>155.4213104248</ele>
        <time>2017-07-02T08:41:53.000Z</time>
      </trkpt>
      <trkpt lat="49.42437" lon="1.46228">
        <ele>156.15063476562</ele>
        <time>2017-07-02T08:41:56.000Z</time>
      </trkpt>
      <trkpt lat="49.42444" lon="1.46236">
        <ele>156.56582641602</ele>
        <time>2017-07-02T08:41:59.000Z</time>
      </trkpt>
      <trkpt lat="49.42448" lon="1.4624">
        <ele>156.82641601562</ele>
        <time>2017-07-02T08:42:01.000Z</time>
      </trkpt>
      <trkpt lat="49.42451" lon="1.46246">
        <ele>157.0725402832</ele>
        <time>2017-07-02T08:42:03.000Z</time>
      </trkpt>
      <trkpt lat="49.42455" lon="1.46256">
        <ele>157.41793823242</ele>
        <time>2017-07-02T08:42:06.000Z</time>
      </trkpt>
      <trkpt lat="49.42458" lon="1.46262">
        <ele>157.77235412598</ele>
        <time>2017-07-02T08:42:08.000Z</time>
      </trkpt>
      <trkpt lat="49.42461" lon="1.46269">
        <ele>158.16592407227</ele>
        <time>2017-07-02T08:42:10.000Z</time>
      </trkpt>
      <trkpt lat="49.42466" lon="1.46278">
        <ele>158.65492248535</ele>
        <time>2017-07-02T08:42:13.000Z</time>
      </trkpt>
      <trkpt lat="49.42471" lon="1.46288">
        <ele>159.25903320312</ele>
        <time>2017-07-02T08:42:16.000Z</time>
      </trkpt>
      <trkpt lat="49.42476" lon="1.46295">
        <ele>159.83390808105</ele>
        <time>2017-07-02T08:42:19.000Z</time>
      </trkpt>
      <trkpt lat="49.4248" lon="1.46303">
        <ele>160.43838500977</ele>
        <time>2017-07-02T08:42:22.000Z</time>
      </trkpt>
      <trkpt lat="49.42482" lon="1.46307">
        <ele>161.01042175293</ele>
        <time>2017-07-02T08:42:24.000Z</time>
      </trkpt>
      <trkpt lat="49.42487" lon="1.46311">
        <ele>161.5041809082</ele>
        <time>2017-07-02T08:42:27.000Z</time>
      </trkpt>
      <trkpt lat="49.4249" lon="1.46316">
        <ele>161.9069519043</ele>
        <time>2017-07-02T08:42:30.000Z</time>
      </trkpt>
      <trkpt lat="49.42494" lon="1.46321">
        <ele>162.28672790527</ele>
        <time>2017-07-02T08:42:33.000Z</time>
      </trkpt>
      <trkpt lat="49.42496" lon="1.46326">
        <ele>162.62716674805</ele>
        <time>2017-07-02T08:42:35.000Z</time>
      </trkpt>
      <trkpt lat="49.425" lon="1.4633">
        <ele>162.97506713867</ele>
        <time>2017-07-02T08:42:37.000Z</time>
      </trkpt>
      <trkpt lat="49.42504" lon="1.46336">
        <ele>163.28207397461</ele>
        <time>2017-07-02T08:42:40.000Z</time>
      </trkpt>
      <trkpt lat="49.42508" lon="1.46344">
        <ele>163.53605651855</ele>
        <time>2017-07-02T08:42:43.000Z</time>
      </trkpt>
      <trkpt lat="49.42512" lon="1.46349">
        <ele>163.70617675781</ele>
        <time>2017-07-02T08:42:46.000Z</time>
      </trkpt>
      <trkpt lat="49.42515" lon="1.46355">
        <ele>163.82119750977</ele>
        <time>2017-07-02T08:42:48.000Z</time>
      </trkpt>
      <trkpt lat="49.42517" lon="1.46363">
        <ele>163.90238952637</ele>
        <time>2017-07-02T08:42:51.000Z</time>
      </trkpt>
      <trkpt lat="49.42519" lon="1.46368">
        <ele>164.01844787598</ele>
        <time>2017-07-02T08:42:53.000Z</time>
      </trkpt>
      <trkpt lat="49.42521" lon="1.46371">
        <ele>164.12869262695</ele>
        <time>2017-07-02T08:42:55.000Z</time>
      </trkpt>
      <trkpt lat="49.42523" lon="1.46377">
        <ele>164.26324462891</ele>
        <time>2017-07-02T08:42:58.000Z</time>
      </trkpt>
      <trkpt lat="49.42526" lon="1.46384">
        <ele>164.38619995117</ele>
        <time>2017-07-02T08:43:01.000Z</time>
      </trkpt>
      <trkpt lat="49.42527" lon="1.46389">
        <ele>164.51564025879</ele>
        <time>2017-07-02T08:43:03.000Z</time>
      </trkpt>
      <trkpt lat="49.42529" lon="1.46393">
        <ele>164.62062072754</ele>
        <time>2017-07-02T08:43:05.000Z</time>
      </trkpt>
      <trkpt lat="49.4253" lon="1.464">
        <ele>164.7511138916</ele>
        <time>2017-07-02T08:43:08.000Z</time>
      </trkpt>
      <trkpt lat="49.42532" lon="1.46407">
        <ele>164.93000793457</ele>
        <time>2017-07-02T08:43:10.000Z</time>
      </trkpt>
      <trkpt lat="49.42534" lon="1.46415">
        <ele>165.13276672363</ele>
        <time>2017-07-02T08:43:13.000Z</time>
      </trkpt>
      <trkpt lat="49.42536" lon="1.46422">
        <ele>165.31929016113</ele>
        <time>2017-07-02T08:43:15.000Z</time>
      </trkpt>
      <trkpt lat="49.42538" lon="1.46432">
        <ele>165.54789733887</ele>
        <time>2017-07-02T08:43:18.000Z</time>
      </trkpt>
      <trkpt lat="49.4254" lon="1.46439">
        <ele>165.76193237305</ele>
        <time>2017-07-02T08:43:20.000Z</time>
      </trkpt>
      <trkpt lat="49.42544" lon="1.46448">
        <ele>165.88705444336</ele>
        <time>2017-07-02T08:43:23.000Z</time>
      </trkpt>
      <trkpt lat="49.42549" lon="1.4646">
        <ele>165.98950195312</ele>
        <time>2017-07-02T08:43:26.000Z</time>
      </trkpt>
      <trkpt lat="49.42551" lon="1.46472">
        <ele>166.1442565918</ele>
        <time>2017-07-02T08:43:29.000Z</time>
      </trkpt>
      <trkpt lat="49.42553" lon="1.46484">
        <ele>166.34359741211</ele>
        <time>2017-07-02T08:43:32.000Z</time>
      </trkpt>
      <trkpt lat="49.42553" lon="1.46496">
        <ele>166.66313171387</ele>
        <time>2017-07-02T08:43:35.000Z</time>
      </trkpt>
      <trkpt lat="49.42554" lon="1.4651">
        <ele>167.12373352051</ele>
        <time>2017-07-02T08:43:38.000Z</time>
      </trkpt>
      <trkpt lat="49.4256" lon="1.46525">
        <ele>167.60615539551</ele>
        <time>2017-07-02T08:43:41.000Z</time>
      </trkpt>
      <trkpt lat="49.42567" lon="1.46541">
        <ele>168.02191162109</ele>
        <time>2017-07-02T08:43:44.000Z</time>
      </trkpt>
      <trkpt lat="49.42575" lon="1.46554">
        <ele>168.34622192383</ele>
        <time>2017-07-02T08:43:47.000Z</time>
      </trkpt>
      <trkpt lat="49.42581" lon="1.46567">
        <ele>168.59719848633</ele>
        <time>2017-07-02T08:43:50.000Z</time>
      </trkpt>
      <trkpt lat="49.42583" lon="1.46573">
        <ele>168.79177856445</ele>
        <time>2017-07-02T08:43:52.000Z</time>
      </trkpt>
      <trkpt lat="49.42586" lon="1.4658">
        <ele>168.96723937988</ele>
        <time>2017-07-02T08:43:55.000Z</time>
      </trkpt>
      <trkpt lat="49.42588" lon="1.46587">
        <ele>169.1487121582</ele>
        <time>2017-07-02T08:43:57.000Z</time>
      </trkpt>
      <trkpt lat="49.4259" lon="1.46594">
        <ele>169.29760742188</ele>
        <time>2017-07-02T08:43:59.000Z</time>
      </trkpt>
      <trkpt lat="49.42593" lon="1.46608">
        <ele>169.3581237793</ele>
        <time>2017-07-02T08:44:02.000Z</time>
      </trkpt>
      <trkpt lat="49.42599" lon="1.46623">
        <ele>169.30662536621</ele>
        <time>2017-07-02T08:44:05.000Z</time>
      </trkpt>
      <trkpt lat="49.42604" lon="1.46634">
        <ele>169.1625213623</ele>
        <time>2017-07-02T08:44:08.000Z</time>
      </trkpt>
      <trkpt lat="49.42606" lon="1.46641">
        <ele>168.96710205078</ele>
        <time>2017-07-02T08:44:10.000Z</time>
      </trkpt>
      <trkpt lat="49.4261" lon="1.46652">
        <ele>168.76058959961</ele>
        <time>2017-07-02T08:44:13.000Z</time>
      </trkpt>
      <trkpt lat="49.42614" lon="1.46662">
        <ele>168.51290893555</ele>
        <time>2017-07-02T08:44:15.000Z</time>
      </trkpt>
      <trkpt lat="49.42618" lon="1.46671">
        <ele>168.24942016602</ele>
        <time>2017-07-02T08:44:17.000Z</time>
      </trkpt>
      <trkpt lat="49.42624" lon="1.46688">
        <ele>167.96008300781</ele>
        <time>2017-07-02T08:44:20.000Z</time>
      </trkpt>
      <trkpt lat="49.42627" lon="1.467">
        <ele>167.67370605469</ele>
        <time>2017-07-02T08:44:22.000Z</time>
      </trkpt>
      <trkpt lat="49.42633" lon="1.46723">
        <ele>167.32342529297</ele>
        <time>2017-07-02T08:44:25.000Z</time>
      </trkpt>
      <trkpt lat="49.42635" lon="1.46735">
        <ele>167.01153564453</ele>
        <time>2017-07-02T08:44:27.000Z</time>
      </trkpt>
      <trkpt lat="49.42634" lon="1.46749">
        <ele>166.87878417969</ele>
        <time>2017-07-02T08:44:30.000Z</time>
      </trkpt>
      <trkpt lat="49.4263" lon="1.46763">
        <ele>166.92658996582</ele>
        <time>2017-07-02T08:44:33.000Z</time>
      </trkpt>
      <trkpt lat="49.42627" lon="1.46774">
        <ele>167.06401062012</ele>
        <time>2017-07-02T08:44:35.000Z</time>
      </trkpt>
      <trkpt lat="49.42624" lon="1.4679">
        <ele>167.34494018555</ele>
        <time>2017-07-02T08:44:37.000Z</time>
      </trkpt>
      <trkpt lat="49.42615" lon="1.46806">
        <ele>167.86483764648</ele>
        <time>2017-07-02T08:44:40.000Z</time>
      </trkpt>
      <trkpt lat="49.42607" lon="1.46814">
        <ele>168.53462219238</ele>
        <time>2017-07-02T08:44:43.000Z</time>
      </trkpt>
      <trkpt lat="49.42603" lon="1.46822">
        <ele>169.20559692383</ele>
        <time>2017-07-02T08:44:45.000Z</time>
      </trkpt>
      <trkpt lat="49.42602" lon="1.46839">
        <ele>169.7963104248</ele>
        <time>2017-07-02T08:44:48.000Z</time>
      </trkpt>
      <trkpt lat="49.42598" lon="1.46846">
        <ele>170.39926147461</ele>
        <time>2017-07-02T08:44:50.000Z</time>
      </trkpt>
      <trkpt lat="49.42589" lon="1.46858">
        <ele>170.96740722656</ele>
        <time>2017-07-02T08:44:53.000Z</time>
      </trkpt>
      <trkpt lat="49.42584" lon="1.46876">
        <ele>171.25907897949</ele>
        <time>2017-07-02T08:44:56.000Z</time>
      </trkpt>
      <trkpt lat="49.42582" lon="1.46889">
        <ele>171.38104248047</ele>
        <time>2017-07-02T08:44:58.000Z</time>
      </trkpt>
      <trkpt lat="49.42577" lon="1.46909">
        <ele>171.40226745605</ele>
        <time>2017-07-02T08:45:01.000Z</time>
      </trkpt>
      <trkpt lat="49.42573" lon="1.46921">
        <ele>171.24993896484</ele>
        <time>2017-07-02T08:45:03.000Z</time>
      </trkpt>
      <trkpt lat="49.42566" lon="1.46936">
        <ele>170.7286529541</ele>
        <time>2017-07-02T08:45:06.000Z</time>
      </trkpt>
      <trkpt lat="49.42556" lon="1.46952">
        <ele>170.10684204102</ele>
        <time>2017-07-02T08:45:09.000Z</time>
      </trkpt>
      <trkpt lat="49.42549" lon="1.4696">
        <ele>169.56658935547</ele>
        <time>2017-07-02T08:45:11.000Z</time>
      </trkpt>
      <trkpt lat="49.4254" lon="1.46968">
        <ele>169.17666625977</ele>
        <time>2017-07-02T08:45:13.000Z</time>
      </trkpt>
      <trkpt lat="49.42527" lon="1.46984">
        <ele>168.92715454102</ele>
        <time>2017-07-02T08:45:16.000Z</time>
      </trkpt>
      <trkpt lat="49.42519" lon="1.46994">
        <ele>168.88717651367</ele>
        <time>2017-07-02T08:45:18.000Z</time>
      </trkpt>
      <trkpt lat="49.42507" lon="1.47009">
        <ele>168.93899536133</ele>
        <time>2017-07-02T08:45:21.000Z</time>
      </trkpt>
      <trkpt lat="49.42498" lon="1.47022">
        <ele>168.83415222168</ele>
        <time>2017-07-02T08:45:24.000Z</time>
      </trkpt>
      <trkpt lat="49.42488" lon="1.47038">
        <ele>168.39277648926</ele>
        <time>2017-07-02T08:45:27.000Z</time>
      </trkpt>
      <trkpt lat="49.42484" lon="1.47049">
        <ele>167.72994995117</ele>
        <time>2017-07-02T08:45:29.000Z</time>
      </trkpt>
      <trkpt lat="49.4248" lon="1.47058">
        <ele>166.90557861328</ele>
        <time>2017-07-02T08:45:31.000Z</time>
      </trkpt>
      <trkpt lat="49.42476" lon="1.47065">
        <ele>166.0390625</ele>
        <time>2017-07-02T08:45:33.000Z</time>
      </trkpt>
      <trkpt lat="49.42468" lon="1.47072">
        <ele>165.32363891602</ele>
        <time>2017-07-02T08:45:35.000Z</time>
      </trkpt>
      <trkpt lat="49.42456" lon="1.47077">
        <ele>165.05241394043</ele>
        <time>2017-07-02T08:45:38.000Z</time>
      </trkpt>
      <trkpt lat="49.42435" lon="1.47079">
        <ele>165.3726348877</ele>
        <time>2017-07-02T08:45:41.000Z</time>
      </trkpt>
      <trkpt lat="49.42424" lon="1.47086">
        <ele>165.96125793457</ele>
        <time>2017-07-02T08:45:43.000Z</time>
      </trkpt>
      <trkpt lat="49.42405" lon="1.471">
        <ele>166.46128845215</ele>
        <time>2017-07-02T08:45:46.000Z</time>
      </trkpt>
      <trkpt lat="49.4239" lon="1.47111">
        <ele>166.8238067627</ele>
        <time>2017-07-02T08:45:49.000Z</time>
      </trkpt>
      <trkpt lat="49.42379" lon="1.47123">
        <ele>166.91198730469</ele>
        <time>2017-07-02T08:45:52.000Z</time>
      </trkpt>
      <trkpt lat="49.42372" lon="1.47133">
        <ele>166.51412963867</ele>
        <time>2017-07-02T08:45:55.000Z</time>
      </trkpt>
      <trkpt lat="49.42364" lon="1.47143">
        <ele>165.92747497559</ele>
        <time>2017-07-02T08:45:58.000Z</time>
      </trkpt>
      <trkpt lat="49.42355" lon="1.47152">
        <ele>165.50534057617</ele>
        <time>2017-07-02T08:46:01.000Z</time>
      </trkpt>
      <trkpt lat="49.42348" lon="1.47157">
        <ele>165.2660369873</ele>
        <time>2017-07-02T08:46:03.000Z</time>
      </trkpt>
      <trkpt lat="49.42341" lon="1.47164">
        <ele>165.21424865723</ele>
        <time>2017-07-02T08:46:06.000Z</time>
      </trkpt>
      <trkpt lat="49.42331" lon="1.47171">
        <ele>165.25207519531</ele>
        <time>2017-07-02T08:46:09.000Z</time>
      </trkpt>
      <trkpt lat="49.42324" lon="1.47179">
        <ele>165.16752624512</ele>
        <time>2017-07-02T08:46:11.000Z</time>
      </trkpt>
      <trkpt lat="49.42317" lon="1.47187">
        <ele>164.91687011719</ele>
        <time>2017-07-02T08:46:13.000Z</time>
      </trkpt>
      <trkpt lat="49.42307" lon="1.47195">
        <ele>164.4905090332</ele>
        <time>2017-07-02T08:46:16.000Z</time>
      </trkpt>
      <trkpt lat="49.42299" lon="1.47201">
        <ele>163.91537475586</ele>
        <time>2017-07-02T08:46:19.000Z</time>
      </trkpt>
      <trkpt lat="49.42295" lon="1.47202">
        <ele>163.32203674316</ele>
        <time>2017-07-02T08:46:21.000Z</time>
      </trkpt>
      <trkpt lat="49.4229" lon="1.47205">
        <ele>162.85766601562</ele>
        <time>2017-07-02T08:46:23.000Z</time>
      </trkpt>
      <trkpt lat="49.42279" lon="1.47212">
        <ele>162.47944641113</ele>
        <time>2017-07-02T08:46:26.000Z</time>
      </trkpt>
      <trkpt lat="49.4227" lon="1.47214">
        <ele>162.22811889648</ele>
        <time>2017-07-02T08:46:29.000Z</time>
      </trkpt>
      <trkpt lat="49.42263" lon="1.47217">
        <ele>162.0647277832</ele>
        <time>2017-07-02T08:46:31.000Z</time>
      </trkpt>
      <trkpt lat="49.42253" lon="1.4722">
        <ele>161.91390991211</ele>
        <time>2017-07-02T08:46:34.000Z</time>
      </trkpt>
      <trkpt lat="49.42242" lon="1.47224">
        <ele>161.7946472168</ele>
        <time>2017-07-02T08:46:37.000Z</time>
      </trkpt>
      <trkpt lat="49.42236" lon="1.47225">
        <ele>161.75717163086</ele>
        <time>2017-07-02T08:46:39.000Z</time>
      </trkpt>
      <trkpt lat="49.42229" lon="1.47228">
        <ele>161.73031616211</ele>
        <time>2017-07-02T08:46:41.000Z</time>
      </trkpt>
      <trkpt lat="49.42223" lon="1.47232">
        <ele>161.69232177734</ele>
        <time>2017-07-02T08:46:43.000Z</time>
      </trkpt>
      <trkpt lat="49.42214" lon="1.47235">
        <ele>161.65875244141</ele>
        <time>2017-07-02T08:46:46.000Z</time>
      </trkpt>
      <trkpt lat="49.42205" lon="1.47237">
        <ele>161.66215515137</ele>
        <time>2017-07-02T08:46:49.000Z</time>
      </trkpt>
      <trkpt lat="49.42198" lon="1.47237">
        <ele>161.68862915039</ele>
        <time>2017-07-02T08:46:51.000Z</time>
      </trkpt>
      <trkpt lat="49.42185" lon="1.4724">
        <ele>161.74801635742</ele>
        <time>2017-07-02T08:46:54.000Z</time>
      </trkpt>
      <trkpt lat="49.42171" lon="1.47248">
        <ele>161.81858825684</ele>
        <time>2017-07-02T08:46:57.000Z</time>
      </trkpt>
      <trkpt lat="49.42159" lon="1.47253">
        <ele>161.87341308594</ele>
        <time>2017-07-02T08:47:00.000Z</time>
      </trkpt>
      <trkpt lat="49.42151" lon="1.47258">
        <ele>161.83932495117</ele>
        <time>2017-07-02T08:47:03.000Z</time>
      </trkpt>
      <trkpt lat="49.42144" lon="1.47265">
        <ele>161.69692993164</ele>
        <time>2017-07-02T08:47:05.000Z</time>
      </trkpt>
      <trkpt lat="49.42131" lon="1.47271">
        <ele>161.47366333008</ele>
        <time>2017-07-02T08:47:08.000Z</time>
      </trkpt>
      <trkpt lat="49.42123" lon="1.47277">
        <ele>161.19918823242</ele>
        <time>2017-07-02T08:47:10.000Z</time>
      </trkpt>
      <trkpt lat="49.42113" lon="1.47288">
        <ele>160.83071899414</ele>
        <time>2017-07-02T08:47:13.000Z</time>
      </trkpt>
      <trkpt lat="49.42106" lon="1.47297">
        <ele>160.45004272461</ele>
        <time>2017-07-02T08:47:15.000Z</time>
      </trkpt>
      <trkpt lat="49.42094" lon="1.47307">
        <ele>160.0757598877</ele>
        <time>2017-07-02T08:47:18.000Z</time>
      </trkpt>
      <trkpt lat="49.42087" lon="1.47314">
        <ele>159.70697021484</ele>
        <time>2017-07-02T08:47:20.000Z</time>
      </trkpt>
      <trkpt lat="49.42074" lon="1.47328">
        <ele>159.37187194824</ele>
        <time>2017-07-02T08:47:23.000Z</time>
      </trkpt>
      <trkpt lat="49.4206" lon="1.47337">
        <ele>159.25051879883</ele>
        <time>2017-07-02T08:47:26.000Z</time>
      </trkpt>
      <trkpt lat="49.42052" lon="1.47346">
        <ele>159.21423339844</ele>
        <time>2017-07-02T08:47:28.000Z</time>
      </trkpt>
      <trkpt lat="49.42045" lon="1.47356">
        <ele>159.21781921387</ele>
        <time>2017-07-02T08:47:30.000Z</time>
      </trkpt>
      <trkpt lat="49.42031" lon="1.47371">
        <ele>159.25631713867</ele>
        <time>2017-07-02T08:47:33.000Z</time>
      </trkpt>
      <trkpt lat="49.42012" lon="1.47381">
        <ele>159.43327331543</ele>
        <time>2017-07-02T08:47:36.000Z</time>
      </trkpt>
      <trkpt lat="49.41991" lon="1.47396">
        <ele>159.52917480469</ele>
        <time>2017-07-02T08:47:39.000Z</time>
      </trkpt>
      <trkpt lat="49.41972" lon="1.47411">
        <ele>159.68977355957</ele>
        <time>2017-07-02T08:47:42.000Z</time>
      </trkpt>
      <trkpt lat="49.41961" lon="1.47416">
        <ele>159.99496459961</ele>
        <time>2017-07-02T08:47:45.000Z</time>
      </trkpt>
      <trkpt lat="49.4195" lon="1.47416">
        <ele>160.46591186523</ele>
        <time>2017-07-02T08:47:48.000Z</time>
      </trkpt>
      <trkpt lat="49.41938" lon="1.47422">
        <ele>160.91868591309</ele>
        <time>2017-07-02T08:47:51.000Z</time>
      </trkpt>
      <trkpt lat="49.41932" lon="1.47425">
        <ele>161.3977355957</ele>
        <time>2017-07-02T08:47:53.000Z</time>
      </trkpt>
      <trkpt lat="49.41925" lon="1.47429">
        <ele>161.84585571289</ele>
        <time>2017-07-02T08:47:55.000Z</time>
      </trkpt>
      <trkpt lat="49.41919" lon="1.47435">
        <ele>162.19235229492</ele>
        <time>2017-07-02T08:47:57.000Z</time>
      </trkpt>
      <trkpt lat="49.41912" lon="1.47441">
        <ele>162.32130432129</ele>
        <time>2017-07-02T08:47:59.000Z</time>
      </trkpt>
      <trkpt lat="49.41901" lon="1.4745">
        <ele>162.26277160645</ele>
        <time>2017-07-02T08:48:02.000Z</time>
      </trkpt>
      <trkpt lat="49.41888" lon="1.47454">
        <ele>162.14147949219</ele>
        <time>2017-07-02T08:48:05.000Z</time>
      </trkpt>
      <trkpt lat="49.41875" lon="1.47454">
        <ele>162.02070617676</ele>
        <time>2017-07-02T08:48:08.000Z</time>
      </trkpt>
      <trkpt lat="49.41856" lon="1.47455">
        <ele>161.93838500977</ele>
        <time>2017-07-02T08:48:11.000Z</time>
      </trkpt>
      <trkpt lat="49.41843" lon="1.47456">
        <ele>161.95588684082</ele>
        <time>2017-07-02T08:48:13.000Z</time>
      </trkpt>
      <trkpt lat="49.41829" lon="1.47456">
        <ele>162.02462768555</ele>
        <time>2017-07-02T08:48:15.000Z</time>
      </trkpt>
      <trkpt lat="49.41813" lon="1.47455">
        <ele>161.83229064941</ele>
        <time>2017-07-02T08:48:17.000Z</time>
      </trkpt>
      <trkpt lat="49.4178" lon="1.47459">
        <ele>161.06198120117</ele>
        <time>2017-07-02T08:48:20.000Z</time>
      </trkpt>
      <trkpt lat="49.4175" lon="1.47472">
        <ele>159.89682006836</ele>
        <time>2017-07-02T08:48:23.000Z</time>
      </trkpt>
      <trkpt lat="49.41722" lon="1.47493">
        <ele>158.06262207031</ele>
        <time>2017-07-02T08:48:26.000Z</time>
      </trkpt>
      <trkpt lat="49.41711" lon="1.47496">
        <ele>155.95251464844</ele>
        <time>2017-07-02T08:48:28.000Z</time>
      </trkpt>
      <trkpt lat="49.41694" lon="1.47494">
        <ele>153.55514526367</ele>
        <time>2017-07-02T08:48:31.000Z</time>
      </trkpt>
      <trkpt lat="49.41688" lon="1.475">
        <ele>151.61360168457</ele>
        <time>2017-07-02T08:48:33.000Z</time>
      </trkpt>
      <trkpt lat="49.41682" lon="1.47508">
        <ele>149.87968444824</ele>
        <time>2017-07-02T08:48:36.000Z</time>
      </trkpt>
      <trkpt lat="49.41679" lon="1.47508">
        <ele>148.67129516602</ele>
        <time>2017-07-02T08:48:38.000Z</time>
      </trkpt>
      <trkpt lat="49.41676" lon="1.47512">
        <ele>147.71420288086</ele>
        <time>2017-07-02T08:48:40.000Z</time>
      </trkpt>
      <trkpt lat="49.41672" lon="1.47516">
        <ele>147.21588134766</ele>
        <time>2017-07-02T08:48:43.000Z</time>
      </trkpt>
      <trkpt lat="49.41669" lon="1.47518">
        <ele>146.74467468262</ele>
        <time>2017-07-02T08:48:45.000Z</time>
      </trkpt>
      <trkpt lat="49.41663" lon="1.47523">
        <ele>146.36204528809</ele>
        <time>2017-07-02T08:48:48.000Z</time>
      </trkpt>
      <trkpt lat="49.41656" lon="1.47529">
        <ele>146.10360717773</ele>
        <time>2017-07-02T08:48:51.000Z</time>
      </trkpt>
      <trkpt lat="49.41654" lon="1.47531">
        <ele>145.91767883301</ele>
        <time>2017-07-02T08:48:53.000Z</time>
      </trkpt>
      <trkpt lat="49.41649" lon="1.47533">
        <ele>145.84959411621</ele>
        <time>2017-07-02T08:48:56.000Z</time>
      </trkpt>
      <trkpt lat="49.41642" lon="1.47536">
        <ele>145.85231018066</ele>
        <time>2017-07-02T08:48:59.000Z</time>
      </trkpt>
      <trkpt lat="49.41636" lon="1.47538">
        <ele>145.91093444824</ele>
        <time>2017-07-02T08:49:02.000Z</time>
      </trkpt>
      <trkpt lat="49.41631" lon="1.47538">
        <ele>145.9367980957</ele>
        <time>2017-07-02T08:49:04.000Z</time>
      </trkpt>
      <trkpt lat="49.41621" lon="1.47541">
        <ele>145.99528503418</ele>
        <time>2017-07-02T08:49:07.000Z</time>
      </trkpt>
      <trkpt lat="49.4161" lon="1.47546">
        <ele>146.13249206543</ele>
        <time>2017-07-02T08:49:10.000Z</time>
      </trkpt>
      <trkpt lat="49.416" lon="1.47548">
        <ele>146.31585693359</ele>
        <time>2017-07-02T08:49:13.000Z</time>
      </trkpt>
      <trkpt lat="49.41595" lon="1.47553">
        <ele>146.61947631836</ele>
        <time>2017-07-02T08:49:15.000Z</time>
      </trkpt>
      <trkpt lat="49.41591" lon="1.47557">
        <ele>147.0594329834</ele>
        <time>2017-07-02T08:49:17.000Z</time>
      </trkpt>
      <trkpt lat="49.41584" lon="1.47566">
        <ele>147.73692321777</ele>
        <time>2017-07-02T08:49:20.000Z</time>
      </trkpt>
      <trkpt lat="49.41579" lon="1.47572">
        <ele>148.53829956055</ele>
        <time>2017-07-02T08:49:22.000Z</time>
      </trkpt>
      <trkpt lat="49.41575" lon="1.47578">
        <ele>149.48355102539</ele>
        <time>2017-07-02T08:49:24.000Z</time>
      </trkpt>
      <trkpt lat="49.41572" lon="1.47583">
        <ele>150.47171020508</ele>
        <time>2017-07-02T08:49:26.000Z</time>
      </trkpt>
      <trkpt lat="49.41565" lon="1.4759">
        <ele>151.53164672852</ele>
        <time>2017-07-02T08:49:29.000Z</time>
      </trkpt>
      <trkpt lat="49.4156" lon="1.47592">
        <ele>152.40713500977</ele>
        <time>2017-07-02T08:49:31.000Z</time>
      </trkpt>
      <trkpt lat="49.41553" lon="1.47597">
        <ele>153.21597290039</ele>
        <time>2017-07-02T08:49:34.000Z</time>
      </trkpt>
      <trkpt lat="49.41545" lon="1.47601">
        <ele>153.97866821289</ele>
        <time>2017-07-02T08:49:37.000Z</time>
      </trkpt>
      <trkpt lat="49.41535" lon="1.47602">
        <ele>154.69827270508</ele>
        <time>2017-07-02T08:49:40.000Z</time>
      </trkpt>
      <trkpt lat="49.41525" lon="1.47605">
        <ele>155.36526489258</ele>
        <time>2017-07-02T08:49:43.000Z</time>
      </trkpt>
      <trkpt lat="49.41519" lon="1.47608">
        <ele>156.05673217773</ele>
        <time>2017-07-02T08:49:45.000Z</time>
      </trkpt>
      <trkpt lat="49.4151" lon="1.47611">
        <ele>156.75886535645</ele>
        <time>2017-07-02T08:49:48.000Z</time>
      </trkpt>
      <trkpt lat="49.415" lon="1.47616">
        <ele>157.4983215332</ele>
        <time>2017-07-02T08:49:51.000Z</time>
      </trkpt>
      <trkpt lat="49.4149" lon="1.47623">
        <ele>158.08016967773</ele>
        <time>2017-07-02T08:49:54.000Z</time>
      </trkpt>
      <trkpt lat="49.41484" lon="1.47627">
        <ele>158.52182006836</ele>
        <time>2017-07-02T08:49:56.000Z</time>
      </trkpt>
      <trkpt lat="49.41475" lon="1.47637">
        <ele>158.9055480957</ele>
        <time>2017-07-02T08:49:59.000Z</time>
      </trkpt>
      <trkpt lat="49.41469" lon="1.47642">
        <ele>159.14610290527</ele>
        <time>2017-07-02T08:50:01.000Z</time>
      </trkpt>
      <trkpt lat="49.4146" lon="1.47652">
        <ele>159.2296295166</ele>
        <time>2017-07-02T08:50:04.000Z</time>
      </trkpt>
      <trkpt lat="49.41453" lon="1.47656">
        <ele>159.3310546875</ele>
        <time>2017-07-02T08:50:06.000Z</time>
      </trkpt>
      <trkpt lat="49.41447" lon="1.4766">
        <ele>159.43673706055</ele>
        <time>2017-07-02T08:50:08.000Z</time>
      </trkpt>
      <trkpt lat="49.41442" lon="1.47667">
        <ele>159.54861450195</ele>
        <time>2017-07-02T08:50:10.000Z</time>
      </trkpt>
      <trkpt lat="49.41434" lon="1.47677">
        <ele>159.55714416504</ele>
        <time>2017-07-02T08:50:13.000Z</time>
      </trkpt>
      <trkpt lat="49.41428" lon="1.47683">
        <ele>159.47526550293</ele>
        <time>2017-07-02T08:50:16.000Z</time>
      </trkpt>
      <trkpt lat="49.41423" lon="1.47689">
        <ele>159.38916015625</ele>
        <time>2017-07-02T08:50:18.000Z</time>
      </trkpt>
      <trkpt lat="49.41413" lon="1.47697">
        <ele>159.2287902832</ele>
        <time>2017-07-02T08:50:21.000Z</time>
      </trkpt>
      <trkpt lat="49.41401" lon="1.47707">
        <ele>158.88317871094</ele>
        <time>2017-07-02T08:50:24.000Z</time>
      </trkpt>
      <trkpt lat="49.41394" lon="1.47714">
        <ele>158.59222412109</ele>
        <time>2017-07-02T08:50:26.000Z</time>
      </trkpt>
      <trkpt lat="49.41384" lon="1.47726">
        <ele>158.36819458008</ele>
        <time>2017-07-02T08:50:29.000Z</time>
      </trkpt>
      <trkpt lat="49.41376" lon="1.47732">
        <ele>158.16207885742</ele>
        <time>2017-07-02T08:50:31.000Z</time>
      </trkpt>
      <trkpt lat="49.41366" lon="1.47739">
        <ele>158.04463195801</ele>
        <time>2017-07-02T08:50:34.000Z</time>
      </trkpt>
      <trkpt lat="49.41359" lon="1.47742">
        <ele>158.0495300293</ele>
        <time>2017-07-02T08:50:36.000Z</time>
      </trkpt>
      <trkpt lat="49.41347" lon="1.47746">
        <ele>158.06295776367</ele>
        <time>2017-07-02T08:50:39.000Z</time>
      </trkpt>
      <trkpt lat="49.41339" lon="1.4775">
        <ele>158.09628295898</ele>
        <time>2017-07-02T08:50:41.000Z</time>
      </trkpt>
      <trkpt lat="49.41329" lon="1.47758">
        <ele>157.88386535645</ele>
        <time>2017-07-02T08:50:43.000Z</time>
      </trkpt>
      <trkpt lat="49.41316" lon="1.47771">
        <ele>157.14147949219</ele>
        <time>2017-07-02T08:50:46.000Z</time>
      </trkpt>
      <trkpt lat="49.41306" lon="1.47784">
        <ele>156.10008239746</ele>
        <time>2017-07-02T08:50:49.000Z</time>
      </trkpt>
      <trkpt lat="49.413" lon="1.47791">
        <ele>154.95062255859</ele>
        <time>2017-07-02T08:50:51.000Z</time>
      </trkpt>
      <trkpt lat="49.41295" lon="1.47797">
        <ele>153.67105102539</ele>
        <time>2017-07-02T08:50:53.000Z</time>
      </trkpt>
      <trkpt lat="49.41286" lon="1.47808">
        <ele>152.52522277832</ele>
        <time>2017-07-02T08:50:56.000Z</time>
      </trkpt>
      <trkpt lat="49.41277" lon="1.47819">
        <ele>151.83238220215</ele>
        <time>2017-07-02T08:50:59.000Z</time>
      </trkpt>
      <trkpt lat="49.41269" lon="1.47825">
        <ele>151.39828491211</ele>
        <time>2017-07-02T08:51:01.000Z</time>
      </trkpt>
      <trkpt lat="49.41258" lon="1.47834">
        <ele>151.07225036621</ele>
        <time>2017-07-02T08:51:04.000Z</time>
      </trkpt>
      <trkpt lat="49.41252" lon="1.47839">
        <ele>150.71099853516</ele>
        <time>2017-07-02T08:51:06.000Z</time>
      </trkpt>
      <trkpt lat="49.41247" lon="1.47844">
        <ele>150.39135742188</ele>
        <time>2017-07-02T08:51:08.000Z</time>
      </trkpt>
      <trkpt lat="49.41245" lon="1.47844">
        <ele>150.11584472656</ele>
        <time>2017-07-02T08:51:11.000Z</time>
      </trkpt>
      <trkpt lat="49.41244" lon="1.47844">
        <ele>149.87539672852</ele>
        <time>2017-07-02T08:51:17.000Z</time>
      </trkpt>
      <trkpt lat="49.41238" lon="1.47846">
        <ele>149.61155700684</ele>
        <time>2017-07-02T08:51:20.000Z</time>
      </trkpt>
      <trkpt lat="49.41226" lon="1.47846">
        <ele>149.4045715332</ele>
        <time>2017-07-02T08:51:23.000Z</time>
      </trkpt>
      <trkpt lat="49.41212" lon="1.47845">
        <ele>149.17346191406</ele>
        <time>2017-07-02T08:51:26.000Z</time>
      </trkpt>
      <trkpt lat="49.41202" lon="1.47846">
        <ele>148.89413452148</ele>
        <time>2017-07-02T08:51:28.000Z</time>
      </trkpt>
      <trkpt lat="49.41182" lon="1.47847">
        <ele>148.50761413574</ele>
        <time>2017-07-02T08:51:31.000Z</time>
      </trkpt>
      <trkpt lat="49.41157" lon="1.47847">
        <ele>148.00643920898</ele>
        <time>2017-07-02T08:51:34.000Z</time>
      </trkpt>
      <trkpt lat="49.41144" lon="1.47846">
        <ele>147.45239257812</ele>
        <time>2017-07-02T08:51:36.000Z</time>
      </trkpt>
      <trkpt lat="49.41133" lon="1.47845">
        <ele>146.87554931641</ele>
        <time>2017-07-02T08:51:38.000Z</time>
      </trkpt>
      <trkpt lat="49.41121" lon="1.47848">
        <ele>146.31904602051</ele>
        <time>2017-07-02T08:51:41.000Z</time>
      </trkpt>
      <trkpt lat="49.41113" lon="1.47852">
        <ele>145.90509033203</ele>
        <time>2017-07-02T08:51:44.000Z</time>
      </trkpt>
      <trkpt lat="49.41109" lon="1.47855">
        <ele>145.70202636719</ele>
        <time>2017-07-02T08:51:46.000Z</time>
      </trkpt>
      <trkpt lat="49.41104" lon="1.4786">
        <ele>145.70639038086</ele>
        <time>2017-07-02T08:51:49.000Z</time>
      </trkpt>
      <trkpt lat="49.411" lon="1.47865">
        <ele>145.92509460449</ele>
        <time>2017-07-02T08:51:52.000Z</time>
      </trkpt>
      <trkpt lat="49.41096" lon="1.47872">
        <ele>146.32711791992</ele>
        <time>2017-07-02T08:51:55.000Z</time>
      </trkpt>
      <trkpt lat="49.41091" lon="1.47878">
        <ele>146.83642578125</ele>
        <time>2017-07-02T08:51:58.000Z</time>
      </trkpt>
      <trkpt lat="49.41086" lon="1.47885">
        <ele>147.44956970215</ele>
        <time>2017-07-02T08:52:01.000Z</time>
      </trkpt>
      <trkpt lat="49.41081" lon="1.4789">
        <ele>148.05899047852</ele>
        <time>2017-07-02T08:52:04.000Z</time>
      </trkpt>
      <trkpt lat="49.41076" lon="1.47894">
        <ele>148.60874938965</ele>
        <time>2017-07-02T08:52:07.000Z</time>
      </trkpt>
      <trkpt lat="49.41071" lon="1.47897">
        <ele>149.04113769531</ele>
        <time>2017-07-02T08:52:10.000Z</time>
      </trkpt>
      <trkpt lat="49.41066" lon="1.479">
        <ele>149.36311340332</ele>
        <time>2017-07-02T08:52:12.000Z</time>
      </trkpt>
      <trkpt lat="49.41063" lon="1.47903">
        <ele>149.5756072998</ele>
        <time>2017-07-02T08:52:14.000Z</time>
      </trkpt>
      <trkpt lat="49.4106" lon="1.47906">
        <ele>149.74649047852</ele>
        <time>2017-07-02T08:52:16.000Z</time>
      </trkpt>
      <trkpt lat="49.41051" lon="1.47911">
        <ele>149.91284179688</ele>
        <time>2017-07-02T08:52:19.000Z</time>
      </trkpt>
      <trkpt lat="49.41042" lon="1.47915">
        <ele>150.0643157959</ele>
        <time>2017-07-02T08:52:22.000Z</time>
      </trkpt>
      <trkpt lat="49.4103" lon="1.47914">
        <ele>149.99478149414</ele>
        <time>2017-07-02T08:52:25.000Z</time>
      </trkpt>
      <trkpt lat="49.41017" lon="1.47913">
        <ele>149.68495178223</ele>
        <time>2017-07-02T08:52:28.000Z</time>
      </trkpt>
      <trkpt lat="49.41005" lon="1.47914">
        <ele>149.2520904541</ele>
        <time>2017-07-02T08:52:30.000Z</time>
      </trkpt>
      <trkpt lat="49.40986" lon="1.47918">
        <ele>148.48745727539</ele>
        <time>2017-07-02T08:52:33.000Z</time>
      </trkpt>
      <trkpt lat="49.40973" lon="1.47921">
        <ele>147.45024108887</ele>
        <time>2017-07-02T08:52:35.000Z</time>
      </trkpt>
      <trkpt lat="49.40951" lon="1.4793">
        <ele>146.28506469727</ele>
        <time>2017-07-02T08:52:38.000Z</time>
      </trkpt>
      <trkpt lat="49.4094" lon="1.47941">
        <ele>145.26678466797</ele>
        <time>2017-07-02T08:52:40.000Z</time>
      </trkpt>
      <trkpt lat="49.40923" lon="1.47963">
        <ele>144.41360473633</ele>
        <time>2017-07-02T08:52:43.000Z</time>
      </trkpt>
      <trkpt lat="49.4091" lon="1.47979">
        <ele>143.76358032227</ele>
        <time>2017-07-02T08:52:45.000Z</time>
      </trkpt>
      <trkpt lat="49.40894" lon="1.47999">
        <ele>143.13021850586</ele>
        <time>2017-07-02T08:52:47.000Z</time>
      </trkpt>
      <trkpt lat="49.40858" lon="1.48067">
        <ele>141.50430297852</ele>
        <time>2017-07-02T08:52:51.000Z</time>
      </trkpt>
      <trkpt lat="49.4084" lon="1.48097">
        <ele>139.34156799316</ele>
        <time>2017-07-02T08:52:53.000Z</time>
      </trkpt>
      <trkpt lat="49.40823" lon="1.48127">
        <ele>136.74235534668</ele>
        <time>2017-07-02T08:52:55.000Z</time>
      </trkpt>
      <trkpt lat="49.40799" lon="1.48165">
        <ele>133.47128295898</ele>
        <time>2017-07-02T08:52:58.000Z</time>
      </trkpt>
      <trkpt lat="49.40784" lon="1.48189">
        <ele>130.05633544922</ele>
        <time>2017-07-02T08:53:00.000Z</time>
      </trkpt>
      <trkpt lat="49.40765" lon="1.48216">
        <ele>127.41513824463</ele>
        <time>2017-07-02T08:53:03.000Z</time>
      </trkpt>
      <trkpt lat="49.40747" lon="1.48226">
        <ele>124.6209564209</ele>
        <time>2017-07-02T08:53:05.000Z</time>
      </trkpt>
      <trkpt lat="49.40727" lon="1.48243">
        <ele>121.57926940918</ele>
        <time>2017-07-02T08:53:08.000Z</time>
      </trkpt>
      <trkpt lat="49.40714" lon="1.48256">
        <ele>118.97202301025</ele>
        <time>2017-07-02T08:53:11.000Z</time>
      </trkpt>
      <trkpt lat="49.407" lon="1.48261">
        <ele>116.25971984863</ele>
        <time>2017-07-02T08:53:14.000Z</time>
      </trkpt>
      <trkpt lat="49.40687" lon="1.48268">
        <ele>113.6935043335</ele>
        <time>2017-07-02T08:53:16.000Z</time>
      </trkpt>
      <trkpt lat="49.40667" lon="1.48279">
        <ele>111.31121826172</ele>
        <time>2017-07-02T08:53:19.000Z</time>
      </trkpt>
      <trkpt lat="49.40648" lon="1.48286">
        <ele>109.31071472168</ele>
        <time>2017-07-02T08:53:22.000Z</time>
      </trkpt>
      <trkpt lat="49.40626" lon="1.4829">
        <ele>107.29300689697</ele>
        <time>2017-07-02T08:53:25.000Z</time>
      </trkpt>
      <trkpt lat="49.40602" lon="1.48297">
        <ele>105.38069152832</ele>
        <time>2017-07-02T08:53:28.000Z</time>
      </trkpt>
      <trkpt lat="49.40586" lon="1.48302">
        <ele>103.58924865723</ele>
        <time>2017-07-02T08:53:30.000Z</time>
      </trkpt>
      <trkpt lat="49.40563" lon="1.48307">
        <ele>102.03674316406</ele>
        <time>2017-07-02T08:53:33.000Z</time>
      </trkpt>
      <trkpt lat="49.40549" lon="1.48313">
        <ele>100.51808166504</ele>
        <time>2017-07-02T08:53:35.000Z</time>
      </trkpt>
      <trkpt lat="49.40527" lon="1.48317">
        <ele>98.972595214844</ele>
        <time>2017-07-02T08:53:38.000Z</time>
      </trkpt>
      <trkpt lat="49.40508" lon="1.4832">
        <ele>97.453330993652</ele>
        <time>2017-07-02T08:53:41.000Z</time>
      </trkpt>
      <trkpt lat="49.40494" lon="1.48336">
        <ele>95.972625732422</ele>
        <time>2017-07-02T08:53:44.000Z</time>
      </trkpt>
      <trkpt lat="49.40498" lon="1.48359">
        <ele>94.807144165039</ele>
        <time>2017-07-02T08:53:47.000Z</time>
      </trkpt>
      <trkpt lat="49.40501" lon="1.4837">
        <ele>93.86051940918</ele>
        <time>2017-07-02T08:53:49.000Z</time>
      </trkpt>
      <trkpt lat="49.40506" lon="1.48378">
        <ele>93.396072387695</ele>
        <time>2017-07-02T08:53:52.000Z</time>
      </trkpt>
      <trkpt lat="49.40507" lon="1.48382">
        <ele>93.304100036621</ele>
        <time>2017-07-02T08:53:55.000Z</time>
      </trkpt>
      <trkpt lat="49.40505" lon="1.48378">
        <ele>93.411331176758</ele>
        <time>2017-07-02T08:53:58.000Z</time>
      </trkpt>
      <trkpt lat="49.40502" lon="1.48381">
        <ele>93.4482421875</ele>
        <time>2017-07-02T08:54:00.000Z</time>
      </trkpt>
      <trkpt lat="49.40503" lon="1.4838">
        <ele>93.474609375</ele>
        <time>2017-07-02T08:54:03.000Z</time>
      </trkpt>
      <trkpt lat="49.40505" lon="1.48379">
        <ele>93.4482421875</ele>
        <time>2017-07-02T08:54:06.000Z</time>
      </trkpt>
      <trkpt lat="49.40506" lon="1.48378">
        <ele>93.439453125</ele>
        <time>2017-07-02T08:54:09.000Z</time>
      </trkpt>
      <trkpt lat="49.40506" lon="1.48382">
        <ele>93.45703125</ele>
        <time>2017-07-02T08:54:25.000Z</time>
      </trkpt>
      <trkpt lat="49.40507" lon="1.48384">
        <ele>93.5712890625</ele>
        <time>2017-07-02T08:54:27.000Z</time>
      </trkpt>
      <trkpt lat="49.40513" lon="1.48394">
        <ele>93.791015625</ele>
        <time>2017-07-02T08:54:30.000Z</time>
      </trkpt>
      <trkpt lat="49.4052" lon="1.4841">
        <ele>94.125</ele>
        <time>2017-07-02T08:54:33.000Z</time>
      </trkpt>
      <trkpt lat="49.40529" lon="1.48429">
        <ele>94.509788513184</ele>
        <time>2017-07-02T08:54:36.000Z</time>
      </trkpt>
      <trkpt lat="49.40538" lon="1.48446">
        <ele>94.905288696289</ele>
        <time>2017-07-02T08:54:39.000Z</time>
      </trkpt>
      <trkpt lat="49.40546" lon="1.48465">
        <ele>95.206596374512</ele>
        <time>2017-07-02T08:54:42.000Z</time>
      </trkpt>
      <trkpt lat="49.40557" lon="1.48487">
        <ele>95.249145507812</ele>
        <time>2017-07-02T08:54:45.000Z</time>
      </trkpt>
      <trkpt lat="49.40567" lon="1.48504">
        <ele>95.012985229492</ele>
        <time>2017-07-02T08:54:48.000Z</time>
      </trkpt>
      <trkpt lat="49.40574" lon="1.48516">
        <ele>94.650833129883</ele>
        <time>2017-07-02T08:54:50.000Z</time>
      </trkpt>
      <trkpt lat="49.40581" lon="1.48528">
        <ele>94.240737915039</ele>
        <time>2017-07-02T08:54:52.000Z</time>
      </trkpt>
      <trkpt lat="49.40591" lon="1.48546">
        <ele>93.917709350586</ele>
        <time>2017-07-02T08:54:55.000Z</time>
      </trkpt>
      <trkpt lat="49.40597" lon="1.48558">
        <ele>93.701583862305</ele>
        <time>2017-07-02T08:54:57.000Z</time>
      </trkpt>
      <trkpt lat="49.40598" lon="1.48575">
        <ele>93.416603088379</ele>
        <time>2017-07-02T08:54:59.000Z</time>
      </trkpt>
      <trkpt lat="49.4059" lon="1.48607">
        <ele>92.845512390137</ele>
        <time>2017-07-02T08:55:02.000Z</time>
      </trkpt>
      <trkpt lat="49.40578" lon="1.48641">
        <ele>92.024131774902</ele>
        <time>2017-07-02T08:55:05.000Z</time>
      </trkpt>
      <trkpt lat="49.40574" lon="1.48664">
        <ele>91.05729675293</ele>
        <time>2017-07-02T08:55:07.000Z</time>
      </trkpt>
      <trkpt lat="49.40568" lon="1.48685">
        <ele>90.081260681152</ele>
        <time>2017-07-02T08:55:09.000Z</time>
      </trkpt>
      <trkpt lat="49.4056" lon="1.48715">
        <ele>89.250640869141</ele>
        <time>2017-07-02T08:55:12.000Z</time>
      </trkpt>
      <trkpt lat="49.40551" lon="1.48743">
        <ele>88.711982727051</ele>
        <time>2017-07-02T08:55:15.000Z</time>
      </trkpt>
      <trkpt lat="49.4054" lon="1.4877">
        <ele>88.467575073242</ele>
        <time>2017-07-02T08:55:18.000Z</time>
      </trkpt>
      <trkpt lat="49.40532" lon="1.48796">
        <ele>88.393524169922</ele>
        <time>2017-07-02T08:55:21.000Z</time>
      </trkpt>
      <trkpt lat="49.40527" lon="1.48812">
        <ele>88.398254394531</ele>
        <time>2017-07-02T08:55:23.000Z</time>
      </trkpt>
      <trkpt lat="49.40523" lon="1.48832">
        <ele>88.502883911133</ele>
        <time>2017-07-02T08:55:26.000Z</time>
      </trkpt>
      <trkpt lat="49.40517" lon="1.48848">
        <ele>88.814888000488</ele>
        <time>2017-07-02T08:55:29.000Z</time>
      </trkpt>
      <trkpt lat="49.40514" lon="1.48856">
        <ele>89.226264953613</ele>
        <time>2017-07-02T08:55:31.000Z</time>
      </trkpt>
      <trkpt lat="49.40511" lon="1.48865">
        <ele>89.691452026367</ele>
        <time>2017-07-02T08:55:33.000Z</time>
      </trkpt>
      <trkpt lat="49.40509" lon="1.48873">
        <ele>90.212966918945</ele>
        <time>2017-07-02T08:55:36.000Z</time>
      </trkpt>
      <trkpt lat="49.40505" lon="1.4888">
        <ele>90.759941101074</ele>
        <time>2017-07-02T08:55:39.000Z</time>
      </trkpt>
      <trkpt lat="49.40501" lon="1.48886">
        <ele>91.229293823242</ele>
        <time>2017-07-02T08:55:42.000Z</time>
      </trkpt>
      <trkpt lat="49.40498" lon="1.48892">
        <ele>91.697708129883</ele>
        <time>2017-07-02T08:55:45.000Z</time>
      </trkpt>
      <trkpt lat="49.40497" lon="1.48896">
        <ele>92.128562927246</ele>
        <time>2017-07-02T08:55:47.000Z</time>
      </trkpt>
      <trkpt lat="49.40497" lon="1.48901">
        <ele>92.512741088867</ele>
        <time>2017-07-02T08:55:49.000Z</time>
      </trkpt>
      <trkpt lat="49.40498" lon="1.48905">
        <ele>92.856101989746</ele>
        <time>2017-07-02T08:55:51.000Z</time>
      </trkpt>
      <trkpt lat="49.40498" lon="1.48911">
        <ele>93.171661376953</ele>
        <time>2017-07-02T08:55:54.000Z</time>
      </trkpt>
      <trkpt lat="49.40499" lon="1.48914">
        <ele>93.418754577637</ele>
        <time>2017-07-02T08:55:56.000Z</time>
      </trkpt>
      <trkpt lat="49.405" lon="1.48921">
        <ele>93.715774536133</ele>
        <time>2017-07-02T08:55:59.000Z</time>
      </trkpt>
      <trkpt lat="49.405" lon="1.48925">
        <ele>94.043594360352</ele>
        <time>2017-07-02T08:56:01.000Z</time>
      </trkpt>
      <trkpt lat="49.40501" lon="1.48929">
        <ele>94.396705627441</ele>
        <time>2017-07-02T08:56:03.000Z</time>
      </trkpt>
      <trkpt lat="49.40503" lon="1.48935">
        <ele>94.79988861084</ele>
        <time>2017-07-02T08:56:06.000Z</time>
      </trkpt>
      <trkpt lat="49.40502" lon="1.48939">
        <ele>95.239158630371</ele>
        <time>2017-07-02T08:56:08.000Z</time>
      </trkpt>
      <trkpt lat="49.40501" lon="1.48942">
        <ele>95.643264770508</ele>
        <time>2017-07-02T08:56:10.000Z</time>
      </trkpt>
      <trkpt lat="49.40499" lon="1.48945">
        <ele>96.030807495117</ele>
        <time>2017-07-02T08:56:17.000Z</time>
      </trkpt>
      <trkpt lat="49.40496" lon="1.48952">
        <ele>96.472023010254</ele>
        <time>2017-07-02T08:56:20.000Z</time>
      </trkpt>
      <trkpt lat="49.40494" lon="1.4896">
        <ele>96.955261230469</ele>
        <time>2017-07-02T08:56:23.000Z</time>
      </trkpt>
      <trkpt lat="49.40492" lon="1.48968">
        <ele>97.504867553711</ele>
        <time>2017-07-02T08:56:26.000Z</time>
      </trkpt>
      <trkpt lat="49.40491" lon="1.48972">
        <ele>98.055465698242</ele>
        <time>2017-07-02T08:56:28.000Z</time>
      </trkpt>
      <trkpt lat="49.40491" lon="1.48978">
        <ele>98.639205932617</ele>
        <time>2017-07-02T08:56:31.000Z</time>
      </trkpt>
      <trkpt lat="49.4049" lon="1.48985">
        <ele>99.21460723877</ele>
        <time>2017-07-02T08:56:34.000Z</time>
      </trkpt>
      <trkpt lat="49.40489" lon="1.48991">
        <ele>99.728645324707</ele>
        <time>2017-07-02T08:56:36.000Z</time>
      </trkpt>
      <trkpt lat="49.40488" lon="1.48996">
        <ele>100.19563293457</ele>
        <time>2017-07-02T08:56:38.000Z</time>
      </trkpt>
      <trkpt lat="49.40489" lon="1.49001">
        <ele>100.67754364014</ele>
        <time>2017-07-02T08:56:40.000Z</time>
      </trkpt>
      <trkpt lat="49.4049" lon="1.49011">
        <ele>101.25205230713</ele>
        <time>2017-07-02T08:56:43.000Z</time>
      </trkpt>
      <trkpt lat="49.40488" lon="1.49024">
        <ele>101.94090270996</ele>
        <time>2017-07-02T08:56:46.000Z</time>
      </trkpt>
      <trkpt lat="49.40486" lon="1.49032">
        <ele>102.65972900391</ele>
        <time>2017-07-02T08:56:48.000Z</time>
      </trkpt>
      <trkpt lat="49.40486" lon="1.49043">
        <ele>103.50113677979</ele>
        <time>2017-07-02T08:56:51.000Z</time>
      </trkpt>
      <trkpt lat="49.40485" lon="1.49058">
        <ele>104.51289367676</ele>
        <time>2017-07-02T08:56:54.000Z</time>
      </trkpt>
      <trkpt lat="49.40484" lon="1.49077">
        <ele>105.662109375</ele>
        <time>2017-07-02T08:56:57.000Z</time>
      </trkpt>
      <trkpt lat="49.40483" lon="1.49093">
        <ele>106.86828613281</ele>
        <time>2017-07-02T08:57:00.000Z</time>
      </trkpt>
      <trkpt lat="49.40482" lon="1.49101">
        <ele>108.09098815918</ele>
        <time>2017-07-02T08:57:02.000Z</time>
      </trkpt>
      <trkpt lat="49.40481" lon="1.49112">
        <ele>109.28973388672</ele>
        <time>2017-07-02T08:57:05.000Z</time>
      </trkpt>
      <trkpt lat="49.40477" lon="1.49126">
        <ele>110.39772033691</ele>
        <time>2017-07-02T08:57:08.000Z</time>
      </trkpt>
      <trkpt lat="49.40475" lon="1.49135">
        <ele>111.24931335449</ele>
        <time>2017-07-02T08:57:10.000Z</time>
      </trkpt>
      <trkpt lat="49.40471" lon="1.49148">
        <ele>111.88073730469</ele>
        <time>2017-07-02T08:57:13.000Z</time>
      </trkpt>
      <trkpt lat="49.40468" lon="1.49156">
        <ele>112.435546875</ele>
        <time>2017-07-02T08:57:15.000Z</time>
      </trkpt>
      <trkpt lat="49.40465" lon="1.49165">
        <ele>112.82055664062</ele>
        <time>2017-07-02T08:57:18.000Z</time>
      </trkpt>
      <trkpt lat="49.4046" lon="1.49175">
        <ele>113.10831451416</ele>
        <time>2017-07-02T08:57:21.000Z</time>
      </trkpt>
      <trkpt lat="49.40457" lon="1.4918">
        <ele>113.36710357666</ele>
        <time>2017-07-02T08:57:23.000Z</time>
      </trkpt>
      <trkpt lat="49.40452" lon="1.49189">
        <ele>113.57366943359</ele>
        <time>2017-07-02T08:57:26.000Z</time>
      </trkpt>
      <trkpt lat="49.40447" lon="1.49199">
        <ele>113.77998352051</ele>
        <time>2017-07-02T08:57:29.000Z</time>
      </trkpt>
      <trkpt lat="49.40444" lon="1.49204">
        <ele>114.01628112793</ele>
        <time>2017-07-02T08:57:31.000Z</time>
      </trkpt>
      <trkpt lat="49.40438" lon="1.49213">
        <ele>114.18695068359</ele>
        <time>2017-07-02T08:57:34.000Z</time>
      </trkpt>
      <trkpt lat="49.40435" lon="1.49219">
        <ele>114.32904052734</ele>
        <time>2017-07-02T08:57:36.000Z</time>
      </trkpt>
      <trkpt lat="49.4043" lon="1.49228">
        <ele>114.48547363281</ele>
        <time>2017-07-02T08:57:39.000Z</time>
      </trkpt>
      <trkpt lat="49.40424" lon="1.49237">
        <ele>114.61042785645</ele>
        <time>2017-07-02T08:57:42.000Z</time>
      </trkpt>
      <trkpt lat="49.40419" lon="1.49243">
        <ele>114.62131500244</ele>
        <time>2017-07-02T08:57:44.000Z</time>
      </trkpt>
      <trkpt lat="49.4041" lon="1.49252">
        <ele>114.66203308105</ele>
        <time>2017-07-02T08:57:47.000Z</time>
      </trkpt>
      <trkpt lat="49.40403" lon="1.49261">
        <ele>114.82958984375</ele>
        <time>2017-07-02T08:57:50.000Z</time>
      </trkpt>
      <trkpt lat="49.40399" lon="1.49266">
        <ele>115.03913879395</ele>
        <time>2017-07-02T08:57:52.000Z</time>
      </trkpt>
      <trkpt lat="49.40393" lon="1.49272">
        <ele>115.27492523193</ele>
        <time>2017-07-02T08:57:55.000Z</time>
      </trkpt>
      <trkpt lat="49.40386" lon="1.49278">
        <ele>115.57727050781</ele>
        <time>2017-07-02T08:57:58.000Z</time>
      </trkpt>
      <trkpt lat="49.40378" lon="1.49281">
        <ele>115.74747467041</ele>
        <time>2017-07-02T08:58:00.000Z</time>
      </trkpt>
      <trkpt lat="49.40368" lon="1.49287">
        <ele>115.69505310059</ele>
        <time>2017-07-02T08:58:03.000Z</time>
      </trkpt>
      <trkpt lat="49.40362" lon="1.49292">
        <ele>115.54371643066</ele>
        <time>2017-07-02T08:58:05.000Z</time>
      </trkpt>
      <trkpt lat="49.40353" lon="1.49297">
        <ele>115.20432281494</ele>
        <time>2017-07-02T08:58:08.000Z</time>
      </trkpt>
      <trkpt lat="49.40347" lon="1.49299">
        <ele>114.7774887085</ele>
        <time>2017-07-02T08:58:10.000Z</time>
      </trkpt>
      <trkpt lat="49.40337" lon="1.49305">
        <ele>114.3039932251</ele>
        <time>2017-07-02T08:58:13.000Z</time>
      </trkpt>
      <trkpt lat="49.40331" lon="1.49309">
        <ele>113.86930847168</ele>
        <time>2017-07-02T08:58:15.000Z</time>
      </trkpt>
      <trkpt lat="49.40319" lon="1.49316">
        <ele>113.4577255249</ele>
        <time>2017-07-02T08:58:18.000Z</time>
      </trkpt>
      <trkpt lat="49.40312" lon="1.49321">
        <ele>113.19116210938</ele>
        <time>2017-07-02T08:58:20.000Z</time>
      </trkpt>
      <trkpt lat="49.40305" lon="1.49327">
        <ele>113.01438140869</ele>
        <time>2017-07-02T08:58:22.000Z</time>
      </trkpt>
      <trkpt lat="49.40294" lon="1.49337">
        <ele>112.93556976318</ele>
        <time>2017-07-02T08:58:25.000Z</time>
      </trkpt>
      <trkpt lat="49.40284" lon="1.49349">
        <ele>112.78364562988</ele>
        <time>2017-07-02T08:58:28.000Z</time>
      </trkpt>
      <trkpt lat="49.40279" lon="1.49356">
        <ele>112.58213806152</ele>
        <time>2017-07-02T08:58:30.000Z</time>
      </trkpt>
      <trkpt lat="49.40274" lon="1.49366">
        <ele>112.31400299072</ele>
        <time>2017-07-02T08:58:33.000Z</time>
      </trkpt>
      <trkpt lat="49.40272" lon="1.49375">
        <ele>112.04081726074</ele>
        <time>2017-07-02T08:58:35.000Z</time>
      </trkpt>
      <trkpt lat="49.40272" lon="1.49391">
        <ele>111.86277770996</ele>
        <time>2017-07-02T08:58:38.000Z</time>
      </trkpt>
      <trkpt lat="49.40274" lon="1.49401">
        <ele>111.88922119141</ele>
        <time>2017-07-02T08:58:40.000Z</time>
      </trkpt>
      <trkpt lat="49.40279" lon="1.49416">
        <ele>112.13449859619</ele>
        <time>2017-07-02T08:58:43.000Z</time>
      </trkpt>
      <trkpt lat="49.40284" lon="1.49424">
        <ele>112.49393463135</ele>
        <time>2017-07-02T08:58:45.000Z</time>
      </trkpt>
      <trkpt lat="49.40289" lon="1.49436">
        <ele>112.91898345947</ele>
        <time>2017-07-02T08:58:48.000Z</time>
      </trkpt>
      <trkpt lat="49.40295" lon="1.49446">
        <ele>113.3745880127</ele>
        <time>2017-07-02T08:58:51.000Z</time>
      </trkpt>
      <trkpt lat="49.403" lon="1.49453">
        <ele>113.79588317871</ele>
        <time>2017-07-02T08:58:54.000Z</time>
      </trkpt>
      <trkpt lat="49.40305" lon="1.49462">
        <ele>114.09373474121</ele>
        <time>2017-07-02T08:58:57.000Z</time>
      </trkpt>
      <trkpt lat="49.4031" lon="1.49471">
        <ele>114.37145996094</ele>
        <time>2017-07-02T08:59:00.000Z</time>
      </trkpt>
      <trkpt lat="49.40316" lon="1.49481">
        <ele>114.65627288818</ele>
        <time>2017-07-02T08:59:03.000Z</time>
      </trkpt>
      <trkpt lat="49.40321" lon="1.49487">
        <ele>114.89163970947</ele>
        <time>2017-07-02T08:59:06.000Z</time>
      </trkpt>
      <trkpt lat="49.40323" lon="1.49492">
        <ele>115.08548736572</ele>
        <time>2017-07-02T08:59:08.000Z</time>
      </trkpt>
      <trkpt lat="49.40327" lon="1.495">
        <ele>115.24312591553</ele>
        <time>2017-07-02T08:59:11.000Z</time>
      </trkpt>
      <trkpt lat="49.40331" lon="1.49507">
        <ele>115.44274902344</ele>
        <time>2017-07-02T08:59:14.000Z</time>
      </trkpt>
      <trkpt lat="49.40333" lon="1.49512">
        <ele>115.62933349609</ele>
        <time>2017-07-02T08:59:16.000Z</time>
      </trkpt>
      <trkpt lat="49.40337" lon="1.49522">
        <ele>115.97188568115</ele>
        <time>2017-07-02T08:59:19.000Z</time>
      </trkpt>
      <trkpt lat="49.4034" lon="1.49533">
        <ele>116.4877166748</ele>
        <time>2017-07-02T08:59:22.000Z</time>
      </trkpt>
      <trkpt lat="49.40342" lon="1.49542">
        <ele>117.08158111572</ele>
        <time>2017-07-02T08:59:24.000Z</time>
      </trkpt>
      <trkpt lat="49.40343" lon="1.49551">
        <ele>117.66435241699</ele>
        <time>2017-07-02T08:59:26.000Z</time>
      </trkpt>
      <trkpt lat="49.40347" lon="1.49565">
        <ele>118.3911895752</ele>
        <time>2017-07-02T08:59:29.000Z</time>
      </trkpt>
      <trkpt lat="49.40349" lon="1.49574">
        <ele>118.99472808838</ele>
        <time>2017-07-02T08:59:32.000Z</time>
      </trkpt>
      <trkpt lat="49.40348" lon="1.49583">
        <ele>119.37599182129</ele>
        <time>2017-07-02T08:59:34.000Z</time>
      </trkpt>
      <trkpt lat="49.40347" lon="1.49595">
        <ele>119.73234558105</ele>
        <time>2017-07-02T08:59:36.000Z</time>
      </trkpt>
      <trkpt lat="49.40348" lon="1.49609">
        <ele>120.1462020874</ele>
        <time>2017-07-02T08:59:38.000Z</time>
      </trkpt>
      <trkpt lat="49.4035" lon="1.49628">
        <ele>120.59114837646</ele>
        <time>2017-07-02T08:59:41.000Z</time>
      </trkpt>
      <trkpt lat="49.40351" lon="1.49641">
        <ele>121.07588195801</ele>
        <time>2017-07-02T08:59:43.000Z</time>
      </trkpt>
      <trkpt lat="49.40348" lon="1.4966">
        <ele>121.61142730713</ele>
        <time>2017-07-02T08:59:46.000Z</time>
      </trkpt>
      <trkpt lat="49.40346" lon="1.49672">
        <ele>122.12762451172</ele>
        <time>2017-07-02T08:59:48.000Z</time>
      </trkpt>
      <trkpt lat="49.40345" lon="1.49683">
        <ele>122.57149505615</ele>
        <time>2017-07-02T08:59:50.000Z</time>
      </trkpt>
      <trkpt lat="49.4034" lon="1.49699">
        <ele>122.79335021973</ele>
        <time>2017-07-02T08:59:53.000Z</time>
      </trkpt>
      <trkpt lat="49.40333" lon="1.49713">
        <ele>122.8516998291</ele>
        <time>2017-07-02T08:59:56.000Z</time>
      </trkpt>
      <trkpt lat="49.40328" lon="1.49726">
        <ele>122.97282409668</ele>
        <time>2017-07-02T08:59:59.000Z</time>
      </trkpt>
      <trkpt lat="49.40326" lon="1.49735">
        <ele>123.11503601074</ele>
        <time>2017-07-02T09:00:01.000Z</time>
      </trkpt>
      <trkpt lat="49.40322" lon="1.49744">
        <ele>123.24754333496</ele>
        <time>2017-07-02T09:00:03.000Z</time>
      </trkpt>
      <trkpt lat="49.40317" lon="1.49754">
        <ele>123.45233154297</ele>
        <time>2017-07-02T09:00:06.000Z</time>
      </trkpt>
      <trkpt lat="49.40311" lon="1.49764">
        <ele>123.8689956665</ele>
        <time>2017-07-02T09:00:09.000Z</time>
      </trkpt>
      <trkpt lat="49.40308" lon="1.49772">
        <ele>124.32745361328</ele>
        <time>2017-07-02T09:00:11.000Z</time>
      </trkpt>
      <trkpt lat="49.40302" lon="1.49781">
        <ele>124.82598876953</ele>
        <time>2017-07-02T09:00:14.000Z</time>
      </trkpt>
      <trkpt lat="49.40301" lon="1.49785">
        <ele>125.32698059082</ele>
        <time>2017-07-02T09:00:16.000Z</time>
      </trkpt>
      <trkpt lat="49.40298" lon="1.49792">
        <ele>125.84861755371</ele>
        <time>2017-07-02T09:00:19.000Z</time>
      </trkpt>
      <trkpt lat="49.40294" lon="1.49799">
        <ele>126.2766494751</ele>
        <time>2017-07-02T09:00:22.000Z</time>
      </trkpt>
      <trkpt lat="49.4029" lon="1.49803">
        <ele>126.60227203369</ele>
        <time>2017-07-02T09:00:24.000Z</time>
      </trkpt>
      <trkpt lat="49.40285" lon="1.49811">
        <ele>126.8670425415</ele>
        <time>2017-07-02T09:00:27.000Z</time>
      </trkpt>
      <trkpt lat="49.40281" lon="1.49817">
        <ele>127.09273529053</ele>
        <time>2017-07-02T09:00:29.000Z</time>
      </trkpt>
      <trkpt lat="49.40276" lon="1.49824">
        <ele>127.24605560303</ele>
        <time>2017-07-02T09:00:32.000Z</time>
      </trkpt>
      <trkpt lat="49.40269" lon="1.49834">
        <ele>127.35066223145</ele>
        <time>2017-07-02T09:00:35.000Z</time>
      </trkpt>
      <trkpt lat="49.40265" lon="1.49839">
        <ele>127.44002532959</ele>
        <time>2017-07-02T09:00:37.000Z</time>
      </trkpt>
      <trkpt lat="49.4026" lon="1.49844">
        <ele>127.48332214355</ele>
        <time>2017-07-02T09:00:39.000Z</time>
      </trkpt>
      <trkpt lat="49.40255" lon="1.49851">
        <ele>127.54099273682</ele>
        <time>2017-07-02T09:00:42.000Z</time>
      </trkpt>
      <trkpt lat="49.40252" lon="1.49856">
        <ele>127.58921051025</ele>
        <time>2017-07-02T09:00:44.000Z</time>
      </trkpt>
      <trkpt lat="49.40247" lon="1.49863">
        <ele>127.69649505615</ele>
        <time>2017-07-02T09:00:47.000Z</time>
      </trkpt>
      <trkpt lat="49.4024" lon="1.4987">
        <ele>127.85444641113</ele>
        <time>2017-07-02T09:00:50.000Z</time>
      </trkpt>
      <trkpt lat="49.40235" lon="1.49874">
        <ele>128.03938293457</ele>
        <time>2017-07-02T09:00:52.000Z</time>
      </trkpt>
      <trkpt lat="49.40228" lon="1.49882">
        <ele>128.25547790527</ele>
        <time>2017-07-02T09:00:55.000Z</time>
      </trkpt>
      <trkpt lat="49.40221" lon="1.4989">
        <ele>128.52572631836</ele>
        <time>2017-07-02T09:00:58.000Z</time>
      </trkpt>
      <trkpt lat="49.40217" lon="1.49896">
        <ele>128.76510620117</ele>
        <time>2017-07-02T09:01:00.000Z</time>
      </trkpt>
      <trkpt lat="49.40211" lon="1.49903">
        <ele>129.00567626953</ele>
        <time>2017-07-02T09:01:03.000Z</time>
      </trkpt>
      <trkpt lat="49.40207" lon="1.49908">
        <ele>129.24276733398</ele>
        <time>2017-07-02T09:01:05.000Z</time>
      </trkpt>
      <trkpt lat="49.40203" lon="1.49915">
        <ele>129.46748352051</ele>
        <time>2017-07-02T09:01:08.000Z</time>
      </trkpt>
      <trkpt lat="49.40199" lon="1.49921">
        <ele>129.71073913574</ele>
        <time>2017-07-02T09:01:11.000Z</time>
      </trkpt>
      <trkpt lat="49.40195" lon="1.49926">
        <ele>129.97343444824</ele>
        <time>2017-07-02T09:01:13.000Z</time>
      </trkpt>
      <trkpt lat="49.40191" lon="1.49932">
        <ele>130.27020263672</ele>
        <time>2017-07-02T09:01:16.000Z</time>
      </trkpt>
      <trkpt lat="49.40187" lon="1.4994">
        <ele>130.68473815918</ele>
        <time>2017-07-02T09:01:19.000Z</time>
      </trkpt>
      <trkpt lat="49.40182" lon="1.49948">
        <ele>131.16709899902</ele>
        <time>2017-07-02T09:01:22.000Z</time>
      </trkpt>
      <trkpt lat="49.40178" lon="1.49953">
        <ele>131.61697387695</ele>
        <time>2017-07-02T09:01:25.000Z</time>
      </trkpt>
      <trkpt lat="49.40175" lon="1.49957">
        <ele>132.04815673828</ele>
        <time>2017-07-02T09:01:27.000Z</time>
      </trkpt>
      <trkpt lat="49.4017" lon="1.49963">
        <ele>132.43653869629</ele>
        <time>2017-07-02T09:01:30.000Z</time>
      </trkpt>
      <trkpt lat="49.40166" lon="1.4997">
        <ele>132.77285766602</ele>
        <time>2017-07-02T09:01:33.000Z</time>
      </trkpt>
      <trkpt lat="49.40164" lon="1.49976">
        <ele>133.14050292969</ele>
        <time>2017-07-02T09:01:35.000Z</time>
      </trkpt>
      <trkpt lat="49.4016" lon="1.49984">
        <ele>133.59590148926</ele>
        <time>2017-07-02T09:01:37.000Z</time>
      </trkpt>
      <trkpt lat="49.40158" lon="1.4999">
        <ele>134.13272094727</ele>
        <time>2017-07-02T09:01:39.000Z</time>
      </trkpt>
      <trkpt lat="49.40154" lon="1.49999">
        <ele>134.80439758301</ele>
        <time>2017-07-02T09:01:42.000Z</time>
      </trkpt>
      <trkpt lat="49.4015" lon="1.50009">
        <ele>135.51168823242</ele>
        <time>2017-07-02T09:01:45.000Z</time>
      </trkpt>
      <trkpt lat="49.40147" lon="1.50018">
        <ele>136.1847076416</ele>
        <time>2017-07-02T09:01:47.000Z</time>
      </trkpt>
      <trkpt lat="49.40142" lon="1.50032">
        <ele>136.88557434082</ele>
        <time>2017-07-02T09:01:50.000Z</time>
      </trkpt>
      <trkpt lat="49.40138" lon="1.50048">
        <ele>137.65263366699</ele>
        <time>2017-07-02T09:01:53.000Z</time>
      </trkpt>
      <trkpt lat="49.40131" lon="1.50056">
        <ele>138.26931762695</ele>
        <time>2017-07-02T09:01:56.000Z</time>
      </trkpt>
      <trkpt lat="49.40119" lon="1.50048">
        <ele>138.50079345703</ele>
        <time>2017-07-02T09:01:59.000Z</time>
      </trkpt>
      <trkpt lat="49.40112" lon="1.50043">
        <ele>138.47431945801</ele>
        <time>2017-07-02T09:02:01.000Z</time>
      </trkpt>
      <trkpt lat="49.40108" lon="1.50042">
        <ele>138.2216796875</ele>
        <time>2017-07-02T09:02:03.000Z</time>
      </trkpt>
      <trkpt lat="49.40105" lon="1.50041">
        <ele>137.71849060059</ele>
        <time>2017-07-02T09:02:05.000Z</time>
      </trkpt>
      <trkpt lat="49.40102" lon="1.50039">
        <ele>137.13011169434</ele>
        <time>2017-07-02T09:02:07.000Z</time>
      </trkpt>
      <trkpt lat="49.40097" lon="1.50038">
        <ele>136.72650146484</ele>
        <time>2017-07-02T09:02:10.000Z</time>
      </trkpt>
      <trkpt lat="49.40092" lon="1.50036">
        <ele>136.39671325684</ele>
        <time>2017-07-02T09:02:13.000Z</time>
      </trkpt>
      <trkpt lat="49.4009" lon="1.50035">
        <ele>136.08831787109</ele>
        <time>2017-07-02T09:02:15.000Z</time>
      </trkpt>
      <trkpt lat="49.40088" lon="1.50034">
        <ele>135.80648803711</ele>
        <time>2017-07-02T09:02:17.000Z</time>
      </trkpt>
      <trkpt lat="49.40085" lon="1.50033">
        <ele>135.52087402344</ele>
        <time>2017-07-02T09:02:20.000Z</time>
      </trkpt>
      <trkpt lat="49.40081" lon="1.50029">
        <ele>135.3263092041</ele>
        <time>2017-07-02T09:02:23.000Z</time>
      </trkpt>
      <trkpt lat="49.40079" lon="1.50026">
        <ele>135.26327514648</ele>
        <time>2017-07-02T09:02:25.000Z</time>
      </trkpt>
      <trkpt lat="49.40077" lon="1.50024">
        <ele>135.26226806641</ele>
        <time>2017-07-02T09:02:27.000Z</time>
      </trkpt>
      <trkpt lat="49.40075" lon="1.50022">
        <ele>135.34428405762</ele>
        <time>2017-07-02T09:02:29.000Z</time>
      </trkpt>
      <trkpt lat="49.40073" lon="1.50019">
        <ele>135.53305053711</ele>
        <time>2017-07-02T09:02:32.000Z</time>
      </trkpt>
      <trkpt lat="49.40073" lon="1.50018">
        <ele>135.72734069824</ele>
        <time>2017-07-02T09:02:36.000Z</time>
      </trkpt>
      <trkpt lat="49.40072" lon="1.50017">
        <ele>135.87268066406</ele>
        <time>2017-07-02T09:02:38.000Z</time>
      </trkpt>
      <trkpt lat="49.40069" lon="1.50015">
        <ele>136.08940124512</ele>
        <time>2017-07-02T09:02:41.000Z</time>
      </trkpt>
      <trkpt lat="49.40067" lon="1.50014">
        <ele>136.31936645508</ele>
        <time>2017-07-02T09:02:43.000Z</time>
      </trkpt>
      <trkpt lat="49.40064" lon="1.50013">
        <ele>136.58393859863</ele>
        <time>2017-07-02T09:02:45.000Z</time>
      </trkpt>
      <trkpt lat="49.40061" lon="1.50011">
        <ele>136.92797851562</ele>
        <time>2017-07-02T09:02:48.000Z</time>
      </trkpt>
      <trkpt lat="49.40058" lon="1.50008">
        <ele>137.36862182617</ele>
        <time>2017-07-02T09:02:51.000Z</time>
      </trkpt>
      <trkpt lat="49.40056" lon="1.50007">
        <ele>137.7727355957</ele>
        <time>2017-07-02T09:02:53.000Z</time>
      </trkpt>
      <trkpt lat="49.40052" lon="1.50005">
        <ele>138.23390197754</ele>
        <time>2017-07-02T09:02:56.000Z</time>
      </trkpt>
      <trkpt lat="49.40051" lon="1.50004">
        <ele>138.6682434082</ele>
        <time>2017-07-02T09:03:01.000Z</time>
      </trkpt>
      <trkpt lat="49.40049" lon="1.50003">
        <ele>139.04667663574</ele>
        <time>2017-07-02T09:03:06.000Z</time>
      </trkpt>
      <trkpt lat="49.40046" lon="1.50001">
        <ele>139.44293212891</ele>
        <time>2017-07-02T09:03:09.000Z</time>
      </trkpt>
      <trkpt lat="49.40043" lon="1.49997">
        <ele>139.86294555664</ele>
        <time>2017-07-02T09:03:12.000Z</time>
      </trkpt>
      <trkpt lat="49.4004" lon="1.49994">
        <ele>140.26058959961</ele>
        <time>2017-07-02T09:03:15.000Z</time>
      </trkpt>
      <trkpt lat="49.40037" lon="1.49993">
        <ele>140.70922851562</ele>
        <time>2017-07-02T09:03:17.000Z</time>
      </trkpt>
      <trkpt lat="49.40034" lon="1.49991">
        <ele>141.21943664551</ele>
        <time>2017-07-02T09:03:20.000Z</time>
      </trkpt>
      <trkpt lat="49.40032" lon="1.49989">
        <ele>141.69772338867</ele>
        <time>2017-07-02T09:03:23.000Z</time>
      </trkpt>
      <trkpt lat="49.4003" lon="1.49987">
        <ele>142.14326477051</ele>
        <time>2017-07-02T09:03:25.000Z</time>
      </trkpt>
      <trkpt lat="49.40028" lon="1.49983">
        <ele>142.57669067383</ele>
        <time>2017-07-02T09:03:28.000Z</time>
      </trkpt>
      <trkpt lat="49.40026" lon="1.49979">
        <ele>142.93740844727</ele>
        <time>2017-07-02T09:03:31.000Z</time>
      </trkpt>
      <trkpt lat="49.40025" lon="1.49974">
        <ele>143.2281036377</ele>
        <time>2017-07-02T09:03:34.000Z</time>
      </trkpt>
      <trkpt lat="49.40023" lon="1.49971">
        <ele>143.5096282959</ele>
        <time>2017-07-02T09:03:36.000Z</time>
      </trkpt>
      <trkpt lat="49.40019" lon="1.4997">
        <ele>143.92240905762</ele>
        <time>2017-07-02T09:03:39.000Z</time>
      </trkpt>
      <trkpt lat="49.40015" lon="1.49969">
        <ele>144.40693664551</ele>
        <time>2017-07-02T09:03:42.000Z</time>
      </trkpt>
      <trkpt lat="49.40012" lon="1.49967">
        <ele>145.01315307617</ele>
        <time>2017-07-02T09:03:45.000Z</time>
      </trkpt>
      <trkpt lat="49.40009" lon="1.49967">
        <ele>145.69062805176</ele>
        <time>2017-07-02T09:03:47.000Z</time>
      </trkpt>
      <trkpt lat="49.40006" lon="1.49965">
        <ele>146.42962646484</ele>
        <time>2017-07-02T09:03:50.000Z</time>
      </trkpt>
      <trkpt lat="49.40004" lon="1.49965">
        <ele>147.03512573242</ele>
        <time>2017-07-02T09:03:53.000Z</time>
      </trkpt>
      <trkpt lat="49.40003" lon="1.49963">
        <ele>147.55583190918</ele>
        <time>2017-07-02T09:03:55.000Z</time>
      </trkpt>
      <trkpt lat="49.40001" lon="1.4996">
        <ele>148.01091003418</ele>
        <time>2017-07-02T09:03:57.000Z</time>
      </trkpt>
      <trkpt lat="49.39998" lon="1.49959">
        <ele>148.43280029297</ele>
        <time>2017-07-02T09:04:00.000Z</time>
      </trkpt>
      <trkpt lat="49.39996" lon="1.49959">
        <ele>148.75898742676</ele>
        <time>2017-07-02T09:04:02.000Z</time>
      </trkpt>
      <trkpt lat="49.39993" lon="1.49958">
        <ele>149.09425354004</ele>
        <time>2017-07-02T09:04:05.000Z</time>
      </trkpt>
      <trkpt lat="49.39992" lon="1.49958">
        <ele>149.39476013184</ele>
        <time>2017-07-02T09:04:07.000Z</time>
      </trkpt>
      <trkpt lat="49.39991" lon="1.49956">
        <ele>149.6328125</ele>
        <time>2017-07-02T09:04:10.000Z</time>
      </trkpt>
      <trkpt lat="49.39988" lon="1.49954">
        <ele>149.8525390625</ele>
        <time>2017-07-02T09:04:13.000Z</time>
      </trkpt>
      <trkpt lat="49.39987" lon="1.49952">
        <ele>150.0546875</ele>
        <time>2017-07-02T09:04:15.000Z</time>
      </trkpt>
      <trkpt lat="49.39986" lon="1.4995">
        <ele>150.2041015625</ele>
        <time>2017-07-02T09:04:17.000Z</time>
      </trkpt>
      <trkpt lat="49.39985" lon="1.49947">
        <ele>150.3447265625</ele>
        <time>2017-07-02T09:04:20.000Z</time>
      </trkpt>
      <trkpt lat="49.39984" lon="1.49944">
        <ele>150.4853515625</ele>
        <time>2017-07-02T09:04:22.000Z</time>
      </trkpt>
      <trkpt lat="49.39984" lon="1.49942">
        <ele>150.5732421875</ele>
        <time>2017-07-02T09:04:26.000Z</time>
      </trkpt>
      <trkpt lat="49.39985" lon="1.49938">
        <ele>150.6171875</ele>
        <time>2017-07-02T09:04:29.000Z</time>
      </trkpt>
      <trkpt lat="49.39986" lon="1.49934">
        <ele>150.634765625</ele>
        <time>2017-07-02T09:04:31.000Z</time>
      </trkpt>
      <trkpt lat="49.39987" lon="1.49928">
        <ele>150.599609375</ele>
        <time>2017-07-02T09:04:34.000Z</time>
      </trkpt>
      <trkpt lat="49.39988" lon="1.49924">
        <ele>150.529296875</ele>
        <time>2017-07-02T09:04:36.000Z</time>
      </trkpt>
      <trkpt lat="49.39989" lon="1.49913">
        <ele>150.42391967773</ele>
        <time>2017-07-02T09:04:39.000Z</time>
      </trkpt>
      <trkpt lat="49.39992" lon="1.49902">
        <ele>150.30020141602</ele>
        <time>2017-07-02T09:04:41.000Z</time>
      </trkpt>
      <trkpt lat="49.39997" lon="1.4989">
        <ele>150.12747192383</ele>
        <time>2017-07-02T09:04:44.000Z</time>
      </trkpt>
      <trkpt lat="49.40002" lon="1.4988">
        <ele>149.85731506348</ele>
        <time>2017-07-02T09:04:47.000Z</time>
      </trkpt>
      <trkpt lat="49.40005" lon="1.49871">
        <ele>149.43051147461</ele>
        <time>2017-07-02T09:04:49.000Z</time>
      </trkpt>
      <trkpt lat="49.40009" lon="1.4986">
        <ele>148.93955993652</ele>
        <time>2017-07-02T09:04:51.000Z</time>
      </trkpt>
      <trkpt lat="49.40012" lon="1.49851">
        <ele>148.36685180664</ele>
        <time>2017-07-02T09:04:53.000Z</time>
      </trkpt>
      <trkpt lat="49.40019" lon="1.49842">
        <ele>147.57052612305</ele>
        <time>2017-07-02T09:04:56.000Z</time>
      </trkpt>
      <trkpt lat="49.40024" lon="1.49831">
        <ele>146.73135375977</ele>
        <time>2017-07-02T09:04:59.000Z</time>
      </trkpt>
      <trkpt lat="49.40028" lon="1.49821">
        <ele>145.95881652832</ele>
        <time>2017-07-02T09:05:02.000Z</time>
      </trkpt>
      <trkpt lat="49.40031" lon="1.49812">
        <ele>145.20657348633</ele>
        <time>2017-07-02T09:05:04.000Z</time>
      </trkpt>
      <trkpt lat="49.40038" lon="1.49796">
        <ele>144.431640625</ele>
        <time>2017-07-02T09:05:07.000Z</time>
      </trkpt>
      <trkpt lat="49.40047" lon="1.49778">
        <ele>143.77886962891</ele>
        <time>2017-07-02T09:05:10.000Z</time>
      </trkpt>
      <trkpt lat="49.40051" lon="1.49769">
        <ele>143.25578308105</ele>
        <time>2017-07-02T09:05:12.000Z</time>
      </trkpt>
      <trkpt lat="49.40057" lon="1.49756">
        <ele>142.80972290039</ele>
        <time>2017-07-02T09:05:15.000Z</time>
      </trkpt>
      <trkpt lat="49.40062" lon="1.49748">
        <ele>142.39308166504</ele>
        <time>2017-07-02T09:05:17.000Z</time>
      </trkpt>
      <trkpt lat="49.40069" lon="1.49736">
        <ele>142.09922790527</ele>
        <time>2017-07-02T09:05:20.000Z</time>
      </trkpt>
      <trkpt lat="49.40073" lon="1.49727">
        <ele>141.98413085938</ele>
        <time>2017-07-02T09:05:23.000Z</time>
      </trkpt>
      <trkpt lat="49.40075" lon="1.49721">
        <ele>141.9397277832</ele>
        <time>2017-07-02T09:05:25.000Z</time>
      </trkpt>
      <trkpt lat="49.40076" lon="1.49714">
        <ele>141.97662353516</ele>
        <time>2017-07-02T09:05:27.000Z</time>
      </trkpt>
      <trkpt lat="49.40077" lon="1.49707">
        <ele>142.13453674316</ele>
        <time>2017-07-02T09:05:29.000Z</time>
      </trkpt>
      <trkpt lat="49.4008" lon="1.49699">
        <ele>142.37551879883</ele>
        <time>2017-07-02T09:05:31.000Z</time>
      </trkpt>
      <trkpt lat="49.40084" lon="1.49682">
        <ele>142.74696350098</ele>
        <time>2017-07-02T09:05:34.000Z</time>
      </trkpt>
      <trkpt lat="49.40086" lon="1.49672">
        <ele>143.1902923584</ele>
        <time>2017-07-02T09:05:36.000Z</time>
      </trkpt>
      <trkpt lat="49.40086" lon="1.49655">
        <ele>143.68771362305</ele>
        <time>2017-07-02T09:05:39.000Z</time>
      </trkpt>
      <trkpt lat="49.40083" lon="1.4964">
        <ele>144.21974182129</ele>
        <time>2017-07-02T09:05:42.000Z</time>
      </trkpt>
      <trkpt lat="49.40081" lon="1.49634">
        <ele>144.72244262695</ele>
        <time>2017-07-02T09:05:45.000Z</time>
      </trkpt>
      <trkpt lat="49.40079" lon="1.4963">
        <ele>145.12580871582</ele>
        <time>2017-07-02T09:05:48.000Z</time>
      </trkpt>
      <trkpt lat="49.40076" lon="1.49625">
        <ele>145.47994995117</ele>
        <time>2017-07-02T09:05:51.000Z</time>
      </trkpt>
      <trkpt lat="49.40072" lon="1.49619">
        <ele>145.77590942383</ele>
        <time>2017-07-02T09:05:54.000Z</time>
      </trkpt>
      <trkpt lat="49.40068" lon="1.49615">
        <ele>146.02590942383</ele>
        <time>2017-07-02T09:05:57.000Z</time>
      </trkpt>
      <trkpt lat="49.40065" lon="1.49612">
        <ele>146.29330444336</ele>
        <time>2017-07-02T09:05:59.000Z</time>
      </trkpt>
      <trkpt lat="49.40059" lon="1.49609">
        <ele>146.59066772461</ele>
        <time>2017-07-02T09:06:02.000Z</time>
      </trkpt>
      <trkpt lat="49.40057" lon="1.49608">
        <ele>146.86933898926</ele>
        <time>2017-07-02T09:06:04.000Z</time>
      </trkpt>
      <trkpt lat="49.40053" lon="1.49604">
        <ele>147.14030456543</ele>
        <time>2017-07-02T09:06:06.000Z</time>
      </trkpt>
      <trkpt lat="49.40048" lon="1.49601">
        <ele>147.42272949219</ele>
        <time>2017-07-02T09:06:09.000Z</time>
      </trkpt>
      <trkpt lat="49.40044" lon="1.49599">
        <ele>147.70390319824</ele>
        <time>2017-07-02T09:06:11.000Z</time>
      </trkpt>
      <trkpt lat="49.40039" lon="1.49598">
        <ele>147.97080993652</ele>
        <time>2017-07-02T09:06:14.000Z</time>
      </trkpt>
      <trkpt lat="49.40034" lon="1.49599">
        <ele>148.25938415527</ele>
        <time>2017-07-02T09:06:17.000Z</time>
      </trkpt>
      <trkpt lat="49.40031" lon="1.49599">
        <ele>148.55131530762</ele>
        <time>2017-07-02T09:06:19.000Z</time>
      </trkpt>
      <trkpt lat="49.40024" lon="1.49596">
        <ele>148.85446166992</ele>
        <time>2017-07-02T09:06:22.000Z</time>
      </trkpt>
      <trkpt lat="49.40018" lon="1.49594">
        <ele>149.18193054199</ele>
        <time>2017-07-02T09:06:25.000Z</time>
      </trkpt>
      <trkpt lat="49.40013" lon="1.49592">
        <ele>149.51260375977</ele>
        <time>2017-07-02T09:06:28.000Z</time>
      </trkpt>
      <trkpt lat="49.40008" lon="1.49587">
        <ele>149.84494018555</ele>
        <time>2017-07-02T09:06:31.000Z</time>
      </trkpt>
      <trkpt lat="49.40005" lon="1.49584">
        <ele>150.16612243652</ele>
        <time>2017-07-02T09:06:33.000Z</time>
      </trkpt>
      <trkpt lat="49.39999" lon="1.49579">
        <ele>150.46844482422</ele>
        <time>2017-07-02T09:06:36.000Z</time>
      </trkpt>
      <trkpt lat="49.39995" lon="1.49576">
        <ele>150.76522827148</ele>
        <time>2017-07-02T09:06:38.000Z</time>
      </trkpt>
      <trkpt lat="49.39989" lon="1.49571">
        <ele>151.11051940918</ele>
        <time>2017-07-02T09:06:41.000Z</time>
      </trkpt>
      <trkpt lat="49.39985" lon="1.49568">
        <ele>151.46044921875</ele>
        <time>2017-07-02T09:06:43.000Z</time>
      </trkpt>
      <trkpt lat="49.39979" lon="1.49565">
        <ele>151.88381958008</ele>
        <time>2017-07-02T09:06:46.000Z</time>
      </trkpt>
      <trkpt lat="49.39973" lon="1.49562">
        <ele>152.36770629883</ele>
        <time>2017-07-02T09:06:49.000Z</time>
      </trkpt>
      <trkpt lat="49.39968" lon="1.49561">
        <ele>152.86672973633</ele>
        <time>2017-07-02T09:06:51.000Z</time>
      </trkpt>
      <trkpt lat="49.39961" lon="1.49559">
        <ele>153.39157104492</ele>
        <time>2017-07-02T09:06:54.000Z</time>
      </trkpt>
      <trkpt lat="49.39956" lon="1.49557">
        <ele>153.94631958008</ele>
        <time>2017-07-02T09:06:56.000Z</time>
      </trkpt>
      <trkpt lat="49.39949" lon="1.49556">
        <ele>154.52476501465</ele>
        <time>2017-07-02T09:06:59.000Z</time>
      </trkpt>
      <trkpt lat="49.39943" lon="1.49556">
        <ele>155.10054016113</ele>
        <time>2017-07-02T09:07:02.000Z</time>
      </trkpt>
      <trkpt lat="49.39937" lon="1.49557">
        <ele>155.72073364258</ele>
        <time>2017-07-02T09:07:05.000Z</time>
      </trkpt>
      <trkpt lat="49.3993" lon="1.49558">
        <ele>156.33596801758</ele>
        <time>2017-07-02T09:07:08.000Z</time>
      </trkpt>
      <trkpt lat="49.39922" lon="1.49559">
        <ele>157.01811218262</ele>
        <time>2017-07-02T09:07:11.000Z</time>
      </trkpt>
      <trkpt lat="49.39918" lon="1.49561">
        <ele>157.64422607422</ele>
        <time>2017-07-02T09:07:13.000Z</time>
      </trkpt>
      <trkpt lat="49.39912" lon="1.49563">
        <ele>158.14437866211</ele>
        <time>2017-07-02T09:07:16.000Z</time>
      </trkpt>
      <trkpt lat="49.39906" lon="1.4956">
        <ele>158.46138000488</ele>
        <time>2017-07-02T09:07:19.000Z</time>
      </trkpt>
      <trkpt lat="49.39904" lon="1.49556">
        <ele>158.62051391602</ele>
        <time>2017-07-02T09:07:21.000Z</time>
      </trkpt>
      <trkpt lat="49.39902" lon="1.49544">
        <ele>158.59666442871</ele>
        <time>2017-07-02T09:07:24.000Z</time>
      </trkpt>
      <trkpt lat="49.39902" lon="1.49528">
        <ele>158.47402954102</ele>
        <time>2017-07-02T09:07:27.000Z</time>
      </trkpt>
      <trkpt lat="49.39901" lon="1.49515">
        <ele>158.33532714844</ele>
        <time>2017-07-02T09:07:29.000Z</time>
      </trkpt>
      <trkpt lat="49.39899" lon="1.49494">
        <ele>158.18911743164</ele>
        <time>2017-07-02T09:07:32.000Z</time>
      </trkpt>
      <trkpt lat="49.39899" lon="1.49479">
        <ele>157.99780273438</ele>
        <time>2017-07-02T09:07:34.000Z</time>
      </trkpt>
      <trkpt lat="49.39898" lon="1.49455">
        <ele>157.71371459961</ele>
        <time>2017-07-02T09:07:37.000Z</time>
      </trkpt>
      <trkpt lat="49.39898" lon="1.49441">
        <ele>157.39599609375</ele>
        <time>2017-07-02T09:07:39.000Z</time>
      </trkpt>
      <trkpt lat="49.39899" lon="1.49424">
        <ele>157.02795410156</ele>
        <time>2017-07-02T09:07:42.000Z</time>
      </trkpt>
      <trkpt lat="49.39899" lon="1.4941">
        <ele>156.68881225586</ele>
        <time>2017-07-02T09:07:44.000Z</time>
      </trkpt>
      <trkpt lat="49.39898" lon="1.49387">
        <ele>156.41076660156</ele>
        <time>2017-07-02T09:07:47.000Z</time>
      </trkpt>
      <trkpt lat="49.39897" lon="1.49373">
        <ele>156.23818969727</ele>
        <time>2017-07-02T09:07:49.000Z</time>
      </trkpt>
      <trkpt lat="49.39897" lon="1.49354">
        <ele>156.11703491211</ele>
        <time>2017-07-02T09:07:52.000Z</time>
      </trkpt>
      <trkpt lat="49.39896" lon="1.49334">
        <ele>156.0625</ele>
        <time>2017-07-02T09:07:55.000Z</time>
      </trkpt>
      <trkpt lat="49.39896" lon="1.49316">
        <ele>156.0774230957</ele>
        <time>2017-07-02T09:07:58.000Z</time>
      </trkpt>
      <trkpt lat="49.39896" lon="1.49304">
        <ele>156.13188171387</ele>
        <time>2017-07-02T09:08:00.000Z</time>
      </trkpt>
      <trkpt lat="49.39896" lon="1.49286">
        <ele>156.23770141602</ele>
        <time>2017-07-02T09:08:03.000Z</time>
      </trkpt>
      <trkpt lat="49.39896" lon="1.49266">
        <ele>156.39147949219</ele>
        <time>2017-07-02T09:08:06.000Z</time>
      </trkpt>
      <trkpt lat="49.39896" lon="1.49246">
        <ele>156.55978393555</ele>
        <time>2017-07-02T09:08:09.000Z</time>
      </trkpt>
      <trkpt lat="49.39895" lon="1.49233">
        <ele>156.58920288086</ele>
        <time>2017-07-02T09:08:11.000Z</time>
      </trkpt>
      <trkpt lat="49.39894" lon="1.4921">
        <ele>156.42292785645</ele>
        <time>2017-07-02T09:08:14.000Z</time>
      </trkpt>
      <trkpt lat="49.39893" lon="1.49188">
        <ele>156.05557250977</ele>
        <time>2017-07-02T09:08:17.000Z</time>
      </trkpt>
      <trkpt lat="49.39893" lon="1.49175">
        <ele>155.55001831055</ele>
        <time>2017-07-02T09:08:19.000Z</time>
      </trkpt>
      <trkpt lat="49.39894" lon="1.49155">
        <ele>155.01927185059</ele>
        <time>2017-07-02T09:08:22.000Z</time>
      </trkpt>
      <trkpt lat="49.39893" lon="1.49141">
        <ele>154.63638305664</ele>
        <time>2017-07-02T09:08:24.000Z</time>
      </trkpt>
      <trkpt lat="49.39893" lon="1.4912">
        <ele>154.4924621582</ele>
        <time>2017-07-02T09:08:27.000Z</time>
      </trkpt>
      <trkpt lat="49.39893" lon="1.491">
        <ele>154.57498168945</ele>
        <time>2017-07-02T09:08:30.000Z</time>
      </trkpt>
      <trkpt lat="49.39893" lon="1.49087">
        <ele>154.79487609863</ele>
        <time>2017-07-02T09:08:32.000Z</time>
      </trkpt>
      <trkpt lat="49.39893" lon="1.49074">
        <ele>155.03173828125</ele>
        <time>2017-07-02T09:08:34.000Z</time>
      </trkpt>
      <trkpt lat="49.39893" lon="1.49061">
        <ele>155.20729064941</ele>
        <time>2017-07-02T09:08:36.000Z</time>
      </trkpt>
      <trkpt lat="49.39893" lon="1.49048">
        <ele>155.29670715332</ele>
        <time>2017-07-02T09:08:38.000Z</time>
      </trkpt>
      <trkpt lat="49.39893" lon="1.49034">
        <ele>155.30342102051</ele>
        <time>2017-07-02T09:08:40.000Z</time>
      </trkpt>
      <trkpt lat="49.39891" lon="1.49016">
        <ele>155.2428894043</ele>
        <time>2017-07-02T09:08:43.000Z</time>
      </trkpt>
      <trkpt lat="49.39888" lon="1.49006">
        <ele>155.16885375977</ele>
        <time>2017-07-02T09:08:45.000Z</time>
      </trkpt>
      <trkpt lat="49.39882" lon="1.48998">
        <ele>155.09292602539</ele>
        <time>2017-07-02T09:08:47.000Z</time>
      </trkpt>
      <trkpt lat="49.39874" lon="1.48995">
        <ele>155.01892089844</ele>
        <time>2017-07-02T09:08:49.000Z</time>
      </trkpt>
      <trkpt lat="49.39865" lon="1.48995">
        <ele>154.96118164062</ele>
        <time>2017-07-02T09:08:51.000Z</time>
      </trkpt>
      <trkpt lat="49.39853" lon="1.48994">
        <ele>154.9239654541</ele>
        <time>2017-07-02T09:08:54.000Z</time>
      </trkpt>
      <trkpt lat="49.39843" lon="1.4899">
        <ele>154.88986206055</ele>
        <time>2017-07-02T09:08:57.000Z</time>
      </trkpt>
      <trkpt lat="49.39832" lon="1.48991">
        <ele>154.8804473877</ele>
        <time>2017-07-02T09:09:00.000Z</time>
      </trkpt>
      <trkpt lat="49.39822" lon="1.48994">
        <ele>154.89517211914</ele>
        <time>2017-07-02T09:09:03.000Z</time>
      </trkpt>
      <trkpt lat="49.39812" lon="1.48997">
        <ele>154.91357421875</ele>
        <time>2017-07-02T09:09:06.000Z</time>
      </trkpt>
      <trkpt lat="49.39806" lon="1.48999">
        <ele>154.93453979492</ele>
        <time>2017-07-02T09:09:08.000Z</time>
      </trkpt>
      <trkpt lat="49.39798" lon="1.49003">
        <ele>154.95722961426</ele>
        <time>2017-07-02T09:09:11.000Z</time>
      </trkpt>
      <trkpt lat="49.39792" lon="1.49006">
        <ele>154.96369934082</ele>
        <time>2017-07-02T09:09:13.000Z</time>
      </trkpt>
      <trkpt lat="49.39785" lon="1.49008">
        <ele>154.95422363281</ele>
        <time>2017-07-02T09:09:16.000Z</time>
      </trkpt>
      <trkpt lat="49.39775" lon="1.4901">
        <ele>154.93411254883</ele>
        <time>2017-07-02T09:09:19.000Z</time>
      </trkpt>
      <trkpt lat="49.39768" lon="1.49012">
        <ele>154.90600585938</ele>
        <time>2017-07-02T09:09:21.000Z</time>
      </trkpt>
      <trkpt lat="49.39761" lon="1.49016">
        <ele>154.87544250488</ele>
        <time>2017-07-02T09:09:24.000Z</time>
      </trkpt>
      <trkpt lat="49.39757" lon="1.49018">
        <ele>154.8473815918</ele>
        <time>2017-07-02T09:09:26.000Z</time>
      </trkpt>
      <trkpt lat="49.39751" lon="1.49019">
        <ele>154.82168579102</ele>
        <time>2017-07-02T09:09:28.000Z</time>
      </trkpt>
      <trkpt lat="49.3974" lon="1.49019">
        <ele>154.75860595703</ele>
        <time>2017-07-02T09:09:31.000Z</time>
      </trkpt>
      <trkpt lat="49.39735" lon="1.49019">
        <ele>154.67918395996</ele>
        <time>2017-07-02T09:09:33.000Z</time>
      </trkpt>
      <trkpt lat="49.3973" lon="1.49017">
        <ele>154.59019470215</ele>
        <time>2017-07-02T09:09:35.000Z</time>
      </trkpt>
      <trkpt lat="49.39724" lon="1.49016">
        <ele>154.48303222656</ele>
        <time>2017-07-02T09:09:37.000Z</time>
      </trkpt>
      <trkpt lat="49.39715" lon="1.49015">
        <ele>154.33825683594</ele>
        <time>2017-07-02T09:09:40.000Z</time>
      </trkpt>
      <trkpt lat="49.39703" lon="1.49018">
        <ele>154.17924499512</ele>
        <time>2017-07-02T09:09:43.000Z</time>
      </trkpt>
      <trkpt lat="49.39692" lon="1.49019">
        <ele>153.99375915527</ele>
        <time>2017-07-02T09:09:46.000Z</time>
      </trkpt>
      <trkpt lat="49.39687" lon="1.49018">
        <ele>153.80603027344</ele>
        <time>2017-07-02T09:09:48.000Z</time>
      </trkpt>
      <trkpt lat="49.39676" lon="1.49019">
        <ele>153.59602355957</ele>
        <time>2017-07-02T09:09:51.000Z</time>
      </trkpt>
      <trkpt lat="49.39668" lon="1.4902">
        <ele>153.39318847656</ele>
        <time>2017-07-02T09:09:54.000Z</time>
      </trkpt>
      <trkpt lat="49.39664" lon="1.4902">
        <ele>153.25749206543</ele>
        <time>2017-07-02T09:09:56.000Z</time>
      </trkpt>
      <trkpt lat="49.39655" lon="1.4902">
        <ele>153.22900390625</ele>
        <time>2017-07-02T09:09:59.000Z</time>
      </trkpt>
      <trkpt lat="49.39648" lon="1.49022">
        <ele>153.26577758789</ele>
        <time>2017-07-02T09:10:01.000Z</time>
      </trkpt>
      <trkpt lat="49.39638" lon="1.49029">
        <ele>153.4084777832</ele>
        <time>2017-07-02T09:10:04.000Z</time>
      </trkpt>
      <trkpt lat="49.39627" lon="1.49039">
        <ele>153.64016723633</ele>
        <time>2017-07-02T09:10:07.000Z</time>
      </trkpt>
      <trkpt lat="49.39617" lon="1.49049">
        <ele>153.91110229492</ele>
        <time>2017-07-02T09:10:10.000Z</time>
      </trkpt>
      <trkpt lat="49.39609" lon="1.49054">
        <ele>154.15902709961</ele>
        <time>2017-07-02T09:10:12.000Z</time>
      </trkpt>
      <trkpt lat="49.39597" lon="1.49059">
        <ele>154.41885375977</ele>
        <time>2017-07-02T09:10:15.000Z</time>
      </trkpt>
      <trkpt lat="49.39589" lon="1.49061">
        <ele>154.65937805176</ele>
        <time>2017-07-02T09:10:17.000Z</time>
      </trkpt>
      <trkpt lat="49.39577" lon="1.49061">
        <ele>154.88716125488</ele>
        <time>2017-07-02T09:10:20.000Z</time>
      </trkpt>
      <trkpt lat="49.3957" lon="1.49062">
        <ele>155.08018493652</ele>
        <time>2017-07-02T09:10:22.000Z</time>
      </trkpt>
      <trkpt lat="49.3956" lon="1.49066">
        <ele>155.25228881836</ele>
        <time>2017-07-02T09:10:25.000Z</time>
      </trkpt>
      <trkpt lat="49.39552" lon="1.49069">
        <ele>155.38064575195</ele>
        <time>2017-07-02T09:10:28.000Z</time>
      </trkpt>
      <trkpt lat="49.39543" lon="1.4907">
        <ele>155.48593139648</ele>
        <time>2017-07-02T09:10:31.000Z</time>
      </trkpt>
      <trkpt lat="49.39536" lon="1.49073">
        <ele>155.5576171875</ele>
        <time>2017-07-02T09:10:34.000Z</time>
      </trkpt>
      <trkpt lat="49.39527" lon="1.49077">
        <ele>155.62637329102</ele>
        <time>2017-07-02T09:10:37.000Z</time>
      </trkpt>
      <trkpt lat="49.39522" lon="1.49078">
        <ele>155.68879699707</ele>
        <time>2017-07-02T09:10:39.000Z</time>
      </trkpt>
      <trkpt lat="49.39516" lon="1.49078">
        <ele>155.75112915039</ele>
        <time>2017-07-02T09:10:41.000Z</time>
      </trkpt>
      <trkpt lat="49.39508" lon="1.49079">
        <ele>155.81282043457</ele>
        <time>2017-07-02T09:10:43.000Z</time>
      </trkpt>
      <trkpt lat="49.39497" lon="1.49077">
        <ele>155.89468383789</ele>
        <time>2017-07-02T09:10:46.000Z</time>
      </trkpt>
      <trkpt lat="49.39491" lon="1.49078">
        <ele>155.97665405273</ele>
        <time>2017-07-02T09:10:48.000Z</time>
      </trkpt>
      <trkpt lat="49.39484" lon="1.49079">
        <ele>156.06181335449</ele>
        <time>2017-07-02T09:10:51.000Z</time>
      </trkpt>
      <trkpt lat="49.3948" lon="1.49077">
        <ele>156.14408874512</ele>
        <time>2017-07-02T09:10:53.000Z</time>
      </trkpt>
      <trkpt lat="49.39476" lon="1.49077">
        <ele>156.21908569336</ele>
        <time>2017-07-02T09:10:59.000Z</time>
      </trkpt>
      <trkpt lat="49.39471" lon="1.49074">
        <ele>156.27629089355</ele>
        <time>2017-07-02T09:11:02.000Z</time>
      </trkpt>
      <trkpt lat="49.39466" lon="1.49069">
        <ele>156.33169555664</ele>
        <time>2017-07-02T09:11:04.000Z</time>
      </trkpt>
      <trkpt lat="49.39455" lon="1.4906">
        <ele>156.38981628418</ele>
        <time>2017-07-02T09:11:07.000Z</time>
      </trkpt>
      <trkpt lat="49.39446" lon="1.49052">
        <ele>156.44169616699</ele>
        <time>2017-07-02T09:11:10.000Z</time>
      </trkpt>
      <trkpt lat="49.39441" lon="1.49043">
        <ele>156.47708129883</ele>
        <time>2017-07-02T09:11:13.000Z</time>
      </trkpt>
      <trkpt lat="49.39433" lon="1.49028">
        <ele>156.4787902832</ele>
        <time>2017-07-02T09:11:16.000Z</time>
      </trkpt>
      <trkpt lat="49.39424" lon="1.4901">
        <ele>156.42683410645</ele>
        <time>2017-07-02T09:11:19.000Z</time>
      </trkpt>
      <trkpt lat="49.3942" lon="1.48996">
        <ele>156.28952026367</ele>
        <time>2017-07-02T09:11:21.000Z</time>
      </trkpt>
      <trkpt lat="49.39417" lon="1.48978">
        <ele>155.97131347656</ele>
        <time>2017-07-02T09:11:24.000Z</time>
      </trkpt>
      <trkpt lat="49.39417" lon="1.4897">
        <ele>155.58177185059</ele>
        <time>2017-07-02T09:11:26.000Z</time>
      </trkpt>
      <trkpt lat="49.39418" lon="1.4896">
        <ele>155.12126159668</ele>
        <time>2017-07-02T09:11:28.000Z</time>
      </trkpt>
      <trkpt lat="49.39416" lon="1.48953">
        <ele>154.63249206543</ele>
        <time>2017-07-02T09:11:30.000Z</time>
      </trkpt>
      <trkpt lat="49.39412" lon="1.48949">
        <ele>154.16117858887</ele>
        <time>2017-07-02T09:11:33.000Z</time>
      </trkpt>
      <trkpt lat="49.3941" lon="1.48946">
        <ele>153.82949829102</ele>
        <time>2017-07-02T09:11:35.000Z</time>
      </trkpt>
      <trkpt lat="49.39408" lon="1.48942">
        <ele>153.53604125977</ele>
        <time>2017-07-02T09:11:37.000Z</time>
      </trkpt>
      <trkpt lat="49.39408" lon="1.48938">
        <ele>153.30520629883</ele>
        <time>2017-07-02T09:11:40.000Z</time>
      </trkpt>
      <trkpt lat="49.39409" lon="1.48935">
        <ele>153.11528015137</ele>
        <time>2017-07-02T09:11:43.000Z</time>
      </trkpt>
      <trkpt lat="49.3941" lon="1.48933">
        <ele>152.96334838867</ele>
        <time>2017-07-02T09:11:45.000Z</time>
      </trkpt>
      <trkpt lat="49.3941" lon="1.4893">
        <ele>152.8288269043</ele>
        <time>2017-07-02T09:11:49.000Z</time>
      </trkpt>
      <trkpt lat="49.39412" lon="1.48928">
        <ele>152.71401977539</ele>
        <time>2017-07-02T09:11:52.000Z</time>
      </trkpt>
      <trkpt lat="49.39413" lon="1.48925">
        <ele>152.60472106934</ele>
        <time>2017-07-02T09:11:54.000Z</time>
      </trkpt>
      <trkpt lat="49.39415" lon="1.48923">
        <ele>152.50595092773</ele>
        <time>2017-07-02T09:11:56.000Z</time>
      </trkpt>
      <trkpt lat="49.3942" lon="1.48917">
        <ele>152.3782043457</ele>
        <time>2017-07-02T09:11:59.000Z</time>
      </trkpt>
      <trkpt lat="49.39424" lon="1.48912">
        <ele>152.26718139648</ele>
        <time>2017-07-02T09:12:02.000Z</time>
      </trkpt>
      <trkpt lat="49.39426" lon="1.48909">
        <ele>152.17393493652</ele>
        <time>2017-07-02T09:12:05.000Z</time>
      </trkpt>
      <trkpt lat="49.39424" lon="1.48907">
        <ele>152.10057067871</ele>
        <time>2017-07-02T09:12:08.000Z</time>
      </trkpt>
      <trkpt lat="49.39421" lon="1.48905">
        <ele>152.04318237305</ele>
        <time>2017-07-02T09:12:11.000Z</time>
      </trkpt>
      <trkpt lat="49.39418" lon="1.48902">
        <ele>152.02799987793</ele>
        <time>2017-07-02T09:12:14.000Z</time>
      </trkpt>
      <trkpt lat="49.39418" lon="1.48899">
        <ele>152.01579284668</ele>
        <time>2017-07-02T09:12:16.000Z</time>
      </trkpt>
      <trkpt lat="49.39418" lon="1.48898">
        <ele>152.00509643555</ele>
        <time>2017-07-02T09:12:21.000Z</time>
      </trkpt>
      <trkpt lat="49.39419" lon="1.48898">
        <ele>151.99768066406</ele>
        <time>2017-07-02T09:12:25.000Z</time>
      </trkpt>
      <trkpt lat="49.39421" lon="1.48898">
        <ele>151.99273681641</ele>
        <time>2017-07-02T09:12:31.000Z</time>
      </trkpt>
      <trkpt lat="49.39421" lon="1.48898">
        <ele>151.99273681641</ele>
        <time>2017-07-02T09:12:51.000Z</time>
      </trkpt>
      <trkpt lat="49.39425" lon="1.48895">
        <ele>151.98162841797</ele>
        <time>2017-07-02T09:13:09.000Z</time>
      </trkpt>
      <trkpt lat="49.39425" lon="1.48893">
        <ele>151.96733093262</ele>
        <time>2017-07-02T09:13:11.000Z</time>
      </trkpt>
      <trkpt lat="49.39425" lon="1.48888">
        <ele>151.94653320312</ele>
        <time>2017-07-02T09:13:14.000Z</time>
      </trkpt>
      <trkpt lat="49.39424" lon="1.48885">
        <ele>151.9264831543</ele>
        <time>2017-07-02T09:13:16.000Z</time>
      </trkpt>
      <trkpt lat="49.39421" lon="1.4888">
        <ele>151.91271972656</ele>
        <time>2017-07-02T09:13:19.000Z</time>
      </trkpt>
      <trkpt lat="49.39419" lon="1.48876">
        <ele>151.91319274902</ele>
        <time>2017-07-02T09:13:22.000Z</time>
      </trkpt>
      <trkpt lat="49.39418" lon="1.48873">
        <ele>151.92263793945</ele>
        <time>2017-07-02T09:13:24.000Z</time>
      </trkpt>
      <trkpt lat="49.39417" lon="1.48869">
        <ele>151.9446105957</ele>
        <time>2017-07-02T09:13:27.000Z</time>
      </trkpt>
      <trkpt lat="49.39417" lon="1.48864">
        <ele>151.96713256836</ele>
        <time>2017-07-02T09:13:30.000Z</time>
      </trkpt>
      <trkpt lat="49.39416" lon="1.48859">
        <ele>151.98518371582</ele>
        <time>2017-07-02T09:13:33.000Z</time>
      </trkpt>
      <trkpt lat="49.39417" lon="1.48853">
        <ele>151.99382019043</ele>
        <time>2017-07-02T09:13:36.000Z</time>
      </trkpt>
      <trkpt lat="49.3942" lon="1.48848">
        <ele>151.96994018555</ele>
        <time>2017-07-02T09:13:39.000Z</time>
      </trkpt>
      <trkpt lat="49.39421" lon="1.48843">
        <ele>151.9250793457</ele>
        <time>2017-07-02T09:13:42.000Z</time>
      </trkpt>
      <trkpt lat="49.39422" lon="1.48839">
        <ele>151.86811828613</ele>
        <time>2017-07-02T09:13:44.000Z</time>
      </trkpt>
      <trkpt lat="49.39422" lon="1.48837">
        <ele>151.8045501709</ele>
        <time>2017-07-02T09:13:47.000Z</time>
      </trkpt>
      <trkpt lat="49.39421" lon="1.48836">
        <ele>151.75201416016</ele>
        <time>2017-07-02T09:13:50.000Z</time>
      </trkpt>
      <trkpt lat="49.3942" lon="1.48834">
        <ele>151.74476623535</ele>
        <time>2017-07-02T09:13:55.000Z</time>
      </trkpt>
      <trkpt lat="49.3942" lon="1.4883">
        <ele>151.76940917969</ele>
        <time>2017-07-02T09:13:57.000Z</time>
      </trkpt>
      <trkpt lat="49.39418" lon="1.4882">
        <ele>151.8674621582</ele>
        <time>2017-07-02T09:14:00.000Z</time>
      </trkpt>
      <trkpt lat="49.39417" lon="1.48811">
        <ele>152.03509521484</ele>
        <time>2017-07-02T09:14:03.000Z</time>
      </trkpt>
      <trkpt lat="49.39416" lon="1.48806">
        <ele>152.22317504883</ele>
        <time>2017-07-02T09:14:05.000Z</time>
      </trkpt>
      <trkpt lat="49.39417" lon="1.48797">
        <ele>152.43620300293</ele>
        <time>2017-07-02T09:14:08.000Z</time>
      </trkpt>
      <trkpt lat="49.39417" lon="1.4879">
        <ele>152.66142272949</ele>
        <time>2017-07-02T09:14:10.000Z</time>
      </trkpt>
      <trkpt lat="49.39416" lon="1.48783">
        <ele>152.86248779297</ele>
        <time>2017-07-02T09:14:12.000Z</time>
      </trkpt>
      <trkpt lat="49.39415" lon="1.48774">
        <ele>153.04447937012</ele>
        <time>2017-07-02T09:14:15.000Z</time>
      </trkpt>
      <trkpt lat="49.39413" lon="1.48768">
        <ele>153.22549438477</ele>
        <time>2017-07-02T09:14:17.000Z</time>
      </trkpt>
      <trkpt lat="49.39413" lon="1.48762">
        <ele>153.39111328125</ele>
        <time>2017-07-02T09:14:19.000Z</time>
      </trkpt>
      <trkpt lat="49.39411" lon="1.48753">
        <ele>153.57278442383</ele>
        <time>2017-07-02T09:14:22.000Z</time>
      </trkpt>
      <trkpt lat="49.39411" lon="1.48744">
        <ele>153.75900268555</ele>
        <time>2017-07-02T09:14:25.000Z</time>
      </trkpt>
      <trkpt lat="49.39411" lon="1.48738">
        <ele>153.92808532715</ele>
        <time>2017-07-02T09:14:27.000Z</time>
      </trkpt>
      <trkpt lat="49.39412" lon="1.48732">
        <ele>154.10208129883</ele>
        <time>2017-07-02T09:14:30.000Z</time>
      </trkpt>
      <trkpt lat="49.39415" lon="1.48726">
        <ele>154.27487182617</ele>
        <time>2017-07-02T09:14:33.000Z</time>
      </trkpt>
      <trkpt lat="49.39415" lon="1.48718">
        <ele>154.44226074219</ele>
        <time>2017-07-02T09:14:36.000Z</time>
      </trkpt>
      <trkpt lat="49.39415" lon="1.48714">
        <ele>154.58819580078</ele>
        <time>2017-07-02T09:14:38.000Z</time>
      </trkpt>
      <trkpt lat="49.39415" lon="1.48707">
        <ele>154.73858642578</ele>
        <time>2017-07-02T09:14:41.000Z</time>
      </trkpt>
      <trkpt lat="49.39417" lon="1.48704">
        <ele>154.87231445312</ele>
        <time>2017-07-02T09:14:43.000Z</time>
      </trkpt>
      <trkpt lat="49.39418" lon="1.48699">
        <ele>154.99615478516</ele>
        <time>2017-07-02T09:14:45.000Z</time>
      </trkpt>
      <trkpt lat="49.3942" lon="1.48689">
        <ele>155.12080383301</ele>
        <time>2017-07-02T09:14:48.000Z</time>
      </trkpt>
      <trkpt lat="49.3942" lon="1.48682">
        <ele>155.2624206543</ele>
        <time>2017-07-02T09:14:50.000Z</time>
      </trkpt>
      <trkpt lat="49.39417" lon="1.48666">
        <ele>155.45967102051</ele>
        <time>2017-07-02T09:14:53.000Z</time>
      </trkpt>
      <trkpt lat="49.39414" lon="1.4865">
        <ele>155.79257202148</ele>
        <time>2017-07-02T09:14:56.000Z</time>
      </trkpt>
      <trkpt lat="49.39412" lon="1.48641">
        <ele>156.19345092773</ele>
        <time>2017-07-02T09:14:58.000Z</time>
      </trkpt>
      <trkpt lat="49.39409" lon="1.48626">
        <ele>156.69404602051</ele>
        <time>2017-07-02T09:15:01.000Z</time>
      </trkpt>
      <trkpt lat="49.39404" lon="1.48609">
        <ele>157.30569458008</ele>
        <time>2017-07-02T09:15:04.000Z</time>
      </trkpt>
      <trkpt lat="49.39401" lon="1.48598">
        <ele>157.92819213867</ele>
        <time>2017-07-02T09:15:06.000Z</time>
      </trkpt>
      <trkpt lat="49.39399" lon="1.4858">
        <ele>158.54995727539</ele>
        <time>2017-07-02T09:15:09.000Z</time>
      </trkpt>
      <trkpt lat="49.39396" lon="1.48561">
        <ele>159.20704650879</ele>
        <time>2017-07-02T09:15:12.000Z</time>
      </trkpt>
      <trkpt lat="49.39394" lon="1.48548">
        <ele>159.8039855957</ele>
        <time>2017-07-02T09:15:14.000Z</time>
      </trkpt>
      <trkpt lat="49.39392" lon="1.48529">
        <ele>160.3656463623</ele>
        <time>2017-07-02T09:15:17.000Z</time>
      </trkpt>
      <trkpt lat="49.39389" lon="1.48509">
        <ele>160.9499206543</ele>
        <time>2017-07-02T09:15:20.000Z</time>
      </trkpt>
      <trkpt lat="49.39387" lon="1.48495">
        <ele>161.44711303711</ele>
        <time>2017-07-02T09:15:22.000Z</time>
      </trkpt>
      <trkpt lat="49.39384" lon="1.48476">
        <ele>161.8606262207</ele>
        <time>2017-07-02T09:15:25.000Z</time>
      </trkpt>
      <trkpt lat="49.39381" lon="1.48464">
        <ele>162.21667480469</ele>
        <time>2017-07-02T09:15:27.000Z</time>
      </trkpt>
      <trkpt lat="49.3938" lon="1.48452">
        <ele>162.47682189941</ele>
        <time>2017-07-02T09:15:29.000Z</time>
      </trkpt>
      <trkpt lat="49.39376" lon="1.48441">
        <ele>162.62203979492</ele>
        <time>2017-07-02T09:15:31.000Z</time>
      </trkpt>
      <trkpt lat="49.39373" lon="1.4843">
        <ele>162.69828796387</ele>
        <time>2017-07-02T09:15:33.000Z</time>
      </trkpt>
      <trkpt lat="49.39368" lon="1.48413">
        <ele>162.69876098633</ele>
        <time>2017-07-02T09:15:36.000Z</time>
      </trkpt>
      <trkpt lat="49.39363" lon="1.48395">
        <ele>162.52836608887</ele>
        <time>2017-07-02T09:15:39.000Z</time>
      </trkpt>
      <trkpt lat="49.39359" lon="1.48381">
        <ele>162.22787475586</ele>
        <time>2017-07-02T09:15:41.000Z</time>
      </trkpt>
      <trkpt lat="49.39352" lon="1.48363">
        <ele>161.76429748535</ele>
        <time>2017-07-02T09:15:44.000Z</time>
      </trkpt>
      <trkpt lat="49.39349" lon="1.4835">
        <ele>161.2124786377</ele>
        <time>2017-07-02T09:15:46.000Z</time>
      </trkpt>
      <trkpt lat="49.39344" lon="1.4834">
        <ele>160.6111907959</ele>
        <time>2017-07-02T09:15:48.000Z</time>
      </trkpt>
      <trkpt lat="49.39336" lon="1.48327">
        <ele>159.92761230469</ele>
        <time>2017-07-02T09:15:51.000Z</time>
      </trkpt>
      <trkpt lat="49.39331" lon="1.48318">
        <ele>159.13983154297</ele>
        <time>2017-07-02T09:15:53.000Z</time>
      </trkpt>
      <trkpt lat="49.39327" lon="1.48311">
        <ele>158.33143615723</ele>
        <time>2017-07-02T09:15:55.000Z</time>
      </trkpt>
      <trkpt lat="49.39321" lon="1.48298">
        <ele>157.32518005371</ele>
        <time>2017-07-02T09:15:58.000Z</time>
      </trkpt>
      <trkpt lat="49.39318" lon="1.4829">
        <ele>156.23544311523</ele>
        <time>2017-07-02T09:16:00.000Z</time>
      </trkpt>
      <trkpt lat="49.39314" lon="1.48282">
        <ele>155.19859313965</ele>
        <time>2017-07-02T09:16:02.000Z</time>
      </trkpt>
      <trkpt lat="49.39312" lon="1.48275">
        <ele>154.25732421875</ele>
        <time>2017-07-02T09:16:04.000Z</time>
      </trkpt>
      <trkpt lat="49.39306" lon="1.48263">
        <ele>153.26425170898</ele>
        <time>2017-07-02T09:16:07.000Z</time>
      </trkpt>
      <trkpt lat="49.39299" lon="1.48253">
        <ele>152.39834594727</ele>
        <time>2017-07-02T09:16:09.000Z</time>
      </trkpt>
      <trkpt lat="49.39285" lon="1.48236">
        <ele>151.68719482422</ele>
        <time>2017-07-02T09:16:12.000Z</time>
      </trkpt>
      <trkpt lat="49.39276" lon="1.48232">
        <ele>151.18710327148</ele>
        <time>2017-07-02T09:16:14.000Z</time>
      </trkpt>
      <trkpt lat="49.39265" lon="1.48234">
        <ele>150.84980773926</ele>
        <time>2017-07-02T09:16:17.000Z</time>
      </trkpt>
      <trkpt lat="49.39259" lon="1.48236">
        <ele>150.7600402832</ele>
        <time>2017-07-02T09:16:19.000Z</time>
      </trkpt>
      <trkpt lat="49.39251" lon="1.48237">
        <ele>150.86064147949</ele>
        <time>2017-07-02T09:16:22.000Z</time>
      </trkpt>
      <trkpt lat="49.39245" lon="1.48238">
        <ele>151.01950073242</ele>
        <time>2017-07-02T09:16:24.000Z</time>
      </trkpt>
      <trkpt lat="49.39238" lon="1.4824">
        <ele>151.18923950195</ele>
        <time>2017-07-02T09:16:27.000Z</time>
      </trkpt>
      <trkpt lat="49.39231" lon="1.48245">
        <ele>151.35293579102</ele>
        <time>2017-07-02T09:16:30.000Z</time>
      </trkpt>
      <trkpt lat="49.39226" lon="1.48246">
        <ele>151.53414916992</ele>
        <time>2017-07-02T09:16:32.000Z</time>
      </trkpt>
      <trkpt lat="49.39219" lon="1.48248">
        <ele>151.73739624023</ele>
        <time>2017-07-02T09:16:35.000Z</time>
      </trkpt>
      <trkpt lat="49.39214" lon="1.4825">
        <ele>151.92825317383</ele>
        <time>2017-07-02T09:16:37.000Z</time>
      </trkpt>
      <trkpt lat="49.39206" lon="1.48251">
        <ele>152.14236450195</ele>
        <time>2017-07-02T09:16:40.000Z</time>
      </trkpt>
      <trkpt lat="49.39201" lon="1.48252">
        <ele>152.36596679688</ele>
        <time>2017-07-02T09:16:42.000Z</time>
      </trkpt>
      <trkpt lat="49.39197" lon="1.48254">
        <ele>152.59963989258</ele>
        <time>2017-07-02T09:16:44.000Z</time>
      </trkpt>
      <trkpt lat="49.3919" lon="1.48258">
        <ele>152.86178588867</ele>
        <time>2017-07-02T09:16:47.000Z</time>
      </trkpt>
      <trkpt lat="49.39183" lon="1.48261">
        <ele>153.1728515625</ele>
        <time>2017-07-02T09:16:50.000Z</time>
      </trkpt>
      <trkpt lat="49.39178" lon="1.48263">
        <ele>153.46165466309</ele>
        <time>2017-07-02T09:16:52.000Z</time>
      </trkpt>
      <trkpt lat="49.39174" lon="1.48265">
        <ele>153.75205993652</ele>
        <time>2017-07-02T09:16:54.000Z</time>
      </trkpt>
      <trkpt lat="49.39166" lon="1.48268">
        <ele>154.0703125</ele>
        <time>2017-07-02T09:16:57.000Z</time>
      </trkpt>
      <trkpt lat="49.39158" lon="1.48272">
        <ele>154.39497375488</ele>
        <time>2017-07-02T09:17:00.000Z</time>
      </trkpt>
      <trkpt lat="49.39154" lon="1.48275">
        <ele>154.69256591797</ele>
        <time>2017-07-02T09:17:02.000Z</time>
      </trkpt>
      <trkpt lat="49.39146" lon="1.48279">
        <ele>155.01789855957</ele>
        <time>2017-07-02T09:17:05.000Z</time>
      </trkpt>
      <trkpt lat="49.39139" lon="1.48284">
        <ele>155.3734588623</ele>
        <time>2017-07-02T09:17:08.000Z</time>
      </trkpt>
      <trkpt lat="49.39131" lon="1.48288">
        <ele>155.72894287109</ele>
        <time>2017-07-02T09:17:11.000Z</time>
      </trkpt>
      <trkpt lat="49.39126" lon="1.4829">
        <ele>156.04431152344</ele>
        <time>2017-07-02T09:17:13.000Z</time>
      </trkpt>
      <trkpt lat="49.39118" lon="1.48294">
        <ele>156.38464355469</ele>
        <time>2017-07-02T09:17:16.000Z</time>
      </trkpt>
      <trkpt lat="49.3911" lon="1.48298">
        <ele>156.72392272949</ele>
        <time>2017-07-02T09:17:19.000Z</time>
      </trkpt>
      <trkpt lat="49.39104" lon="1.483">
        <ele>157.03018188477</ele>
        <time>2017-07-02T09:17:21.000Z</time>
      </trkpt>
      <trkpt lat="49.39095" lon="1.48303">
        <ele>157.32400512695</ele>
        <time>2017-07-02T09:17:24.000Z</time>
      </trkpt>
      <trkpt lat="49.39087" lon="1.48306">
        <ele>157.64152526855</ele>
        <time>2017-07-02T09:17:27.000Z</time>
      </trkpt>
      <trkpt lat="49.39082" lon="1.48308">
        <ele>157.92167663574</ele>
        <time>2017-07-02T09:17:29.000Z</time>
      </trkpt>
      <trkpt lat="49.39072" lon="1.48311">
        <ele>158.19583129883</ele>
        <time>2017-07-02T09:17:32.000Z</time>
      </trkpt>
      <trkpt lat="49.39067" lon="1.48313">
        <ele>158.46484375</ele>
        <time>2017-07-02T09:17:34.000Z</time>
      </trkpt>
      <trkpt lat="49.39057" lon="1.48316">
        <ele>158.73706054688</ele>
        <time>2017-07-02T09:17:37.000Z</time>
      </trkpt>
      <trkpt lat="49.39047" lon="1.4832">
        <ele>159.0094909668</ele>
        <time>2017-07-02T09:17:40.000Z</time>
      </trkpt>
      <trkpt lat="49.39037" lon="1.48323">
        <ele>159.30839538574</ele>
        <time>2017-07-02T09:17:43.000Z</time>
      </trkpt>
      <trkpt lat="49.3903" lon="1.48325">
        <ele>159.58406066895</ele>
        <time>2017-07-02T09:17:45.000Z</time>
      </trkpt>
      <trkpt lat="49.39021" lon="1.48327">
        <ele>159.87387084961</ele>
        <time>2017-07-02T09:17:48.000Z</time>
      </trkpt>
      <trkpt lat="49.39011" lon="1.4833">
        <ele>160.1579284668</ele>
        <time>2017-07-02T09:17:51.000Z</time>
      </trkpt>
      <trkpt lat="49.39002" lon="1.48333">
        <ele>160.42451477051</ele>
        <time>2017-07-02T09:17:54.000Z</time>
      </trkpt>
      <trkpt lat="49.38993" lon="1.48335">
        <ele>160.63569641113</ele>
        <time>2017-07-02T09:17:57.000Z</time>
      </trkpt>
      <trkpt lat="49.38986" lon="1.48336">
        <ele>160.80146789551</ele>
        <time>2017-07-02T09:17:59.000Z</time>
      </trkpt>
      <trkpt lat="49.38976" lon="1.48339">
        <ele>160.91032409668</ele>
        <time>2017-07-02T09:18:02.000Z</time>
      </trkpt>
      <trkpt lat="49.3897" lon="1.48341">
        <ele>160.95858764648</ele>
        <time>2017-07-02T09:18:04.000Z</time>
      </trkpt>
      <trkpt lat="49.3896" lon="1.48345">
        <ele>160.95573425293</ele>
        <time>2017-07-02T09:18:07.000Z</time>
      </trkpt>
      <trkpt lat="49.38952" lon="1.48346">
        <ele>160.9455871582</ele>
        <time>2017-07-02T09:18:09.000Z</time>
      </trkpt>
      <trkpt lat="49.38945" lon="1.48347">
        <ele>160.93954467773</ele>
        <time>2017-07-02T09:18:11.000Z</time>
      </trkpt>
      <trkpt lat="49.38935" lon="1.48351">
        <ele>160.9404296875</ele>
        <time>2017-07-02T09:18:14.000Z</time>
      </trkpt>
      <trkpt lat="49.38924" lon="1.48354">
        <ele>160.94830322266</ele>
        <time>2017-07-02T09:18:17.000Z</time>
      </trkpt>
      <trkpt lat="49.38916" lon="1.48356">
        <ele>160.96278381348</ele>
        <time>2017-07-02T09:18:19.000Z</time>
      </trkpt>
      <trkpt lat="49.38905" lon="1.4836">
        <ele>161.00256347656</ele>
        <time>2017-07-02T09:18:22.000Z</time>
      </trkpt>
      <trkpt lat="49.38894" lon="1.48362">
        <ele>161.06753540039</ele>
        <time>2017-07-02T09:18:25.000Z</time>
      </trkpt>
      <trkpt lat="49.38887" lon="1.48364">
        <ele>161.14846801758</ele>
        <time>2017-07-02T09:18:27.000Z</time>
      </trkpt>
      <trkpt lat="49.38876" lon="1.48367">
        <ele>161.2509765625</ele>
        <time>2017-07-02T09:18:30.000Z</time>
      </trkpt>
      <trkpt lat="49.38869" lon="1.48369">
        <ele>161.365234375</ele>
        <time>2017-07-02T09:18:32.000Z</time>
      </trkpt>
      <trkpt lat="49.38858" lon="1.48372">
        <ele>161.4794921875</ele>
        <time>2017-07-02T09:18:35.000Z</time>
      </trkpt>
      <trkpt lat="49.3885" lon="1.48374">
        <ele>161.5849609375</ele>
        <time>2017-07-02T09:18:37.000Z</time>
      </trkpt>
      <trkpt lat="49.38839" lon="1.48377">
        <ele>161.7001953125</ele>
        <time>2017-07-02T09:18:40.000Z</time>
      </trkpt>
      <trkpt lat="49.38831" lon="1.48379">
        <ele>161.81159973145</ele>
        <time>2017-07-02T09:18:42.000Z</time>
      </trkpt>
      <trkpt lat="49.38819" lon="1.48382">
        <ele>161.94485473633</ele>
        <time>2017-07-02T09:18:45.000Z</time>
      </trkpt>
      <trkpt lat="49.3881" lon="1.48385">
        <ele>162.08029174805</ele>
        <time>2017-07-02T09:18:47.000Z</time>
      </trkpt>
      <trkpt lat="49.38802" lon="1.48388">
        <ele>162.22268676758</ele>
        <time>2017-07-02T09:18:49.000Z</time>
      </trkpt>
      <trkpt lat="49.38789" lon="1.4839">
        <ele>162.37568664551</ele>
        <time>2017-07-02T09:18:52.000Z</time>
      </trkpt>
      <trkpt lat="49.3878" lon="1.48392">
        <ele>162.5313873291</ele>
        <time>2017-07-02T09:18:54.000Z</time>
      </trkpt>
      <trkpt lat="49.38771" lon="1.48394">
        <ele>162.67150878906</ele>
        <time>2017-07-02T09:18:56.000Z</time>
      </trkpt>
      <trkpt lat="49.38763" lon="1.48396">
        <ele>162.8069152832</ele>
        <time>2017-07-02T09:18:58.000Z</time>
      </trkpt>
      <trkpt lat="49.38749" lon="1.484">
        <ele>162.95164489746</ele>
        <time>2017-07-02T09:19:01.000Z</time>
      </trkpt>
      <trkpt lat="49.38741" lon="1.48402">
        <ele>163.08567810059</ele>
        <time>2017-07-02T09:19:03.000Z</time>
      </trkpt>
      <trkpt lat="49.38728" lon="1.48405">
        <ele>163.2463684082</ele>
        <time>2017-07-02T09:19:06.000Z</time>
      </trkpt>
      <trkpt lat="49.3872" lon="1.48407">
        <ele>163.4196472168</ele>
        <time>2017-07-02T09:19:08.000Z</time>
      </trkpt>
      <trkpt lat="49.38707" lon="1.4841">
        <ele>163.62417602539</ele>
        <time>2017-07-02T09:19:11.000Z</time>
      </trkpt>
      <trkpt lat="49.38699" lon="1.48412">
        <ele>163.82823181152</ele>
        <time>2017-07-02T09:19:13.000Z</time>
      </trkpt>
      <trkpt lat="49.38691" lon="1.48415">
        <ele>164.04054260254</ele>
        <time>2017-07-02T09:19:15.000Z</time>
      </trkpt>
      <trkpt lat="49.38678" lon="1.48418">
        <ele>164.25827026367</ele>
        <time>2017-07-02T09:19:18.000Z</time>
      </trkpt>
      <trkpt lat="49.38667" lon="1.4842">
        <ele>164.49325561523</ele>
        <time>2017-07-02T09:19:21.000Z</time>
      </trkpt>
      <trkpt lat="49.38656" lon="1.48423">
        <ele>164.72785949707</ele>
        <time>2017-07-02T09:19:24.000Z</time>
      </trkpt>
      <trkpt lat="49.38646" lon="1.48427">
        <ele>164.97979736328</ele>
        <time>2017-07-02T09:19:27.000Z</time>
      </trkpt>
      <trkpt lat="49.38635" lon="1.48428">
        <ele>165.244140625</ele>
        <time>2017-07-02T09:19:30.000Z</time>
      </trkpt>
      <trkpt lat="49.38629" lon="1.4843">
        <ele>165.482421875</ele>
        <time>2017-07-02T09:19:32.000Z</time>
      </trkpt>
      <trkpt lat="49.3862" lon="1.48432">
        <ele>165.7109375</ele>
        <time>2017-07-02T09:19:35.000Z</time>
      </trkpt>
      <trkpt lat="49.38613" lon="1.48433">
        <ele>165.916015625</ele>
        <time>2017-07-02T09:19:37.000Z</time>
      </trkpt>
      <trkpt lat="49.38606" lon="1.48434">
        <ele>166.103515625</ele>
        <time>2017-07-02T09:19:39.000Z</time>
      </trkpt>
      <trkpt lat="49.38596" lon="1.48438">
        <ele>166.294921875</ele>
        <time>2017-07-02T09:19:42.000Z</time>
      </trkpt>
      <trkpt lat="49.38586" lon="1.48441">
        <ele>166.501953125</ele>
        <time>2017-07-02T09:19:45.000Z</time>
      </trkpt>
      <trkpt lat="49.38576" lon="1.48444">
        <ele>166.73666381836</ele>
        <time>2017-07-02T09:19:48.000Z</time>
      </trkpt>
      <trkpt lat="49.38567" lon="1.48445">
        <ele>167.01547241211</ele>
        <time>2017-07-02T09:19:51.000Z</time>
      </trkpt>
      <trkpt lat="49.38557" lon="1.48447">
        <ele>167.34088134766</ele>
        <time>2017-07-02T09:19:54.000Z</time>
      </trkpt>
      <trkpt lat="49.38551" lon="1.48449">
        <ele>167.6643371582</ele>
        <time>2017-07-02T09:19:56.000Z</time>
      </trkpt>
      <trkpt lat="49.38543" lon="1.48451">
        <ele>168.00337219238</ele>
        <time>2017-07-02T09:19:58.000Z</time>
      </trkpt>
      <trkpt lat="49.38533" lon="1.48456">
        <ele>168.3649597168</ele>
        <time>2017-07-02T09:20:01.000Z</time>
      </trkpt>
      <trkpt lat="49.38523" lon="1.48461">
        <ele>168.74606323242</ele>
        <time>2017-07-02T09:20:04.000Z</time>
      </trkpt>
      <trkpt lat="49.38516" lon="1.48466">
        <ele>169.10795593262</ele>
        <time>2017-07-02T09:20:06.000Z</time>
      </trkpt>
      <trkpt lat="49.3851" lon="1.4847">
        <ele>169.48257446289</ele>
        <time>2017-07-02T09:20:08.000Z</time>
      </trkpt>
      <trkpt lat="49.38501" lon="1.48476">
        <ele>169.89126586914</ele>
        <time>2017-07-02T09:20:11.000Z</time>
      </trkpt>
      <trkpt lat="49.38494" lon="1.48481">
        <ele>170.22688293457</ele>
        <time>2017-07-02T09:20:13.000Z</time>
      </trkpt>
      <trkpt lat="49.38485" lon="1.48487">
        <ele>170.48526000977</ele>
        <time>2017-07-02T09:20:16.000Z</time>
      </trkpt>
      <trkpt lat="49.3848" lon="1.48491">
        <ele>170.69284057617</ele>
        <time>2017-07-02T09:20:18.000Z</time>
      </trkpt>
      <trkpt lat="49.3847" lon="1.48498">
        <ele>170.84951782227</ele>
        <time>2017-07-02T09:20:21.000Z</time>
      </trkpt>
      <trkpt lat="49.38461" lon="1.48505">
        <ele>170.89468383789</ele>
        <time>2017-07-02T09:20:24.000Z</time>
      </trkpt>
      <trkpt lat="49.38456" lon="1.4851">
        <ele>170.90319824219</ele>
        <time>2017-07-02T09:20:26.000Z</time>
      </trkpt>
      <trkpt lat="49.38447" lon="1.48516">
        <ele>170.87457275391</ele>
        <time>2017-07-02T09:20:29.000Z</time>
      </trkpt>
      <trkpt lat="49.3844" lon="1.48522">
        <ele>170.82398986816</ele>
        <time>2017-07-02T09:20:31.000Z</time>
      </trkpt>
      <trkpt lat="49.38427" lon="1.4853">
        <ele>170.74621582031</ele>
        <time>2017-07-02T09:20:34.000Z</time>
      </trkpt>
      <trkpt lat="49.38418" lon="1.48536">
        <ele>170.67575073242</ele>
        <time>2017-07-02T09:20:36.000Z</time>
      </trkpt>
      <trkpt lat="49.38408" lon="1.48544">
        <ele>170.59272766113</ele>
        <time>2017-07-02T09:20:38.000Z</time>
      </trkpt>
      <trkpt lat="49.38398" lon="1.48554">
        <ele>170.49020385742</ele>
        <time>2017-07-02T09:20:40.000Z</time>
      </trkpt>
      <trkpt lat="49.38383" lon="1.48567">
        <ele>170.32998657227</ele>
        <time>2017-07-02T09:20:43.000Z</time>
      </trkpt>
      <trkpt lat="49.38369" lon="1.48581">
        <ele>170.10525512695</ele>
        <time>2017-07-02T09:20:46.000Z</time>
      </trkpt>
      <trkpt lat="49.3836" lon="1.48591">
        <ele>169.83316040039</ele>
        <time>2017-07-02T09:20:48.000Z</time>
      </trkpt>
      <trkpt lat="49.38347" lon="1.48605">
        <ele>169.52388000488</ele>
        <time>2017-07-02T09:20:51.000Z</time>
      </trkpt>
      <trkpt lat="49.3834" lon="1.48614">
        <ele>169.21662902832</ele>
        <time>2017-07-02T09:20:53.000Z</time>
      </trkpt>
      <trkpt lat="49.38329" lon="1.48626">
        <ele>168.9647064209</ele>
        <time>2017-07-02T09:20:56.000Z</time>
      </trkpt>
      <trkpt lat="49.38322" lon="1.48634">
        <ele>168.80712890625</ele>
        <time>2017-07-02T09:20:58.000Z</time>
      </trkpt>
      <trkpt lat="49.38312" lon="1.48648">
        <ele>168.74247741699</ele>
        <time>2017-07-02T09:21:01.000Z</time>
      </trkpt>
      <trkpt lat="49.38302" lon="1.48663">
        <ele>168.79731750488</ele>
        <time>2017-07-02T09:21:04.000Z</time>
      </trkpt>
      <trkpt lat="49.38292" lon="1.48678">
        <ele>169.01187133789</ele>
        <time>2017-07-02T09:21:07.000Z</time>
      </trkpt>
      <trkpt lat="49.38286" lon="1.48685">
        <ele>169.33184814453</ele>
        <time>2017-07-02T09:21:09.000Z</time>
      </trkpt>
      <trkpt lat="49.38278" lon="1.48697">
        <ele>169.78610229492</ele>
        <time>2017-07-02T09:21:12.000Z</time>
      </trkpt>
      <trkpt lat="49.38272" lon="1.48705">
        <ele>170.32487487793</ele>
        <time>2017-07-02T09:21:14.000Z</time>
      </trkpt>
      <trkpt lat="49.38263" lon="1.48718">
        <ele>171.01354980469</ele>
        <time>2017-07-02T09:21:17.000Z</time>
      </trkpt>
      <trkpt lat="49.38256" lon="1.4873">
        <ele>171.78747558594</ele>
        <time>2017-07-02T09:21:20.000Z</time>
      </trkpt>
      <trkpt lat="49.38247" lon="1.48742">
        <ele>172.66680908203</ele>
        <time>2017-07-02T09:21:23.000Z</time>
      </trkpt>
      <trkpt lat="49.38242" lon="1.4875">
        <ele>173.45852661133</ele>
        <time>2017-07-02T09:21:25.000Z</time>
      </trkpt>
      <trkpt lat="49.38236" lon="1.48759">
        <ele>174.20724487305</ele>
        <time>2017-07-02T09:21:27.000Z</time>
      </trkpt>
      <trkpt lat="49.38231" lon="1.48767">
        <ele>174.83016967773</ele>
        <time>2017-07-02T09:21:29.000Z</time>
      </trkpt>
      <trkpt lat="49.38224" lon="1.4878">
        <ele>175.35250854492</ele>
        <time>2017-07-02T09:21:32.000Z</time>
      </trkpt>
      <trkpt lat="49.38218" lon="1.48788">
        <ele>175.73474121094</ele>
        <time>2017-07-02T09:21:34.000Z</time>
      </trkpt>
      <trkpt lat="49.3821" lon="1.48799">
        <ele>176.12562561035</ele>
        <time>2017-07-02T09:21:37.000Z</time>
      </trkpt>
      <trkpt lat="49.382" lon="1.48809">
        <ele>176.48168945312</ele>
        <time>2017-07-02T09:21:40.000Z</time>
      </trkpt>
      <trkpt lat="49.38192" lon="1.48822">
        <ele>176.82452392578</ele>
        <time>2017-07-02T09:21:43.000Z</time>
      </trkpt>
      <trkpt lat="49.38184" lon="1.48836">
        <ele>177.12414550781</ele>
        <time>2017-07-02T09:21:46.000Z</time>
      </trkpt>
      <trkpt lat="49.38178" lon="1.48845">
        <ele>177.42477416992</ele>
        <time>2017-07-02T09:21:48.000Z</time>
      </trkpt>
      <trkpt lat="49.38169" lon="1.48858">
        <ele>177.7551574707</ele>
        <time>2017-07-02T09:21:51.000Z</time>
      </trkpt>
      <trkpt lat="49.38163" lon="1.48867">
        <ele>178.10963439941</ele>
        <time>2017-07-02T09:21:53.000Z</time>
      </trkpt>
      <trkpt lat="49.38157" lon="1.48875">
        <ele>178.45745849609</ele>
        <time>2017-07-02T09:21:55.000Z</time>
      </trkpt>
      <trkpt lat="49.38152" lon="1.48883">
        <ele>178.78921508789</ele>
        <time>2017-07-02T09:21:57.000Z</time>
      </trkpt>
      <trkpt lat="49.38145" lon="1.48892">
        <ele>179.11151123047</ele>
        <time>2017-07-02T09:22:00.000Z</time>
      </trkpt>
      <trkpt lat="49.3814" lon="1.48905">
        <ele>179.42585754395</ele>
        <time>2017-07-02T09:22:03.000Z</time>
      </trkpt>
      <trkpt lat="49.38132" lon="1.48918">
        <ele>179.74418640137</ele>
        <time>2017-07-02T09:22:06.000Z</time>
      </trkpt>
      <trkpt lat="49.38127" lon="1.48927">
        <ele>180.06246948242</ele>
        <time>2017-07-02T09:22:08.000Z</time>
      </trkpt>
      <trkpt lat="49.38118" lon="1.48938">
        <ele>180.42063903809</ele>
        <time>2017-07-02T09:22:11.000Z</time>
      </trkpt>
      <trkpt lat="49.38111" lon="1.48946">
        <ele>180.8113861084</ele>
        <time>2017-07-02T09:22:13.000Z</time>
      </trkpt>
      <trkpt lat="49.38104" lon="1.48954">
        <ele>181.20402526855</ele>
        <time>2017-07-02T09:22:15.000Z</time>
      </trkpt>
      <trkpt lat="49.38098" lon="1.48963">
        <ele>181.65142822266</ele>
        <time>2017-07-02T09:22:17.000Z</time>
      </trkpt>
      <trkpt lat="49.3809" lon="1.48978">
        <ele>182.29403686523</ele>
        <time>2017-07-02T09:22:20.000Z</time>
      </trkpt>
      <trkpt lat="49.3808" lon="1.48989">
        <ele>183.01751708984</ele>
        <time>2017-07-02T09:22:23.000Z</time>
      </trkpt>
      <trkpt lat="49.38074" lon="1.48998">
        <ele>183.75785827637</ele>
        <time>2017-07-02T09:22:25.000Z</time>
      </trkpt>
      <trkpt lat="49.38067" lon="1.49015">
        <ele>184.6354675293</ele>
        <time>2017-07-02T09:22:28.000Z</time>
      </trkpt>
      <trkpt lat="49.3806" lon="1.49032">
        <ele>185.61233520508</ele>
        <time>2017-07-02T09:22:31.000Z</time>
      </trkpt>
      <trkpt lat="49.38055" lon="1.49041">
        <ele>186.43301391602</ele>
        <time>2017-07-02T09:22:33.000Z</time>
      </trkpt>
      <trkpt lat="49.38047" lon="1.49055">
        <ele>187.24340820312</ele>
        <time>2017-07-02T09:22:36.000Z</time>
      </trkpt>
      <trkpt lat="49.38043" lon="1.49068">
        <ele>188.1205291748</ele>
        <time>2017-07-02T09:22:38.000Z</time>
      </trkpt>
      <trkpt lat="49.38038" lon="1.49082">
        <ele>188.96025085449</ele>
        <time>2017-07-02T09:22:40.000Z</time>
      </trkpt>
      <trkpt lat="49.38034" lon="1.49099">
        <ele>189.6770324707</ele>
        <time>2017-07-02T09:22:42.000Z</time>
      </trkpt>
      <trkpt lat="49.38031" lon="1.49114">
        <ele>190.40542602539</ele>
        <time>2017-07-02T09:22:44.000Z</time>
      </trkpt>
      <trkpt lat="49.38026" lon="1.49139">
        <ele>191.15498352051</ele>
        <time>2017-07-02T09:22:47.000Z</time>
      </trkpt>
      <trkpt lat="49.3802" lon="1.49164">
        <ele>191.94369506836</ele>
        <time>2017-07-02T09:22:50.000Z</time>
      </trkpt>
      <trkpt lat="49.38015" lon="1.49185">
        <ele>192.42085266113</ele>
        <time>2017-07-02T09:22:52.000Z</time>
      </trkpt>
      <trkpt lat="49.38008" lon="1.49218">
        <ele>192.5775604248</ele>
        <time>2017-07-02T09:22:55.000Z</time>
      </trkpt>
      <trkpt lat="49.38003" lon="1.4924">
        <ele>192.49290466309</ele>
        <time>2017-07-02T09:22:57.000Z</time>
      </trkpt>
      <trkpt lat="49.37997" lon="1.49262">
        <ele>192.17295837402</ele>
        <time>2017-07-02T09:22:59.000Z</time>
      </trkpt>
      <trkpt lat="49.37988" lon="1.49293">
        <ele>191.6499786377</ele>
        <time>2017-07-02T09:23:02.000Z</time>
      </trkpt>
      <trkpt lat="49.37981" lon="1.49325">
        <ele>191.2444152832</ele>
        <time>2017-07-02T09:23:05.000Z</time>
      </trkpt>
      <trkpt lat="49.37975" lon="1.49345">
        <ele>191.01138305664</ele>
        <time>2017-07-02T09:23:07.000Z</time>
      </trkpt>
      <trkpt lat="49.37966" lon="1.49374">
        <ele>190.77656555176</ele>
        <time>2017-07-02T09:23:10.000Z</time>
      </trkpt>
      <trkpt lat="49.37961" lon="1.49398">
        <ele>190.47232055664</ele>
        <time>2017-07-02T09:23:12.000Z</time>
      </trkpt>
      <trkpt lat="49.37955" lon="1.49418">
        <ele>190.05760192871</ele>
        <time>2017-07-02T09:23:14.000Z</time>
      </trkpt>
      <trkpt lat="49.37948" lon="1.49449">
        <ele>189.63977050781</ele>
        <time>2017-07-02T09:23:17.000Z</time>
      </trkpt>
      <trkpt lat="49.37936" lon="1.49473">
        <ele>189.20697021484</ele>
        <time>2017-07-02T09:23:20.000Z</time>
      </trkpt>
      <trkpt lat="49.37924" lon="1.49477">
        <ele>188.83413696289</ele>
        <time>2017-07-02T09:23:22.000Z</time>
      </trkpt>
      <trkpt lat="49.37915" lon="1.49467">
        <ele>188.51008605957</ele>
        <time>2017-07-02T09:23:24.000Z</time>
      </trkpt>
      <trkpt lat="49.37902" lon="1.49463">
        <ele>188.12393188477</ele>
        <time>2017-07-02T09:23:26.000Z</time>
      </trkpt>
      <trkpt lat="49.37884" lon="1.49464">
        <ele>187.4839630127</ele>
        <time>2017-07-02T09:23:30.000Z</time>
      </trkpt>
      <trkpt lat="49.37867" lon="1.49463">
        <ele>186.6535949707</ele>
        <time>2017-07-02T09:23:32.000Z</time>
      </trkpt>
      <trkpt lat="49.37847" lon="1.49465">
        <ele>185.63162231445</ele>
        <time>2017-07-02T09:23:35.000Z</time>
      </trkpt>
      <trkpt lat="49.37833" lon="1.49468">
        <ele>184.49989318848</ele>
        <time>2017-07-02T09:23:37.000Z</time>
      </trkpt>
      <trkpt lat="49.37822" lon="1.49472">
        <ele>183.37893676758</ele>
        <time>2017-07-02T09:23:39.000Z</time>
      </trkpt>
      <trkpt lat="49.37805" lon="1.49474">
        <ele>182.23023986816</ele>
        <time>2017-07-02T09:23:42.000Z</time>
      </trkpt>
      <trkpt lat="49.3778" lon="1.49482">
        <ele>180.9482421875</ele>
        <time>2017-07-02T09:23:45.000Z</time>
      </trkpt>
      <trkpt lat="49.37751" lon="1.49497">
        <ele>179.52435302734</ele>
        <time>2017-07-02T09:23:48.000Z</time>
      </trkpt>
      <trkpt lat="49.3773" lon="1.49504">
        <ele>178.0319519043</ele>
        <time>2017-07-02T09:23:51.000Z</time>
      </trkpt>
      <trkpt lat="49.37711" lon="1.49512">
        <ele>176.4748840332</ele>
        <time>2017-07-02T09:23:54.000Z</time>
      </trkpt>
      <trkpt lat="49.3769" lon="1.49518">
        <ele>174.94198608398</ele>
        <time>2017-07-02T09:23:57.000Z</time>
      </trkpt>
      <trkpt lat="49.37672" lon="1.49523">
        <ele>173.57925415039</ele>
        <time>2017-07-02T09:23:59.000Z</time>
      </trkpt>
      <trkpt lat="49.37648" lon="1.49515">
        <ele>171.86711120605</ele>
        <time>2017-07-02T09:24:02.000Z</time>
      </trkpt>
      <trkpt lat="49.37624" lon="1.49518">
        <ele>169.61100769043</ele>
        <time>2017-07-02T09:24:05.000Z</time>
      </trkpt>
      <trkpt lat="49.37592" lon="1.49526">
        <ele>166.47940063477</ele>
        <time>2017-07-02T09:24:08.000Z</time>
      </trkpt>
      <trkpt lat="49.37577" lon="1.49531">
        <ele>163.01998901367</ele>
        <time>2017-07-02T09:24:11.000Z</time>
      </trkpt>
      <trkpt lat="49.37566" lon="1.49534">
        <ele>159.30242919922</ele>
        <time>2017-07-02T09:24:13.000Z</time>
      </trkpt>
      <trkpt lat="49.37551" lon="1.49545">
        <ele>155.65390014648</ele>
        <time>2017-07-02T09:24:15.000Z</time>
      </trkpt>
      <trkpt lat="49.37537" lon="1.49554">
        <ele>152.09881591797</ele>
        <time>2017-07-02T09:24:18.000Z</time>
      </trkpt>
      <trkpt lat="49.37526" lon="1.49567">
        <ele>148.9937286377</ele>
        <time>2017-07-02T09:24:20.000Z</time>
      </trkpt>
      <trkpt lat="49.37505" lon="1.49583">
        <ele>145.26106262207</ele>
        <time>2017-07-02T09:24:23.000Z</time>
      </trkpt>
      <trkpt lat="49.37482" lon="1.49605">
        <ele>141.62971496582</ele>
        <time>2017-07-02T09:24:26.000Z</time>
      </trkpt>
      <trkpt lat="49.37468" lon="1.49618">
        <ele>138.43032836914</ele>
        <time>2017-07-02T09:24:28.000Z</time>
      </trkpt>
      <trkpt lat="49.37441" lon="1.49643">
        <ele>135.08804321289</ele>
        <time>2017-07-02T09:24:31.000Z</time>
      </trkpt>
      <trkpt lat="49.37419" lon="1.49653">
        <ele>131.5601348877</ele>
        <time>2017-07-02T09:24:33.000Z</time>
      </trkpt>
      <trkpt lat="49.37416" lon="1.49661">
        <ele>129.00552368164</ele>
        <time>2017-07-02T09:24:35.000Z</time>
      </trkpt>
      <trkpt lat="49.37413" lon="1.49674">
        <ele>126.58882904053</ele>
        <time>2017-07-02T09:24:38.000Z</time>
      </trkpt>
      <trkpt lat="49.37401" lon="1.49694">
        <ele>124.05769348145</ele>
        <time>2017-07-02T09:24:41.000Z</time>
      </trkpt>
      <trkpt lat="49.37373" lon="1.49738">
        <ele>121.46128845215</ele>
        <time>2017-07-02T09:24:45.000Z</time>
      </trkpt>
      <trkpt lat="49.37347" lon="1.49763">
        <ele>118.9803237915</ele>
        <time>2017-07-02T09:24:48.000Z</time>
      </trkpt>
      <trkpt lat="49.37331" lon="1.4977">
        <ele>116.33660888672</ele>
        <time>2017-07-02T09:24:50.000Z</time>
      </trkpt>
      <trkpt lat="49.37316" lon="1.49782">
        <ele>113.77815246582</ele>
        <time>2017-07-02T09:24:52.000Z</time>
      </trkpt>
      <trkpt lat="49.37301" lon="1.49789">
        <ele>111.43084716797</ele>
        <time>2017-07-02T09:24:55.000Z</time>
      </trkpt>
      <trkpt lat="49.3729" lon="1.49795">
        <ele>109.871925354</ele>
        <time>2017-07-02T09:24:57.000Z</time>
      </trkpt>
      <trkpt lat="49.37281" lon="1.49803">
        <ele>108.93752288818</ele>
        <time>2017-07-02T09:24:59.000Z</time>
      </trkpt>
      <trkpt lat="49.37277" lon="1.49814">
        <ele>108.39611816406</ele>
        <time>2017-07-02T09:25:02.000Z</time>
      </trkpt>
      <trkpt lat="49.37272" lon="1.49819">
        <ele>107.94095611572</ele>
        <time>2017-07-02T09:25:04.000Z</time>
      </trkpt>
      <trkpt lat="49.37263" lon="1.49829">
        <ele>107.55039215088</ele>
        <time>2017-07-02T09:25:07.000Z</time>
      </trkpt>
      <trkpt lat="49.37257" lon="1.49831">
        <ele>107.21291351318</ele>
        <time>2017-07-02T09:25:09.000Z</time>
      </trkpt>
      <trkpt lat="49.37251" lon="1.49832">
        <ele>106.8818359375</ele>
        <time>2017-07-02T09:25:11.000Z</time>
      </trkpt>
      <trkpt lat="49.37246" lon="1.49834">
        <ele>106.69987487793</ele>
        <time>2017-07-02T09:25:13.000Z</time>
      </trkpt>
      <trkpt lat="49.37243" lon="1.4984">
        <ele>106.67276763916</ele>
        <time>2017-07-02T09:25:15.000Z</time>
      </trkpt>
      <trkpt lat="49.37242" lon="1.49844">
        <ele>106.77946472168</ele>
        <time>2017-07-02T09:25:17.000Z</time>
      </trkpt>
      <trkpt lat="49.37239" lon="1.49847">
        <ele>107.08841705322</ele>
        <time>2017-07-02T09:25:20.000Z</time>
      </trkpt>
      <trkpt lat="49.37232" lon="1.49848">
        <ele>107.76428222656</ele>
        <time>2017-07-02T09:25:23.000Z</time>
      </trkpt>
      <trkpt lat="49.37227" lon="1.49848">
        <ele>108.52878570557</ele>
        <time>2017-07-02T09:25:26.000Z</time>
      </trkpt>
      <trkpt lat="49.37224" lon="1.49846">
        <ele>109.31559753418</ele>
        <time>2017-07-02T09:25:28.000Z</time>
      </trkpt>
      <trkpt lat="49.37221" lon="1.49846">
        <ele>110.20011901855</ele>
        <time>2017-07-02T09:25:31.000Z</time>
      </trkpt>
      <trkpt lat="49.37217" lon="1.49849">
        <ele>111.13743591309</ele>
        <time>2017-07-02T09:25:34.000Z</time>
      </trkpt>
      <trkpt lat="49.37215" lon="1.4985">
        <ele>111.89379882812</ele>
        <time>2017-07-02T09:25:36.000Z</time>
      </trkpt>
      <trkpt lat="49.37211" lon="1.49851">
        <ele>112.590675354</ele>
        <time>2017-07-02T09:25:39.000Z</time>
      </trkpt>
      <trkpt lat="49.37209" lon="1.49851">
        <ele>113.240234375</ele>
        <time>2017-07-02T09:25:41.000Z</time>
      </trkpt>
      <trkpt lat="49.37207" lon="1.4985">
        <ele>113.87339019775</ele>
        <time>2017-07-02T09:25:44.000Z</time>
      </trkpt>
      <trkpt lat="49.37205" lon="1.49851">
        <ele>114.41223144531</ele>
        <time>2017-07-02T09:25:46.000Z</time>
      </trkpt>
      <trkpt lat="49.37202" lon="1.49851">
        <ele>114.96231842041</ele>
        <time>2017-07-02T09:25:49.000Z</time>
      </trkpt>
      <trkpt lat="49.372" lon="1.49851">
        <ele>115.45516204834</ele>
        <time>2017-07-02T09:25:52.000Z</time>
      </trkpt>
      <trkpt lat="49.37197" lon="1.49852">
        <ele>115.97514343262</ele>
        <time>2017-07-02T09:25:54.000Z</time>
      </trkpt>
      <trkpt lat="49.37193" lon="1.49853">
        <ele>116.60697174072</ele>
        <time>2017-07-02T09:25:57.000Z</time>
      </trkpt>
      <trkpt lat="49.3719" lon="1.49853">
        <ele>117.2509765625</ele>
        <time>2017-07-02T09:25:59.000Z</time>
      </trkpt>
      <trkpt lat="49.37188" lon="1.49851">
        <ele>117.87772369385</ele>
        <time>2017-07-02T09:26:01.000Z</time>
      </trkpt>
      <trkpt lat="49.37186" lon="1.49848">
        <ele>118.44339752197</ele>
        <time>2017-07-02T09:26:07.000Z</time>
      </trkpt>
      <trkpt lat="49.37185" lon="1.49845">
        <ele>118.92116546631</ele>
        <time>2017-07-02T09:26:17.000Z</time>
      </trkpt>
      <trkpt lat="49.37185" lon="1.49845">
        <ele>118.92116546631</ele>
        <time>2017-07-02T09:26:37.000Z</time>
      </trkpt>
      <trkpt lat="49.37185" lon="1.49843">
        <ele>119.14300537109</ele>
        <time>2017-07-02T09:26:48.000Z</time>
      </trkpt>
      <trkpt lat="49.37184" lon="1.49842">
        <ele>119.27905273438</ele>
        <time>2017-07-02T09:26:53.000Z</time>
      </trkpt>
      <trkpt lat="49.37183" lon="1.49843">
        <ele>119.38470458984</ele>
        <time>2017-07-02T09:26:55.000Z</time>
      </trkpt>
      <trkpt lat="49.37181" lon="1.49845">
        <ele>119.52772521973</ele>
        <time>2017-07-02T09:26:57.000Z</time>
      </trkpt>
      <trkpt lat="49.37179" lon="1.49846">
        <ele>119.78327941895</ele>
        <time>2017-07-02T09:27:00.000Z</time>
      </trkpt>
      <trkpt lat="49.37178" lon="1.49847">
        <ele>120.12194824219</ele>
        <time>2017-07-02T09:27:02.000Z</time>
      </trkpt>
      <trkpt lat="49.37176" lon="1.49848">
        <ele>120.5399017334</ele>
        <time>2017-07-02T09:27:05.000Z</time>
      </trkpt>
      <trkpt lat="49.37173" lon="1.49849">
        <ele>121.00840759277</ele>
        <time>2017-07-02T09:27:12.000Z</time>
      </trkpt>
      <trkpt lat="49.37172" lon="1.49849">
        <ele>121.48620605469</ele>
        <time>2017-07-02T09:27:14.000Z</time>
      </trkpt>
      <trkpt lat="49.3717" lon="1.49849">
        <ele>121.9361114502</ele>
        <time>2017-07-02T09:27:17.000Z</time>
      </trkpt>
      <trkpt lat="49.37169" lon="1.4985">
        <ele>122.40059661865</ele>
        <time>2017-07-02T09:27:21.000Z</time>
      </trkpt>
      <trkpt lat="49.37168" lon="1.49852">
        <ele>122.83448791504</ele>
        <time>2017-07-02T09:27:23.000Z</time>
      </trkpt>
      <trkpt lat="49.37165" lon="1.49854">
        <ele>123.29196929932</ele>
        <time>2017-07-02T09:27:26.000Z</time>
      </trkpt>
      <trkpt lat="49.37164" lon="1.49854">
        <ele>123.73818206787</ele>
        <time>2017-07-02T09:27:29.000Z</time>
      </trkpt>
      <trkpt lat="49.37162" lon="1.49854">
        <ele>124.16355133057</ele>
        <time>2017-07-02T09:27:32.000Z</time>
      </trkpt>
      <trkpt lat="49.37161" lon="1.49855">
        <ele>124.60095214844</ele>
        <time>2017-07-02T09:27:34.000Z</time>
      </trkpt>
      <trkpt lat="49.3716" lon="1.49858">
        <ele>125.08636474609</ele>
        <time>2017-07-02T09:27:37.000Z</time>
      </trkpt>
      <trkpt lat="49.3716" lon="1.49858">
        <ele>125.08636474609</ele>
        <time>2017-07-02T09:27:57.000Z</time>
      </trkpt>
      <trkpt lat="49.37159" lon="1.49859">
        <ele>125.51655578613</ele>
        <time>2017-07-02T09:28:04.000Z</time>
      </trkpt>
      <trkpt lat="49.37156" lon="1.4986">
        <ele>126.00576019287</ele>
        <time>2017-07-02T09:28:07.000Z</time>
      </trkpt>
      <trkpt lat="49.37155" lon="1.4986">
        <ele>126.4647064209</ele>
        <time>2017-07-02T09:28:09.000Z</time>
      </trkpt>
      <trkpt lat="49.37153" lon="1.4986">
        <ele>126.92321777344</ele>
        <time>2017-07-02T09:28:11.000Z</time>
      </trkpt>
      <trkpt lat="49.37152" lon="1.49862">
        <ele>127.37242126465</ele>
        <time>2017-07-02T09:28:14.000Z</time>
      </trkpt>
      <trkpt lat="49.37149" lon="1.49864">
        <ele>127.89475250244</ele>
        <time>2017-07-02T09:28:17.000Z</time>
      </trkpt>
      <trkpt lat="49.37147" lon="1.49865">
        <ele>128.38632202148</ele>
        <time>2017-07-02T09:28:19.000Z</time>
      </trkpt>
      <trkpt lat="49.37145" lon="1.49865">
        <ele>128.94184875488</ele>
        <time>2017-07-02T09:28:22.000Z</time>
      </trkpt>
      <trkpt lat="49.37143" lon="1.49866">
        <ele>129.5274810791</ele>
        <time>2017-07-02T09:28:24.000Z</time>
      </trkpt>
      <trkpt lat="49.37142" lon="1.49866">
        <ele>130.0475769043</ele>
        <time>2017-07-02T09:28:26.000Z</time>
      </trkpt>
      <trkpt lat="49.37139" lon="1.49865">
        <ele>130.55085754395</ele>
        <time>2017-07-02T09:28:41.000Z</time>
      </trkpt>
      <trkpt lat="49.37138" lon="1.49865">
        <ele>130.98722839355</ele>
        <time>2017-07-02T09:28:45.000Z</time>
      </trkpt>
      <trkpt lat="49.37136" lon="1.49866">
        <ele>131.40635681152</ele>
        <time>2017-07-02T09:28:46.000Z</time>
      </trkpt>
      <trkpt lat="49.37134" lon="1.49868">
        <ele>131.85873413086</ele>
        <time>2017-07-02T09:28:49.000Z</time>
      </trkpt>
      <trkpt lat="49.37132" lon="1.49869">
        <ele>132.39993286133</ele>
        <time>2017-07-02T09:28:51.000Z</time>
      </trkpt>
      <trkpt lat="49.3713" lon="1.49871">
        <ele>132.95570373535</ele>
        <time>2017-07-02T09:28:54.000Z</time>
      </trkpt>
      <trkpt lat="49.37127" lon="1.49873">
        <ele>133.62890625</ele>
        <time>2017-07-02T09:28:57.000Z</time>
      </trkpt>
      <trkpt lat="49.37125" lon="1.49874">
        <ele>134.32218933105</ele>
        <time>2017-07-02T09:29:00.000Z</time>
      </trkpt>
      <trkpt lat="49.37124" lon="1.49874">
        <ele>134.90687561035</ele>
        <time>2017-07-02T09:29:02.000Z</time>
      </trkpt>
      <trkpt lat="49.37124" lon="1.49874">
        <ele>134.90687561035</ele>
        <time>2017-07-02T09:29:22.000Z</time>
      </trkpt>
      <trkpt lat="49.37122" lon="1.49873">
        <ele>135.42858886719</ele>
        <time>2017-07-02T09:29:28.000Z</time>
      </trkpt>
      <trkpt lat="49.37121" lon="1.49873">
        <ele>135.87893676758</ele>
        <time>2017-07-02T09:29:31.000Z</time>
      </trkpt>
      <trkpt lat="49.37119" lon="1.49872">
        <ele>136.26533508301</ele>
        <time>2017-07-02T09:29:34.000Z</time>
      </trkpt>
      <trkpt lat="49.37117" lon="1.49871">
        <ele>136.58744812012</ele>
        <time>2017-07-02T09:29:37.000Z</time>
      </trkpt>
      <trkpt lat="49.37115" lon="1.4987">
        <ele>136.92366027832</ele>
        <time>2017-07-02T09:29:39.000Z</time>
      </trkpt>
      <trkpt lat="49.37112" lon="1.49868">
        <ele>137.29598999023</ele>
        <time>2017-07-02T09:29:42.000Z</time>
      </trkpt>
      <trkpt lat="49.3711" lon="1.49867">
        <ele>137.70851135254</ele>
        <time>2017-07-02T09:29:45.000Z</time>
      </trkpt>
      <trkpt lat="49.37109" lon="1.49867">
        <ele>138.07542419434</ele>
        <time>2017-07-02T09:29:47.000Z</time>
      </trkpt>
      <trkpt lat="49.37106" lon="1.49866">
        <ele>138.50105285645</ele>
        <time>2017-07-02T09:29:50.000Z</time>
      </trkpt>
      <trkpt lat="49.37104" lon="1.49867">
        <ele>138.99813842773</ele>
        <time>2017-07-02T09:29:52.000Z</time>
      </trkpt>
      <trkpt lat="49.37101" lon="1.49868">
        <ele>139.52851867676</ele>
        <time>2017-07-02T09:29:54.000Z</time>
      </trkpt>
      <trkpt lat="49.37101" lon="1.49868">
        <ele>139.52851867676</ele>
        <time>2017-07-02T09:30:14.000Z</time>
      </trkpt>
      <trkpt lat="49.371" lon="1.49868">
        <ele>140.0059967041</ele>
        <time>2017-07-02T09:30:32.000Z</time>
      </trkpt>
      <trkpt lat="49.37098" lon="1.49869">
        <ele>140.5601348877</ele>
        <time>2017-07-02T09:30:35.000Z</time>
      </trkpt>
      <trkpt lat="49.37095" lon="1.4987">
        <ele>141.15238952637</ele>
        <time>2017-07-02T09:30:38.000Z</time>
      </trkpt>
      <trkpt lat="49.37093" lon="1.4987">
        <ele>141.68672180176</ele>
        <time>2017-07-02T09:30:40.000Z</time>
      </trkpt>
      <trkpt lat="49.37091" lon="1.49871">
        <ele>142.20248413086</ele>
        <time>2017-07-02T09:30:43.000Z</time>
      </trkpt>
      <trkpt lat="49.3709" lon="1.49872">
        <ele>142.72280883789</ele>
        <time>2017-07-02T09:30:45.000Z</time>
      </trkpt>
      <trkpt lat="49.37089" lon="1.49873">
        <ele>143.20149230957</ele>
        <time>2017-07-02T09:30:47.000Z</time>
      </trkpt>
      <trkpt lat="49.37087" lon="1.49873">
        <ele>143.5991973877</ele>
        <time>2017-07-02T09:30:49.000Z</time>
      </trkpt>
      <trkpt lat="49.37086" lon="1.49873">
        <ele>144.00500488281</ele>
        <time>2017-07-02T09:30:51.000Z</time>
      </trkpt>
      <trkpt lat="49.37083" lon="1.49873">
        <ele>144.43862915039</ele>
        <time>2017-07-02T09:30:54.000Z</time>
      </trkpt>
      <trkpt lat="49.37081" lon="1.49873">
        <ele>144.88754272461</ele>
        <time>2017-07-02T09:30:56.000Z</time>
      </trkpt>
      <trkpt lat="49.37078" lon="1.49873">
        <ele>145.41899108887</ele>
        <time>2017-07-02T09:30:59.000Z</time>
      </trkpt>
      <trkpt lat="49.37076" lon="1.49874">
        <ele>146.00782775879</ele>
        <time>2017-07-02T09:31:02.000Z</time>
      </trkpt>
      <trkpt lat="49.37075" lon="1.49875">
        <ele>146.59262084961</ele>
        <time>2017-07-02T09:31:04.000Z</time>
      </trkpt>
      <trkpt lat="49.37073" lon="1.49876">
        <ele>147.1301574707</ele>
        <time>2017-07-02T09:31:07.000Z</time>
      </trkpt>
      <trkpt lat="49.37072" lon="1.49876">
        <ele>147.67330932617</ele>
        <time>2017-07-02T09:31:09.000Z</time>
      </trkpt>
      <trkpt lat="49.3707" lon="1.49875">
        <ele>148.08615112305</ele>
        <time>2017-07-02T09:31:29.000Z</time>
      </trkpt>
      <trkpt lat="49.3707" lon="1.49875">
        <ele>148.08615112305</ele>
        <time>2017-07-02T09:31:49.000Z</time>
      </trkpt>
      <trkpt lat="49.37069" lon="1.49874">
        <ele>148.44470214844</ele>
        <time>2017-07-02T09:32:01.000Z</time>
      </trkpt>
      <trkpt lat="49.37066" lon="1.49874">
        <ele>148.88739013672</ele>
        <time>2017-07-02T09:32:04.000Z</time>
      </trkpt>
      <trkpt lat="49.37063" lon="1.49876">
        <ele>149.40185546875</ele>
        <time>2017-07-02T09:32:07.000Z</time>
      </trkpt>
      <trkpt lat="49.37061" lon="1.49877">
        <ele>149.96145629883</ele>
        <time>2017-07-02T09:32:09.000Z</time>
      </trkpt>
      <trkpt lat="49.37058" lon="1.49879">
        <ele>150.61740112305</ele>
        <time>2017-07-02T09:32:12.000Z</time>
      </trkpt>
      <trkpt lat="49.37056" lon="1.4988">
        <ele>151.33071899414</ele>
        <time>2017-07-02T09:32:15.000Z</time>
      </trkpt>
      <trkpt lat="49.37054" lon="1.49881">
        <ele>151.99557495117</ele>
        <time>2017-07-02T09:32:17.000Z</time>
      </trkpt>
      <trkpt lat="49.3705" lon="1.49883">
        <ele>152.70877075195</ele>
        <time>2017-07-02T09:32:20.000Z</time>
      </trkpt>
      <trkpt lat="49.37048" lon="1.49884">
        <ele>153.4143371582</ele>
        <time>2017-07-02T09:32:23.000Z</time>
      </trkpt>
      <trkpt lat="49.37045" lon="1.49886">
        <ele>154.11578369141</ele>
        <time>2017-07-02T09:32:26.000Z</time>
      </trkpt>
      <trkpt lat="49.37044" lon="1.49886">
        <ele>154.75610351562</ele>
        <time>2017-07-02T09:32:28.000Z</time>
      </trkpt>
      <trkpt lat="49.37042" lon="1.49887">
        <ele>155.37651062012</ele>
        <time>2017-07-02T09:32:31.000Z</time>
      </trkpt>
      <trkpt lat="49.3704" lon="1.49889">
        <ele>155.89114379883</ele>
        <time>2017-07-02T09:32:34.000Z</time>
      </trkpt>
      <trkpt lat="49.37039" lon="1.4989">
        <ele>156.3424987793</ele>
        <time>2017-07-02T09:32:36.000Z</time>
      </trkpt>
      <trkpt lat="49.37036" lon="1.4989">
        <ele>156.81559753418</ele>
        <time>2017-07-02T09:32:49.000Z</time>
      </trkpt>
      <trkpt lat="49.37036" lon="1.4989">
        <ele>156.81559753418</ele>
        <time>2017-07-02T09:33:09.000Z</time>
      </trkpt>
      <trkpt lat="49.37035" lon="1.49888">
        <ele>157.27545166016</ele>
        <time>2017-07-02T09:33:18.000Z</time>
      </trkpt>
      <trkpt lat="49.37032" lon="1.49887">
        <ele>157.75811767578</ele>
        <time>2017-07-02T09:33:21.000Z</time>
      </trkpt>
      <trkpt lat="49.37029" lon="1.49888">
        <ele>158.31066894531</ele>
        <time>2017-07-02T09:33:24.000Z</time>
      </trkpt>
      <trkpt lat="49.37027" lon="1.49888">
        <ele>158.86019897461</ele>
        <time>2017-07-02T09:33:26.000Z</time>
      </trkpt>
      <trkpt lat="49.37024" lon="1.49889">
        <ele>159.41368103027</ele>
        <time>2017-07-02T09:33:29.000Z</time>
      </trkpt>
      <trkpt lat="49.37023" lon="1.49889">
        <ele>159.9764251709</ele>
        <time>2017-07-02T09:33:31.000Z</time>
      </trkpt>
      <trkpt lat="49.3702" lon="1.49889">
        <ele>160.52615356445</ele>
        <time>2017-07-02T09:33:34.000Z</time>
      </trkpt>
      <trkpt lat="49.37019" lon="1.49891">
        <ele>160.97727966309</ele>
        <time>2017-07-02T09:33:36.000Z</time>
      </trkpt>
      <trkpt lat="49.37017" lon="1.49893">
        <ele>161.46601867676</ele>
        <time>2017-07-02T09:33:38.000Z</time>
      </trkpt>
      <trkpt lat="49.37015" lon="1.49894">
        <ele>161.89273071289</ele>
        <time>2017-07-02T09:33:40.000Z</time>
      </trkpt>
      <trkpt lat="49.37013" lon="1.49895">
        <ele>162.35762023926</ele>
        <time>2017-07-02T09:33:43.000Z</time>
      </trkpt>
      <trkpt lat="49.37011" lon="1.49896">
        <ele>162.80059814453</ele>
        <time>2017-07-02T09:33:45.000Z</time>
      </trkpt>
      <trkpt lat="49.37009" lon="1.49897">
        <ele>163.29235839844</ele>
        <time>2017-07-02T09:33:48.000Z</time>
      </trkpt>
      <trkpt lat="49.37005" lon="1.49898">
        <ele>163.83193969727</ele>
        <time>2017-07-02T09:33:51.000Z</time>
      </trkpt>
      <trkpt lat="49.37001" lon="1.49896">
        <ele>164.44546508789</ele>
        <time>2017-07-02T09:34:10.000Z</time>
      </trkpt>
      <trkpt lat="49.37001" lon="1.49896">
        <ele>165.0015411377</ele>
        <time>2017-07-02T09:34:22.000Z</time>
      </trkpt>
      <trkpt lat="49.36999" lon="1.49897">
        <ele>165.55625915527</ele>
        <time>2017-07-02T09:34:25.000Z</time>
      </trkpt>
      <trkpt lat="49.36996" lon="1.49898">
        <ele>166.05891418457</ele>
        <time>2017-07-02T09:34:28.000Z</time>
      </trkpt>
      <trkpt lat="49.36995" lon="1.499">
        <ele>166.45202636719</ele>
        <time>2017-07-02T09:34:31.000Z</time>
      </trkpt>
      <trkpt lat="49.36993" lon="1.49901">
        <ele>166.72610473633</ele>
        <time>2017-07-02T09:34:33.000Z</time>
      </trkpt>
      <trkpt lat="49.36991" lon="1.49902">
        <ele>167.05404663086</ele>
        <time>2017-07-02T09:34:36.000Z</time>
      </trkpt>
      <trkpt lat="49.36989" lon="1.49903">
        <ele>167.36093139648</ele>
        <time>2017-07-02T09:34:39.000Z</time>
      </trkpt>
      <trkpt lat="49.36987" lon="1.49903">
        <ele>167.65686035156</ele>
        <time>2017-07-02T09:34:42.000Z</time>
      </trkpt>
      <trkpt lat="49.36985" lon="1.49904">
        <ele>167.98294067383</ele>
        <time>2017-07-02T09:34:44.000Z</time>
      </trkpt>
      <trkpt lat="49.36982" lon="1.49905">
        <ele>168.34982299805</ele>
        <time>2017-07-02T09:34:47.000Z</time>
      </trkpt>
      <trkpt lat="49.36981" lon="1.49906">
        <ele>168.66522216797</ele>
        <time>2017-07-02T09:34:49.000Z</time>
      </trkpt>
      <trkpt lat="49.36979" lon="1.49905">
        <ele>168.99655151367</ele>
        <time>2017-07-02T09:34:55.000Z</time>
      </trkpt>
      <trkpt lat="49.36977" lon="1.49906">
        <ele>169.32772827148</ele>
        <time>2017-07-02T09:35:02.000Z</time>
      </trkpt>
      <trkpt lat="49.36977" lon="1.49906">
        <ele>169.32772827148</ele>
        <time>2017-07-02T09:35:22.000Z</time>
      </trkpt>
      <trkpt lat="49.36974" lon="1.49908">
        <ele>169.6713104248</ele>
        <time>2017-07-02T09:35:50.000Z</time>
      </trkpt>
      <trkpt lat="49.36973" lon="1.49908">
        <ele>169.97734069824</ele>
        <time>2017-07-02T09:35:53.000Z</time>
      </trkpt>
      <trkpt lat="49.36972" lon="1.49908">
        <ele>170.27075195312</ele>
        <time>2017-07-02T09:35:55.000Z</time>
      </trkpt>
      <trkpt lat="49.36971" lon="1.49908">
        <ele>170.5365447998</ele>
        <time>2017-07-02T09:35:58.000Z</time>
      </trkpt>
      <trkpt lat="49.36969" lon="1.49909">
        <ele>170.78971862793</ele>
        <time>2017-07-02T09:36:01.000Z</time>
      </trkpt>
      <trkpt lat="49.36968" lon="1.4991">
        <ele>170.99043273926</ele>
        <time>2017-07-02T09:36:04.000Z</time>
      </trkpt>
      <trkpt lat="49.36967" lon="1.4991">
        <ele>171.17805480957</ele>
        <time>2017-07-02T09:36:07.000Z</time>
      </trkpt>
      <trkpt lat="49.36966" lon="1.4991">
        <ele>171.37951660156</ele>
        <time>2017-07-02T09:36:09.000Z</time>
      </trkpt>
      <trkpt lat="49.36964" lon="1.4991">
        <ele>171.60813903809</ele>
        <time>2017-07-02T09:36:12.000Z</time>
      </trkpt>
      <trkpt lat="49.36962" lon="1.49911">
        <ele>171.83731079102</ele>
        <time>2017-07-02T09:36:15.000Z</time>
      </trkpt>
      <trkpt lat="49.36961" lon="1.49911">
        <ele>172.09399414062</ele>
        <time>2017-07-02T09:36:18.000Z</time>
      </trkpt>
      <trkpt lat="49.36959" lon="1.49912">
        <ele>172.36431884766</ele>
        <time>2017-07-02T09:36:20.000Z</time>
      </trkpt>
      <trkpt lat="49.36956" lon="1.49914">
        <ele>172.68928527832</ele>
        <time>2017-07-02T09:36:23.000Z</time>
      </trkpt>
      <trkpt lat="49.36954" lon="1.49915">
        <ele>173.00135803223</ele>
        <time>2017-07-02T09:36:25.000Z</time>
      </trkpt>
      <trkpt lat="49.36953" lon="1.49916">
        <ele>173.287109375</ele>
        <time>2017-07-02T09:36:27.000Z</time>
      </trkpt>
      <trkpt lat="49.3695" lon="1.49918">
        <ele>173.65567016602</ele>
        <time>2017-07-02T09:36:30.000Z</time>
      </trkpt>
      <trkpt lat="49.36947" lon="1.49918">
        <ele>174.07209777832</ele>
        <time>2017-07-02T09:36:33.000Z</time>
      </trkpt>
      <trkpt lat="49.36944" lon="1.49919">
        <ele>174.50399780273</ele>
        <time>2017-07-02T09:36:36.000Z</time>
      </trkpt>
      <trkpt lat="49.36942" lon="1.49921">
        <ele>174.97872924805</ele>
        <time>2017-07-02T09:36:39.000Z</time>
      </trkpt>
      <trkpt lat="49.3694" lon="1.49921">
        <ele>175.4772644043</ele>
        <time>2017-07-02T09:36:42.000Z</time>
      </trkpt>
      <trkpt lat="49.36939" lon="1.49923">
        <ele>175.90368652344</ele>
        <time>2017-07-02T09:36:45.000Z</time>
      </trkpt>
      <trkpt lat="49.36937" lon="1.49926">
        <ele>176.32392883301</ele>
        <time>2017-07-02T09:36:48.000Z</time>
      </trkpt>
      <trkpt lat="49.36935" lon="1.49927">
        <ele>176.72439575195</ele>
        <time>2017-07-02T09:36:51.000Z</time>
      </trkpt>
      <trkpt lat="49.36933" lon="1.49929">
        <ele>177.12670898438</ele>
        <time>2017-07-02T09:36:53.000Z</time>
      </trkpt>
      <trkpt lat="49.3693" lon="1.49931">
        <ele>177.5837097168</ele>
        <time>2017-07-02T09:36:55.000Z</time>
      </trkpt>
      <trkpt lat="49.36928" lon="1.49933">
        <ele>178.08529663086</ele>
        <time>2017-07-02T09:36:58.000Z</time>
      </trkpt>
      <trkpt lat="49.36926" lon="1.49934">
        <ele>178.57266235352</ele>
        <time>2017-07-02T09:37:00.000Z</time>
      </trkpt>
      <trkpt lat="49.36923" lon="1.49937">
        <ele>179.09706115723</ele>
        <time>2017-07-02T09:37:03.000Z</time>
      </trkpt>
      <trkpt lat="49.36922" lon="1.4994">
        <ele>179.58488464355</ele>
        <time>2017-07-02T09:37:06.000Z</time>
      </trkpt>
      <trkpt lat="49.36922" lon="1.49942">
        <ele>179.9821472168</ele>
        <time>2017-07-02T09:37:18.000Z</time>
      </trkpt>
      <trkpt lat="49.36927" lon="1.49946">
        <ele>180.18493652344</ele>
        <time>2017-07-02T09:37:20.000Z</time>
      </trkpt>
      <trkpt lat="49.36935" lon="1.49956">
        <ele>180.14428710938</ele>
        <time>2017-07-02T09:37:23.000Z</time>
      </trkpt>
      <trkpt lat="49.3694" lon="1.49965">
        <ele>179.92015075684</ele>
        <time>2017-07-02T09:37:25.000Z</time>
      </trkpt>
      <trkpt lat="49.3695" lon="1.49989">
        <ele>179.65144348145</ele>
        <time>2017-07-02T09:37:28.000Z</time>
      </trkpt>
      <trkpt lat="49.36959" lon="1.5002">
        <ele>179.27047729492</ele>
        <time>2017-07-02T09:37:31.000Z</time>
      </trkpt>
      <trkpt lat="49.36963" lon="1.50039">
        <ele>178.9146270752</ele>
        <time>2017-07-02T09:37:33.000Z</time>
      </trkpt>
      <trkpt lat="49.36971" lon="1.5007">
        <ele>178.61088562012</ele>
        <time>2017-07-02T09:37:36.000Z</time>
      </trkpt>
      <trkpt lat="49.3698" lon="1.50107">
        <ele>178.28324890137</ele>
        <time>2017-07-02T09:37:39.000Z</time>
      </trkpt>
      <trkpt lat="49.36987" lon="1.5013">
        <ele>177.8384552002</ele>
        <time>2017-07-02T09:37:41.000Z</time>
      </trkpt>
      <trkpt lat="49.3699" lon="1.50156">
        <ele>177.47236633301</ele>
        <time>2017-07-02T09:37:43.000Z</time>
      </trkpt>
      <trkpt lat="49.37" lon="1.50185">
        <ele>177.07124328613</ele>
        <time>2017-07-02T09:37:46.000Z</time>
      </trkpt>
      <trkpt lat="49.37009" lon="1.50202">
        <ele>176.50967407227</ele>
        <time>2017-07-02T09:37:48.000Z</time>
      </trkpt>
      <trkpt lat="49.37014" lon="1.50213">
        <ele>175.8589630127</ele>
        <time>2017-07-02T09:37:50.000Z</time>
      </trkpt>
      <trkpt lat="49.37014" lon="1.50235">
        <ele>175.41361999512</ele>
        <time>2017-07-02T09:37:53.000Z</time>
      </trkpt>
      <trkpt lat="49.37014" lon="1.50249">
        <ele>175.07711791992</ele>
        <time>2017-07-02T09:37:55.000Z</time>
      </trkpt>
      <trkpt lat="49.37014" lon="1.50261">
        <ele>174.92855834961</ele>
        <time>2017-07-02T09:37:58.000Z</time>
      </trkpt>
      <trkpt lat="49.37012" lon="1.50268">
        <ele>175.14865112305</ele>
        <time>2017-07-02T09:38:00.000Z</time>
      </trkpt>
      <trkpt lat="49.37012" lon="1.50272">
        <ele>175.58801269531</ele>
        <time>2017-07-02T09:38:02.000Z</time>
      </trkpt>
      <trkpt lat="49.37012" lon="1.50282">
        <ele>175.97778320312</ele>
        <time>2017-07-02T09:38:05.000Z</time>
      </trkpt>
      <trkpt lat="49.37013" lon="1.50288">
        <ele>176.30410766602</ele>
        <time>2017-07-02T09:38:07.000Z</time>
      </trkpt>
      <trkpt lat="49.37015" lon="1.50296">
        <ele>176.51708984375</ele>
        <time>2017-07-02T09:38:10.000Z</time>
      </trkpt>
      <trkpt lat="49.37017" lon="1.50307">
        <ele>176.6563873291</ele>
        <time>2017-07-02T09:38:13.000Z</time>
      </trkpt>
      <trkpt lat="49.37017" lon="1.50311">
        <ele>176.77772521973</ele>
        <time>2017-07-02T09:38:15.000Z</time>
      </trkpt>
      <trkpt lat="49.37015" lon="1.50319">
        <ele>176.96583557129</ele>
        <time>2017-07-02T09:38:18.000Z</time>
      </trkpt>
      <trkpt lat="49.37014" lon="1.50329">
        <ele>177.21655273438</ele>
        <time>2017-07-02T09:38:21.000Z</time>
      </trkpt>
      <trkpt lat="49.37014" lon="1.50335">
        <ele>177.52027893066</ele>
        <time>2017-07-02T09:38:23.000Z</time>
      </trkpt>
      <trkpt lat="49.37013" lon="1.50344">
        <ele>177.84237670898</ele>
        <time>2017-07-02T09:38:26.000Z</time>
      </trkpt>
      <trkpt lat="49.37012" lon="1.50355">
        <ele>178.17515563965</ele>
        <time>2017-07-02T09:38:29.000Z</time>
      </trkpt>
      <trkpt lat="49.37011" lon="1.50362">
        <ele>178.42999267578</ele>
        <time>2017-07-02T09:38:31.000Z</time>
      </trkpt>
      <trkpt lat="49.37008" lon="1.50371">
        <ele>178.68838500977</ele>
        <time>2017-07-02T09:38:34.000Z</time>
      </trkpt>
      <trkpt lat="49.37007" lon="1.50377">
        <ele>178.96101379395</ele>
        <time>2017-07-02T09:38:36.000Z</time>
      </trkpt>
      <trkpt lat="49.37005" lon="1.50387">
        <ele>179.26971435547</ele>
        <time>2017-07-02T09:38:39.000Z</time>
      </trkpt>
      <trkpt lat="49.37003" lon="1.50395">
        <ele>179.61544799805</ele>
        <time>2017-07-02T09:38:42.000Z</time>
      </trkpt>
      <trkpt lat="49.37001" lon="1.50401">
        <ele>179.98069763184</ele>
        <time>2017-07-02T09:38:44.000Z</time>
      </trkpt>
      <trkpt lat="49.37001" lon="1.50409">
        <ele>180.26852416992</ele>
        <time>2017-07-02T09:38:47.000Z</time>
      </trkpt>
      <trkpt lat="49.36997" lon="1.5042">
        <ele>180.56295776367</ele>
        <time>2017-07-02T09:38:50.000Z</time>
      </trkpt>
      <trkpt lat="49.36995" lon="1.50426">
        <ele>180.76113891602</ele>
        <time>2017-07-02T09:38:53.000Z</time>
      </trkpt>
      <trkpt lat="49.36993" lon="1.50429">
        <ele>180.87985229492</ele>
        <time>2017-07-02T09:38:55.000Z</time>
      </trkpt>
      <trkpt lat="49.3699" lon="1.50435">
        <ele>180.92951965332</ele>
        <time>2017-07-02T09:38:58.000Z</time>
      </trkpt>
      <trkpt lat="49.36988" lon="1.50439">
        <ele>180.97151184082</ele>
        <time>2017-07-02T09:39:00.000Z</time>
      </trkpt>
      <trkpt lat="49.36985" lon="1.50442">
        <ele>180.97657775879</ele>
        <time>2017-07-02T09:39:02.000Z</time>
      </trkpt>
      <trkpt lat="49.36982" lon="1.50445">
        <ele>181.02079772949</ele>
        <time>2017-07-02T09:39:05.000Z</time>
      </trkpt>
      <trkpt lat="49.36979" lon="1.50448">
        <ele>181.10527038574</ele>
        <time>2017-07-02T09:39:07.000Z</time>
      </trkpt>
      <trkpt lat="49.36976" lon="1.50449">
        <ele>181.22319030762</ele>
        <time>2017-07-02T09:39:09.000Z</time>
      </trkpt>
      <trkpt lat="49.36972" lon="1.5045">
        <ele>181.3942565918</ele>
        <time>2017-07-02T09:39:12.000Z</time>
      </trkpt>
      <trkpt lat="49.36966" lon="1.5045">
        <ele>181.62867736816</ele>
        <time>2017-07-02T09:39:15.000Z</time>
      </trkpt>
      <trkpt lat="49.3696" lon="1.50452">
        <ele>181.9274597168</ele>
        <time>2017-07-02T09:39:18.000Z</time>
      </trkpt>
      <trkpt lat="49.36955" lon="1.50449">
        <ele>182.26387023926</ele>
        <time>2017-07-02T09:39:21.000Z</time>
      </trkpt>
      <trkpt lat="49.36951" lon="1.50447">
        <ele>182.61784362793</ele>
        <time>2017-07-02T09:39:23.000Z</time>
      </trkpt>
      <trkpt lat="49.36946" lon="1.50444">
        <ele>182.98233032227</ele>
        <time>2017-07-02T09:39:26.000Z</time>
      </trkpt>
      <trkpt lat="49.36942" lon="1.50439">
        <ele>183.31661987305</ele>
        <time>2017-07-02T09:39:29.000Z</time>
      </trkpt>
      <trkpt lat="49.3694" lon="1.50435">
        <ele>183.58448791504</ele>
        <time>2017-07-02T09:39:31.000Z</time>
      </trkpt>
      <trkpt lat="49.36938" lon="1.50429">
        <ele>183.79246520996</ele>
        <time>2017-07-02T09:39:34.000Z</time>
      </trkpt>
      <trkpt lat="49.36937" lon="1.50424">
        <ele>183.95254516602</ele>
        <time>2017-07-02T09:39:36.000Z</time>
      </trkpt>
      <trkpt lat="49.36936" lon="1.50415">
        <ele>184.03308105469</ele>
        <time>2017-07-02T09:39:39.000Z</time>
      </trkpt>
      <trkpt lat="49.36935" lon="1.5041">
        <ele>184.06155395508</ele>
        <time>2017-07-02T09:39:41.000Z</time>
      </trkpt>
      <trkpt lat="49.36935" lon="1.50404">
        <ele>184.06304931641</ele>
        <time>2017-07-02T09:39:43.000Z</time>
      </trkpt>
      <trkpt lat="49.36931" lon="1.50395">
        <ele>184.06059265137</ele>
        <time>2017-07-02T09:39:46.000Z</time>
      </trkpt>
      <trkpt lat="49.3693" lon="1.50388">
        <ele>184.0602722168</ele>
        <time>2017-07-02T09:39:48.000Z</time>
      </trkpt>
      <trkpt lat="49.36927" lon="1.50383">
        <ele>184.07334899902</ele>
        <time>2017-07-02T09:39:50.000Z</time>
      </trkpt>
      <trkpt lat="49.36924" lon="1.50375">
        <ele>184.10343933105</ele>
        <time>2017-07-02T09:39:53.000Z</time>
      </trkpt>
      <trkpt lat="49.36921" lon="1.5037">
        <ele>184.15016174316</ele>
        <time>2017-07-02T09:39:55.000Z</time>
      </trkpt>
      <trkpt lat="49.3692" lon="1.50366">
        <ele>184.18621826172</ele>
        <time>2017-07-02T09:39:57.000Z</time>
      </trkpt>
      <trkpt lat="49.36917" lon="1.50358">
        <ele>184.22375488281</ele>
        <time>2017-07-02T09:40:00.000Z</time>
      </trkpt>
      <trkpt lat="49.36914" lon="1.50353">
        <ele>184.2780456543</ele>
        <time>2017-07-02T09:40:02.000Z</time>
      </trkpt>
      <trkpt lat="49.3691" lon="1.50345">
        <ele>184.3560333252</ele>
        <time>2017-07-02T09:40:05.000Z</time>
      </trkpt>
      <trkpt lat="49.36905" lon="1.5034">
        <ele>184.48205566406</ele>
        <time>2017-07-02T09:40:08.000Z</time>
      </trkpt>
      <trkpt lat="49.36901" lon="1.50338">
        <ele>184.6526184082</ele>
        <time>2017-07-02T09:40:10.000Z</time>
      </trkpt>
      <trkpt lat="49.36895" lon="1.50339">
        <ele>184.90615844727</ele>
        <time>2017-07-02T09:40:13.000Z</time>
      </trkpt>
      <trkpt lat="49.36892" lon="1.5034">
        <ele>185.18835449219</ele>
        <time>2017-07-02T09:40:15.000Z</time>
      </trkpt>
      <trkpt lat="49.36887" lon="1.50342">
        <ele>185.49385070801</ele>
        <time>2017-07-02T09:40:17.000Z</time>
      </trkpt>
      <trkpt lat="49.36883" lon="1.50344">
        <ele>185.79598999023</ele>
        <time>2017-07-02T09:40:19.000Z</time>
      </trkpt>
      <trkpt lat="49.36877" lon="1.50348">
        <ele>186.12712097168</ele>
        <time>2017-07-02T09:40:22.000Z</time>
      </trkpt>
      <trkpt lat="49.36871" lon="1.50352">
        <ele>186.44700622559</ele>
        <time>2017-07-02T09:40:25.000Z</time>
      </trkpt>
      <trkpt lat="49.36867" lon="1.50355">
        <ele>186.75735473633</ele>
        <time>2017-07-02T09:40:27.000Z</time>
      </trkpt>
      <trkpt lat="49.36863" lon="1.50356">
        <ele>187.05349731445</ele>
        <time>2017-07-02T09:40:29.000Z</time>
      </trkpt>
      <trkpt lat="49.3686" lon="1.50358">
        <ele>187.33633422852</ele>
        <time>2017-07-02T09:40:31.000Z</time>
      </trkpt>
      <trkpt lat="49.36858" lon="1.50358">
        <ele>187.5608215332</ele>
        <time>2017-07-02T09:40:33.000Z</time>
      </trkpt>
      <trkpt lat="49.36852" lon="1.50359">
        <ele>187.78115844727</ele>
        <time>2017-07-02T09:40:36.000Z</time>
      </trkpt>
      <trkpt lat="49.36847" lon="1.5036">
        <ele>188.01040649414</ele>
        <time>2017-07-02T09:40:38.000Z</time>
      </trkpt>
      <trkpt lat="49.36841" lon="1.50362">
        <ele>188.26513671875</ele>
        <time>2017-07-02T09:40:41.000Z</time>
      </trkpt>
      <trkpt lat="49.36834" lon="1.50365">
        <ele>188.5484161377</ele>
        <time>2017-07-02T09:40:44.000Z</time>
      </trkpt>
      <trkpt lat="49.36827" lon="1.50368">
        <ele>188.80746459961</ele>
        <time>2017-07-02T09:40:47.000Z</time>
      </trkpt>
      <trkpt lat="49.36821" lon="1.50371">
        <ele>188.98916625977</ele>
        <time>2017-07-02T09:40:49.000Z</time>
      </trkpt>
      <trkpt lat="49.36815" lon="1.50373">
        <ele>189.11784362793</ele>
        <time>2017-07-02T09:40:51.000Z</time>
      </trkpt>
      <trkpt lat="49.36805" lon="1.50378">
        <ele>189.16584777832</ele>
        <time>2017-07-02T09:40:54.000Z</time>
      </trkpt>
      <trkpt lat="49.36795" lon="1.50381">
        <ele>189.14656066895</ele>
        <time>2017-07-02T09:40:57.000Z</time>
      </trkpt>
      <trkpt lat="49.36789" lon="1.50383">
        <ele>189.13317871094</ele>
        <time>2017-07-02T09:41:00.000Z</time>
      </trkpt>
      <trkpt lat="49.36785" lon="1.50385">
        <ele>189.12724304199</ele>
        <time>2017-07-02T09:41:02.000Z</time>
      </trkpt>
      <trkpt lat="49.36778" lon="1.50384">
        <ele>189.13542175293</ele>
        <time>2017-07-02T09:41:05.000Z</time>
      </trkpt>
      <trkpt lat="49.36773" lon="1.50383">
        <ele>189.16323852539</ele>
        <time>2017-07-02T09:41:07.000Z</time>
      </trkpt>
      <trkpt lat="49.36766" lon="1.50384">
        <ele>189.19396972656</ele>
        <time>2017-07-02T09:41:09.000Z</time>
      </trkpt>
      <trkpt lat="49.36758" lon="1.50388">
        <ele>189.22526550293</ele>
        <time>2017-07-02T09:41:12.000Z</time>
      </trkpt>
      <trkpt lat="49.3675" lon="1.50392">
        <ele>189.25680541992</ele>
        <time>2017-07-02T09:41:15.000Z</time>
      </trkpt>
      <trkpt lat="49.36745" lon="1.50396">
        <ele>189.2463684082</ele>
        <time>2017-07-02T09:41:17.000Z</time>
      </trkpt>
      <trkpt lat="49.36738" lon="1.50399">
        <ele>189.18183898926</ele>
        <time>2017-07-02T09:41:20.000Z</time>
      </trkpt>
      <trkpt lat="49.36732" lon="1.50403">
        <ele>189.07096862793</ele>
        <time>2017-07-02T09:41:23.000Z</time>
      </trkpt>
      <trkpt lat="49.36728" lon="1.50407">
        <ele>188.93240356445</ele>
        <time>2017-07-02T09:41:25.000Z</time>
      </trkpt>
      <trkpt lat="49.36725" lon="1.50413">
        <ele>188.76522827148</ele>
        <time>2017-07-02T09:41:28.000Z</time>
      </trkpt>
      <trkpt lat="49.36722" lon="1.50414">
        <ele>188.61054992676</ele>
        <time>2017-07-02T09:41:30.000Z</time>
      </trkpt>
      <trkpt lat="49.36715" lon="1.50412">
        <ele>188.4680480957</ele>
        <time>2017-07-02T09:41:33.000Z</time>
      </trkpt>
      <trkpt lat="49.36707" lon="1.50412">
        <ele>188.32934570312</ele>
        <time>2017-07-02T09:41:36.000Z</time>
      </trkpt>
      <trkpt lat="49.36703" lon="1.50414">
        <ele>188.19357299805</ele>
        <time>2017-07-02T09:41:38.000Z</time>
      </trkpt>
      <trkpt lat="49.36699" lon="1.50416">
        <ele>188.05828857422</ele>
        <time>2017-07-02T09:41:40.000Z</time>
      </trkpt>
      <trkpt lat="49.36693" lon="1.50418">
        <ele>187.91683959961</ele>
        <time>2017-07-02T09:41:42.000Z</time>
      </trkpt>
      <trkpt lat="49.36689" lon="1.50424">
        <ele>187.80725097656</ele>
        <time>2017-07-02T09:41:45.000Z</time>
      </trkpt>
      <trkpt lat="49.36689" lon="1.50434">
        <ele>187.77177429199</ele>
        <time>2017-07-02T09:41:48.000Z</time>
      </trkpt>
      <trkpt lat="49.36692" lon="1.5044">
        <ele>187.78939819336</ele>
        <time>2017-07-02T09:41:50.000Z</time>
      </trkpt>
      <trkpt lat="49.36696" lon="1.50447">
        <ele>187.8687286377</ele>
        <time>2017-07-02T09:41:52.000Z</time>
      </trkpt>
      <trkpt lat="49.36702" lon="1.50459">
        <ele>188.02531433105</ele>
        <time>2017-07-02T09:41:55.000Z</time>
      </trkpt>
      <trkpt lat="49.36708" lon="1.50468">
        <ele>188.21607971191</ele>
        <time>2017-07-02T09:41:58.000Z</time>
      </trkpt>
      <trkpt lat="49.36713" lon="1.50477">
        <ele>188.3975982666</ele>
        <time>2017-07-02T09:42:00.000Z</time>
      </trkpt>
      <trkpt lat="49.3672" lon="1.50492">
        <ele>188.58451843262</ele>
        <time>2017-07-02T09:42:03.000Z</time>
      </trkpt>
      <trkpt lat="49.36729" lon="1.50505">
        <ele>188.78109741211</ele>
        <time>2017-07-02T09:42:06.000Z</time>
      </trkpt>
      <trkpt lat="49.36737" lon="1.5052">
        <ele>189.02404785156</ele>
        <time>2017-07-02T09:42:09.000Z</time>
      </trkpt>
      <trkpt lat="49.36743" lon="1.50539">
        <ele>189.36473083496</ele>
        <time>2017-07-02T09:42:12.000Z</time>
      </trkpt>
      <trkpt lat="49.3675" lon="1.50556">
        <ele>189.80941772461</ele>
        <time>2017-07-02T09:42:15.000Z</time>
      </trkpt>
      <trkpt lat="49.36757" lon="1.50572">
        <ele>190.28019714355</ele>
        <time>2017-07-02T09:42:18.000Z</time>
      </trkpt>
      <trkpt lat="49.36769" lon="1.50589">
        <ele>190.64801025391</ele>
        <time>2017-07-02T09:42:21.000Z</time>
      </trkpt>
      <trkpt lat="49.36784" lon="1.50606">
        <ele>190.73889160156</ele>
        <time>2017-07-02T09:42:24.000Z</time>
      </trkpt>
      <trkpt lat="49.36795" lon="1.50617">
        <ele>190.55807495117</ele>
        <time>2017-07-02T09:42:26.000Z</time>
      </trkpt>
      <trkpt lat="49.36808" lon="1.50639">
        <ele>190.06875610352</ele>
        <time>2017-07-02T09:42:29.000Z</time>
      </trkpt>
      <trkpt lat="49.36821" lon="1.50667">
        <ele>189.32504272461</ele>
        <time>2017-07-02T09:42:32.000Z</time>
      </trkpt>
      <trkpt lat="49.36835" lon="1.5069">
        <ele>188.46308898926</ele>
        <time>2017-07-02T09:42:35.000Z</time>
      </trkpt>
      <trkpt lat="49.36843" lon="1.50707">
        <ele>187.69975280762</ele>
        <time>2017-07-02T09:42:37.000Z</time>
      </trkpt>
      <trkpt lat="49.36855" lon="1.50723">
        <ele>186.97749328613</ele>
        <time>2017-07-02T09:42:40.000Z</time>
      </trkpt>
      <trkpt lat="49.36862" lon="1.50733">
        <ele>186.37347412109</ele>
        <time>2017-07-02T09:42:42.000Z</time>
      </trkpt>
      <trkpt lat="49.36873" lon="1.50748">
        <ele>185.87106323242</ele>
        <time>2017-07-02T09:42:45.000Z</time>
      </trkpt>
      <trkpt lat="49.36882" lon="1.50764">
        <ele>185.51702880859</ele>
        <time>2017-07-02T09:42:48.000Z</time>
      </trkpt>
      <trkpt lat="49.36889" lon="1.50782">
        <ele>185.21562194824</ele>
        <time>2017-07-02T09:42:51.000Z</time>
      </trkpt>
      <trkpt lat="49.36897" lon="1.50796">
        <ele>184.97494506836</ele>
        <time>2017-07-02T09:42:53.000Z</time>
      </trkpt>
      <trkpt lat="49.36913" lon="1.50822">
        <ele>184.69839477539</ele>
        <time>2017-07-02T09:42:56.000Z</time>
      </trkpt>
      <trkpt lat="49.36926" lon="1.50852">
        <ele>184.36447143555</ele>
        <time>2017-07-02T09:42:59.000Z</time>
      </trkpt>
      <trkpt lat="49.36943" lon="1.5088">
        <ele>183.88764953613</ele>
        <time>2017-07-02T09:43:02.000Z</time>
      </trkpt>
      <trkpt lat="49.36959" lon="1.5091">
        <ele>183.32606506348</ele>
        <time>2017-07-02T09:43:05.000Z</time>
      </trkpt>
      <trkpt lat="49.36972" lon="1.50927">
        <ele>182.68014526367</ele>
        <time>2017-07-02T09:43:07.000Z</time>
      </trkpt>
      <trkpt lat="49.36989" lon="1.50959">
        <ele>181.88972473145</ele>
        <time>2017-07-02T09:43:10.000Z</time>
      </trkpt>
      <trkpt lat="49.37" lon="1.50973">
        <ele>181.14059448242</ele>
        <time>2017-07-02T09:43:12.000Z</time>
      </trkpt>
      <trkpt lat="49.37018" lon="1.51007">
        <ele>180.37718200684</ele>
        <time>2017-07-02T09:43:15.000Z</time>
      </trkpt>
      <trkpt lat="49.37028" lon="1.51027">
        <ele>179.67292785645</ele>
        <time>2017-07-02T09:43:17.000Z</time>
      </trkpt>
      <trkpt lat="49.37049" lon="1.51055">
        <ele>179.02584838867</ele>
        <time>2017-07-02T09:43:20.000Z</time>
      </trkpt>
      <trkpt lat="49.37064" lon="1.51082">
        <ele>178.59074401855</ele>
        <time>2017-07-02T09:43:23.000Z</time>
      </trkpt>
      <trkpt lat="49.37071" lon="1.51097">
        <ele>178.19691467285</ele>
        <time>2017-07-02T09:43:25.000Z</time>
      </trkpt>
      <trkpt lat="49.37086" lon="1.5112">
        <ele>177.87538146973</ele>
        <time>2017-07-02T09:43:28.000Z</time>
      </trkpt>
      <trkpt lat="49.37095" lon="1.51136">
        <ele>177.5192565918</ele>
        <time>2017-07-02T09:43:30.000Z</time>
      </trkpt>
      <trkpt lat="49.37106" lon="1.51153">
        <ele>177.15014648438</ele>
        <time>2017-07-02T09:43:32.000Z</time>
      </trkpt>
      <trkpt lat="49.37116" lon="1.51169">
        <ele>176.74252319336</ele>
        <time>2017-07-02T09:43:34.000Z</time>
      </trkpt>
      <trkpt lat="49.37132" lon="1.51191">
        <ele>176.30534362793</ele>
        <time>2017-07-02T09:43:37.000Z</time>
      </trkpt>
      <trkpt lat="49.37142" lon="1.5121">
        <ele>175.86483764648</ele>
        <time>2017-07-02T09:43:39.000Z</time>
      </trkpt>
      <trkpt lat="49.37156" lon="1.51235">
        <ele>175.30152893066</ele>
        <time>2017-07-02T09:43:42.000Z</time>
      </trkpt>
      <trkpt lat="49.37165" lon="1.51255">
        <ele>174.53413391113</ele>
        <time>2017-07-02T09:43:45.000Z</time>
      </trkpt>
      <trkpt lat="49.37169" lon="1.51269">
        <ele>173.47247314453</ele>
        <time>2017-07-02T09:43:47.000Z</time>
      </trkpt>
      <trkpt lat="49.37168" lon="1.51289">
        <ele>172.01608276367</ele>
        <time>2017-07-02T09:43:50.000Z</time>
      </trkpt>
      <trkpt lat="49.37143" lon="1.51327">
        <ele>170.23233032227</ele>
        <time>2017-07-02T09:43:54.000Z</time>
      </trkpt>
      <trkpt lat="49.37106" lon="1.51378">
        <ele>168.55545043945</ele>
        <time>2017-07-02T09:43:58.000Z</time>
      </trkpt>
      <trkpt lat="49.37102" lon="1.51389">
        <ele>167.06246948242</ele>
        <time>2017-07-02T09:44:00.000Z</time>
      </trkpt>
      <trkpt lat="49.37088" lon="1.5141">
        <ele>165.77529907227</ele>
        <time>2017-07-02T09:44:03.000Z</time>
      </trkpt>
      <trkpt lat="49.37083" lon="1.51407">
        <ele>165.10075378418</ele>
        <time>2017-07-02T09:44:05.000Z</time>
      </trkpt>
      <trkpt lat="49.37074" lon="1.51408">
        <ele>164.95970153809</ele>
        <time>2017-07-02T09:44:08.000Z</time>
      </trkpt>
      <trkpt lat="49.37067" lon="1.51409">
        <ele>164.97732543945</ele>
        <time>2017-07-02T09:44:11.000Z</time>
      </trkpt>
      <trkpt lat="49.37063" lon="1.51409">
        <ele>165.14483642578</ele>
        <time>2017-07-02T09:44:13.000Z</time>
      </trkpt>
      <trkpt lat="49.37059" lon="1.51411">
        <ele>165.49285888672</ele>
        <time>2017-07-02T09:44:15.000Z</time>
      </trkpt>
      <trkpt lat="49.37052" lon="1.5141">
        <ele>165.81652832031</ele>
        <time>2017-07-02T09:44:18.000Z</time>
      </trkpt>
      <trkpt lat="49.37045" lon="1.51413">
        <ele>166.07818603516</ele>
        <time>2017-07-02T09:44:21.000Z</time>
      </trkpt>
      <trkpt lat="49.3704" lon="1.51416">
        <ele>166.29806518555</ele>
        <time>2017-07-02T09:44:23.000Z</time>
      </trkpt>
      <trkpt lat="49.37036" lon="1.51418">
        <ele>166.49566650391</ele>
        <time>2017-07-02T09:44:25.000Z</time>
      </trkpt>
      <trkpt lat="49.37033" lon="1.51419">
        <ele>166.70283508301</ele>
        <time>2017-07-02T09:44:28.000Z</time>
      </trkpt>
      <trkpt lat="49.37028" lon="1.5142">
        <ele>166.86982727051</ele>
        <time>2017-07-02T09:44:31.000Z</time>
      </trkpt>
      <trkpt lat="49.37022" lon="1.51423">
        <ele>167.0627746582</ele>
        <time>2017-07-02T09:44:34.000Z</time>
      </trkpt>
      <trkpt lat="49.37016" lon="1.51428">
        <ele>167.28324890137</ele>
        <time>2017-07-02T09:44:37.000Z</time>
      </trkpt>
      <trkpt lat="49.37008" lon="1.51432">
        <ele>167.52467346191</ele>
        <time>2017-07-02T09:44:40.000Z</time>
      </trkpt>
      <trkpt lat="49.37003" lon="1.51435">
        <ele>167.76473999023</ele>
        <time>2017-07-02T09:44:42.000Z</time>
      </trkpt>
      <trkpt lat="49.36997" lon="1.5144">
        <ele>167.97839355469</ele>
        <time>2017-07-02T09:44:44.000Z</time>
      </trkpt>
      <trkpt lat="49.3699" lon="1.51448">
        <ele>168.17597961426</ele>
        <time>2017-07-02T09:44:47.000Z</time>
      </trkpt>
      <trkpt lat="49.36985" lon="1.51453">
        <ele>168.35891723633</ele>
        <time>2017-07-02T09:44:49.000Z</time>
      </trkpt>
      <trkpt lat="49.36979" lon="1.5146">
        <ele>168.52096557617</ele>
        <time>2017-07-02T09:44:52.000Z</time>
      </trkpt>
      <trkpt lat="49.36975" lon="1.51465">
        <ele>168.66641235352</ele>
        <time>2017-07-02T09:44:54.000Z</time>
      </trkpt>
      <trkpt lat="49.36969" lon="1.51471">
        <ele>168.82299804688</ele>
        <time>2017-07-02T09:44:57.000Z</time>
      </trkpt>
      <trkpt lat="49.36965" lon="1.51477">
        <ele>168.95492553711</ele>
        <time>2017-07-02T09:45:00.000Z</time>
      </trkpt>
      <trkpt lat="49.36963" lon="1.51481">
        <ele>169.06790161133</ele>
        <time>2017-07-02T09:45:02.000Z</time>
      </trkpt>
      <trkpt lat="49.36959" lon="1.51488">
        <ele>169.1636505127</ele>
        <time>2017-07-02T09:45:05.000Z</time>
      </trkpt>
      <trkpt lat="49.36956" lon="1.51493">
        <ele>169.25378417969</ele>
        <time>2017-07-02T09:45:07.000Z</time>
      </trkpt>
      <trkpt lat="49.36953" lon="1.51501">
        <ele>169.30439758301</ele>
        <time>2017-07-02T09:45:10.000Z</time>
      </trkpt>
      <trkpt lat="49.3695" lon="1.51505">
        <ele>169.36186218262</ele>
        <time>2017-07-02T09:45:12.000Z</time>
      </trkpt>
      <trkpt lat="49.36947" lon="1.5151">
        <ele>169.42395019531</ele>
        <time>2017-07-02T09:45:14.000Z</time>
      </trkpt>
      <trkpt lat="49.36943" lon="1.51517">
        <ele>169.48048400879</ele>
        <time>2017-07-02T09:45:17.000Z</time>
      </trkpt>
      <trkpt lat="49.36941" lon="1.51522">
        <ele>169.52017211914</ele>
        <time>2017-07-02T09:45:19.000Z</time>
      </trkpt>
      <trkpt lat="49.36937" lon="1.5153">
        <ele>169.55145263672</ele>
        <time>2017-07-02T09:45:22.000Z</time>
      </trkpt>
      <trkpt lat="49.36934" lon="1.51534">
        <ele>169.56494140625</ele>
        <time>2017-07-02T09:45:24.000Z</time>
      </trkpt>
      <trkpt lat="49.36929" lon="1.51541">
        <ele>169.55731201172</ele>
        <time>2017-07-02T09:45:27.000Z</time>
      </trkpt>
      <trkpt lat="49.36925" lon="1.51546">
        <ele>169.5345916748</ele>
        <time>2017-07-02T09:45:29.000Z</time>
      </trkpt>
      <trkpt lat="49.36922" lon="1.51551">
        <ele>169.49066162109</ele>
        <time>2017-07-02T09:45:33.000Z</time>
      </trkpt>
      <trkpt lat="49.36918" lon="1.51561">
        <ele>169.39175415039</ele>
        <time>2017-07-02T09:45:34.000Z</time>
      </trkpt>
      <trkpt lat="49.36915" lon="1.51566">
        <ele>169.25975036621</ele>
        <time>2017-07-02T09:45:36.000Z</time>
      </trkpt>
      <trkpt lat="49.3691" lon="1.51573">
        <ele>169.10925292969</ele>
        <time>2017-07-02T09:45:39.000Z</time>
      </trkpt>
      <trkpt lat="49.36905" lon="1.51577">
        <ele>168.95425415039</ele>
        <time>2017-07-02T09:45:41.000Z</time>
      </trkpt>
      <trkpt lat="49.36897" lon="1.51585">
        <ele>168.82258605957</ele>
        <time>2017-07-02T09:45:44.000Z</time>
      </trkpt>
      <trkpt lat="49.36892" lon="1.5159">
        <ele>168.78593444824</ele>
        <time>2017-07-02T09:45:46.000Z</time>
      </trkpt>
      <trkpt lat="49.36884" lon="1.51598">
        <ele>168.82528686523</ele>
        <time>2017-07-02T09:45:49.000Z</time>
      </trkpt>
      <trkpt lat="49.36876" lon="1.51607">
        <ele>168.91333007812</ele>
        <time>2017-07-02T09:45:52.000Z</time>
      </trkpt>
      <trkpt lat="49.36871" lon="1.51613">
        <ele>169.01525878906</ele>
        <time>2017-07-02T09:45:54.000Z</time>
      </trkpt>
      <trkpt lat="49.36865" lon="1.5162">
        <ele>169.11689758301</ele>
        <time>2017-07-02T09:45:57.000Z</time>
      </trkpt>
      <trkpt lat="49.3686" lon="1.51625">
        <ele>169.17683410645</ele>
        <time>2017-07-02T09:45:59.000Z</time>
      </trkpt>
      <trkpt lat="49.36853" lon="1.51633">
        <ele>169.17367553711</ele>
        <time>2017-07-02T09:46:02.000Z</time>
      </trkpt>
      <trkpt lat="49.36848" lon="1.51637">
        <ele>169.12837219238</ele>
        <time>2017-07-02T09:46:04.000Z</time>
      </trkpt>
      <trkpt lat="49.3684" lon="1.51645">
        <ele>169.04122924805</ele>
        <time>2017-07-02T09:46:07.000Z</time>
      </trkpt>
      <trkpt lat="49.36834" lon="1.51649">
        <ele>168.92758178711</ele>
        <time>2017-07-02T09:46:09.000Z</time>
      </trkpt>
      <trkpt lat="49.36825" lon="1.51654">
        <ele>168.72358703613</ele>
        <time>2017-07-02T09:46:12.000Z</time>
      </trkpt>
      <trkpt lat="49.36819" lon="1.51658">
        <ele>168.4720916748</ele>
        <time>2017-07-02T09:46:14.000Z</time>
      </trkpt>
      <trkpt lat="49.36814" lon="1.51661">
        <ele>168.17022705078</ele>
        <time>2017-07-02T09:46:16.000Z</time>
      </trkpt>
      <trkpt lat="49.36808" lon="1.51665">
        <ele>167.84555053711</ele>
        <time>2017-07-02T09:46:18.000Z</time>
      </trkpt>
      <trkpt lat="49.368" lon="1.51671">
        <ele>167.4649810791</ele>
        <time>2017-07-02T09:46:21.000Z</time>
      </trkpt>
      <trkpt lat="49.36794" lon="1.51674">
        <ele>167.13249206543</ele>
        <time>2017-07-02T09:46:23.000Z</time>
      </trkpt>
      <trkpt lat="49.36789" lon="1.51678">
        <ele>166.82246398926</ele>
        <time>2017-07-02T09:46:25.000Z</time>
      </trkpt>
      <trkpt lat="49.36783" lon="1.51682">
        <ele>166.53805541992</ele>
        <time>2017-07-02T09:46:27.000Z</time>
      </trkpt>
      <trkpt lat="49.36774" lon="1.51686">
        <ele>166.25535583496</ele>
        <time>2017-07-02T09:46:30.000Z</time>
      </trkpt>
      <trkpt lat="49.36769" lon="1.5169">
        <ele>166.02127075195</ele>
        <time>2017-07-02T09:46:32.000Z</time>
      </trkpt>
      <trkpt lat="49.36763" lon="1.51694">
        <ele>165.80030822754</ele>
        <time>2017-07-02T09:46:34.000Z</time>
      </trkpt>
      <trkpt lat="49.36755" lon="1.51699">
        <ele>165.5733795166</ele>
        <time>2017-07-02T09:46:37.000Z</time>
      </trkpt>
      <trkpt lat="49.36749" lon="1.51703">
        <ele>165.37129211426</ele>
        <time>2017-07-02T09:46:39.000Z</time>
      </trkpt>
      <trkpt lat="49.36741" lon="1.51708">
        <ele>165.30764770508</ele>
        <time>2017-07-02T09:46:42.000Z</time>
      </trkpt>
      <trkpt lat="49.36736" lon="1.5171">
        <ele>165.33493041992</ele>
        <time>2017-07-02T09:46:44.000Z</time>
      </trkpt>
      <trkpt lat="49.3673" lon="1.51714">
        <ele>165.44920349121</ele>
        <time>2017-07-02T09:46:46.000Z</time>
      </trkpt>
      <trkpt lat="49.36725" lon="1.51717">
        <ele>165.66015625</ele>
        <time>2017-07-02T09:46:48.000Z</time>
      </trkpt>
      <trkpt lat="49.36718" lon="1.51722">
        <ele>165.96484375</ele>
        <time>2017-07-02T09:46:51.000Z</time>
      </trkpt>
      <trkpt lat="49.36713" lon="1.51725">
        <ele>166.23828125</ele>
        <time>2017-07-02T09:46:53.000Z</time>
      </trkpt>
      <trkpt lat="49.36705" lon="1.51728">
        <ele>166.52734375</ele>
        <time>2017-07-02T09:46:56.000Z</time>
      </trkpt>
      <trkpt lat="49.367" lon="1.51731">
        <ele>166.81640625</ele>
        <time>2017-07-02T09:46:58.000Z</time>
      </trkpt>
      <trkpt lat="49.36695" lon="1.51735">
        <ele>167.109375</ele>
        <time>2017-07-02T09:47:00.000Z</time>
      </trkpt>
      <trkpt lat="49.3669" lon="1.51738">
        <ele>167.375</ele>
        <time>2017-07-02T09:47:02.000Z</time>
      </trkpt>
      <trkpt lat="49.36682" lon="1.51744">
        <ele>167.66796875</ele>
        <time>2017-07-02T09:47:05.000Z</time>
      </trkpt>
      <trkpt lat="49.36675" lon="1.51749">
        <ele>167.95703125</ele>
        <time>2017-07-02T09:47:08.000Z</time>
      </trkpt>
      <trkpt lat="49.36668" lon="1.51754">
        <ele>168.26962280273</ele>
        <time>2017-07-02T09:47:11.000Z</time>
      </trkpt>
      <trkpt lat="49.3666" lon="1.5176">
        <ele>168.55290222168</ele>
        <time>2017-07-02T09:47:14.000Z</time>
      </trkpt>
      <trkpt lat="49.36652" lon="1.51765">
        <ele>168.80358886719</ele>
        <time>2017-07-02T09:47:17.000Z</time>
      </trkpt>
      <trkpt lat="49.36645" lon="1.5177">
        <ele>168.99200439453</ele>
        <time>2017-07-02T09:47:20.000Z</time>
      </trkpt>
      <trkpt lat="49.36638" lon="1.51775">
        <ele>169.12274169922</ele>
        <time>2017-07-02T09:47:23.000Z</time>
      </trkpt>
      <trkpt lat="49.36633" lon="1.51777">
        <ele>169.18489074707</ele>
        <time>2017-07-02T09:47:25.000Z</time>
      </trkpt>
      <trkpt lat="49.36625" lon="1.51783">
        <ele>169.23173522949</ele>
        <time>2017-07-02T09:47:28.000Z</time>
      </trkpt>
      <trkpt lat="49.3662" lon="1.51786">
        <ele>169.26742553711</ele>
        <time>2017-07-02T09:47:30.000Z</time>
      </trkpt>
      <trkpt lat="49.36612" lon="1.51791">
        <ele>169.29385375977</ele>
        <time>2017-07-02T09:47:33.000Z</time>
      </trkpt>
      <trkpt lat="49.36606" lon="1.51795">
        <ele>169.31172180176</ele>
        <time>2017-07-02T09:47:35.000Z</time>
      </trkpt>
      <trkpt lat="49.36599" lon="1.518">
        <ele>169.32229614258</ele>
        <time>2017-07-02T09:47:38.000Z</time>
      </trkpt>
      <trkpt lat="49.3659" lon="1.51805">
        <ele>169.32504272461</ele>
        <time>2017-07-02T09:47:41.000Z</time>
      </trkpt>
      <trkpt lat="49.36583" lon="1.51809">
        <ele>169.3187713623</ele>
        <time>2017-07-02T09:47:44.000Z</time>
      </trkpt>
      <trkpt lat="49.36575" lon="1.51814">
        <ele>169.29336547852</ele>
        <time>2017-07-02T09:47:47.000Z</time>
      </trkpt>
      <trkpt lat="49.36567" lon="1.5182">
        <ele>169.25193786621</ele>
        <time>2017-07-02T09:47:50.000Z</time>
      </trkpt>
      <trkpt lat="49.36561" lon="1.51825">
        <ele>169.20108032227</ele>
        <time>2017-07-02T09:47:52.000Z</time>
      </trkpt>
      <trkpt lat="49.36555" lon="1.5183">
        <ele>169.14236450195</ele>
        <time>2017-07-02T09:47:54.000Z</time>
      </trkpt>
      <trkpt lat="49.36545" lon="1.51839">
        <ele>169.07888793945</ele>
        <time>2017-07-02T09:47:57.000Z</time>
      </trkpt>
      <trkpt lat="49.36534" lon="1.51848">
        <ele>169.01663208008</ele>
        <time>2017-07-02T09:48:00.000Z</time>
      </trkpt>
      <trkpt lat="49.36527" lon="1.51855">
        <ele>168.95602416992</ele>
        <time>2017-07-02T09:48:02.000Z</time>
      </trkpt>
      <trkpt lat="49.3652" lon="1.51863">
        <ele>168.88790893555</ele>
        <time>2017-07-02T09:48:04.000Z</time>
      </trkpt>
      <trkpt lat="49.3651" lon="1.51876">
        <ele>168.79309082031</ele>
        <time>2017-07-02T09:48:07.000Z</time>
      </trkpt>
      <trkpt lat="49.36504" lon="1.51884">
        <ele>168.68241882324</ele>
        <time>2017-07-02T09:48:09.000Z</time>
      </trkpt>
      <trkpt lat="49.36498" lon="1.51893">
        <ele>168.56890869141</ele>
        <time>2017-07-02T09:48:11.000Z</time>
      </trkpt>
      <trkpt lat="49.36489" lon="1.51906">
        <ele>168.47692871094</ele>
        <time>2017-07-02T09:48:14.000Z</time>
      </trkpt>
      <trkpt lat="49.36479" lon="1.5192">
        <ele>168.4196472168</ele>
        <time>2017-07-02T09:48:17.000Z</time>
      </trkpt>
      <trkpt lat="49.36472" lon="1.5193">
        <ele>168.39213562012</ele>
        <time>2017-07-02T09:48:19.000Z</time>
      </trkpt>
      <trkpt lat="49.36465" lon="1.5194">
        <ele>168.38664245605</ele>
        <time>2017-07-02T09:48:21.000Z</time>
      </trkpt>
      <trkpt lat="49.36456" lon="1.51953">
        <ele>168.40588378906</ele>
        <time>2017-07-02T09:48:24.000Z</time>
      </trkpt>
      <trkpt lat="49.36449" lon="1.51962">
        <ele>168.42562866211</ele>
        <time>2017-07-02T09:48:26.000Z</time>
      </trkpt>
      <trkpt lat="49.36443" lon="1.51971">
        <ele>168.43905639648</ele>
        <time>2017-07-02T09:48:28.000Z</time>
      </trkpt>
      <trkpt lat="49.36433" lon="1.51985">
        <ele>168.47915649414</ele>
        <time>2017-07-02T09:48:31.000Z</time>
      </trkpt>
      <trkpt lat="49.36423" lon="1.51997">
        <ele>168.56350708008</ele>
        <time>2017-07-02T09:48:35.000Z</time>
      </trkpt>
      <trkpt lat="49.36414" lon="1.52011">
        <ele>168.63705444336</ele>
        <time>2017-07-02T09:48:37.000Z</time>
      </trkpt>
      <trkpt lat="49.36407" lon="1.52025">
        <ele>168.66728210449</ele>
        <time>2017-07-02T09:48:40.000Z</time>
      </trkpt>
      <trkpt lat="49.36401" lon="1.52033">
        <ele>168.66496276855</ele>
        <time>2017-07-02T09:48:42.000Z</time>
      </trkpt>
      <trkpt lat="49.36392" lon="1.52046">
        <ele>168.60848999023</ele>
        <time>2017-07-02T09:48:45.000Z</time>
      </trkpt>
      <trkpt lat="49.36385" lon="1.52051">
        <ele>168.50346374512</ele>
        <time>2017-07-02T09:48:47.000Z</time>
      </trkpt>
      <trkpt lat="49.36374" lon="1.52058">
        <ele>168.40425109863</ele>
        <time>2017-07-02T09:48:50.000Z</time>
      </trkpt>
      <trkpt lat="49.36363" lon="1.52065">
        <ele>168.33084106445</ele>
        <time>2017-07-02T09:48:53.000Z</time>
      </trkpt>
      <trkpt lat="49.36355" lon="1.52069">
        <ele>168.27024841309</ele>
        <time>2017-07-02T09:48:55.000Z</time>
      </trkpt>
      <trkpt lat="49.36346" lon="1.52074">
        <ele>168.23820495605</ele>
        <time>2017-07-02T09:48:57.000Z</time>
      </trkpt>
      <trkpt lat="49.36334" lon="1.52084">
        <ele>168.17893981934</ele>
        <time>2017-07-02T09:49:00.000Z</time>
      </trkpt>
      <trkpt lat="49.36326" lon="1.52091">
        <ele>168.11930847168</ele>
        <time>2017-07-02T09:49:02.000Z</time>
      </trkpt>
      <trkpt lat="49.36312" lon="1.521">
        <ele>168.07086181641</ele>
        <time>2017-07-02T09:49:05.000Z</time>
      </trkpt>
      <trkpt lat="49.36298" lon="1.52109">
        <ele>168.02932739258</ele>
        <time>2017-07-02T09:49:08.000Z</time>
      </trkpt>
      <trkpt lat="49.36284" lon="1.52117">
        <ele>167.98629760742</ele>
        <time>2017-07-02T09:49:11.000Z</time>
      </trkpt>
      <trkpt lat="49.3627" lon="1.52124">
        <ele>167.96723937988</ele>
        <time>2017-07-02T09:49:14.000Z</time>
      </trkpt>
      <trkpt lat="49.3626" lon="1.5213">
        <ele>167.93185424805</ele>
        <time>2017-07-02T09:49:16.000Z</time>
      </trkpt>
      <trkpt lat="49.36251" lon="1.52136">
        <ele>167.87655639648</ele>
        <time>2017-07-02T09:49:18.000Z</time>
      </trkpt>
      <trkpt lat="49.36242" lon="1.52141">
        <ele>167.80964660645</ele>
        <time>2017-07-02T09:49:20.000Z</time>
      </trkpt>
      <trkpt lat="49.36234" lon="1.52146">
        <ele>167.73829650879</ele>
        <time>2017-07-02T09:49:22.000Z</time>
      </trkpt>
      <trkpt lat="49.36221" lon="1.52155">
        <ele>167.66604614258</ele>
        <time>2017-07-02T09:49:25.000Z</time>
      </trkpt>
      <trkpt lat="49.36211" lon="1.52161">
        <ele>167.61056518555</ele>
        <time>2017-07-02T09:49:27.000Z</time>
      </trkpt>
      <trkpt lat="49.36197" lon="1.52169">
        <ele>167.59066772461</ele>
        <time>2017-07-02T09:49:30.000Z</time>
      </trkpt>
      <trkpt lat="49.36187" lon="1.52175">
        <ele>167.60726928711</ele>
        <time>2017-07-02T09:49:32.000Z</time>
      </trkpt>
      <trkpt lat="49.36177" lon="1.52181">
        <ele>167.65933227539</ele>
        <time>2017-07-02T09:49:34.000Z</time>
      </trkpt>
      <trkpt lat="49.36162" lon="1.52191">
        <ele>167.73405456543</ele>
        <time>2017-07-02T09:49:37.000Z</time>
      </trkpt>
      <trkpt lat="49.36152" lon="1.52197">
        <ele>167.76303100586</ele>
        <time>2017-07-02T09:49:39.000Z</time>
      </trkpt>
      <trkpt lat="49.3614" lon="1.52203">
        <ele>167.71977233887</ele>
        <time>2017-07-02T09:49:41.000Z</time>
      </trkpt>
      <trkpt lat="49.36124" lon="1.52213">
        <ele>167.55471801758</ele>
        <time>2017-07-02T09:49:44.000Z</time>
      </trkpt>
      <trkpt lat="49.36113" lon="1.5222">
        <ele>167.28988647461</ele>
        <time>2017-07-02T09:49:46.000Z</time>
      </trkpt>
      <trkpt lat="49.36097" lon="1.52231">
        <ele>166.8791809082</ele>
        <time>2017-07-02T09:49:49.000Z</time>
      </trkpt>
      <trkpt lat="49.36079" lon="1.52242">
        <ele>166.3796081543</ele>
        <time>2017-07-02T09:49:52.000Z</time>
      </trkpt>
      <trkpt lat="49.36068" lon="1.52249">
        <ele>165.90231323242</ele>
        <time>2017-07-02T09:49:54.000Z</time>
      </trkpt>
      <trkpt lat="49.36051" lon="1.52259">
        <ele>165.50271606445</ele>
        <time>2017-07-02T09:49:57.000Z</time>
      </trkpt>
      <trkpt lat="49.36034" lon="1.52269">
        <ele>165.14196777344</ele>
        <time>2017-07-02T09:50:00.000Z</time>
      </trkpt>
      <trkpt lat="49.36022" lon="1.52276">
        <ele>164.87911987305</ele>
        <time>2017-07-02T09:50:02.000Z</time>
      </trkpt>
      <trkpt lat="49.36009" lon="1.52282">
        <ele>164.70547485352</ele>
        <time>2017-07-02T09:50:04.000Z</time>
      </trkpt>
      <trkpt lat="49.35993" lon="1.52291">
        <ele>164.47106933594</ele>
        <time>2017-07-02T09:50:07.000Z</time>
      </trkpt>
      <trkpt lat="49.35981" lon="1.52295">
        <ele>164.18550109863</ele>
        <time>2017-07-02T09:50:09.000Z</time>
      </trkpt>
      <trkpt lat="49.35968" lon="1.523">
        <ele>163.86245727539</ele>
        <time>2017-07-02T09:50:11.000Z</time>
      </trkpt>
      <trkpt lat="49.3595" lon="1.52309">
        <ele>163.48129272461</ele>
        <time>2017-07-02T09:50:14.000Z</time>
      </trkpt>
      <trkpt lat="49.3593" lon="1.52318">
        <ele>163.06192016602</ele>
        <time>2017-07-02T09:50:17.000Z</time>
      </trkpt>
      <trkpt lat="49.3591" lon="1.5233">
        <ele>162.66052246094</ele>
        <time>2017-07-02T09:50:20.000Z</time>
      </trkpt>
      <trkpt lat="49.35896" lon="1.52339">
        <ele>162.25547790527</ele>
        <time>2017-07-02T09:50:22.000Z</time>
      </trkpt>
      <trkpt lat="49.35872" lon="1.52355">
        <ele>161.82327270508</ele>
        <time>2017-07-02T09:50:25.000Z</time>
      </trkpt>
      <trkpt lat="49.35856" lon="1.52366">
        <ele>161.44046020508</ele>
        <time>2017-07-02T09:50:27.000Z</time>
      </trkpt>
      <trkpt lat="49.35831" lon="1.52378">
        <ele>161.0871887207</ele>
        <time>2017-07-02T09:50:30.000Z</time>
      </trkpt>
      <trkpt lat="49.35815" lon="1.52385">
        <ele>160.72355651855</ele>
        <time>2017-07-02T09:50:32.000Z</time>
      </trkpt>
      <trkpt lat="49.35791" lon="1.52402">
        <ele>160.31169128418</ele>
        <time>2017-07-02T09:50:35.000Z</time>
      </trkpt>
      <trkpt lat="49.35772" lon="1.52418">
        <ele>159.87265014648</ele>
        <time>2017-07-02T09:50:38.000Z</time>
      </trkpt>
      <trkpt lat="49.3575" lon="1.5243">
        <ele>159.29977416992</ele>
        <time>2017-07-02T09:50:41.000Z</time>
      </trkpt>
      <trkpt lat="49.35728" lon="1.52444">
        <ele>158.60208129883</ele>
        <time>2017-07-02T09:50:44.000Z</time>
      </trkpt>
      <trkpt lat="49.3571" lon="1.52452">
        <ele>157.86474609375</ele>
        <time>2017-07-02T09:50:46.000Z</time>
      </trkpt>
      <trkpt lat="49.35684" lon="1.52465">
        <ele>157.08520507812</ele>
        <time>2017-07-02T09:50:49.000Z</time>
      </trkpt>
      <trkpt lat="49.35664" lon="1.52474">
        <ele>156.31045532227</ele>
        <time>2017-07-02T09:50:51.000Z</time>
      </trkpt>
      <trkpt lat="49.35648" lon="1.52487">
        <ele>155.56903076172</ele>
        <time>2017-07-02T09:50:53.000Z</time>
      </trkpt>
      <trkpt lat="49.35624" lon="1.52509">
        <ele>154.74612426758</ele>
        <time>2017-07-02T09:50:56.000Z</time>
      </trkpt>
      <trkpt lat="49.356" lon="1.52533">
        <ele>153.75361633301</ele>
        <time>2017-07-02T09:50:59.000Z</time>
      </trkpt>
      <trkpt lat="49.35569" lon="1.52556">
        <ele>152.61680603027</ele>
        <time>2017-07-02T09:51:02.000Z</time>
      </trkpt>
      <trkpt lat="49.35548" lon="1.52574">
        <ele>151.4066619873</ele>
        <time>2017-07-02T09:51:05.000Z</time>
      </trkpt>
      <trkpt lat="49.35515" lon="1.52582">
        <ele>150.08554077148</ele>
        <time>2017-07-02T09:51:08.000Z</time>
      </trkpt>
      <trkpt lat="49.35505" lon="1.52592">
        <ele>148.93083190918</ele>
        <time>2017-07-02T09:51:10.000Z</time>
      </trkpt>
      <trkpt lat="49.35481" lon="1.52607">
        <ele>147.90719604492</ele>
        <time>2017-07-02T09:51:13.000Z</time>
      </trkpt>
      <trkpt lat="49.35456" lon="1.52619">
        <ele>147.04528808594</ele>
        <time>2017-07-02T09:51:16.000Z</time>
      </trkpt>
      <trkpt lat="49.35428" lon="1.52632">
        <ele>146.21664428711</ele>
        <time>2017-07-02T09:51:19.000Z</time>
      </trkpt>
      <trkpt lat="49.3541" lon="1.52641">
        <ele>145.52146911621</ele>
        <time>2017-07-02T09:51:21.000Z</time>
      </trkpt>
      <trkpt lat="49.35382" lon="1.52653">
        <ele>144.70278930664</ele>
        <time>2017-07-02T09:51:24.000Z</time>
      </trkpt>
      <trkpt lat="49.35365" lon="1.52664">
        <ele>143.89041137695</ele>
        <time>2017-07-02T09:51:26.000Z</time>
      </trkpt>
      <trkpt lat="49.35337" lon="1.52677">
        <ele>142.96792602539</ele>
        <time>2017-07-02T09:51:29.000Z</time>
      </trkpt>
      <trkpt lat="49.35308" lon="1.5269">
        <ele>141.93069458008</ele>
        <time>2017-07-02T09:51:32.000Z</time>
      </trkpt>
      <trkpt lat="49.35291" lon="1.527">
        <ele>140.8500213623</ele>
        <time>2017-07-02T09:51:34.000Z</time>
      </trkpt>
      <trkpt lat="49.35272" lon="1.52709">
        <ele>139.81155395508</ele>
        <time>2017-07-02T09:51:36.000Z</time>
      </trkpt>
      <trkpt lat="49.35247" lon="1.52723">
        <ele>138.70140075684</ele>
        <time>2017-07-02T09:51:39.000Z</time>
      </trkpt>
      <trkpt lat="49.35226" lon="1.5274">
        <ele>137.77206420898</ele>
        <time>2017-07-02T09:51:42.000Z</time>
      </trkpt>
      <trkpt lat="49.35204" lon="1.52755">
        <ele>137.06454467773</ele>
        <time>2017-07-02T09:51:45.000Z</time>
      </trkpt>
      <trkpt lat="49.35187" lon="1.52762">
        <ele>136.51066589355</ele>
        <time>2017-07-02T09:51:47.000Z</time>
      </trkpt>
      <trkpt lat="49.35172" lon="1.52774">
        <ele>136.09797668457</ele>
        <time>2017-07-02T09:51:49.000Z</time>
      </trkpt>
      <trkpt lat="49.3515" lon="1.52784">
        <ele>135.92866516113</ele>
        <time>2017-07-02T09:51:52.000Z</time>
      </trkpt>
      <trkpt lat="49.35126" lon="1.52796">
        <ele>135.86518859863</ele>
        <time>2017-07-02T09:51:55.000Z</time>
      </trkpt>
      <trkpt lat="49.35103" lon="1.52809">
        <ele>135.88188171387</ele>
        <time>2017-07-02T09:51:58.000Z</time>
      </trkpt>
      <trkpt lat="49.35089" lon="1.52818">
        <ele>135.92520141602</ele>
        <time>2017-07-02T09:52:00.000Z</time>
      </trkpt>
      <trkpt lat="49.35068" lon="1.52839">
        <ele>136.03923034668</ele>
        <time>2017-07-02T09:52:03.000Z</time>
      </trkpt>
      <trkpt lat="49.35043" lon="1.52854">
        <ele>136.19918823242</ele>
        <time>2017-07-02T09:52:06.000Z</time>
      </trkpt>
      <trkpt lat="49.3503" lon="1.52863">
        <ele>136.34823608398</ele>
        <time>2017-07-02T09:52:08.000Z</time>
      </trkpt>
      <trkpt lat="49.35011" lon="1.52884">
        <ele>136.45671081543</ele>
        <time>2017-07-02T09:52:11.000Z</time>
      </trkpt>
      <trkpt lat="49.34996" lon="1.52901">
        <ele>136.50402832031</ele>
        <time>2017-07-02T09:52:14.000Z</time>
      </trkpt>
      <trkpt lat="49.34987" lon="1.52925">
        <ele>136.35343933105</ele>
        <time>2017-07-02T09:52:17.000Z</time>
      </trkpt>
      <trkpt lat="49.34983" lon="1.52942">
        <ele>136.02142333984</ele>
        <time>2017-07-02T09:52:19.000Z</time>
      </trkpt>
      <trkpt lat="49.34978" lon="1.52967">
        <ele>135.50323486328</ele>
        <time>2017-07-02T09:52:22.000Z</time>
      </trkpt>
      <trkpt lat="49.34972" lon="1.52994">
        <ele>134.82038879395</ele>
        <time>2017-07-02T09:52:25.000Z</time>
      </trkpt>
      <trkpt lat="49.34965" lon="1.53016">
        <ele>134.03645324707</ele>
        <time>2017-07-02T09:52:27.000Z</time>
      </trkpt>
      <trkpt lat="49.34957" lon="1.53038">
        <ele>133.2526550293</ele>
        <time>2017-07-02T09:52:29.000Z</time>
      </trkpt>
      <trkpt lat="49.34945" lon="1.53068">
        <ele>132.37149047852</ele>
        <time>2017-07-02T09:52:32.000Z</time>
      </trkpt>
      <trkpt lat="49.34933" lon="1.53098">
        <ele>131.4787902832</ele>
        <time>2017-07-02T09:52:35.000Z</time>
      </trkpt>
      <trkpt lat="49.34919" lon="1.53125">
        <ele>130.63973999023</ele>
        <time>2017-07-02T09:52:38.000Z</time>
      </trkpt>
      <trkpt lat="49.34908" lon="1.5315">
        <ele>129.86943054199</ele>
        <time>2017-07-02T09:52:42.000Z</time>
      </trkpt>
      <trkpt lat="49.34899" lon="1.53163">
        <ele>129.24423217773</ele>
        <time>2017-07-02T09:52:43.000Z</time>
      </trkpt>
      <trkpt lat="49.34885" lon="1.53177">
        <ele>128.86437988281</ele>
        <time>2017-07-02T09:52:46.000Z</time>
      </trkpt>
      <trkpt lat="49.34873" lon="1.5319">
        <ele>128.69580078125</ele>
        <time>2017-07-02T09:52:49.000Z</time>
      </trkpt>
      <trkpt lat="49.3486" lon="1.53203">
        <ele>128.68359375</ele>
        <time>2017-07-02T09:52:52.000Z</time>
      </trkpt>
      <trkpt lat="49.34849" lon="1.53214">
        <ele>128.77993774414</ele>
        <time>2017-07-02T09:52:55.000Z</time>
      </trkpt>
      <trkpt lat="49.34838" lon="1.53225">
        <ele>128.91442871094</ele>
        <time>2017-07-02T09:52:58.000Z</time>
      </trkpt>
      <trkpt lat="49.34831" lon="1.53233">
        <ele>129.02883911133</ele>
        <time>2017-07-02T09:53:00.000Z</time>
      </trkpt>
      <trkpt lat="49.34824" lon="1.53242">
        <ele>129.09468078613</ele>
        <time>2017-07-02T09:53:02.000Z</time>
      </trkpt>
      <trkpt lat="49.34814" lon="1.53255">
        <ele>129.09452819824</ele>
        <time>2017-07-02T09:53:05.000Z</time>
      </trkpt>
      <trkpt lat="49.34807" lon="1.53266">
        <ele>129.03337097168</ele>
        <time>2017-07-02T09:53:07.000Z</time>
      </trkpt>
      <trkpt lat="49.34797" lon="1.53283">
        <ele>128.88391113281</ele>
        <time>2017-07-02T09:53:10.000Z</time>
      </trkpt>
      <trkpt lat="49.34791" lon="1.53294">
        <ele>128.68222045898</ele>
        <time>2017-07-02T09:53:13.000Z</time>
      </trkpt>
      <trkpt lat="49.34785" lon="1.53312">
        <ele>128.42471313477</ele>
        <time>2017-07-02T09:53:15.000Z</time>
      </trkpt>
      <trkpt lat="49.3478" lon="1.53325">
        <ele>128.14436340332</ele>
        <time>2017-07-02T09:53:17.000Z</time>
      </trkpt>
      <trkpt lat="49.34768" lon="1.53346">
        <ele>127.73973083496</ele>
        <time>2017-07-02T09:53:20.000Z</time>
      </trkpt>
      <trkpt lat="49.34757" lon="1.53358">
        <ele>127.28582763672</ele>
        <time>2017-07-02T09:53:22.000Z</time>
      </trkpt>
      <trkpt lat="49.34742" lon="1.5337">
        <ele>126.73811340332</ele>
        <time>2017-07-02T09:53:24.000Z</time>
      </trkpt>
      <trkpt lat="49.34721" lon="1.53386">
        <ele>126.07663726807</ele>
        <time>2017-07-02T09:53:27.000Z</time>
      </trkpt>
      <trkpt lat="49.34707" lon="1.53396">
        <ele>125.3669052124</ele>
        <time>2017-07-02T09:53:29.000Z</time>
      </trkpt>
      <trkpt lat="49.34688" lon="1.53414">
        <ele>124.68309020996</ele>
        <time>2017-07-02T09:53:32.000Z</time>
      </trkpt>
      <trkpt lat="49.34676" lon="1.53426">
        <ele>124.05030822754</ele>
        <time>2017-07-02T09:53:34.000Z</time>
      </trkpt>
      <trkpt lat="49.34659" lon="1.53443">
        <ele>123.45764160156</ele>
        <time>2017-07-02T09:53:37.000Z</time>
      </trkpt>
      <trkpt lat="49.34648" lon="1.53456">
        <ele>122.96832275391</ele>
        <time>2017-07-02T09:53:39.000Z</time>
      </trkpt>
      <trkpt lat="49.34631" lon="1.53475">
        <ele>122.4631729126</ele>
        <time>2017-07-02T09:53:42.000Z</time>
      </trkpt>
      <trkpt lat="49.3462" lon="1.53488">
        <ele>122.00559997559</ele>
        <time>2017-07-02T09:53:44.000Z</time>
      </trkpt>
      <trkpt lat="49.34603" lon="1.53509">
        <ele>121.47647857666</ele>
        <time>2017-07-02T09:53:47.000Z</time>
      </trkpt>
      <trkpt lat="49.34587" lon="1.53529">
        <ele>120.92478942871</ele>
        <time>2017-07-02T09:53:50.000Z</time>
      </trkpt>
      <trkpt lat="49.34571" lon="1.53548">
        <ele>120.36694335938</ele>
        <time>2017-07-02T09:53:53.000Z</time>
      </trkpt>
      <trkpt lat="49.34562" lon="1.5356">
        <ele>119.88102722168</ele>
        <time>2017-07-02T09:53:55.000Z</time>
      </trkpt>
      <trkpt lat="49.34552" lon="1.53574">
        <ele>119.42470550537</ele>
        <time>2017-07-02T09:53:57.000Z</time>
      </trkpt>
      <trkpt lat="49.34537" lon="1.53589">
        <ele>119.01460266113</ele>
        <time>2017-07-02T09:54:00.000Z</time>
      </trkpt>
      <trkpt lat="49.34526" lon="1.53601">
        <ele>118.64433288574</ele>
        <time>2017-07-02T09:54:02.000Z</time>
      </trkpt>
      <trkpt lat="49.3451" lon="1.53613">
        <ele>118.27006530762</ele>
        <time>2017-07-02T09:54:05.000Z</time>
      </trkpt>
      <trkpt lat="49.34497" lon="1.53619">
        <ele>117.88279724121</ele>
        <time>2017-07-02T09:54:07.000Z</time>
      </trkpt>
      <trkpt lat="49.34484" lon="1.53621">
        <ele>117.49481201172</ele>
        <time>2017-07-02T09:54:09.000Z</time>
      </trkpt>
      <trkpt lat="49.34461" lon="1.53623">
        <ele>117.10019683838</ele>
        <time>2017-07-02T09:54:12.000Z</time>
      </trkpt>
      <trkpt lat="49.34439" lon="1.53617">
        <ele>116.72845458984</ele>
        <time>2017-07-02T09:54:15.000Z</time>
      </trkpt>
      <trkpt lat="49.34425" lon="1.53613">
        <ele>116.40840148926</ele>
        <time>2017-07-02T09:54:17.000Z</time>
      </trkpt>
      <trkpt lat="49.34402" lon="1.53608">
        <ele>116.06259918213</ele>
        <time>2017-07-02T09:54:20.000Z</time>
      </trkpt>
      <trkpt lat="49.34391" lon="1.53604">
        <ele>115.72646331787</ele>
        <time>2017-07-02T09:54:22.000Z</time>
      </trkpt>
      <trkpt lat="49.34373" lon="1.53603">
        <ele>115.40212249756</ele>
        <time>2017-07-02T09:54:25.000Z</time>
      </trkpt>
      <trkpt lat="49.34361" lon="1.53601">
        <ele>115.08772277832</ele>
        <time>2017-07-02T09:54:27.000Z</time>
      </trkpt>
      <trkpt lat="49.34349" lon="1.53597">
        <ele>114.76613616943</ele>
        <time>2017-07-02T09:54:29.000Z</time>
      </trkpt>
      <trkpt lat="49.34335" lon="1.53594">
        <ele>114.47814941406</ele>
        <time>2017-07-02T09:54:31.000Z</time>
      </trkpt>
      <trkpt lat="49.34317" lon="1.53588">
        <ele>114.20127868652</ele>
        <time>2017-07-02T09:54:34.000Z</time>
      </trkpt>
      <trkpt lat="49.343" lon="1.53583">
        <ele>113.98331451416</ele>
        <time>2017-07-02T09:54:37.000Z</time>
      </trkpt>
      <trkpt lat="49.34281" lon="1.53578">
        <ele>113.79709625244</ele>
        <time>2017-07-02T09:54:40.000Z</time>
      </trkpt>
      <trkpt lat="49.34269" lon="1.53575">
        <ele>113.65167236328</ele>
        <time>2017-07-02T09:54:42.000Z</time>
      </trkpt>
      <trkpt lat="49.34256" lon="1.53575">
        <ele>113.54093933105</ele>
        <time>2017-07-02T09:54:44.000Z</time>
      </trkpt>
      <trkpt lat="49.34236" lon="1.53576">
        <ele>113.40755462646</ele>
        <time>2017-07-02T09:54:47.000Z</time>
      </trkpt>
      <trkpt lat="49.34226" lon="1.53579">
        <ele>113.25301361084</ele>
        <time>2017-07-02T09:54:49.000Z</time>
      </trkpt>
      <trkpt lat="49.34214" lon="1.53583">
        <ele>113.06498718262</ele>
        <time>2017-07-02T09:54:51.000Z</time>
      </trkpt>
      <trkpt lat="49.34206" lon="1.53587">
        <ele>112.85075378418</ele>
        <time>2017-07-02T09:54:54.000Z</time>
      </trkpt>
      <trkpt lat="49.342" lon="1.53587">
        <ele>112.64831542969</ele>
        <time>2017-07-02T09:54:57.000Z</time>
      </trkpt>
      <trkpt lat="49.34198" lon="1.5358">
        <ele>112.52825927734</ele>
        <time>2017-07-02T09:55:00.000Z</time>
      </trkpt>
      <trkpt lat="49.34197" lon="1.53572">
        <ele>112.49471282959</ele>
        <time>2017-07-02T09:55:02.000Z</time>
      </trkpt>
      <trkpt lat="49.34195" lon="1.53567">
        <ele>112.53668212891</ele>
        <time>2017-07-02T09:55:04.000Z</time>
      </trkpt>
      <trkpt lat="49.34192" lon="1.53563">
        <ele>112.63221740723</ele>
        <time>2017-07-02T09:55:06.000Z</time>
      </trkpt>
      <trkpt lat="49.34189" lon="1.53557">
        <ele>112.75649261475</ele>
        <time>2017-07-02T09:55:09.000Z</time>
      </trkpt>
      <trkpt lat="49.34189" lon="1.53557">
        <ele>112.75649261475</ele>
        <time>2017-07-02T09:55:29.000Z</time>
      </trkpt>
      <trkpt lat="49.34189" lon="1.53556">
        <ele>112.86669921875</ele>
        <time>2017-07-02T09:55:47.000Z</time>
      </trkpt>
      <trkpt lat="49.34188" lon="1.53555">
        <ele>112.93342590332</ele>
        <time>2017-07-02T09:55:50.000Z</time>
      </trkpt>
      <trkpt lat="49.34187" lon="1.53554">
        <ele>112.98313140869</ele>
        <time>2017-07-02T09:55:53.000Z</time>
      </trkpt>
      <trkpt lat="49.34188" lon="1.53553">
        <ele>113.02714538574</ele>
        <time>2017-07-02T09:55:56.000Z</time>
      </trkpt>
      <trkpt lat="49.34188" lon="1.53553">
        <ele>113.02714538574</ele>
        <time>2017-07-02T09:56:16.000Z</time>
      </trkpt>
      <trkpt lat="49.34189" lon="1.53551">
        <ele>113.06294250488</ele>
        <time>2017-07-02T09:56:18.000Z</time>
      </trkpt>
      <trkpt lat="49.3419" lon="1.53549">
        <ele>113.10632324219</ele>
        <time>2017-07-02T09:56:23.000Z</time>
      </trkpt>
      <trkpt lat="49.3419" lon="1.53546">
        <ele>113.16149902344</ele>
        <time>2017-07-02T09:56:33.000Z</time>
      </trkpt>
      <trkpt lat="49.34189" lon="1.53548">
        <ele>113.19821929932</ele>
        <time>2017-07-02T09:56:38.000Z</time>
      </trkpt>
      <trkpt lat="49.34188" lon="1.5355">
        <ele>113.21368408203</ele>
        <time>2017-07-02T09:56:43.000Z</time>
      </trkpt>
      <trkpt lat="49.34188" lon="1.53551">
        <ele>113.2121963501</ele>
        <time>2017-07-02T09:56:53.000Z</time>
      </trkpt>
      <trkpt lat="49.34187" lon="1.53552">
        <ele>113.18202972412</ele>
        <time>2017-07-02T09:57:05.000Z</time>
      </trkpt>
      <trkpt lat="49.34185" lon="1.53554">
        <ele>113.12361907959</ele>
        <time>2017-07-02T09:57:08.000Z</time>
      </trkpt>
      <trkpt lat="49.34183" lon="1.53552">
        <ele>113.08081054688</ele>
        <time>2017-07-02T09:57:11.000Z</time>
      </trkpt>
      <trkpt lat="49.34184" lon="1.5355">
        <ele>113.06517028809</ele>
        <time>2017-07-02T09:57:13.000Z</time>
      </trkpt>
      <trkpt lat="49.34186" lon="1.53549">
        <ele>113.0691986084</ele>
        <time>2017-07-02T09:57:16.000Z</time>
      </trkpt>
      <trkpt lat="49.34185" lon="1.53548">
        <ele>113.08095550537</ele>
        <time>2017-07-02T09:57:19.000Z</time>
      </trkpt>
      <trkpt lat="49.34184" lon="1.53546">
        <ele>113.12088775635</ele>
        <time>2017-07-02T09:57:21.000Z</time>
      </trkpt>
      <trkpt lat="49.34185" lon="1.53545">
        <ele>113.16255187988</ele>
        <time>2017-07-02T09:57:25.000Z</time>
      </trkpt>
      <trkpt lat="49.34186" lon="1.53547">
        <ele>113.18450927734</ele>
        <time>2017-07-02T09:57:29.000Z</time>
      </trkpt>
      <trkpt lat="49.34186" lon="1.53547">
        <ele>113.18450927734</ele>
        <time>2017-07-02T09:57:37.000Z</time>
      </trkpt>
    </trkseg>
  </trk>
</gpx>